<?xml version='1.0' encoding='UTF-8'?><gpx version="1.1" creator="JPX - https://github.com/jenetics/jpx" xmlns="http://www.topografix.com/GPX/1/1"><trk><trkseg><trkpt lat="43.4222604" lon="11.1813616"><ele>170.0</ele><time>2026-04-29T14:31:54.366Z</time></trkpt><trkpt lat="43.4221765" lon="11.181357"><ele>170.0</ele><time>2026-04-29T14:31:57.356Z</time></trkpt><trkpt lat="43.4221132" lon="11.1813233"><ele>170.0</ele><time>2026-04-29T14:32:01.381Z</time></trkpt><trkpt lat="43.4220664" lon="11.181247"><ele>170.0</ele><time>2026-04-29T14:32:13.377Z</time></trkpt><trkpt lat="43.4220092" lon="11.181195"><ele>170.0</ele><time>2026-04-29T14:32:21.38Z</time></trkpt><trkpt lat="43.4220716" lon="11.1812273"><ele>170.0</ele><time>2026-04-29T14:33:22.378Z</time></trkpt><trkpt lat="43.4221443" lon="11.1812426"><ele>170.0</ele><time>2026-04-29T14:33:32.39Z</time></trkpt><trkpt lat="43.4222092" lon="11.181252"><ele>170.0</ele><time>2026-04-29T14:33:36.37Z</time></trkpt><trkpt lat="43.4222714" lon="11.1812982"><ele>170.0</ele><time>2026-04-29T14:33:42.378Z</time></trkpt><trkpt lat="43.422286" lon="11.1814017"><ele>170.0</ele><time>2026-04-29T14:33:45.371Z</time></trkpt><trkpt lat="43.4223041" lon="11.1814939"><ele>170.0</ele><time>2026-04-29T14:33:47.378Z</time></trkpt><trkpt lat="43.4223264" lon="11.1816001"><ele>170.0</ele><time>2026-04-29T14:33:49.386Z</time></trkpt><trkpt lat="43.4223289" lon="11.1817115"><ele>170.0</ele><time>2026-04-29T14:33:51.393Z</time></trkpt><trkpt lat="43.4222795" lon="11.1817901"><ele>170.0</ele><time>2026-04-29T14:33:53.387Z</time></trkpt><trkpt lat="43.4222272" lon="11.1818459"><ele>170.0</ele><time>2026-04-29T14:33:55.465Z</time></trkpt><trkpt lat="43.4220659" lon="11.181903"><ele>170.0</ele><time>2026-04-29T14:33:58.384Z</time></trkpt><trkpt lat="43.4220094" lon="11.1819489"><ele>170.0</ele><time>2026-04-29T14:34:01.37Z</time></trkpt><trkpt lat="43.4220169" lon="11.1820467"><ele>170.0</ele><time>2026-04-29T14:34:04.394Z</time></trkpt><trkpt lat="43.4220165" lon="11.1821371"><ele>170.0</ele><time>2026-04-29T14:34:07.371Z</time></trkpt><trkpt lat="43.4220456" lon="11.1822204"><ele>170.5</ele><time>2026-04-29T14:34:09.387Z</time></trkpt><trkpt lat="43.4220837" lon="11.182319"><ele>171.0</ele><time>2026-04-29T14:34:11.392Z</time></trkpt><trkpt lat="43.4221179" lon="11.1824109"><ele>171.5</ele><time>2026-04-29T14:34:13.391Z</time></trkpt><trkpt lat="43.4221558" lon="11.1825064"><ele>172.0</ele><time>2026-04-29T14:34:15.391Z</time></trkpt><trkpt lat="43.4221877" lon="11.1825923"><ele>172.5</ele><time>2026-04-29T14:34:17.396Z</time></trkpt><trkpt lat="43.4221657" lon="11.1826843"><ele>173.0</ele><time>2026-04-29T14:34:19.366Z</time></trkpt><trkpt lat="43.4220999" lon="11.1827501"><ele>173.28571428571428</ele><time>2026-04-29T14:34:21.39Z</time></trkpt><trkpt lat="43.4220261" lon="11.1828006"><ele>173.57142857142858</ele><time>2026-04-29T14:34:23.402Z</time></trkpt><trkpt lat="43.4219643" lon="11.1828642"><ele>173.85714285714286</ele><time>2026-04-29T14:34:25.403Z</time></trkpt><trkpt lat="43.4219041" lon="11.1829185"><ele>174.14285714285714</ele><time>2026-04-29T14:34:27.399Z</time></trkpt><trkpt lat="43.4218486" lon="11.1829699"><ele>174.42857142857144</ele><time>2026-04-29T14:34:29.385Z</time></trkpt><trkpt lat="43.4217945" lon="11.1830196"><ele>174.71428571428572</ele><time>2026-04-29T14:34:31.458Z</time></trkpt><trkpt lat="43.4217216" lon="11.1830756"><ele>175.0</ele><time>2026-04-29T14:34:34.386Z</time></trkpt><trkpt lat="43.4216578" lon="11.1831314"><ele>175.0</ele><time>2026-04-29T14:34:36.452Z</time></trkpt><trkpt lat="43.4215877" lon="11.1832116"><ele>175.0</ele><time>2026-04-29T14:34:38.39Z</time></trkpt><trkpt lat="43.4215093" lon="11.1832734"><ele>175.0</ele><time>2026-04-29T14:34:41.383Z</time></trkpt><trkpt lat="43.4214513" lon="11.1833151"><ele>175.0</ele><time>2026-04-29T14:34:43.384Z</time></trkpt><trkpt lat="43.4213954" lon="11.183365"><ele>175.0</ele><time>2026-04-29T14:34:45.472Z</time></trkpt><trkpt lat="43.4213358" lon="11.1834182"><ele>175.0</ele><time>2026-04-29T14:34:47.387Z</time></trkpt><trkpt lat="43.4212826" lon="11.1834729"><ele>175.16666666666669</ele><time>2026-04-29T14:34:49.463Z</time></trkpt><trkpt lat="43.4212134" lon="11.1835599"><ele>175.33333333333334</ele><time>2026-04-29T14:34:52.382Z</time></trkpt><trkpt lat="43.4211702" lon="11.1836334"><ele>175.5</ele><time>2026-04-29T14:34:54.399Z</time></trkpt><trkpt lat="43.4211069" lon="11.1837146"><ele>175.66666666666666</ele><time>2026-04-29T14:34:57.4Z</time></trkpt><trkpt lat="43.4210436" lon="11.1838"><ele>175.83333333333331</ele><time>2026-04-29T14:35:00.396Z</time></trkpt><trkpt lat="43.4209959" lon="11.1838637"><ele>176.0</ele><time>2026-04-29T14:35:02.394Z</time></trkpt><trkpt lat="43.4209455" lon="11.1839271"><ele>176.16666666666666</ele><time>2026-04-29T14:35:04.404Z</time></trkpt><trkpt lat="43.4209053" lon="11.1840253"><ele>176.33333333333331</ele><time>2026-04-29T14:35:06.39Z</time></trkpt><trkpt lat="43.4208627" lon="11.184122"><ele>176.5</ele><time>2026-04-29T14:35:08.405Z</time></trkpt><trkpt lat="43.4208106" lon="11.1842183"><ele>176.66666666666666</ele><time>2026-04-29T14:35:10.478Z</time></trkpt><trkpt lat="43.4207593" lon="11.1843085"><ele>176.83333333333334</ele><time>2026-04-29T14:35:12.383Z</time></trkpt><trkpt lat="43.4207088" lon="11.184401"><ele>177.0</ele><time>2026-04-29T14:35:14.388Z</time></trkpt><trkpt lat="43.4206539" lon="11.1844895"><ele>177.0</ele><time>2026-04-29T14:35:16.374Z</time></trkpt><trkpt lat="43.4206015" lon="11.1845651"><ele>177.0</ele><time>2026-04-29T14:35:18.369Z</time></trkpt><trkpt lat="43.4205553" lon="11.1846611"><ele>177.0</ele><time>2026-04-29T14:35:20.476Z</time></trkpt><trkpt lat="43.4205286" lon="11.184769"><ele>177.0</ele><time>2026-04-29T14:35:22.398Z</time></trkpt><trkpt lat="43.4204828" lon="11.1848673"><ele>177.0</ele><time>2026-04-29T14:35:24.38Z</time></trkpt><trkpt lat="43.4204259" lon="11.1849548"><ele>177.0</ele><time>2026-04-29T14:35:26.447Z</time></trkpt><trkpt lat="43.4203871" lon="11.1850271"><ele>176.83333333333334</ele><time>2026-04-29T14:35:28.394Z</time></trkpt><trkpt lat="43.420342" lon="11.18509"><ele>176.66666666666666</ele><time>2026-04-29T14:35:30.388Z</time></trkpt><trkpt lat="43.4202867" lon="11.1851404"><ele>176.5</ele><time>2026-04-29T14:35:32.393Z</time></trkpt><trkpt lat="43.4202345" lon="11.185224"><ele>176.33333333333331</ele><time>2026-04-29T14:35:34.395Z</time></trkpt><trkpt lat="43.4201821" lon="11.1853415"><ele>176.16666666666666</ele><time>2026-04-29T14:35:36.378Z</time></trkpt><trkpt lat="43.4201225" lon="11.1854536"><ele>176.0</ele><time>2026-04-29T14:35:38.392Z</time></trkpt><trkpt lat="43.4200715" lon="11.1855637"><ele>176.0</ele><time>2026-04-29T14:35:40.384Z</time></trkpt><trkpt lat="43.4200244" lon="11.1856715"><ele>176.0</ele><time>2026-04-29T14:35:42.388Z</time></trkpt><trkpt lat="43.4199701" lon="11.1857744"><ele>176.0</ele><time>2026-04-29T14:35:44.376Z</time></trkpt><trkpt lat="43.4199196" lon="11.1858687"><ele>176.0</ele><time>2026-04-29T14:35:46.405Z</time></trkpt><trkpt lat="43.4198674" lon="11.1859606"><ele>176.0</ele><time>2026-04-29T14:35:48.396Z</time></trkpt><trkpt lat="43.4198145" lon="11.1860651"><ele>176.0</ele><time>2026-04-29T14:35:50.475Z</time></trkpt><trkpt lat="43.419761" lon="11.1861642"><ele>176.0</ele><time>2026-04-29T14:35:52.38Z</time></trkpt><trkpt lat="43.4197033" lon="11.1862669"><ele>176.0</ele><time>2026-04-29T14:35:54.461Z</time></trkpt><trkpt lat="43.4196734" lon="11.1863515"><ele>176.0</ele><time>2026-04-29T14:35:56.388Z</time></trkpt><trkpt lat="43.4196131" lon="11.1864542"><ele>176.0</ele><time>2026-04-29T14:35:58.395Z</time></trkpt><trkpt lat="43.4195694" lon="11.1865204"><ele>176.0</ele><time>2026-04-29T14:35:59.386Z</time></trkpt><trkpt lat="43.4195281" lon="11.1865932"><ele>176.0</ele><time>2026-04-29T14:36:00.397Z</time></trkpt><trkpt lat="43.4194852" lon="11.1866686"><ele>175.71428571428572</ele><time>2026-04-29T14:36:01.382Z</time></trkpt><trkpt lat="43.4194437" lon="11.1867448"><ele>175.42857142857142</ele><time>2026-04-29T14:36:02.395Z</time></trkpt><trkpt lat="43.4194037" lon="11.1868197"><ele>175.14285714285714</ele><time>2026-04-29T14:36:03.373Z</time></trkpt><trkpt lat="43.4193597" lon="11.1868986"><ele>174.85714285714286</ele><time>2026-04-29T14:36:04.395Z</time></trkpt><trkpt lat="43.4193144" lon="11.186973"><ele>174.57142857142858</ele><time>2026-04-29T14:36:05.386Z</time></trkpt><trkpt lat="43.4192703" lon="11.1870495"><ele>174.28571428571428</ele><time>2026-04-29T14:36:06.385Z</time></trkpt><trkpt lat="43.4192268" lon="11.1871273"><ele>174.0</ele><time>2026-04-29T14:36:07.389Z</time></trkpt><trkpt lat="43.4191872" lon="11.1872121"><ele>174.0</ele><time>2026-04-29T14:36:08.401Z</time></trkpt><trkpt lat="43.419149" lon="11.1872983"><ele>174.0</ele><time>2026-04-29T14:36:09.393Z</time></trkpt><trkpt lat="43.4191094" lon="11.1873828"><ele>174.0</ele><time>2026-04-29T14:36:10.381Z</time></trkpt><trkpt lat="43.4190698" lon="11.1874683"><ele>174.0</ele><time>2026-04-29T14:36:11.381Z</time></trkpt><trkpt lat="43.4190301" lon="11.1875526"><ele>174.0</ele><time>2026-04-29T14:36:12.384Z</time></trkpt><trkpt lat="43.4189907" lon="11.187639"><ele>174.0</ele><time>2026-04-29T14:36:13.391Z</time></trkpt><trkpt lat="43.4189557" lon="11.1877297"><ele>174.0</ele><time>2026-04-29T14:36:14.393Z</time></trkpt><trkpt lat="43.4189209" lon="11.1878179"><ele>173.66666666666666</ele><time>2026-04-29T14:36:15.386Z</time></trkpt><trkpt lat="43.4188834" lon="11.1878997"><ele>173.33333333333334</ele><time>2026-04-29T14:36:16.387Z</time></trkpt><trkpt lat="43.4188444" lon="11.1879752"><ele>173.0</ele><time>2026-04-29T14:36:17.384Z</time></trkpt><trkpt lat="43.4188037" lon="11.1880476"><ele>172.66666666666669</ele><time>2026-04-29T14:36:18.394Z</time></trkpt><trkpt lat="43.4187637" lon="11.1881179"><ele>172.33333333333334</ele><time>2026-04-29T14:36:19.399Z</time></trkpt><trkpt lat="43.4187235" lon="11.188185"><ele>172.0</ele><time>2026-04-29T14:36:20.392Z</time></trkpt><trkpt lat="43.418644" lon="11.1883055"><ele>171.39999999999998</ele><time>2026-04-29T14:36:22.377Z</time></trkpt><trkpt lat="43.4185686" lon="11.1884209"><ele>170.79999999999998</ele><time>2026-04-29T14:36:24.386Z</time></trkpt><trkpt lat="43.4184902" lon="11.1885277"><ele>170.2</ele><time>2026-04-29T14:36:26.391Z</time></trkpt><trkpt lat="43.4184221" lon="11.188654"><ele>169.6</ele><time>2026-04-29T14:36:28.4Z</time></trkpt><trkpt lat="43.4184" lon="11.1888036"><ele>169.0</ele><time>2026-04-29T14:36:30.472Z</time></trkpt><trkpt lat="43.4183948" lon="11.1889425"><ele>169.16666666666669</ele><time>2026-04-29T14:36:32.38Z</time></trkpt><trkpt lat="43.4183727" lon="11.1890608"><ele>169.33333333333334</ele><time>2026-04-29T14:36:34.378Z</time></trkpt><trkpt lat="43.4183192" lon="11.1891475"><ele>169.5</ele><time>2026-04-29T14:36:36.383Z</time></trkpt><trkpt lat="43.4182559" lon="11.1892044"><ele>169.66666666666666</ele><time>2026-04-29T14:36:38.395Z</time></trkpt><trkpt lat="43.4181891" lon="11.1892653"><ele>169.83333333333331</ele><time>2026-04-29T14:36:40.393Z</time></trkpt><trkpt lat="43.4181223" lon="11.1893506"><ele>170.0</ele><time>2026-04-29T14:36:42.371Z</time></trkpt><trkpt lat="43.4180904" lon="11.1894637"><ele>170.0</ele><time>2026-04-29T14:36:44.385Z</time></trkpt><trkpt lat="43.4180382" lon="11.189571"><ele>170.0</ele><time>2026-04-29T14:36:46.369Z</time></trkpt><trkpt lat="43.4180007" lon="11.1896921"><ele>170.0</ele><time>2026-04-29T14:36:48.38Z</time></trkpt><trkpt lat="43.4179773" lon="11.1898155"><ele>170.0</ele><time>2026-04-29T14:36:50.382Z</time></trkpt><trkpt lat="43.4179498" lon="11.1899299"><ele>170.0</ele><time>2026-04-29T14:36:52.388Z</time></trkpt><trkpt lat="43.4179183" lon="11.1900437"><ele>170.66666666666666</ele><time>2026-04-29T14:36:54.459Z</time></trkpt><trkpt lat="43.4178835" lon="11.190152"><ele>171.33333333333331</ele><time>2026-04-29T14:36:56.392Z</time></trkpt><trkpt lat="43.417833" lon="11.1902784"><ele>172.0</ele><time>2026-04-29T14:36:58.396Z</time></trkpt><trkpt lat="43.4177956" lon="11.1903823"><ele>172.66666666666666</ele><time>2026-04-29T14:37:00.475Z</time></trkpt><trkpt lat="43.4177677" lon="11.1904681"><ele>173.33333333333334</ele><time>2026-04-29T14:37:02.392Z</time></trkpt><trkpt lat="43.4177294" lon="11.190552"><ele>174.0</ele><time>2026-04-29T14:37:04.463Z</time></trkpt><trkpt lat="43.4176897" lon="11.1906255"><ele>174.33333333333334</ele><time>2026-04-29T14:37:06.39Z</time></trkpt><trkpt lat="43.4176461" lon="11.1906983"><ele>174.66666666666666</ele><time>2026-04-29T14:37:08.417Z</time></trkpt><trkpt lat="43.417615" lon="11.1907797"><ele>175.0</ele><time>2026-04-29T14:37:10.368Z</time></trkpt><trkpt lat="43.4175839" lon="11.1908874"><ele>175.33333333333331</ele><time>2026-04-29T14:37:12.395Z</time></trkpt><trkpt lat="43.4175504" lon="11.1909895"><ele>175.66666666666666</ele><time>2026-04-29T14:37:14.459Z</time></trkpt><trkpt lat="43.4175058" lon="11.1911096"><ele>176.0</ele><time>2026-04-29T14:37:16.47Z</time></trkpt><trkpt lat="43.4174709" lon="11.1912425"><ele>176.0</ele><time>2026-04-29T14:37:18.389Z</time></trkpt><trkpt lat="43.4174412" lon="11.1913442"><ele>176.0</ele><time>2026-04-29T14:37:20.406Z</time></trkpt><trkpt lat="43.4174081" lon="11.1914454"><ele>176.0</ele><time>2026-04-29T14:37:22.398Z</time></trkpt><trkpt lat="43.4173578" lon="11.191568"><ele>176.0</ele><time>2026-04-29T14:37:24.39Z</time></trkpt><trkpt lat="43.4172955" lon="11.1917081"><ele>176.0</ele><time>2026-04-29T14:37:26.395Z</time></trkpt><trkpt lat="43.4172602" lon="11.1917838"><ele>176.0</ele><time>2026-04-29T14:37:27.392Z</time></trkpt><trkpt lat="43.4172261" lon="11.1918634"><ele>175.66666666666666</ele><time>2026-04-29T14:37:28.399Z</time></trkpt><trkpt lat="43.4171921" lon="11.1919451"><ele>175.33333333333331</ele><time>2026-04-29T14:37:29.368Z</time></trkpt><trkpt lat="43.4171568" lon="11.1920391"><ele>175.0</ele><time>2026-04-29T14:37:30.463Z</time></trkpt><trkpt lat="43.4171214" lon="11.192133"><ele>174.66666666666666</ele><time>2026-04-29T14:37:31.371Z</time></trkpt><trkpt lat="43.4170839" lon="11.1922311"><ele>174.33333333333334</ele><time>2026-04-29T14:37:32.401Z</time></trkpt><trkpt lat="43.4170537" lon="11.1923183"><ele>174.0</ele><time>2026-04-29T14:37:33.402Z</time></trkpt><trkpt lat="43.4170255" lon="11.192419"><ele>173.5</ele><time>2026-04-29T14:37:34.469Z</time></trkpt><trkpt lat="43.4170033" lon="11.1925244"><ele>173.0</ele><time>2026-04-29T14:37:35.433Z</time></trkpt><trkpt lat="43.416983" lon="11.1926313"><ele>172.5</ele><time>2026-04-29T14:37:36.398Z</time></trkpt><trkpt lat="43.4169681" lon="11.1927336"><ele>172.0</ele><time>2026-04-29T14:37:37.397Z</time></trkpt><trkpt lat="43.4169583" lon="11.1928349"><ele>171.5</ele><time>2026-04-29T14:37:38.391Z</time></trkpt><trkpt lat="43.4169485" lon="11.1929371"><ele>171.0</ele><time>2026-04-29T14:37:39.455Z</time></trkpt><trkpt lat="43.416937" lon="11.1930462"><ele>171.0</ele><time>2026-04-29T14:37:40.46Z</time></trkpt><trkpt lat="43.4169263" lon="11.1931505"><ele>171.0</ele><time>2026-04-29T14:37:41.384Z</time></trkpt><trkpt lat="43.4169172" lon="11.1932517"><ele>171.0</ele><time>2026-04-29T14:37:42.391Z</time></trkpt><trkpt lat="43.4168857" lon="11.1934166"><ele>171.0</ele><time>2026-04-29T14:37:44.453Z</time></trkpt><trkpt lat="43.4168518" lon="11.1934921"><ele>171.0</ele><time>2026-04-29T14:37:45.455Z</time></trkpt><trkpt lat="43.4168175" lon="11.1935677"><ele>171.0</ele><time>2026-04-29T14:37:46.389Z</time></trkpt><trkpt lat="43.4167372" lon="11.1936921"><ele>170.4</ele><time>2026-04-29T14:37:48.395Z</time></trkpt><trkpt lat="43.4166578" lon="11.1937919"><ele>169.8</ele><time>2026-04-29T14:37:50.387Z</time></trkpt><trkpt lat="43.4165845" lon="11.1939065"><ele>169.20000000000002</ele><time>2026-04-29T14:37:52.378Z</time></trkpt><trkpt lat="43.4165339" lon="11.1940442"><ele>168.60000000000002</ele><time>2026-04-29T14:37:54.377Z</time></trkpt><trkpt lat="43.4164979" lon="11.1941913"><ele>168.0</ele><time>2026-04-29T14:37:56.4Z</time></trkpt><trkpt lat="43.4164729" lon="11.1943325"><ele>167.83333333333334</ele><time>2026-04-29T14:37:58.39Z</time></trkpt><trkpt lat="43.4164602" lon="11.194467"><ele>167.66666666666666</ele><time>2026-04-29T14:38:00.401Z</time></trkpt><trkpt lat="43.4164608" lon="11.1945884"><ele>167.5</ele><time>2026-04-29T14:38:02.387Z</time></trkpt><trkpt lat="43.4164805" lon="11.1947129"><ele>167.33333333333331</ele><time>2026-04-29T14:38:04.41Z</time></trkpt><trkpt lat="43.4165142" lon="11.1948265"><ele>167.16666666666666</ele><time>2026-04-29T14:38:06.455Z</time></trkpt><trkpt lat="43.4165386" lon="11.1949199"><ele>167.0</ele><time>2026-04-29T14:38:08.381Z</time></trkpt><trkpt lat="43.416565" lon="11.1950198"><ele>167.66666666666666</ele><time>2026-04-29T14:38:10.449Z</time></trkpt><trkpt lat="43.4166065" lon="11.1951367"><ele>168.33333333333331</ele><time>2026-04-29T14:38:12.374Z</time></trkpt><trkpt lat="43.4166495" lon="11.1952623"><ele>169.0</ele><time>2026-04-29T14:38:14.417Z</time></trkpt><trkpt lat="43.4166749" lon="11.1953587"><ele>169.66666666666666</ele><time>2026-04-29T14:38:16.376Z</time></trkpt><trkpt lat="43.4166895" lon="11.195452"><ele>170.33333333333334</ele><time>2026-04-29T14:38:18.385Z</time></trkpt><trkpt lat="43.4166936" lon="11.1955623"><ele>171.0</ele><time>2026-04-29T14:38:21.447Z</time></trkpt><trkpt lat="43.4166863" lon="11.1956591"><ele>171.5</ele><time>2026-04-29T14:38:24.397Z</time></trkpt><trkpt lat="43.4166699" lon="11.1957589"><ele>172.0</ele><time>2026-04-29T14:38:27.41Z</time></trkpt><trkpt lat="43.4166533" lon="11.1958625"><ele>172.5</ele><time>2026-04-29T14:38:30.387Z</time></trkpt><trkpt lat="43.4166198" lon="11.1959605"><ele>173.0</ele><time>2026-04-29T14:38:33.388Z</time></trkpt><trkpt lat="43.416593" lon="11.1960556"><ele>173.5</ele><time>2026-04-29T14:38:36.389Z</time></trkpt><trkpt lat="43.4165667" lon="11.1961534"><ele>174.0</ele><time>2026-04-29T14:38:39.4Z</time></trkpt><trkpt lat="43.4165418" lon="11.1962545"><ele>174.0</ele><time>2026-04-29T14:38:42.4Z</time></trkpt><trkpt lat="43.4165169" lon="11.1963603"><ele>174.0</ele><time>2026-04-29T14:38:45.46Z</time></trkpt><trkpt lat="43.4164897" lon="11.1964664"><ele>174.0</ele><time>2026-04-29T14:38:48.395Z</time></trkpt><trkpt lat="43.4164634" lon="11.19656"><ele>174.0</ele><time>2026-04-29T14:38:51.377Z</time></trkpt><trkpt lat="43.4164362" lon="11.1966613"><ele>174.0</ele><time>2026-04-29T14:38:54.458Z</time></trkpt><trkpt lat="43.4164042" lon="11.1967583"><ele>174.0</ele><time>2026-04-29T14:38:57.401Z</time></trkpt><trkpt lat="43.4163564" lon="11.1968336"><ele>174.33333333333334</ele><time>2026-04-29T14:38:59.456Z</time></trkpt><trkpt lat="43.4163145" lon="11.1969079"><ele>174.66666666666666</ele><time>2026-04-29T14:39:01.377Z</time></trkpt><trkpt lat="43.416271" lon="11.196971"><ele>175.0</ele><time>2026-04-29T14:39:03.392Z</time></trkpt><trkpt lat="43.4162242" lon="11.1970353"><ele>175.33333333333331</ele><time>2026-04-29T14:39:05.403Z</time></trkpt><trkpt lat="43.4161491" lon="11.1971696"><ele>175.66666666666666</ele><time>2026-04-29T14:39:08.378Z</time></trkpt><trkpt lat="43.416073" lon="11.1972564"><ele>176.0</ele><time>2026-04-29T14:39:11.381Z</time></trkpt><trkpt lat="43.4160227" lon="11.1973525"><ele>176.28571428571428</ele><time>2026-04-29T14:39:14.376Z</time></trkpt><trkpt lat="43.415984" lon="11.1974231"><ele>176.57142857142856</ele><time>2026-04-29T14:39:16.388Z</time></trkpt><trkpt lat="43.4159407" lon="11.1974875"><ele>176.85714285714283</ele><time>2026-04-29T14:39:18.366Z</time></trkpt><trkpt lat="43.4159025" lon="11.1975579"><ele>177.14285714285714</ele><time>2026-04-29T14:39:20.45Z</time></trkpt><trkpt lat="43.4158477" lon="11.1976393"><ele>177.42857142857142</ele><time>2026-04-29T14:39:23.398Z</time></trkpt><trkpt lat="43.4158124" lon="11.1977374"><ele>177.7142857142857</ele><time>2026-04-29T14:39:25.377Z</time></trkpt><trkpt lat="43.4157815" lon="11.1978208"><ele>178.0</ele><time>2026-04-29T14:39:27.392Z</time></trkpt><trkpt lat="43.4157504" lon="11.197909"><ele>177.99999999999997</ele><time>2026-04-29T14:39:29.459Z</time></trkpt><trkpt lat="43.4156972" lon="11.1979875"><ele>178.0</ele><time>2026-04-29T14:39:31.379Z</time></trkpt><trkpt lat="43.4156669" lon="11.198092"><ele>178.0</ele><time>2026-04-29T14:39:33.402Z</time></trkpt><trkpt lat="43.4156341" lon="11.19817"><ele>178.0</ele><time>2026-04-29T14:39:35.401Z</time></trkpt><trkpt lat="43.4156013" lon="11.1982529"><ele>178.0</ele><time>2026-04-29T14:39:37.398Z</time></trkpt><trkpt lat="43.4155673" lon="11.1983355"><ele>177.99999999999997</ele><time>2026-04-29T14:39:39.455Z</time></trkpt><trkpt lat="43.4155355" lon="11.1984224"><ele>178.0</ele><time>2026-04-29T14:39:41.401Z</time></trkpt><trkpt lat="43.4155048" lon="11.1985002"><ele>178.83333333333334</ele><time>2026-04-29T14:39:43.396Z</time></trkpt><trkpt lat="43.4154673" lon="11.1985779"><ele>179.66666666666669</ele><time>2026-04-29T14:39:45.401Z</time></trkpt><trkpt lat="43.4154295" lon="11.1986623"><ele>180.5</ele><time>2026-04-29T14:39:47.395Z</time></trkpt><trkpt lat="43.4153961" lon="11.1987388"><ele>181.33333333333334</ele><time>2026-04-29T14:39:49.378Z</time></trkpt><trkpt lat="43.4153621" lon="11.1988141"><ele>182.16666666666666</ele><time>2026-04-29T14:39:51.395Z</time></trkpt><trkpt lat="43.4153211" lon="11.1989252"><ele>183.0</ele><time>2026-04-29T14:39:54.384Z</time></trkpt><trkpt lat="43.4152764" lon="11.1990388"><ele>183.0</ele><time>2026-04-29T14:39:57.386Z</time></trkpt><trkpt lat="43.4152508" lon="11.1991292"><ele>183.0</ele><time>2026-04-29T14:39:59.395Z</time></trkpt><trkpt lat="43.4152171" lon="11.1992444"><ele>183.0</ele><time>2026-04-29T14:40:02.388Z</time></trkpt><trkpt lat="43.4152189" lon="11.1993472"><ele>183.0</ele><time>2026-04-29T14:40:04.385Z</time></trkpt><trkpt lat="43.4152155" lon="11.1994793"><ele>183.0</ele><time>2026-04-29T14:40:07.374Z</time></trkpt><trkpt lat="43.4152012" lon="11.1995735"><ele>183.0</ele><time>2026-04-29T14:40:09.38Z</time></trkpt><trkpt lat="43.415189" lon="11.1996727"><ele>183.0</ele><time>2026-04-29T14:40:11.457Z</time></trkpt><trkpt lat="43.4151635" lon="11.1997743"><ele>183.0</ele><time>2026-04-29T14:40:13.395Z</time></trkpt><trkpt lat="43.4151401" lon="11.1998714"><ele>183.0</ele><time>2026-04-29T14:40:15.378Z</time></trkpt><trkpt lat="43.4151205" lon="11.1999766"><ele>183.0</ele><time>2026-04-29T14:40:17.387Z</time></trkpt><trkpt lat="43.4151035" lon="11.2000767"><ele>183.0</ele><time>2026-04-29T14:40:19.386Z</time></trkpt><trkpt lat="43.4150777" lon="11.2001718"><ele>183.0</ele><time>2026-04-29T14:40:21.368Z</time></trkpt><trkpt lat="43.4150509" lon="11.2002651"><ele>182.85714285714286</ele><time>2026-04-29T14:40:23.388Z</time></trkpt><trkpt lat="43.4150202" lon="11.2003574"><ele>182.71428571428572</ele><time>2026-04-29T14:40:25.399Z</time></trkpt><trkpt lat="43.4149922" lon="11.2004516"><ele>182.57142857142856</ele><time>2026-04-29T14:40:27.387Z</time></trkpt><trkpt lat="43.4149594" lon="11.2005391"><ele>182.42857142857144</ele><time>2026-04-29T14:40:29.457Z</time></trkpt><trkpt lat="43.4149238" lon="11.2006241"><ele>182.28571428571428</ele><time>2026-04-29T14:40:31.466Z</time></trkpt><trkpt lat="43.4148915" lon="11.2007017"><ele>182.14285714285714</ele><time>2026-04-29T14:40:33.402Z</time></trkpt><trkpt lat="43.4148646" lon="11.2007878"><ele>182.0</ele><time>2026-04-29T14:40:35.395Z</time></trkpt><trkpt lat="43.4148248" lon="11.200877"><ele>182.0</ele><time>2026-04-29T14:40:37.382Z</time></trkpt><trkpt lat="43.414785" lon="11.200966"><ele>182.0</ele><time>2026-04-29T14:40:39.446Z</time></trkpt><trkpt lat="43.414742" lon="11.201067"><ele>182.0</ele><time>2026-04-29T14:40:41.399Z</time></trkpt><trkpt lat="43.4146967" lon="11.2011389"><ele>182.0</ele><time>2026-04-29T14:40:43.39Z</time></trkpt><trkpt lat="43.4146542" lon="11.2012202"><ele>182.0</ele><time>2026-04-29T14:40:45.395Z</time></trkpt><trkpt lat="43.4146083" lon="11.2012962"><ele>182.0</ele><time>2026-04-29T14:40:47.378Z</time></trkpt><trkpt lat="43.4145657" lon="11.2013728"><ele>182.0</ele><time>2026-04-29T14:40:49.381Z</time></trkpt><trkpt lat="43.4145204" lon="11.201452"><ele>182.28571428571428</ele><time>2026-04-29T14:40:51.39Z</time></trkpt><trkpt lat="43.4144743" lon="11.2015325"><ele>182.57142857142856</ele><time>2026-04-29T14:40:53.385Z</time></trkpt><trkpt lat="43.4144294" lon="11.2016135"><ele>182.85714285714286</ele><time>2026-04-29T14:40:55.389Z</time></trkpt><trkpt lat="43.4143846" lon="11.2016949"><ele>183.14285714285714</ele><time>2026-04-29T14:40:57.388Z</time></trkpt><trkpt lat="43.4143335" lon="11.201773"><ele>183.42857142857142</ele><time>2026-04-29T14:40:59.388Z</time></trkpt><trkpt lat="43.4142896" lon="11.2018511"><ele>183.71428571428572</ele><time>2026-04-29T14:41:01.393Z</time></trkpt><trkpt lat="43.4142428" lon="11.2019338"><ele>184.0</ele><time>2026-04-29T14:41:03.361Z</time></trkpt><trkpt lat="43.4141956" lon="11.2020139"><ele>184.0</ele><time>2026-04-29T14:41:05.386Z</time></trkpt><trkpt lat="43.4141466" lon="11.2020915"><ele>184.0</ele><time>2026-04-29T14:41:07.379Z</time></trkpt><trkpt lat="43.4140957" lon="11.2021702"><ele>184.0</ele><time>2026-04-29T14:41:09.375Z</time></trkpt><trkpt lat="43.4140508" lon="11.2022456"><ele>184.0</ele><time>2026-04-29T14:41:11.466Z</time></trkpt><trkpt lat="43.4139919" lon="11.2023388"><ele>184.0</ele><time>2026-04-29T14:41:14.389Z</time></trkpt><trkpt lat="43.4139134" lon="11.2024157"><ele>184.0</ele><time>2026-04-29T14:41:16.383Z</time></trkpt><trkpt lat="43.4138445" lon="11.2024761"><ele>185.0</ele><time>2026-04-29T14:41:18.384Z</time></trkpt><trkpt lat="43.4137656" lon="11.2025516"><ele>186.0</ele><time>2026-04-29T14:41:21.386Z</time></trkpt><trkpt lat="43.4137191" lon="11.202611"><ele>187.0</ele><time>2026-04-29T14:41:23.371Z</time></trkpt><trkpt lat="43.413672" lon="11.2026726"><ele>188.0</ele><time>2026-04-29T14:41:25.47Z</time></trkpt><trkpt lat="43.4136021" lon="11.2027586"><ele>189.0</ele><time>2026-04-29T14:41:28.397Z</time></trkpt><trkpt lat="43.4135324" lon="11.2028425"><ele>190.0</ele><time>2026-04-29T14:41:31.403Z</time></trkpt><trkpt lat="43.4134841" lon="11.2029024"><ele>190.0</ele><time>2026-04-29T14:41:33.391Z</time></trkpt><trkpt lat="43.413435" lon="11.2029623"><ele>190.0</ele><time>2026-04-29T14:41:35.393Z</time></trkpt><trkpt lat="43.413387" lon="11.2030249"><ele>190.0</ele><time>2026-04-29T14:41:37.396Z</time></trkpt><trkpt lat="43.4133404" lon="11.2030845"><ele>190.0</ele><time>2026-04-29T14:41:39.38Z</time></trkpt><trkpt lat="43.4132919" lon="11.2031456"><ele>190.0</ele><time>2026-04-29T14:41:41.452Z</time></trkpt><trkpt lat="43.413222" lon="11.2032264"><ele>190.0</ele><time>2026-04-29T14:41:44.445Z</time></trkpt><trkpt lat="43.4131469" lon="11.2032893"><ele>190.0</ele><time>2026-04-29T14:41:46.484Z</time></trkpt><trkpt lat="43.4131002" lon="11.2033607"><ele>189.71428571428572</ele><time>2026-04-29T14:41:48.402Z</time></trkpt><trkpt lat="43.4130483" lon="11.203454"><ele>189.42857142857144</ele><time>2026-04-29T14:41:51.39Z</time></trkpt><trkpt lat="43.4129983" lon="11.2035123"><ele>189.14285714285714</ele><time>2026-04-29T14:41:53.386Z</time></trkpt><trkpt lat="43.4129528" lon="11.2035773"><ele>188.85714285714286</ele><time>2026-04-29T14:41:55.473Z</time></trkpt><trkpt lat="43.412908" lon="11.20364"><ele>188.57142857142856</ele><time>2026-04-29T14:41:57.385Z</time></trkpt><trkpt lat="43.4128621" lon="11.2037063"><ele>188.28571428571428</ele><time>2026-04-29T14:41:59.451Z</time></trkpt><trkpt lat="43.4128224" lon="11.2037738"><ele>188.0</ele><time>2026-04-29T14:42:01.392Z</time></trkpt><trkpt lat="43.4127713" lon="11.2038441"><ele>188.42857142857142</ele><time>2026-04-29T14:42:03.378Z</time></trkpt><trkpt lat="43.4127303" lon="11.2039152"><ele>188.85714285714283</ele><time>2026-04-29T14:42:05.384Z</time></trkpt><trkpt lat="43.4126851" lon="11.2039764"><ele>189.28571428571428</ele><time>2026-04-29T14:42:07.384Z</time></trkpt><trkpt lat="43.412614" lon="11.2040701"><ele>189.71428571428572</ele><time>2026-04-29T14:42:10.387Z</time></trkpt><trkpt lat="43.4125674" lon="11.2041352"><ele>190.14285714285714</ele><time>2026-04-29T14:42:12.389Z</time></trkpt><trkpt lat="43.412521" lon="11.2041948"><ele>190.57142857142858</ele><time>2026-04-29T14:42:14.379Z</time></trkpt><trkpt lat="43.4124798" lon="11.2042632"><ele>191.0</ele><time>2026-04-29T14:42:16.365Z</time></trkpt><trkpt lat="43.4124361" lon="11.2043306"><ele>191.0</ele><time>2026-04-29T14:42:18.388Z</time></trkpt><trkpt lat="43.4123919" lon="11.2043929"><ele>191.0</ele><time>2026-04-29T14:42:20.363Z</time></trkpt><trkpt lat="43.4123459" lon="11.2044539"><ele>191.0</ele><time>2026-04-29T14:42:22.375Z</time></trkpt><trkpt lat="43.4123022" lon="11.2045215"><ele>191.0</ele><time>2026-04-29T14:42:24.46Z</time></trkpt><trkpt lat="43.4122618" lon="11.2045899"><ele>191.0</ele><time>2026-04-29T14:42:26.466Z</time></trkpt><trkpt lat="43.4122004" lon="11.2046942"><ele>191.0</ele><time>2026-04-29T14:42:28.397Z</time></trkpt><trkpt lat="43.4121373" lon="11.2047691"><ele>191.0</ele><time>2026-04-29T14:42:31.447Z</time></trkpt><trkpt lat="43.4120939" lon="11.2048346"><ele>191.66666666666666</ele><time>2026-04-29T14:42:33.387Z</time></trkpt><trkpt lat="43.412045" lon="11.2049076"><ele>192.33333333333331</ele><time>2026-04-29T14:42:35.385Z</time></trkpt><trkpt lat="43.4119825" lon="11.2049849"><ele>193.0</ele><time>2026-04-29T14:42:37.391Z</time></trkpt><trkpt lat="43.4119167" lon="11.2050681"><ele>193.66666666666666</ele><time>2026-04-29T14:42:39.451Z</time></trkpt><trkpt lat="43.4118514" lon="11.2051606"><ele>194.33333333333334</ele><time>2026-04-29T14:42:42.383Z</time></trkpt><trkpt lat="43.4118" lon="11.2052197"><ele>195.0</ele><time>2026-04-29T14:42:44.388Z</time></trkpt><trkpt lat="43.4117287" lon="11.2052973"><ele>195.0</ele><time>2026-04-29T14:42:47.381Z</time></trkpt><trkpt lat="43.4116808" lon="11.2053602"><ele>195.0</ele><time>2026-04-29T14:42:49.396Z</time></trkpt><trkpt lat="43.4116062" lon="11.2054419"><ele>195.0</ele><time>2026-04-29T14:42:52.364Z</time></trkpt><trkpt lat="43.4115519" lon="11.205503"><ele>195.0</ele><time>2026-04-29T14:42:54.391Z</time></trkpt><trkpt lat="43.4114905" lon="11.2055723"><ele>195.0</ele><time>2026-04-29T14:42:56.445Z</time></trkpt><trkpt lat="43.4114202" lon="11.2056671"><ele>195.0</ele><time>2026-04-29T14:42:58.384Z</time></trkpt><trkpt lat="43.4113462" lon="11.2057834"><ele>194.66666666666666</ele><time>2026-04-29T14:43:00.454Z</time></trkpt><trkpt lat="43.4112485" lon="11.205888"><ele>194.33333333333331</ele><time>2026-04-29T14:43:02.39Z</time></trkpt><trkpt lat="43.4111986" lon="11.2059467"><ele>194.0</ele><time>2026-04-29T14:43:03.372Z</time></trkpt><trkpt lat="43.4111493" lon="11.2060031"><ele>193.66666666666666</ele><time>2026-04-29T14:43:04.389Z</time></trkpt><trkpt lat="43.4110471" lon="11.2061108"><ele>193.33333333333331</ele><time>2026-04-29T14:43:06.45Z</time></trkpt><trkpt lat="43.4109942" lon="11.2061666"><ele>193.0</ele><time>2026-04-29T14:43:07.379Z</time></trkpt><trkpt lat="43.4109414" lon="11.2062167"><ele>193.0</ele><time>2026-04-29T14:43:08.386Z</time></trkpt><trkpt lat="43.4108364" lon="11.206284"><ele>193.0</ele><time>2026-04-29T14:43:10.473Z</time></trkpt><trkpt lat="43.4107612" lon="11.2062971"><ele>193.0</ele><time>2026-04-29T14:43:11.458Z</time></trkpt><trkpt lat="43.4106897" lon="11.2063085"><ele>193.0</ele><time>2026-04-29T14:43:12.376Z</time></trkpt><trkpt lat="43.4105913" lon="11.2063405"><ele>193.0</ele><time>2026-04-29T14:43:14.387Z</time></trkpt><trkpt lat="43.4104839" lon="11.2064395"><ele>193.0</ele><time>2026-04-29T14:43:16.381Z</time></trkpt><trkpt lat="43.4104421" lon="11.2065126"><ele>193.0</ele><time>2026-04-29T14:43:17.394Z</time></trkpt><trkpt lat="43.4104448" lon="11.206661"><ele>193.0</ele><time>2026-04-29T14:43:19.396Z</time></trkpt><trkpt lat="43.4104997" lon="11.2067772"><ele>193.0</ele><time>2026-04-29T14:43:21.394Z</time></trkpt><trkpt lat="43.4105787" lon="11.206865"><ele>193.0</ele><time>2026-04-29T14:43:23.388Z</time></trkpt><trkpt lat="43.4106601" lon="11.2069608"><ele>192.33333333333331</ele><time>2026-04-29T14:43:25.383Z</time></trkpt><trkpt lat="43.4107293" lon="11.2070887"><ele>191.66666666666666</ele><time>2026-04-29T14:43:27.387Z</time></trkpt><trkpt lat="43.4107816" lon="11.2072326"><ele>191.0</ele><time>2026-04-29T14:43:29.444Z</time></trkpt><trkpt lat="43.4108023" lon="11.2073209"><ele>190.33333333333331</ele><time>2026-04-29T14:43:30.451Z</time></trkpt><trkpt lat="43.4108209" lon="11.2074121"><ele>189.66666666666666</ele><time>2026-04-29T14:43:31.461Z</time></trkpt><trkpt lat="43.410836" lon="11.2074975"><ele>189.0</ele><time>2026-04-29T14:43:32.392Z</time></trkpt><trkpt lat="43.4108697" lon="11.2076281"><ele>189.0</ele><time>2026-04-29T14:43:34.392Z</time></trkpt><trkpt lat="43.4108972" lon="11.2077077"><ele>189.0</ele><time>2026-04-29T14:43:35.44Z</time></trkpt><trkpt lat="43.4109267" lon="11.2077935"><ele>189.0</ele><time>2026-04-29T14:43:36.454Z</time></trkpt><trkpt lat="43.4109832" lon="11.2079505"><ele>189.0</ele><time>2026-04-29T14:43:38.385Z</time></trkpt><trkpt lat="43.4110106" lon="11.2080342"><ele>189.0</ele><time>2026-04-29T14:43:39.373Z</time></trkpt><trkpt lat="43.4110355" lon="11.2081194"><ele>189.0</ele><time>2026-04-29T14:43:40.466Z</time></trkpt><trkpt lat="43.4110596" lon="11.2082157"><ele>189.2</ele><time>2026-04-29T14:43:41.47Z</time></trkpt><trkpt lat="43.4110837" lon="11.2082986"><ele>189.39999999999998</ele><time>2026-04-29T14:43:42.377Z</time></trkpt><trkpt lat="43.4111357" lon="11.2084335"><ele>189.6</ele><time>2026-04-29T14:43:44.397Z</time></trkpt><trkpt lat="43.4111709" lon="11.2085969"><ele>189.8</ele><time>2026-04-29T14:43:46.38Z</time></trkpt><trkpt lat="43.4111981" lon="11.2087501"><ele>190.0</ele><time>2026-04-29T14:43:48.392Z</time></trkpt><trkpt lat="43.4111797" lon="11.2089038"><ele>190.2</ele><time>2026-04-29T14:43:50.463Z</time></trkpt><trkpt lat="43.4111354" lon="11.2090459"><ele>190.4</ele><time>2026-04-29T14:43:52.374Z</time></trkpt><trkpt lat="43.4111245" lon="11.2091816"><ele>190.60000000000002</ele><time>2026-04-29T14:43:54.376Z</time></trkpt><trkpt lat="43.4111336" lon="11.2093243"><ele>190.8</ele><time>2026-04-29T14:43:56.387Z</time></trkpt><trkpt lat="43.4111267" lon="11.2094585"><ele>191.0</ele><time>2026-04-29T14:43:58.367Z</time></trkpt><trkpt lat="43.4111186" lon="11.2095885"><ele>191.0</ele><time>2026-04-29T14:44:00.388Z</time></trkpt><trkpt lat="43.41109" lon="11.2097272"><ele>191.0</ele><time>2026-04-29T14:44:02.396Z</time></trkpt><trkpt lat="43.4110796" lon="11.209938"><ele>191.0</ele><time>2026-04-29T14:44:05.456Z</time></trkpt><trkpt lat="43.4110423" lon="11.2100207"><ele>191.0</ele><time>2026-04-29T14:44:07.382Z</time></trkpt><trkpt lat="43.4109773" lon="11.2101217"><ele>191.0</ele><time>2026-04-29T14:44:09.392Z</time></trkpt><trkpt lat="43.4109053" lon="11.2101791"><ele>190.8</ele><time>2026-04-29T14:44:11.381Z</time></trkpt><trkpt lat="43.4108144" lon="11.2102049"><ele>190.60000000000002</ele><time>2026-04-29T14:44:13.392Z</time></trkpt><trkpt lat="43.4107174" lon="11.2102158"><ele>190.4</ele><time>2026-04-29T14:44:15.385Z</time></trkpt><trkpt lat="43.4105972" lon="11.2102288"><ele>190.2</ele><time>2026-04-29T14:44:17.385Z</time></trkpt><trkpt lat="43.410494" lon="11.21026"><ele>190.0</ele><time>2026-04-29T14:44:19.387Z</time></trkpt><trkpt lat="43.4103923" lon="11.2102939"><ele>190.4</ele><time>2026-04-29T14:44:21.378Z</time></trkpt><trkpt lat="43.4102939" lon="11.2103279"><ele>190.8</ele><time>2026-04-29T14:44:23.394Z</time></trkpt><trkpt lat="43.4101975" lon="11.2103627"><ele>191.2</ele><time>2026-04-29T14:44:25.395Z</time></trkpt><trkpt lat="43.4100977" lon="11.2103915"><ele>191.6</ele><time>2026-04-29T14:44:27.396Z</time></trkpt><trkpt lat="43.4100007" lon="11.2104338"><ele>192.0</ele><time>2026-04-29T14:44:29.366Z</time></trkpt><trkpt lat="43.4099008" lon="11.2104802"><ele>192.0</ele><time>2026-04-29T14:44:31.396Z</time></trkpt><trkpt lat="43.4097942" lon="11.2105218"><ele>192.0</ele><time>2026-04-29T14:44:33.388Z</time></trkpt><trkpt lat="43.40969" lon="11.2105677"><ele>192.0</ele><time>2026-04-29T14:44:35.384Z</time></trkpt><trkpt lat="43.409587" lon="11.21061"><ele>192.0</ele><time>2026-04-29T14:44:37.398Z</time></trkpt><trkpt lat="43.4094829" lon="11.2106495"><ele>192.0</ele><time>2026-04-29T14:44:39.397Z</time></trkpt><trkpt lat="43.4093818" lon="11.2106956"><ele>191.8</ele><time>2026-04-29T14:44:41.39Z</time></trkpt><trkpt lat="43.4092785" lon="11.2107356"><ele>191.6</ele><time>2026-04-29T14:44:43.387Z</time></trkpt><trkpt lat="43.4091722" lon="11.2107659"><ele>191.4</ele><time>2026-04-29T14:44:45.387Z</time></trkpt><trkpt lat="43.4090665" lon="11.2108118"><ele>191.20000000000002</ele><time>2026-04-29T14:44:47.385Z</time></trkpt><trkpt lat="43.4089616" lon="11.2108536"><ele>191.0</ele><time>2026-04-29T14:44:49.4Z</time></trkpt><trkpt lat="43.4088658" lon="11.2109225"><ele>190.8</ele><time>2026-04-29T14:44:51.378Z</time></trkpt><trkpt lat="43.4087839" lon="11.2110185"><ele>190.60000000000002</ele><time>2026-04-29T14:44:53.395Z</time></trkpt><trkpt lat="43.408725" lon="11.2111347"><ele>190.4</ele><time>2026-04-29T14:44:55.457Z</time></trkpt><trkpt lat="43.4086776" lon="11.2112691"><ele>190.2</ele><time>2026-04-29T14:44:57.387Z</time></trkpt><trkpt lat="43.408627" lon="11.2114045"><ele>190.0</ele><time>2026-04-29T14:44:59.383Z</time></trkpt><trkpt lat="43.4085465" lon="11.2114587"><ele>190.0</ele><time>2026-04-29T14:45:01.397Z</time></trkpt><trkpt lat="43.4084392" lon="11.2114016"><ele>190.0</ele><time>2026-04-29T14:45:03.395Z</time></trkpt><trkpt lat="43.4083542" lon="11.2113075"><ele>190.0</ele><time>2026-04-29T14:45:05.371Z</time></trkpt><trkpt lat="43.4082821" lon="11.2112133"><ele>190.0</ele><time>2026-04-29T14:45:07.402Z</time></trkpt><trkpt lat="43.4082167" lon="11.2111356"><ele>190.0</ele><time>2026-04-29T14:45:09.396Z</time></trkpt><trkpt lat="43.408145" lon="11.2110776"><ele>190.0</ele><time>2026-04-29T14:45:11.401Z</time></trkpt><trkpt lat="43.4080823" lon="11.2110205"><ele>190.0</ele><time>2026-04-29T14:45:13.401Z</time></trkpt><trkpt lat="43.4080251" lon="11.2109722"><ele>190.0</ele><time>2026-04-29T14:45:15.377Z</time></trkpt><trkpt lat="43.407942" lon="11.2109676"><ele>190.0</ele><time>2026-04-29T14:45:18.393Z</time></trkpt><trkpt lat="43.4078761" lon="11.210951"><ele>190.0</ele><time>2026-04-29T14:45:22.384Z</time></trkpt><trkpt lat="43.4079241" lon="11.2108868"><ele>190.0</ele><time>2026-04-29T14:47:09.378Z</time></trkpt><trkpt lat="43.4079891" lon="11.2109204"><ele>190.0</ele><time>2026-04-29T14:47:32.398Z</time></trkpt><trkpt lat="43.4080628" lon="11.2109499"><ele>190.0</ele><time>2026-04-29T14:47:34.378Z</time></trkpt><trkpt lat="43.4079951" lon="11.2109155"><ele>190.0</ele><time>2026-04-29T14:47:49.396Z</time></trkpt><trkpt lat="43.4080396" lon="11.2110092"><ele>190.0</ele><time>2026-04-29T14:47:59.398Z</time></trkpt><trkpt lat="43.4081141" lon="11.2110613"><ele>190.0</ele><time>2026-04-29T14:48:02.387Z</time></trkpt><trkpt lat="43.4081797" lon="11.2111358"><ele>190.0</ele><time>2026-04-29T14:48:05.45Z</time></trkpt><trkpt lat="43.4082379" lon="11.2112352"><ele>190.0</ele><time>2026-04-29T14:48:07.378Z</time></trkpt><trkpt lat="43.4083028" lon="11.2113352"><ele>190.0</ele><time>2026-04-29T14:48:09.391Z</time></trkpt><trkpt lat="43.4083846" lon="11.2113931"><ele>190.0</ele><time>2026-04-29T14:48:11.384Z</time></trkpt><trkpt lat="43.4084788" lon="11.2114647"><ele>190.0</ele><time>2026-04-29T14:48:13.388Z</time></trkpt><trkpt lat="43.4085714" lon="11.2114932"><ele>190.0</ele><time>2026-04-29T14:48:15.399Z</time></trkpt><trkpt lat="43.4086479" lon="11.2114204"><ele>190.0</ele><time>2026-04-29T14:48:17.373Z</time></trkpt><trkpt lat="43.4087001" lon="11.2113074"><ele>190.0</ele><time>2026-04-29T14:48:19.389Z</time></trkpt><trkpt lat="43.4087433" lon="11.211208"><ele>190.0</ele><time>2026-04-29T14:48:21.375Z</time></trkpt><trkpt lat="43.4087893" lon="11.2111137"><ele>190.0</ele><time>2026-04-29T14:48:23.398Z</time></trkpt><trkpt lat="43.4088437" lon="11.2110283"><ele>190.0</ele><time>2026-04-29T14:48:25.385Z</time></trkpt><trkpt lat="43.4089133" lon="11.2109607"><ele>190.0</ele><time>2026-04-29T14:48:27.389Z</time></trkpt><trkpt lat="43.408994" lon="11.210921"><ele>190.0</ele><time>2026-04-29T14:48:29.406Z</time></trkpt><trkpt lat="43.4090839" lon="11.2108872"><ele>190.16666666666669</ele><time>2026-04-29T14:48:31.453Z</time></trkpt><trkpt lat="43.4091672" lon="11.210855"><ele>190.33333333333334</ele><time>2026-04-29T14:48:33.404Z</time></trkpt><trkpt lat="43.4092537" lon="11.2108301"><ele>190.5</ele><time>2026-04-29T14:48:35.459Z</time></trkpt><trkpt lat="43.409325" lon="11.2107928"><ele>190.66666666666666</ele><time>2026-04-29T14:48:37.392Z</time></trkpt><trkpt lat="43.4094048" lon="11.210762"><ele>190.83333333333331</ele><time>2026-04-29T14:48:39.387Z</time></trkpt><trkpt lat="43.409502" lon="11.2107471"><ele>191.0</ele><time>2026-04-29T14:48:41.458Z</time></trkpt><trkpt lat="43.4096195" lon="11.2107258"><ele>191.16666666666666</ele><time>2026-04-29T14:48:43.402Z</time></trkpt><trkpt lat="43.4097069" lon="11.2106831"><ele>191.33333333333331</ele><time>2026-04-29T14:48:45.454Z</time></trkpt><trkpt lat="43.4097842" lon="11.2106513"><ele>191.5</ele><time>2026-04-29T14:48:47.39Z</time></trkpt><trkpt lat="43.4098678" lon="11.2106128"><ele>191.66666666666666</ele><time>2026-04-29T14:48:49.392Z</time></trkpt><trkpt lat="43.4099489" lon="11.2105832"><ele>191.83333333333334</ele><time>2026-04-29T14:48:51.461Z</time></trkpt><trkpt lat="43.4100315" lon="11.2105923"><ele>192.0</ele><time>2026-04-29T14:48:53.391Z</time></trkpt><trkpt lat="43.4101324" lon="11.2105557"><ele>192.0</ele><time>2026-04-29T14:48:55.387Z</time></trkpt><trkpt lat="43.4102213" lon="11.2104944"><ele>192.0</ele><time>2026-04-29T14:48:57.385Z</time></trkpt><trkpt lat="43.4103105" lon="11.2104483"><ele>192.0</ele><time>2026-04-29T14:48:59.388Z</time></trkpt><trkpt lat="43.4103982" lon="11.2103994"><ele>192.0</ele><time>2026-04-29T14:49:01.39Z</time></trkpt><trkpt lat="43.4104881" lon="11.2103583"><ele>192.0</ele><time>2026-04-29T14:49:03.406Z</time></trkpt><trkpt lat="43.4105789" lon="11.2103234"><ele>191.6</ele><time>2026-04-29T14:49:05.387Z</time></trkpt><trkpt lat="43.4106683" lon="11.2102825"><ele>191.2</ele><time>2026-04-29T14:49:07.38Z</time></trkpt><trkpt lat="43.4107579" lon="11.2102435"><ele>190.8</ele><time>2026-04-29T14:49:09.404Z</time></trkpt><trkpt lat="43.4108459" lon="11.2102151"><ele>190.4</ele><time>2026-04-29T14:49:11.464Z</time></trkpt><trkpt lat="43.4109312" lon="11.2101783"><ele>190.0</ele><time>2026-04-29T14:49:13.391Z</time></trkpt><trkpt lat="43.4110184" lon="11.2101419"><ele>190.0</ele><time>2026-04-29T14:49:15.455Z</time></trkpt><trkpt lat="43.4111075" lon="11.2101289"><ele>190.0</ele><time>2026-04-29T14:49:17.393Z</time></trkpt><trkpt lat="43.4111971" lon="11.2101518"><ele>190.0</ele><time>2026-04-29T14:49:19.463Z</time></trkpt><trkpt lat="43.4112825" lon="11.2102046"><ele>190.0</ele><time>2026-04-29T14:49:21.455Z</time></trkpt><trkpt lat="43.4114831" lon="11.210416"><ele>189.83333333333334</ele><time>2026-04-29T14:49:25.467Z</time></trkpt><trkpt lat="43.4115089" lon="11.2105028"><ele>189.66666666666669</ele><time>2026-04-29T14:49:28.384Z</time></trkpt><trkpt lat="43.4115514" lon="11.2106043"><ele>189.5</ele><time>2026-04-29T14:49:30.39Z</time></trkpt><trkpt lat="43.411593" lon="11.2107227"><ele>189.33333333333334</ele><time>2026-04-29T14:49:32.391Z</time></trkpt><trkpt lat="43.4116416" lon="11.2108283"><ele>189.16666666666666</ele><time>2026-04-29T14:49:34.384Z</time></trkpt><trkpt lat="43.4116891" lon="11.2109347"><ele>189.0</ele><time>2026-04-29T14:49:36.391Z</time></trkpt><trkpt lat="43.4117376" lon="11.2110312"><ele>189.0</ele><time>2026-04-29T14:49:38.392Z</time></trkpt><trkpt lat="43.4117725" lon="11.2111096"><ele>189.0</ele><time>2026-04-29T14:49:40.46Z</time></trkpt><trkpt lat="43.4118005" lon="11.2111874"><ele>189.0</ele><time>2026-04-29T14:49:42.395Z</time></trkpt><trkpt lat="43.4118158" lon="11.21129"><ele>189.0</ele><time>2026-04-29T14:49:45.462Z</time></trkpt><trkpt lat="43.4119115" lon="11.2113836"><ele>189.0</ele><time>2026-04-29T14:49:50.393Z</time></trkpt><trkpt lat="43.4119948" lon="11.2113785"><ele>189.0</ele><time>2026-04-29T14:49:51.464Z</time></trkpt><trkpt lat="43.4120644" lon="11.2113691"><ele>188.75</ele><time>2026-04-29T14:49:52.376Z</time></trkpt><trkpt lat="43.4121846" lon="11.2113406"><ele>188.5</ele><time>2026-04-29T14:49:54.389Z</time></trkpt><trkpt lat="43.4122919" lon="11.2113057"><ele>188.25</ele><time>2026-04-29T14:49:56.465Z</time></trkpt><trkpt lat="43.4124052" lon="11.2112515"><ele>188.0</ele><time>2026-04-29T14:49:58.389Z</time></trkpt><trkpt lat="43.4125111" lon="11.2111839"><ele>188.0</ele><time>2026-04-29T14:50:00.393Z</time></trkpt><trkpt lat="43.4126185" lon="11.2111103"><ele>188.0</ele><time>2026-04-29T14:50:02.394Z</time></trkpt><trkpt lat="43.412727" lon="11.2110487"><ele>188.0</ele><time>2026-04-29T14:50:04.391Z</time></trkpt><trkpt lat="43.4128356" lon="11.2109926"><ele>188.0</ele><time>2026-04-29T14:50:06.384Z</time></trkpt><trkpt lat="43.4129458" lon="11.2109332"><ele>188.5</ele><time>2026-04-29T14:50:08.385Z</time></trkpt><trkpt lat="43.4130564" lon="11.2108718"><ele>189.0</ele><time>2026-04-29T14:50:10.387Z</time></trkpt><trkpt lat="43.413165" lon="11.210807"><ele>189.5</ele><time>2026-04-29T14:50:12.397Z</time></trkpt><trkpt lat="43.4132694" lon="11.2107532"><ele>190.0</ele><time>2026-04-29T14:50:14.365Z</time></trkpt><trkpt lat="43.4133803" lon="11.2107087"><ele>190.0</ele><time>2026-04-29T14:50:16.475Z</time></trkpt><trkpt lat="43.4134574" lon="11.2106851"><ele>190.0</ele><time>2026-04-29T14:50:18.387Z</time></trkpt><trkpt lat="43.4135703" lon="11.2106545"><ele>190.0</ele><time>2026-04-29T14:50:20.382Z</time></trkpt><trkpt lat="43.4136715" lon="11.2106387"><ele>190.0</ele><time>2026-04-29T14:50:22.387Z</time></trkpt><trkpt lat="43.4137798" lon="11.2106443"><ele>190.0</ele><time>2026-04-29T14:50:24.38Z</time></trkpt><trkpt lat="43.413877" lon="11.2106608"><ele>189.25</ele><time>2026-04-29T14:50:26.383Z</time></trkpt><trkpt lat="43.4139915" lon="11.2106964"><ele>188.5</ele><time>2026-04-29T14:50:28.397Z</time></trkpt><trkpt lat="43.4141103" lon="11.2107269"><ele>187.75</ele><time>2026-04-29T14:50:30.382Z</time></trkpt><trkpt lat="43.4142286" lon="11.2107667"><ele>187.0</ele><time>2026-04-29T14:50:32.384Z</time></trkpt><trkpt lat="43.4143488" lon="11.2108161"><ele>187.0</ele><time>2026-04-29T14:50:34.384Z</time></trkpt><trkpt lat="43.4144095" lon="11.2108454"><ele>187.0</ele><time>2026-04-29T14:50:35.388Z</time></trkpt><trkpt lat="43.4144709" lon="11.2108709"><ele>187.0</ele><time>2026-04-29T14:50:36.386Z</time></trkpt><trkpt lat="43.4145353" lon="11.2108964"><ele>187.0</ele><time>2026-04-29T14:50:37.402Z</time></trkpt><trkpt lat="43.4145972" lon="11.2109207"><ele>187.0</ele><time>2026-04-29T14:50:38.394Z</time></trkpt><trkpt lat="43.4146602" lon="11.210946"><ele>187.0</ele><time>2026-04-29T14:50:39.383Z</time></trkpt><trkpt lat="43.4147223" lon="11.210971"><ele>187.0</ele><time>2026-04-29T14:50:40.385Z</time></trkpt><trkpt lat="43.4147844" lon="11.2109957"><ele>186.75</ele><time>2026-04-29T14:50:41.388Z</time></trkpt><trkpt lat="43.4149056" lon="11.2110428"><ele>186.5</ele><time>2026-04-29T14:50:43.389Z</time></trkpt><trkpt lat="43.4150246" lon="11.2110896"><ele>186.25</ele><time>2026-04-29T14:50:45.39Z</time></trkpt><trkpt lat="43.4151441" lon="11.2111363"><ele>186.0</ele><time>2026-04-29T14:50:47.387Z</time></trkpt><trkpt lat="43.4152608" lon="11.211186"><ele>186.0</ele><time>2026-04-29T14:50:49.437Z</time></trkpt><trkpt lat="43.4153765" lon="11.2112309"><ele>186.0</ele><time>2026-04-29T14:50:51.469Z</time></trkpt><trkpt lat="43.415486" lon="11.2112736"><ele>186.0</ele><time>2026-04-29T14:50:53.386Z</time></trkpt><trkpt lat="43.4155923" lon="11.2113244"><ele>186.0</ele><time>2026-04-29T14:50:55.385Z</time></trkpt><trkpt lat="43.4157005" lon="11.2113652"><ele>185.75</ele><time>2026-04-29T14:50:57.38Z</time></trkpt><trkpt lat="43.4158136" lon="11.2114106"><ele>185.5</ele><time>2026-04-29T14:50:59.386Z</time></trkpt><trkpt lat="43.4159258" lon="11.2114652"><ele>185.25</ele><time>2026-04-29T14:51:01.464Z</time></trkpt><trkpt lat="43.4160236" lon="11.2115402"><ele>185.0</ele><time>2026-04-29T14:51:03.394Z</time></trkpt><trkpt lat="43.4160981" lon="11.2116431"><ele>185.0</ele><time>2026-04-29T14:51:05.392Z</time></trkpt><trkpt lat="43.416168" lon="11.2117672"><ele>185.0</ele><time>2026-04-29T14:51:07.389Z</time></trkpt><trkpt lat="43.4162335" lon="11.2119099"><ele>185.0</ele><time>2026-04-29T14:51:09.387Z</time></trkpt><trkpt lat="43.4162643" lon="11.2119877"><ele>185.0</ele><time>2026-04-29T14:51:10.393Z</time></trkpt><trkpt lat="43.416295" lon="11.2120675"><ele>185.0</ele><time>2026-04-29T14:51:11.382Z</time></trkpt><trkpt lat="43.4163278" lon="11.2121477"><ele>185.0</ele><time>2026-04-29T14:51:12.396Z</time></trkpt><trkpt lat="43.4163623" lon="11.2122289"><ele>184.28571428571428</ele><time>2026-04-29T14:51:13.388Z</time></trkpt><trkpt lat="43.4163958" lon="11.2123106"><ele>183.57142857142856</ele><time>2026-04-29T14:51:14.39Z</time></trkpt><trkpt lat="43.4164285" lon="11.2123939"><ele>182.85714285714283</ele><time>2026-04-29T14:51:15.381Z</time></trkpt><trkpt lat="43.4164605" lon="11.2124784"><ele>182.14285714285714</ele><time>2026-04-29T14:51:16.392Z</time></trkpt><trkpt lat="43.4164941" lon="11.2125612"><ele>181.42857142857144</ele><time>2026-04-29T14:51:17.405Z</time></trkpt><trkpt lat="43.4165275" lon="11.2126417"><ele>180.7142857142857</ele><time>2026-04-29T14:51:18.401Z</time></trkpt><trkpt lat="43.4165606" lon="11.2127239"><ele>180.0</ele><time>2026-04-29T14:51:19.381Z</time></trkpt><trkpt lat="43.4165933" lon="11.2128045"><ele>180.0</ele><time>2026-04-29T14:51:20.388Z</time></trkpt><trkpt lat="43.416628" lon="11.2128856"><ele>180.0</ele><time>2026-04-29T14:51:21.393Z</time></trkpt><trkpt lat="43.4166617" lon="11.2129626"><ele>180.0</ele><time>2026-04-29T14:51:22.384Z</time></trkpt><trkpt lat="43.4166949" lon="11.2130425"><ele>180.0</ele><time>2026-04-29T14:51:23.396Z</time></trkpt><trkpt lat="43.4167273" lon="11.2131198"><ele>180.0</ele><time>2026-04-29T14:51:24.384Z</time></trkpt><trkpt lat="43.4167596" lon="11.2131988"><ele>180.0</ele><time>2026-04-29T14:51:25.4Z</time></trkpt><trkpt lat="43.4167935" lon="11.213276"><ele>180.0</ele><time>2026-04-29T14:51:26.374Z</time></trkpt><trkpt lat="43.4168262" lon="11.2133527"><ele>179.8</ele><time>2026-04-29T14:51:27.392Z</time></trkpt><trkpt lat="43.4168583" lon="11.2134276"><ele>179.6</ele><time>2026-04-29T14:51:28.397Z</time></trkpt><trkpt lat="43.4169184" lon="11.2135745"><ele>179.39999999999998</ele><time>2026-04-29T14:51:30.391Z</time></trkpt><trkpt lat="43.4169741" lon="11.2137161"><ele>179.2</ele><time>2026-04-29T14:51:32.394Z</time></trkpt><trkpt lat="43.4170279" lon="11.2138534"><ele>179.0</ele><time>2026-04-29T14:51:34.379Z</time></trkpt><trkpt lat="43.4170829" lon="11.2139903"><ele>178.66666666666666</ele><time>2026-04-29T14:51:36.472Z</time></trkpt><trkpt lat="43.4171066" lon="11.2140707"><ele>178.33333333333331</ele><time>2026-04-29T14:51:37.391Z</time></trkpt><trkpt lat="43.4171316" lon="11.2141563"><ele>178.0</ele><time>2026-04-29T14:51:38.395Z</time></trkpt><trkpt lat="43.4171819" lon="11.2142796"><ele>177.66666666666666</ele><time>2026-04-29T14:51:40.394Z</time></trkpt><trkpt lat="43.4172363" lon="11.2143875"><ele>177.33333333333334</ele><time>2026-04-29T14:51:42.383Z</time></trkpt><trkpt lat="43.4172872" lon="11.2145072"><ele>177.0</ele><time>2026-04-29T14:51:44.382Z</time></trkpt><trkpt lat="43.4173355" lon="11.2146399"><ele>177.0</ele><time>2026-04-29T14:51:46.387Z</time></trkpt><trkpt lat="43.4174043" lon="11.2147695"><ele>177.0</ele><time>2026-04-29T14:51:48.398Z</time></trkpt><trkpt lat="43.4174595" lon="11.2148952"><ele>177.0</ele><time>2026-04-29T14:51:50.398Z</time></trkpt><trkpt lat="43.4175173" lon="11.2150279"><ele>177.0</ele><time>2026-04-29T14:51:52.387Z</time></trkpt><trkpt lat="43.417577" lon="11.2151695"><ele>177.0</ele><time>2026-04-29T14:51:54.399Z</time></trkpt><trkpt lat="43.4176344" lon="11.2153113"><ele>177.0</ele><time>2026-04-29T14:51:56.394Z</time></trkpt><trkpt lat="43.4176874" lon="11.2154553"><ele>177.0</ele><time>2026-04-29T14:51:58.374Z</time></trkpt><trkpt lat="43.4177439" lon="11.2155983"><ele>177.0</ele><time>2026-04-29T14:52:00.455Z</time></trkpt><trkpt lat="43.4177953" lon="11.2157363"><ele>177.39999999999998</ele><time>2026-04-29T14:52:02.398Z</time></trkpt><trkpt lat="43.4178478" lon="11.2158654"><ele>177.79999999999998</ele><time>2026-04-29T14:52:04.389Z</time></trkpt><trkpt lat="43.4178919" lon="11.2159832"><ele>178.2</ele><time>2026-04-29T14:52:06.397Z</time></trkpt><trkpt lat="43.4179323" lon="11.2160936"><ele>178.6</ele><time>2026-04-29T14:52:08.383Z</time></trkpt><trkpt lat="43.4179747" lon="11.2161954"><ele>179.0</ele><time>2026-04-29T14:52:10.411Z</time></trkpt><trkpt lat="43.4180137" lon="11.2162972"><ele>179.33333333333331</ele><time>2026-04-29T14:52:12.39Z</time></trkpt><trkpt lat="43.4180524" lon="11.2163948"><ele>179.66666666666666</ele><time>2026-04-29T14:52:14.391Z</time></trkpt><trkpt lat="43.4180896" lon="11.2164906"><ele>180.0</ele><time>2026-04-29T14:52:16.383Z</time></trkpt><trkpt lat="43.4181284" lon="11.2165813"><ele>180.33333333333334</ele><time>2026-04-29T14:52:18.402Z</time></trkpt><trkpt lat="43.4181629" lon="11.2166694"><ele>180.66666666666669</ele><time>2026-04-29T14:52:20.399Z</time></trkpt><trkpt lat="43.4182017" lon="11.2167723"><ele>181.0</ele><time>2026-04-29T14:52:22.391Z</time></trkpt><trkpt lat="43.4182211" lon="11.2168577"><ele>181.66666666666669</ele><time>2026-04-29T14:52:24.395Z</time></trkpt><trkpt lat="43.4182567" lon="11.2169722"><ele>182.33333333333334</ele><time>2026-04-29T14:52:27.386Z</time></trkpt><trkpt lat="43.4182964" lon="11.2170917"><ele>183.0</ele><time>2026-04-29T14:52:30.369Z</time></trkpt><trkpt lat="43.4183223" lon="11.2171772"><ele>183.66666666666666</ele><time>2026-04-29T14:52:32.383Z</time></trkpt><trkpt lat="43.418354" lon="11.2172626"><ele>184.33333333333331</ele><time>2026-04-29T14:52:34.371Z</time></trkpt><trkpt lat="43.4183883" lon="11.2173482"><ele>185.0</ele><time>2026-04-29T14:52:36.48Z</time></trkpt><trkpt lat="43.4184243" lon="11.2174267"><ele>185.42857142857142</ele><time>2026-04-29T14:52:38.394Z</time></trkpt><trkpt lat="43.4184561" lon="11.2175076"><ele>185.85714285714286</ele><time>2026-04-29T14:52:40.383Z</time></trkpt><trkpt lat="43.4184829" lon="11.2175871"><ele>186.28571428571428</ele><time>2026-04-29T14:52:42.396Z</time></trkpt><trkpt lat="43.4185193" lon="11.2177049"><ele>186.71428571428572</ele><time>2026-04-29T14:52:45.396Z</time></trkpt><trkpt lat="43.4185639" lon="11.217813"><ele>187.14285714285714</ele><time>2026-04-29T14:52:48.393Z</time></trkpt><trkpt lat="43.4185955" lon="11.2178893"><ele>187.57142857142856</ele><time>2026-04-29T14:52:50.375Z</time></trkpt><trkpt lat="43.4186274" lon="11.2179683"><ele>188.0</ele><time>2026-04-29T14:52:52.375Z</time></trkpt><trkpt lat="43.418681" lon="11.2180745"><ele>188.5</ele><time>2026-04-29T14:52:55.379Z</time></trkpt><trkpt lat="43.4187296" lon="11.2181773"><ele>189.0</ele><time>2026-04-29T14:52:58.39Z</time></trkpt><trkpt lat="43.4187683" lon="11.2182721"><ele>189.5</ele><time>2026-04-29T14:53:01.397Z</time></trkpt><trkpt lat="43.4188109" lon="11.2183662"><ele>190.0</ele><time>2026-04-29T14:53:04.398Z</time></trkpt><trkpt lat="43.4188574" lon="11.2184675"><ele>190.5</ele><time>2026-04-29T14:53:07.394Z</time></trkpt><trkpt lat="43.4189141" lon="11.2185653"><ele>191.0</ele><time>2026-04-29T14:53:10.437Z</time></trkpt><trkpt lat="43.418969" lon="11.2186601"><ele>191.0</ele><time>2026-04-29T14:53:13.398Z</time></trkpt><trkpt lat="43.4190222" lon="11.2187562"><ele>191.0</ele><time>2026-04-29T14:53:16.391Z</time></trkpt><trkpt lat="43.4190781" lon="11.218848"><ele>191.0</ele><time>2026-04-29T14:53:19.374Z</time></trkpt><trkpt lat="43.4191179" lon="11.2189159"><ele>191.0</ele><time>2026-04-29T14:53:21.374Z</time></trkpt><trkpt lat="43.4191604" lon="11.2189809"><ele>191.0</ele><time>2026-04-29T14:53:23.387Z</time></trkpt><trkpt lat="43.4192029" lon="11.2190502"><ele>191.0</ele><time>2026-04-29T14:53:25.38Z</time></trkpt><trkpt lat="43.419247" lon="11.2191174"><ele>191.0</ele><time>2026-04-29T14:53:27.395Z</time></trkpt><trkpt lat="43.4192845" lon="11.2191884"><ele>191.33333333333331</ele><time>2026-04-29T14:53:29.396Z</time></trkpt><trkpt lat="43.4193399" lon="11.2192923"><ele>191.66666666666666</ele><time>2026-04-29T14:53:32.392Z</time></trkpt><trkpt lat="43.4193944" lon="11.2193789"><ele>192.0</ele><time>2026-04-29T14:53:34.386Z</time></trkpt><trkpt lat="43.4194316" lon="11.2194759"><ele>192.33333333333331</ele><time>2026-04-29T14:53:37.401Z</time></trkpt><trkpt lat="43.4194674" lon="11.2195813"><ele>192.66666666666666</ele><time>2026-04-29T14:53:40.387Z</time></trkpt><trkpt lat="43.4195036" lon="11.219689"><ele>193.0</ele><time>2026-04-29T14:53:43.39Z</time></trkpt><trkpt lat="43.4195298" lon="11.219798"><ele>193.16666666666666</ele><time>2026-04-29T14:53:46.393Z</time></trkpt><trkpt lat="43.4195593" lon="11.2199146"><ele>193.33333333333331</ele><time>2026-04-29T14:53:49.413Z</time></trkpt><trkpt lat="43.419586" lon="11.2200344"><ele>193.5</ele><time>2026-04-29T14:53:52.398Z</time></trkpt><trkpt lat="43.4196025" lon="11.2201523"><ele>193.66666666666669</ele><time>2026-04-29T14:53:55.405Z</time></trkpt><trkpt lat="43.4196231" lon="11.220265"><ele>193.83333333333334</ele><time>2026-04-29T14:53:58.398Z</time></trkpt><trkpt lat="43.4196378" lon="11.2203499"><ele>194.0</ele><time>2026-04-29T14:54:00.397Z</time></trkpt><trkpt lat="43.4196542" lon="11.2204559"><ele>194.00000000000003</ele><time>2026-04-29T14:54:02.397Z</time></trkpt><trkpt lat="43.4196712" lon="11.2205696"><ele>194.0</ele><time>2026-04-29T14:54:05.371Z</time></trkpt><trkpt lat="43.4196795" lon="11.2206824"><ele>194.0</ele><time>2026-04-29T14:54:08.393Z</time></trkpt><trkpt lat="43.4196972" lon="11.2207931"><ele>194.0</ele><time>2026-04-29T14:54:11.397Z</time></trkpt><trkpt lat="43.4197115" lon="11.2209071"><ele>194.00000000000003</ele><time>2026-04-29T14:54:14.393Z</time></trkpt><trkpt lat="43.4197248" lon="11.2210216"><ele>194.0</ele><time>2026-04-29T14:54:17.397Z</time></trkpt><trkpt lat="43.4197418" lon="11.2211455"><ele>194.57142857142856</ele><time>2026-04-29T14:54:20.403Z</time></trkpt><trkpt lat="43.4197563" lon="11.2212333"><ele>195.14285714285717</ele><time>2026-04-29T14:54:22.386Z</time></trkpt><trkpt lat="43.4197721" lon="11.2213204"><ele>195.71428571428572</ele><time>2026-04-29T14:54:24.383Z</time></trkpt><trkpt lat="43.4198006" lon="11.2214391"><ele>196.28571428571428</ele><time>2026-04-29T14:54:27.371Z</time></trkpt><trkpt lat="43.4198237" lon="11.2215219"><ele>196.85714285714283</ele><time>2026-04-29T14:54:29.402Z</time></trkpt><trkpt lat="43.4198498" lon="11.2216058"><ele>197.42857142857144</ele><time>2026-04-29T14:54:31.38Z</time></trkpt><trkpt lat="43.4198741" lon="11.2216906"><ele>198.0</ele><time>2026-04-29T14:54:33.389Z</time></trkpt><trkpt lat="43.4199032" lon="11.2217699"><ele>198.2857142857143</ele><time>2026-04-29T14:54:35.443Z</time></trkpt><trkpt lat="43.4199349" lon="11.2218483"><ele>198.57142857142856</ele><time>2026-04-29T14:54:37.391Z</time></trkpt><trkpt lat="43.4199713" lon="11.2219242"><ele>198.85714285714286</ele><time>2026-04-29T14:54:39.386Z</time></trkpt><trkpt lat="43.4200076" lon="11.2220026"><ele>199.14285714285717</ele><time>2026-04-29T14:54:41.372Z</time></trkpt><trkpt lat="43.4200486" lon="11.2220815"><ele>199.42857142857144</ele><time>2026-04-29T14:54:43.388Z</time></trkpt><trkpt lat="43.4200957" lon="11.2221632"><ele>199.71428571428572</ele><time>2026-04-29T14:54:45.391Z</time></trkpt><trkpt lat="43.420143" lon="11.222247"><ele>200.0</ele><time>2026-04-29T14:54:47.386Z</time></trkpt><trkpt lat="43.4201941" lon="11.222325"><ele>200.00000000000003</ele><time>2026-04-29T14:54:49.392Z</time></trkpt><trkpt lat="43.4202502" lon="11.2223976"><ele>200.0</ele><time>2026-04-29T14:54:51.382Z</time></trkpt><trkpt lat="43.4203032" lon="11.2224696"><ele>200.0</ele><time>2026-04-29T14:54:53.385Z</time></trkpt><trkpt lat="43.4203622" lon="11.2225425"><ele>200.0</ele><time>2026-04-29T14:54:55.376Z</time></trkpt><trkpt lat="43.4204171" lon="11.2226175"><ele>200.00000000000003</ele><time>2026-04-29T14:54:57.381Z</time></trkpt><trkpt lat="43.4204756" lon="11.2226917"><ele>200.0</ele><time>2026-04-29T14:54:59.388Z</time></trkpt><trkpt lat="43.4205306" lon="11.2227709"><ele>200.00000000000003</ele><time>2026-04-29T14:55:01.385Z</time></trkpt><trkpt lat="43.42059" lon="11.2228466"><ele>200.0</ele><time>2026-04-29T14:55:03.392Z</time></trkpt><trkpt lat="43.4206467" lon="11.2229224"><ele>200.0</ele><time>2026-04-29T14:55:05.398Z</time></trkpt><trkpt lat="43.4206949" lon="11.2229962"><ele>200.0</ele><time>2026-04-29T14:55:07.384Z</time></trkpt><trkpt lat="43.4207506" lon="11.2230832"><ele>200.00000000000003</ele><time>2026-04-29T14:55:09.393Z</time></trkpt><trkpt lat="43.4208212" lon="11.2231692"><ele>200.0</ele><time>2026-04-29T14:55:11.391Z</time></trkpt><trkpt lat="43.4208888" lon="11.2232504"><ele>200.4</ele><time>2026-04-29T14:55:13.396Z</time></trkpt><trkpt lat="43.420954" lon="11.2233449"><ele>200.8</ele><time>2026-04-29T14:55:15.388Z</time></trkpt><trkpt lat="43.4210179" lon="11.2234432"><ele>201.2</ele><time>2026-04-29T14:55:17.397Z</time></trkpt><trkpt lat="43.4210812" lon="11.2235476"><ele>201.6</ele><time>2026-04-29T14:55:19.393Z</time></trkpt><trkpt lat="43.42113" lon="11.2236668"><ele>202.0</ele><time>2026-04-29T14:55:21.391Z</time></trkpt><trkpt lat="43.4211868" lon="11.2237911"><ele>202.0</ele><time>2026-04-29T14:55:23.387Z</time></trkpt><trkpt lat="43.4212457" lon="11.2239057"><ele>202.0</ele><time>2026-04-29T14:55:25.396Z</time></trkpt><trkpt lat="43.4212978" lon="11.2240343"><ele>202.0</ele><time>2026-04-29T14:55:27.387Z</time></trkpt><trkpt lat="43.4213392" lon="11.2241743"><ele>202.0</ele><time>2026-04-29T14:55:29.391Z</time></trkpt><trkpt lat="43.4213794" lon="11.2243177"><ele>202.0</ele><time>2026-04-29T14:55:31.392Z</time></trkpt><trkpt lat="43.4214225" lon="11.2244644"><ele>201.6</ele><time>2026-04-29T14:55:33.387Z</time></trkpt><trkpt lat="43.4214598" lon="11.2246204"><ele>201.2</ele><time>2026-04-29T14:55:35.395Z</time></trkpt><trkpt lat="43.4214868" lon="11.224784"><ele>200.8</ele><time>2026-04-29T14:55:37.388Z</time></trkpt><trkpt lat="43.42152" lon="11.2249439"><ele>200.4</ele><time>2026-04-29T14:55:39.389Z</time></trkpt><trkpt lat="43.4215413" lon="11.2250281"><ele>200.0</ele><time>2026-04-29T14:55:40.402Z</time></trkpt><trkpt lat="43.4215761" lon="11.2251785"><ele>199.83333333333334</ele><time>2026-04-29T14:55:42.388Z</time></trkpt><trkpt lat="43.4215972" lon="11.2252676"><ele>199.66666666666669</ele><time>2026-04-29T14:55:43.391Z</time></trkpt><trkpt lat="43.4216238" lon="11.2253559"><ele>199.5</ele><time>2026-04-29T14:55:44.397Z</time></trkpt><trkpt lat="43.4216489" lon="11.2254398"><ele>199.33333333333331</ele><time>2026-04-29T14:55:45.386Z</time></trkpt><trkpt lat="43.4216722" lon="11.2255216"><ele>199.16666666666666</ele><time>2026-04-29T14:55:46.393Z</time></trkpt><trkpt lat="43.421696" lon="11.2256025"><ele>199.0</ele><time>2026-04-29T14:55:47.387Z</time></trkpt><trkpt lat="43.4217378" lon="11.225761"><ele>198.83333333333331</ele><time>2026-04-29T14:55:49.371Z</time></trkpt><trkpt lat="43.4217798" lon="11.2259078"><ele>198.66666666666666</ele><time>2026-04-29T14:55:51.448Z</time></trkpt><trkpt lat="43.4217993" lon="11.2259903"><ele>198.5</ele><time>2026-04-29T14:55:52.39Z</time></trkpt><trkpt lat="43.4218165" lon="11.2260768"><ele>198.33333333333331</ele><time>2026-04-29T14:55:53.397Z</time></trkpt><trkpt lat="43.4218355" lon="11.2261637"><ele>198.16666666666666</ele><time>2026-04-29T14:55:54.398Z</time></trkpt><trkpt lat="43.4218709" lon="11.2263327"><ele>198.0</ele><time>2026-04-29T14:55:56.394Z</time></trkpt><trkpt lat="43.4218925" lon="11.2264156"><ele>197.66666666666666</ele><time>2026-04-29T14:55:57.399Z</time></trkpt><trkpt lat="43.421935" lon="11.2265766"><ele>197.33333333333331</ele><time>2026-04-29T14:55:59.4Z</time></trkpt><trkpt lat="43.4219552" lon="11.2266587"><ele>197.0</ele><time>2026-04-29T14:56:00.405Z</time></trkpt><trkpt lat="43.4219929" lon="11.2268232"><ele>196.66666666666666</ele><time>2026-04-29T14:56:02.387Z</time></trkpt><trkpt lat="43.4220117" lon="11.2269066"><ele>196.33333333333331</ele><time>2026-04-29T14:56:03.4Z</time></trkpt><trkpt lat="43.4220313" lon="11.22699"><ele>196.0</ele><time>2026-04-29T14:56:04.388Z</time></trkpt><trkpt lat="43.4220522" lon="11.2270728"><ele>195.99999999999997</ele><time>2026-04-29T14:56:05.401Z</time></trkpt><trkpt lat="43.4220729" lon="11.2271549"><ele>196.0</ele><time>2026-04-29T14:56:06.388Z</time></trkpt><trkpt lat="43.422094" lon="11.2272382"><ele>196.0</ele><time>2026-04-29T14:56:07.375Z</time></trkpt><trkpt lat="43.4221138" lon="11.2273229"><ele>196.0</ele><time>2026-04-29T14:56:08.402Z</time></trkpt><trkpt lat="43.4221332" lon="11.2274076"><ele>195.99999999999997</ele><time>2026-04-29T14:56:09.392Z</time></trkpt><trkpt lat="43.4221597" lon="11.2275634"><ele>196.0</ele><time>2026-04-29T14:56:11.379Z</time></trkpt><trkpt lat="43.4221949" lon="11.2277238"><ele>196.28571428571428</ele><time>2026-04-29T14:56:13.374Z</time></trkpt><trkpt lat="43.4222233" lon="11.2278121"><ele>196.57142857142856</ele><time>2026-04-29T14:56:14.39Z</time></trkpt><trkpt lat="43.4222532" lon="11.2278984"><ele>196.85714285714286</ele><time>2026-04-29T14:56:15.409Z</time></trkpt><trkpt lat="43.422282" lon="11.2279855"><ele>197.14285714285714</ele><time>2026-04-29T14:56:16.475Z</time></trkpt><trkpt lat="43.4223105" lon="11.2280687"><ele>197.42857142857142</ele><time>2026-04-29T14:56:17.394Z</time></trkpt><trkpt lat="43.4223396" lon="11.2281569"><ele>197.71428571428572</ele><time>2026-04-29T14:56:18.399Z</time></trkpt><trkpt lat="43.422367" lon="11.2282452"><ele>198.0</ele><time>2026-04-29T14:56:19.396Z</time></trkpt><trkpt lat="43.422394" lon="11.2283303"><ele>198.0</ele><time>2026-04-29T14:56:20.383Z</time></trkpt><trkpt lat="43.422422" lon="11.2284158"><ele>198.0</ele><time>2026-04-29T14:56:21.41Z</time></trkpt><trkpt lat="43.4224501" lon="11.2284982"><ele>198.0</ele><time>2026-04-29T14:56:22.395Z</time></trkpt><trkpt lat="43.4224787" lon="11.2285819"><ele>198.0</ele><time>2026-04-29T14:56:23.385Z</time></trkpt><trkpt lat="43.422507" lon="11.2286665"><ele>198.0</ele><time>2026-04-29T14:56:24.402Z</time></trkpt><trkpt lat="43.4225356" lon="11.2287519"><ele>198.0</ele><time>2026-04-29T14:56:25.465Z</time></trkpt><trkpt lat="43.4225639" lon="11.2288353"><ele>198.0</ele><time>2026-04-29T14:56:26.473Z</time></trkpt><trkpt lat="43.422583" lon="11.2289361"><ele>197.66666666666666</ele><time>2026-04-29T14:56:27.394Z</time></trkpt><trkpt lat="43.4225975" lon="11.2290468"><ele>197.33333333333331</ele><time>2026-04-29T14:56:28.393Z</time></trkpt><trkpt lat="43.4226307" lon="11.2291285"><ele>197.0</ele><time>2026-04-29T14:56:29.395Z</time></trkpt><trkpt lat="43.4226654" lon="11.229201"><ele>196.66666666666666</ele><time>2026-04-29T14:56:30.383Z</time></trkpt><trkpt lat="43.4227001" lon="11.2292764"><ele>196.33333333333331</ele><time>2026-04-29T14:56:31.393Z</time></trkpt><trkpt lat="43.4227583" lon="11.2294319"><ele>196.0</ele><time>2026-04-29T14:56:33.396Z</time></trkpt><trkpt lat="43.4227859" lon="11.2295124"><ele>196.0</ele><time>2026-04-29T14:56:34.388Z</time></trkpt><trkpt lat="43.4228135" lon="11.2295939"><ele>196.0</ele><time>2026-04-29T14:56:35.388Z</time></trkpt><trkpt lat="43.4228397" lon="11.2296749"><ele>196.0</ele><time>2026-04-29T14:56:36.397Z</time></trkpt><trkpt lat="43.4228917" lon="11.2298304"><ele>196.0</ele><time>2026-04-29T14:56:38.403Z</time></trkpt><trkpt lat="43.4229425" lon="11.2299879"><ele>196.0</ele><time>2026-04-29T14:56:40.404Z</time></trkpt><trkpt lat="43.4229889" lon="11.2301395"><ele>195.99999999999997</ele><time>2026-04-29T14:56:42.381Z</time></trkpt><trkpt lat="43.4230426" lon="11.2302817"><ele>196.0</ele><time>2026-04-29T14:56:44.476Z</time></trkpt><trkpt lat="43.4230944" lon="11.2304419"><ele>196.0</ele><time>2026-04-29T14:56:46.387Z</time></trkpt><trkpt lat="43.4231218" lon="11.2305256"><ele>196.0</ele><time>2026-04-29T14:56:47.393Z</time></trkpt><trkpt lat="43.4231472" lon="11.2306073"><ele>195.99999999999997</ele><time>2026-04-29T14:56:48.384Z</time></trkpt><trkpt lat="43.4231743" lon="11.2306874"><ele>196.0</ele><time>2026-04-29T14:56:49.384Z</time></trkpt><trkpt lat="43.4232027" lon="11.2307659"><ele>196.0</ele><time>2026-04-29T14:56:50.432Z</time></trkpt><trkpt lat="43.4232523" lon="11.2309211"><ele>196.0</ele><time>2026-04-29T14:56:52.385Z</time></trkpt><trkpt lat="43.423278" lon="11.2310012"><ele>196.0</ele><time>2026-04-29T14:56:53.376Z</time></trkpt><trkpt lat="43.4233267" lon="11.2311543"><ele>196.0</ele><time>2026-04-29T14:56:55.389Z</time></trkpt><trkpt lat="43.4233778" lon="11.231305"><ele>196.0</ele><time>2026-04-29T14:56:57.392Z</time></trkpt><trkpt lat="43.4234253" lon="11.2314597"><ele>195.8</ele><time>2026-04-29T14:56:59.397Z</time></trkpt><trkpt lat="43.4234636" lon="11.2315913"><ele>195.60000000000002</ele><time>2026-04-29T14:57:01.388Z</time></trkpt><trkpt lat="43.4235059" lon="11.2317287"><ele>195.4</ele><time>2026-04-29T14:57:03.394Z</time></trkpt><trkpt lat="43.4235587" lon="11.2318912"><ele>195.2</ele><time>2026-04-29T14:57:05.381Z</time></trkpt><trkpt lat="43.4235854" lon="11.231973"><ele>195.0</ele><time>2026-04-29T14:57:06.389Z</time></trkpt><trkpt lat="43.4236106" lon="11.2320535"><ele>195.0</ele><time>2026-04-29T14:57:07.376Z</time></trkpt><trkpt lat="43.4236648" lon="11.2322086"><ele>195.0</ele><time>2026-04-29T14:57:09.398Z</time></trkpt><trkpt lat="43.4237173" lon="11.2323587"><ele>195.0</ele><time>2026-04-29T14:57:11.405Z</time></trkpt><trkpt lat="43.4237682" lon="11.2325091"><ele>195.0</ele><time>2026-04-29T14:57:13.401Z</time></trkpt><trkpt lat="43.4238174" lon="11.2326609"><ele>195.75</ele><time>2026-04-29T14:57:15.369Z</time></trkpt><trkpt lat="43.4238917" lon="11.2328886"><ele>196.5</ele><time>2026-04-29T14:57:18.394Z</time></trkpt><trkpt lat="43.4239442" lon="11.2330341"><ele>197.25</ele><time>2026-04-29T14:57:20.481Z</time></trkpt><trkpt lat="43.4239891" lon="11.2331802"><ele>198.0</ele><time>2026-04-29T14:57:22.399Z</time></trkpt><trkpt lat="43.4240409" lon="11.2333356"><ele>198.0</ele><time>2026-04-29T14:57:24.396Z</time></trkpt><trkpt lat="43.4240901" lon="11.233483"><ele>198.0</ele><time>2026-04-29T14:57:26.476Z</time></trkpt><trkpt lat="43.4241233" lon="11.2336159"><ele>198.0</ele><time>2026-04-29T14:57:28.4Z</time></trkpt><trkpt lat="43.4241736" lon="11.2337562"><ele>198.0</ele><time>2026-04-29T14:57:30.393Z</time></trkpt><trkpt lat="43.4242262" lon="11.233891"><ele>198.0</ele><time>2026-04-29T14:57:32.387Z</time></trkpt><trkpt lat="43.424276" lon="11.2340264"><ele>198.0</ele><time>2026-04-29T14:57:34.4Z</time></trkpt><trkpt lat="43.4243266" lon="11.2341589"><ele>198.0</ele><time>2026-04-29T14:57:36.385Z</time></trkpt><trkpt lat="43.4243707" lon="11.2342862"><ele>198.0</ele><time>2026-04-29T14:57:38.404Z</time></trkpt><trkpt lat="43.4244167" lon="11.2344098"><ele>198.0</ele><time>2026-04-29T14:57:40.394Z</time></trkpt><trkpt lat="43.4244636" lon="11.2345316"><ele>198.0</ele><time>2026-04-29T14:57:42.394Z</time></trkpt><trkpt lat="43.4245066" lon="11.2346529"><ele>198.0</ele><time>2026-04-29T14:57:44.398Z</time></trkpt><trkpt lat="43.4245455" lon="11.2347753"><ele>198.0</ele><time>2026-04-29T14:57:46.395Z</time></trkpt><trkpt lat="43.4245761" lon="11.2348942"><ele>198.0</ele><time>2026-04-29T14:57:48.408Z</time></trkpt><trkpt lat="43.4245975" lon="11.2350166"><ele>198.0</ele><time>2026-04-29T14:57:50.392Z</time></trkpt><trkpt lat="43.4246034" lon="11.2351494"><ele>198.0</ele><time>2026-04-29T14:57:52.386Z</time></trkpt><trkpt lat="43.4246156" lon="11.2352625"><ele>197.8</ele><time>2026-04-29T14:57:54.405Z</time></trkpt><trkpt lat="43.4246182" lon="11.2353864"><ele>197.60000000000002</ele><time>2026-04-29T14:57:56.389Z</time></trkpt><trkpt lat="43.4246193" lon="11.2355659"><ele>197.39999999999998</ele><time>2026-04-29T14:57:59.374Z</time></trkpt><trkpt lat="43.4245857" lon="11.2356479"><ele>197.2</ele><time>2026-04-29T14:58:01.452Z</time></trkpt><trkpt lat="43.4245619" lon="11.2357801"><ele>197.0</ele><time>2026-04-29T14:58:03.381Z</time></trkpt><trkpt lat="43.4245248" lon="11.2358963"><ele>197.33333333333334</ele><time>2026-04-29T14:58:05.383Z</time></trkpt><trkpt lat="43.424489" lon="11.2359943"><ele>197.66666666666669</ele><time>2026-04-29T14:58:07.386Z</time></trkpt><trkpt lat="43.4244559" lon="11.2361017"><ele>198.0</ele><time>2026-04-29T14:58:09.394Z</time></trkpt><trkpt lat="43.4244125" lon="11.2362051"><ele>198.33333333333331</ele><time>2026-04-29T14:58:11.472Z</time></trkpt><trkpt lat="43.4243576" lon="11.2362877"><ele>198.66666666666666</ele><time>2026-04-29T14:58:13.391Z</time></trkpt><trkpt lat="43.4243014" lon="11.2363891"><ele>199.0</ele><time>2026-04-29T14:58:15.391Z</time></trkpt><trkpt lat="43.4242625" lon="11.236487"><ele>199.16666666666666</ele><time>2026-04-29T14:58:17.4Z</time></trkpt><trkpt lat="43.4242245" lon="11.2365857"><ele>199.33333333333331</ele><time>2026-04-29T14:58:19.403Z</time></trkpt><trkpt lat="43.4241849" lon="11.2366795"><ele>199.5</ele><time>2026-04-29T14:58:21.4Z</time></trkpt><trkpt lat="43.4241488" lon="11.2367755"><ele>199.66666666666669</ele><time>2026-04-29T14:58:23.396Z</time></trkpt><trkpt lat="43.4241156" lon="11.23688"><ele>199.83333333333334</ele><time>2026-04-29T14:58:25.39Z</time></trkpt><trkpt lat="43.4240867" lon="11.2369743"><ele>200.0</ele><time>2026-04-29T14:58:27.396Z</time></trkpt><trkpt lat="43.4240585" lon="11.237061"><ele>200.00000000000003</ele><time>2026-04-29T14:58:29.453Z</time></trkpt><trkpt lat="43.4240357" lon="11.2371435"><ele>200.0</ele><time>2026-04-29T14:58:31.459Z</time></trkpt><trkpt lat="43.4240226" lon="11.2372405"><ele>200.0</ele><time>2026-04-29T14:58:33.394Z</time></trkpt><trkpt lat="43.424" lon="11.2373309"><ele>200.0</ele><time>2026-04-29T14:58:35.46Z</time></trkpt><trkpt lat="43.4239796" lon="11.2374332"><ele>200.0</ele><time>2026-04-29T14:58:37.378Z</time></trkpt><trkpt lat="43.4239674" lon="11.2375347"><ele>200.00000000000003</ele><time>2026-04-29T14:58:39.395Z</time></trkpt><trkpt lat="43.4239625" lon="11.2376577"><ele>200.0</ele><time>2026-04-29T14:58:42.379Z</time></trkpt><trkpt lat="43.42398" lon="11.237787"><ele>200.16666666666669</ele><time>2026-04-29T14:58:45.444Z</time></trkpt><trkpt lat="43.4239785" lon="11.2379087"><ele>200.33333333333334</ele><time>2026-04-29T14:58:47.377Z</time></trkpt><trkpt lat="43.4239722" lon="11.2380242"><ele>200.5</ele><time>2026-04-29T14:58:50.388Z</time></trkpt><trkpt lat="43.4239776" lon="11.2381247"><ele>200.66666666666669</ele><time>2026-04-29T14:58:53.398Z</time></trkpt><trkpt lat="43.4239842" lon="11.2382306"><ele>200.83333333333334</ele><time>2026-04-29T14:58:56.39Z</time></trkpt><trkpt lat="43.4240046" lon="11.2383416"><ele>201.0</ele><time>2026-04-29T14:58:59.375Z</time></trkpt><trkpt lat="43.424027" lon="11.2384476"><ele>201.16666666666666</ele><time>2026-04-29T14:59:02.423Z</time></trkpt><trkpt lat="43.4240485" lon="11.2385484"><ele>201.33333333333331</ele><time>2026-04-29T14:59:05.384Z</time></trkpt><trkpt lat="43.4240749" lon="11.2386793"><ele>201.5</ele><time>2026-04-29T14:59:08.388Z</time></trkpt><trkpt lat="43.4240922" lon="11.23877"><ele>201.66666666666666</ele><time>2026-04-29T14:59:12.394Z</time></trkpt><trkpt lat="43.4241014" lon="11.238874"><ele>201.83333333333331</ele><time>2026-04-29T14:59:16.453Z</time></trkpt><trkpt lat="43.4241308" lon="11.2389585"><ele>202.0</ele><time>2026-04-29T14:59:19.387Z</time></trkpt><trkpt lat="43.4241855" lon="11.2390024"><ele>202.85714285714286</ele><time>2026-04-29T14:59:22.396Z</time></trkpt><trkpt lat="43.424225" lon="11.2390731"><ele>203.71428571428572</ele><time>2026-04-29T14:59:25.367Z</time></trkpt><trkpt lat="43.4242652" lon="11.2391588"><ele>204.57142857142856</ele><time>2026-04-29T14:59:29.391Z</time></trkpt><trkpt lat="43.4243155" lon="11.2392386"><ele>205.42857142857144</ele><time>2026-04-29T14:59:33.387Z</time></trkpt><trkpt lat="43.4243589" lon="11.2393185"><ele>206.2857142857143</ele><time>2026-04-29T14:59:37.37Z</time></trkpt><trkpt lat="43.4244086" lon="11.239397"><ele>207.14285714285714</ele><time>2026-04-29T14:59:41.443Z</time></trkpt><trkpt lat="43.424455" lon="11.239476"><ele>208.0</ele><time>2026-04-29T14:59:45.458Z</time></trkpt><trkpt lat="43.4245051" lon="11.2395512"><ele>207.99999999999997</ele><time>2026-04-29T14:59:49.39Z</time></trkpt><trkpt lat="43.4245529" lon="11.239631"><ele>208.0</ele><time>2026-04-29T14:59:53.396Z</time></trkpt><trkpt lat="43.4245969" lon="11.2397114"><ele>208.0</ele><time>2026-04-29T14:59:57.389Z</time></trkpt><trkpt lat="43.424643" lon="11.2397855"><ele>208.0</ele><time>2026-04-29T15:00:01.392Z</time></trkpt><trkpt lat="43.4246982" lon="11.2398679"><ele>207.99999999999997</ele><time>2026-04-29T15:00:05.379Z</time></trkpt><trkpt lat="43.4247501" lon="11.2399519"><ele>208.0</ele><time>2026-04-29T15:00:09.4Z</time></trkpt><trkpt lat="43.4247969" lon="11.2400295"><ele>208.42857142857142</ele><time>2026-04-29T15:00:13.397Z</time></trkpt><trkpt lat="43.4248431" lon="11.2401115"><ele>208.85714285714286</ele><time>2026-04-29T15:00:17.387Z</time></trkpt><trkpt lat="43.424888" lon="11.2401911"><ele>209.28571428571428</ele><time>2026-04-29T15:00:21.452Z</time></trkpt><trkpt lat="43.4249372" lon="11.2402619"><ele>209.71428571428572</ele><time>2026-04-29T15:00:25.454Z</time></trkpt><trkpt lat="43.4249959" lon="11.2403213"><ele>210.14285714285717</ele><time>2026-04-29T15:00:29.387Z</time></trkpt><trkpt lat="43.4250324" lon="11.2404114"><ele>210.57142857142858</ele><time>2026-04-29T15:00:32.38Z</time></trkpt><trkpt lat="43.4250802" lon="11.2404716"><ele>211.0</ele><time>2026-04-29T15:00:36.472Z</time></trkpt><trkpt lat="43.4251325" lon="11.2405314"><ele>210.99999999999997</ele><time>2026-04-29T15:00:39.399Z</time></trkpt><trkpt lat="43.4251886" lon="11.2405944"><ele>211.0</ele><time>2026-04-29T15:00:43.401Z</time></trkpt><trkpt lat="43.4252452" lon="11.2406464"><ele>211.0</ele><time>2026-04-29T15:00:47.394Z</time></trkpt><trkpt lat="43.4253076" lon="11.2407011"><ele>211.0</ele><time>2026-04-29T15:00:51.459Z</time></trkpt><trkpt lat="43.4253789" lon="11.2407375"><ele>210.99999999999997</ele><time>2026-04-29T15:00:55.46Z</time></trkpt><trkpt lat="43.4254498" lon="11.2407811"><ele>211.0</ele><time>2026-04-29T15:00:59.389Z</time></trkpt><trkpt lat="43.4255312" lon="11.2408183"><ele>212.49999999999997</ele><time>2026-04-29T15:01:03.39Z</time></trkpt><trkpt lat="43.4256047" lon="11.2408706"><ele>214.0</ele><time>2026-04-29T15:01:07.397Z</time></trkpt><trkpt lat="43.4256782" lon="11.2408907"><ele>215.5</ele><time>2026-04-29T15:01:09.374Z</time></trkpt><trkpt lat="43.4257597" lon="11.2408989"><ele>217.0</ele><time>2026-04-29T15:01:13.376Z</time></trkpt><trkpt lat="43.4258377" lon="11.2409167"><ele>218.49999999999997</ele><time>2026-04-29T15:01:17.379Z</time></trkpt><trkpt lat="43.4259155" lon="11.2409291"><ele>220.0</ele><time>2026-04-29T15:01:21.398Z</time></trkpt><trkpt lat="43.4259915" lon="11.2409387"><ele>219.99999999999997</ele><time>2026-04-29T15:01:25.389Z</time></trkpt><trkpt lat="43.4260733" lon="11.2409461"><ele>220.0</ele><time>2026-04-29T15:01:29.446Z</time></trkpt><trkpt lat="43.4261535" lon="11.2409535"><ele>220.0</ele><time>2026-04-29T15:01:33.393Z</time></trkpt><trkpt lat="43.4262166" lon="11.2409598"><ele>220.0</ele><time>2026-04-29T15:01:36.454Z</time></trkpt><trkpt lat="43.4262821" lon="11.2409742"><ele>220.0</ele><time>2026-04-29T15:01:39.386Z</time></trkpt><trkpt lat="43.4263607" lon="11.2409892"><ele>219.99999999999997</ele><time>2026-04-29T15:01:43.396Z</time></trkpt><trkpt lat="43.4264347" lon="11.2410055"><ele>220.0</ele><time>2026-04-29T15:01:48.382Z</time></trkpt><trkpt lat="43.4265074" lon="11.2410178"><ele>220.57142857142856</ele><time>2026-04-29T15:01:51.39Z</time></trkpt><trkpt lat="43.4265736" lon="11.2410143"><ele>221.14285714285714</ele><time>2026-04-29T15:01:54.366Z</time></trkpt><trkpt lat="43.4266412" lon="11.2410182"><ele>221.71428571428572</ele><time>2026-04-29T15:01:57.393Z</time></trkpt><trkpt lat="43.4267035" lon="11.2410327"><ele>222.28571428571428</ele><time>2026-04-29T15:02:00.385Z</time></trkpt><trkpt lat="43.4267685" lon="11.24105"><ele>222.85714285714286</ele><time>2026-04-29T15:02:03.39Z</time></trkpt><trkpt lat="43.4268388" lon="11.2410741"><ele>223.42857142857142</ele><time>2026-04-29T15:02:06.456Z</time></trkpt><trkpt lat="43.4269118" lon="11.2410825"><ele>224.0</ele><time>2026-04-29T15:02:09.453Z</time></trkpt><trkpt lat="43.4269864" lon="11.241093"><ele>224.0</ele><time>2026-04-29T15:02:11.468Z</time></trkpt><trkpt lat="43.4270402" lon="11.2411402"><ele>224.0</ele><time>2026-04-29T15:02:14.394Z</time></trkpt><trkpt lat="43.4271059" lon="11.2411927"><ele>224.0</ele><time>2026-04-29T15:02:19.389Z</time></trkpt><trkpt lat="43.427162" lon="11.2412326"><ele>224.0</ele><time>2026-04-29T15:02:22.38Z</time></trkpt><trkpt lat="43.4272321" lon="11.2412899"><ele>224.0</ele><time>2026-04-29T15:02:26.381Z</time></trkpt><trkpt lat="43.4272992" lon="11.2413556"><ele>224.0</ele><time>2026-04-29T15:02:30.389Z</time></trkpt><trkpt lat="43.4273531" lon="11.2414144"><ele>224.0</ele><time>2026-04-29T15:02:33.387Z</time></trkpt><trkpt lat="43.4274036" lon="11.2414796"><ele>225.50000000000003</ele><time>2026-04-29T15:02:36.385Z</time></trkpt><trkpt lat="43.427461" lon="11.2415457"><ele>227.0</ele><time>2026-04-29T15:02:39.383Z</time></trkpt><trkpt lat="43.4275128" lon="11.2416174"><ele>228.5</ele><time>2026-04-29T15:02:42.388Z</time></trkpt><trkpt lat="43.4275762" lon="11.2417079"><ele>230.0</ele><time>2026-04-29T15:02:45.448Z</time></trkpt><trkpt lat="43.4276172" lon="11.2417863"><ele>231.50000000000003</ele><time>2026-04-29T15:02:48.388Z</time></trkpt><trkpt lat="43.4276617" lon="11.2418484"><ele>233.0</ele><time>2026-04-29T15:02:50.383Z</time></trkpt><trkpt lat="43.4277294" lon="11.2419271"><ele>233.00000000000003</ele><time>2026-04-29T15:02:53.385Z</time></trkpt><trkpt lat="43.4277949" lon="11.242022"><ele>233.0</ele><time>2026-04-29T15:02:56.462Z</time></trkpt><trkpt lat="43.4278587" lon="11.2420987"><ele>233.0</ele><time>2026-04-29T15:02:59.397Z</time></trkpt><trkpt lat="43.4279244" lon="11.2421781"><ele>233.0</ele><time>2026-04-29T15:03:02.387Z</time></trkpt><trkpt lat="43.4279928" lon="11.2422639"><ele>233.00000000000003</ele><time>2026-04-29T15:03:05.387Z</time></trkpt><trkpt lat="43.4280566" lon="11.2423502"><ele>233.0</ele><time>2026-04-29T15:03:08.386Z</time></trkpt><trkpt lat="43.4281189" lon="11.2424397"><ele>232.57142857142858</ele><time>2026-04-29T15:03:11.386Z</time></trkpt><trkpt lat="43.4281637" lon="11.2425037"><ele>232.1428571428571</ele><time>2026-04-29T15:03:13.367Z</time></trkpt><trkpt lat="43.4282112" lon="11.2425751"><ele>231.7142857142857</ele><time>2026-04-29T15:03:15.46Z</time></trkpt><trkpt lat="43.428255" lon="11.2426422"><ele>231.28571428571428</ele><time>2026-04-29T15:03:17.37Z</time></trkpt><trkpt lat="43.4282917" lon="11.24272"><ele>230.85714285714283</ele><time>2026-04-29T15:03:19.369Z</time></trkpt><trkpt lat="43.4283284" lon="11.2428055"><ele>230.4285714285714</ele><time>2026-04-29T15:03:21.46Z</time></trkpt><trkpt lat="43.4283638" lon="11.2428914"><ele>229.99999999999997</ele><time>2026-04-29T15:03:23.386Z</time></trkpt><trkpt lat="43.4283947" lon="11.2429853"><ele>230.00000000000003</ele><time>2026-04-29T15:03:25.372Z</time></trkpt><trkpt lat="43.428425" lon="11.2430864"><ele>230.0</ele><time>2026-04-29T15:03:27.383Z</time></trkpt><trkpt lat="43.4284506" lon="11.2431854"><ele>230.0</ele><time>2026-04-29T15:03:29.451Z</time></trkpt><trkpt lat="43.428452" lon="11.2433019"><ele>230.0</ele><time>2026-04-29T15:03:31.378Z</time></trkpt><trkpt lat="43.4284673" lon="11.2434106"><ele>230.00000000000003</ele><time>2026-04-29T15:03:33.365Z</time></trkpt><trkpt lat="43.4284856" lon="11.2435126"><ele>230.0</ele><time>2026-04-29T15:03:35.464Z</time></trkpt><trkpt lat="43.4284808" lon="11.2436132"><ele>229.83333333333334</ele><time>2026-04-29T15:03:37.401Z</time></trkpt><trkpt lat="43.4284607" lon="11.2436993"><ele>229.66666666666669</ele><time>2026-04-29T15:03:39.394Z</time></trkpt><trkpt lat="43.4284375" lon="11.2438154"><ele>229.5</ele><time>2026-04-29T15:03:41.39Z</time></trkpt><trkpt lat="43.4284282" lon="11.2439377"><ele>229.33333333333331</ele><time>2026-04-29T15:03:43.389Z</time></trkpt><trkpt lat="43.4284162" lon="11.2440552"><ele>229.16666666666666</ele><time>2026-04-29T15:03:45.391Z</time></trkpt><trkpt lat="43.428404" lon="11.2441818"><ele>229.0</ele><time>2026-04-29T15:03:47.391Z</time></trkpt><trkpt lat="43.4283873" lon="11.2443071"><ele>229.0</ele><time>2026-04-29T15:03:49.445Z</time></trkpt><trkpt lat="43.4283684" lon="11.2444311"><ele>228.99999999999997</ele><time>2026-04-29T15:03:51.456Z</time></trkpt><trkpt lat="43.4283513" lon="11.2445543"><ele>228.99999999999997</ele><time>2026-04-29T15:03:53.393Z</time></trkpt><trkpt lat="43.4283352" lon="11.2446811"><ele>229.0</ele><time>2026-04-29T15:03:55.468Z</time></trkpt><trkpt lat="43.4283178" lon="11.2448036"><ele>229.0</ele><time>2026-04-29T15:03:57.385Z</time></trkpt><trkpt lat="43.428301" lon="11.2449283"><ele>228.99999999999997</ele><time>2026-04-29T15:03:59.397Z</time></trkpt><trkpt lat="43.4282806" lon="11.2450448"><ele>229.0</ele><time>2026-04-29T15:04:01.45Z</time></trkpt><trkpt lat="43.4282557" lon="11.2451638"><ele>229.0</ele><time>2026-04-29T15:04:03.391Z</time></trkpt><trkpt lat="43.4282459" lon="11.2452893"><ele>229.0</ele><time>2026-04-29T15:04:05.453Z</time></trkpt><trkpt lat="43.4282524" lon="11.2454231"><ele>228.99999999999997</ele><time>2026-04-29T15:04:07.39Z</time></trkpt><trkpt lat="43.4282458" lon="11.2455316"><ele>229.0</ele><time>2026-04-29T15:04:09.39Z</time></trkpt><trkpt lat="43.4282421" lon="11.2456329"><ele>229.0</ele><time>2026-04-29T15:04:11.459Z</time></trkpt><trkpt lat="43.4282513" lon="11.2457956"><ele>228.99999999999997</ele><time>2026-04-29T15:04:14.395Z</time></trkpt><trkpt lat="43.4282739" lon="11.2459562"><ele>228.99999999999997</ele><time>2026-04-29T15:04:16.398Z</time></trkpt><trkpt lat="43.4283042" lon="11.246097"><ele>229.0</ele><time>2026-04-29T15:04:18.381Z</time></trkpt><trkpt lat="43.4283395" lon="11.2462245"><ele>229.0</ele><time>2026-04-29T15:04:20.37Z</time></trkpt><trkpt lat="43.4283879" lon="11.2463505"><ele>229.0</ele><time>2026-04-29T15:04:22.393Z</time></trkpt><trkpt lat="43.428443" lon="11.2464612"><ele>228.99999999999997</ele><time>2026-04-29T15:04:24.365Z</time></trkpt><trkpt lat="43.4284975" lon="11.2465687"><ele>228.99999999999997</ele><time>2026-04-29T15:04:26.393Z</time></trkpt><trkpt lat="43.428552" lon="11.2466842"><ele>229.0</ele><time>2026-04-29T15:04:28.39Z</time></trkpt><trkpt lat="43.4286226" lon="11.2467993"><ele>229.0</ele><time>2026-04-29T15:04:30.47Z</time></trkpt><trkpt lat="43.4287047" lon="11.2469084"><ele>228.49999999999997</ele><time>2026-04-29T15:04:32.376Z</time></trkpt><trkpt lat="43.4287874" lon="11.2470169"><ele>228.0</ele><time>2026-04-29T15:04:34.385Z</time></trkpt><trkpt lat="43.4288765" lon="11.2471396"><ele>227.5</ele><time>2026-04-29T15:04:36.47Z</time></trkpt><trkpt lat="43.4289274" lon="11.2472093"><ele>227.0</ele><time>2026-04-29T15:04:37.402Z</time></trkpt><trkpt lat="43.4289647" lon="11.2472814"><ele>226.49999999999997</ele><time>2026-04-29T15:04:38.394Z</time></trkpt><trkpt lat="43.4289943" lon="11.2473606"><ele>226.0</ele><time>2026-04-29T15:04:39.39Z</time></trkpt><trkpt lat="43.4290181" lon="11.2474466"><ele>227.16666666666666</ele><time>2026-04-29T15:04:40.441Z</time></trkpt><trkpt lat="43.4290396" lon="11.2475935"><ele>228.33333333333331</ele><time>2026-04-29T15:04:42.392Z</time></trkpt><trkpt lat="43.4290587" lon="11.2476823"><ele>229.5</ele><time>2026-04-29T15:04:43.39Z</time></trkpt><trkpt lat="43.4291019" lon="11.2478524"><ele>230.66666666666669</ele><time>2026-04-29T15:04:45.386Z</time></trkpt><trkpt lat="43.4291221" lon="11.2479438"><ele>231.83333333333334</ele><time>2026-04-29T15:04:46.404Z</time></trkpt><trkpt lat="43.4291427" lon="11.248033"><ele>233.0</ele><time>2026-04-29T15:04:47.409Z</time></trkpt><trkpt lat="43.4291623" lon="11.2481229"><ele>231.85714285714286</ele><time>2026-04-29T15:04:48.392Z</time></trkpt><trkpt lat="43.4291826" lon="11.2482171"><ele>230.71428571428572</ele><time>2026-04-29T15:04:49.396Z</time></trkpt><trkpt lat="43.4292026" lon="11.2483109"><ele>229.57142857142858</ele><time>2026-04-29T15:04:50.366Z</time></trkpt><trkpt lat="43.4292238" lon="11.2484055"><ele>228.42857142857144</ele><time>2026-04-29T15:04:51.389Z</time></trkpt><trkpt lat="43.4292451" lon="11.248497"><ele>227.28571428571428</ele><time>2026-04-29T15:04:52.396Z</time></trkpt><trkpt lat="43.4292651" lon="11.2485896"><ele>226.14285714285717</ele><time>2026-04-29T15:04:53.385Z</time></trkpt><trkpt lat="43.4292844" lon="11.2486808"><ele>225.00000000000003</ele><time>2026-04-29T15:04:54.388Z</time></trkpt><trkpt lat="43.4293021" lon="11.2487705"><ele>225.0</ele><time>2026-04-29T15:04:55.387Z</time></trkpt><trkpt lat="43.4293199" lon="11.2488579"><ele>225.0</ele><time>2026-04-29T15:04:56.379Z</time></trkpt><trkpt lat="43.429335" lon="11.2489477"><ele>225.0</ele><time>2026-04-29T15:04:57.365Z</time></trkpt><trkpt lat="43.4293483" lon="11.2490376"><ele>225.0</ele><time>2026-04-29T15:04:58.397Z</time></trkpt><trkpt lat="43.4293642" lon="11.2492072"><ele>225.0</ele><time>2026-04-29T15:05:00.385Z</time></trkpt><trkpt lat="43.4293637" lon="11.2493646"><ele>225.0</ele><time>2026-04-29T15:05:02.377Z</time></trkpt><trkpt lat="43.4293524" lon="11.2495235"><ele>225.0</ele><time>2026-04-29T15:05:04.385Z</time></trkpt><trkpt lat="43.4293413" lon="11.249691"><ele>225.0</ele><time>2026-04-29T15:05:06.457Z</time></trkpt><trkpt lat="43.4293497" lon="11.249942"><ele>225.0</ele><time>2026-04-29T15:05:09.371Z</time></trkpt><trkpt lat="43.4293324" lon="11.2500428"><ele>225.0</ele><time>2026-04-29T15:05:11.442Z</time></trkpt><trkpt lat="43.429338" lon="11.2501625"><ele>225.14285714285717</ele><time>2026-04-29T15:05:13.384Z</time></trkpt><trkpt lat="43.4293449" lon="11.2502751"><ele>225.28571428571428</ele><time>2026-04-29T15:05:15.457Z</time></trkpt><trkpt lat="43.4293503" lon="11.2503776"><ele>225.42857142857144</ele><time>2026-04-29T15:05:17.383Z</time></trkpt><trkpt lat="43.4293613" lon="11.2504815"><ele>225.57142857142858</ele><time>2026-04-29T15:05:19.384Z</time></trkpt><trkpt lat="43.429383" lon="11.2505761"><ele>225.71428571428572</ele><time>2026-04-29T15:05:21.367Z</time></trkpt><trkpt lat="43.4294044" lon="11.2506697"><ele>225.85714285714286</ele><time>2026-04-29T15:05:23.389Z</time></trkpt><trkpt lat="43.4294242" lon="11.2507658"><ele>226.0</ele><time>2026-04-29T15:05:25.395Z</time></trkpt><trkpt lat="43.4294427" lon="11.2508503"><ele>226.0</ele><time>2026-04-29T15:05:27.385Z</time></trkpt><trkpt lat="43.4294618" lon="11.2509337"><ele>226.0</ele><time>2026-04-29T15:05:29.39Z</time></trkpt><trkpt lat="43.4294838" lon="11.2510157"><ele>226.0</ele><time>2026-04-29T15:05:31.395Z</time></trkpt><trkpt lat="43.4295049" lon="11.251099"><ele>226.0</ele><time>2026-04-29T15:05:33.385Z</time></trkpt><trkpt lat="43.4295363" lon="11.2512141"><ele>226.0</ele><time>2026-04-29T15:05:36.459Z</time></trkpt><trkpt lat="43.4295601" lon="11.2513284"><ele>226.0</ele><time>2026-04-29T15:05:39.385Z</time></trkpt><trkpt lat="43.4295891" lon="11.2514322"><ele>226.0</ele><time>2026-04-29T15:05:42.38Z</time></trkpt><trkpt lat="43.4296189" lon="11.251531"><ele>225.99999999999997</ele><time>2026-04-29T15:05:45.467Z</time></trkpt><trkpt lat="43.4296373" lon="11.2516446"><ele>226.0</ele><time>2026-04-29T15:05:48.373Z</time></trkpt><trkpt lat="43.4296797" lon="11.2517221"><ele>226.0</ele><time>2026-04-29T15:05:51.466Z</time></trkpt><trkpt lat="43.429728" lon="11.2517977"><ele>226.0</ele><time>2026-04-29T15:05:54.386Z</time></trkpt><trkpt lat="43.4297898" lon="11.2518768"><ele>225.99999999999997</ele><time>2026-04-29T15:05:57.376Z</time></trkpt><trkpt lat="43.4298437" lon="11.2519521"><ele>226.0</ele><time>2026-04-29T15:06:00.394Z</time></trkpt><trkpt lat="43.4298942" lon="11.2520168"><ele>227.16666666666666</ele><time>2026-04-29T15:06:03.378Z</time></trkpt><trkpt lat="43.429953" lon="11.252074"><ele>228.33333333333331</ele><time>2026-04-29T15:06:06.399Z</time></trkpt><trkpt lat="43.4300165" lon="11.252137"><ele>229.5</ele><time>2026-04-29T15:06:09.445Z</time></trkpt><trkpt lat="43.4300952" lon="11.2522178"><ele>230.66666666666669</ele><time>2026-04-29T15:06:13.373Z</time></trkpt><trkpt lat="43.4301501" lon="11.2522732"><ele>231.83333333333334</ele><time>2026-04-29T15:06:16.381Z</time></trkpt><trkpt lat="43.4302096" lon="11.2523199"><ele>233.0</ele><time>2026-04-29T15:06:19.392Z</time></trkpt><trkpt lat="43.4302837" lon="11.2523603"><ele>233.00000000000003</ele><time>2026-04-29T15:06:22.399Z</time></trkpt><trkpt lat="43.430352" lon="11.2524053"><ele>233.0</ele><time>2026-04-29T15:06:25.379Z</time></trkpt><trkpt lat="43.4304313" lon="11.2524512"><ele>233.0</ele><time>2026-04-29T15:06:28.387Z</time></trkpt><trkpt lat="43.4305055" lon="11.2524997"><ele>233.0</ele><time>2026-04-29T15:06:31.395Z</time></trkpt><trkpt lat="43.4305752" lon="11.2525065"><ele>233.00000000000003</ele><time>2026-04-29T15:06:34.423Z</time></trkpt><trkpt lat="43.4306404" lon="11.2525637"><ele>233.0</ele><time>2026-04-29T15:06:37.405Z</time></trkpt><trkpt lat="43.4307141" lon="11.2526165"><ele>234.33333333333334</ele><time>2026-04-29T15:06:40.39Z</time></trkpt><trkpt lat="43.4307885" lon="11.25267"><ele>235.66666666666669</ele><time>2026-04-29T15:06:43.397Z</time></trkpt><trkpt lat="43.4308503" lon="11.2527227"><ele>237.0</ele><time>2026-04-29T15:06:46.39Z</time></trkpt><trkpt lat="43.4309209" lon="11.2527946"><ele>238.33333333333331</ele><time>2026-04-29T15:06:49.4Z</time></trkpt><trkpt lat="43.4310045" lon="11.2528401"><ele>239.66666666666666</ele><time>2026-04-29T15:06:52.385Z</time></trkpt><trkpt lat="43.4310805" lon="11.2528874"><ele>241.0</ele><time>2026-04-29T15:06:55.377Z</time></trkpt><trkpt lat="43.4311591" lon="11.2529352"><ele>240.99999999999997</ele><time>2026-04-29T15:06:58.401Z</time></trkpt><trkpt lat="43.4312314" lon="11.2529814"><ele>241.0</ele><time>2026-04-29T15:07:01.368Z</time></trkpt><trkpt lat="43.4313018" lon="11.2530291"><ele>241.0</ele><time>2026-04-29T15:07:04.408Z</time></trkpt><trkpt lat="43.4313719" lon="11.2530771"><ele>241.0</ele><time>2026-04-29T15:07:07.395Z</time></trkpt><trkpt lat="43.4314419" lon="11.2531246"><ele>240.99999999999997</ele><time>2026-04-29T15:07:10.398Z</time></trkpt><trkpt lat="43.4315131" lon="11.2531731"><ele>241.0</ele><time>2026-04-29T15:07:13.395Z</time></trkpt><trkpt lat="43.4315824" lon="11.2532153"><ele>241.49999999999997</ele><time>2026-04-29T15:07:16.389Z</time></trkpt><trkpt lat="43.4316506" lon="11.253263"><ele>242.0</ele><time>2026-04-29T15:07:19.381Z</time></trkpt><trkpt lat="43.4317208" lon="11.2533115"><ele>242.5</ele><time>2026-04-29T15:07:22.389Z</time></trkpt><trkpt lat="43.4317948" lon="11.2533606"><ele>243.0</ele><time>2026-04-29T15:07:25.388Z</time></trkpt><trkpt lat="43.4318686" lon="11.2534114"><ele>243.49999999999997</ele><time>2026-04-29T15:07:28.381Z</time></trkpt><trkpt lat="43.4319377" lon="11.2534588"><ele>244.0</ele><time>2026-04-29T15:07:31.39Z</time></trkpt><trkpt lat="43.4319933" lon="11.2535148"><ele>243.99999999999997</ele><time>2026-04-29T15:07:34.393Z</time></trkpt><trkpt lat="43.4320378" lon="11.2536104"><ele>244.0</ele><time>2026-04-29T15:07:37.363Z</time></trkpt><trkpt lat="43.4321048" lon="11.2536791"><ele>244.0</ele><time>2026-04-29T15:07:40.457Z</time></trkpt><trkpt lat="43.4321659" lon="11.2537336"><ele>244.0</ele><time>2026-04-29T15:07:43.369Z</time></trkpt><trkpt lat="43.4322355" lon="11.2538119"><ele>243.99999999999997</ele><time>2026-04-29T15:07:46.396Z</time></trkpt><trkpt lat="43.4322915" lon="11.2538919"><ele>244.0</ele><time>2026-04-29T15:07:49.388Z</time></trkpt><trkpt lat="43.4323392" lon="11.2539809"><ele>244.57142857142856</ele><time>2026-04-29T15:07:52.404Z</time></trkpt><trkpt lat="43.4323732" lon="11.254075"><ele>245.14285714285714</ele><time>2026-04-29T15:07:55.405Z</time></trkpt><trkpt lat="43.4324118" lon="11.2541611"><ele>245.71428571428572</ele><time>2026-04-29T15:07:58.397Z</time></trkpt><trkpt lat="43.4324596" lon="11.2542408"><ele>246.28571428571428</ele><time>2026-04-29T15:08:01.384Z</time></trkpt><trkpt lat="43.4325038" lon="11.2543164"><ele>246.8571428571429</ele><time>2026-04-29T15:08:04.382Z</time></trkpt><trkpt lat="43.4325589" lon="11.254367"><ele>247.42857142857144</ele><time>2026-04-29T15:08:07.387Z</time></trkpt><trkpt lat="43.4326292" lon="11.2543872"><ele>248.0</ele><time>2026-04-29T15:08:11.466Z</time></trkpt><trkpt lat="43.4326966" lon="11.254345"><ele>248.0</ele><time>2026-04-29T15:08:16.395Z</time></trkpt><trkpt lat="43.4327536" lon="11.2542863"><ele>248.00000000000003</ele><time>2026-04-29T15:08:19.389Z</time></trkpt><trkpt lat="43.4328105" lon="11.2542461"><ele>248.0</ele><time>2026-04-29T15:08:23.404Z</time></trkpt><trkpt lat="43.4328815" lon="11.2542268"><ele>248.0</ele><time>2026-04-29T15:08:28.383Z</time></trkpt><trkpt lat="43.4329513" lon="11.2541999"><ele>248.00000000000003</ele><time>2026-04-29T15:08:33.396Z</time></trkpt><trkpt lat="43.4330254" lon="11.2541823"><ele>248.0</ele><time>2026-04-29T15:08:38.383Z</time></trkpt><trkpt lat="43.4330977" lon="11.2541797"><ele>248.0</ele><time>2026-04-29T15:08:42.373Z</time></trkpt><trkpt lat="43.4331644" lon="11.254179"><ele>249.42857142857144</ele><time>2026-04-29T15:08:45.456Z</time></trkpt><trkpt lat="43.4332298" lon="11.2541903"><ele>250.8571428571429</ele><time>2026-04-29T15:08:51.463Z</time></trkpt><trkpt lat="43.4332718" lon="11.254263"><ele>252.28571428571428</ele><time>2026-04-29T15:08:56.382Z</time></trkpt><trkpt lat="43.4333414" lon="11.2542398"><ele>253.71428571428572</ele><time>2026-04-29T15:09:01.395Z</time></trkpt><trkpt lat="43.4334098" lon="11.2542347"><ele>255.14285714285714</ele><time>2026-04-29T15:09:05.456Z</time></trkpt><trkpt lat="43.4334833" lon="11.2542274"><ele>256.57142857142856</ele><time>2026-04-29T15:09:11.446Z</time></trkpt><trkpt lat="43.4335542" lon="11.2542228"><ele>258.0</ele><time>2026-04-29T15:09:15.457Z</time></trkpt><trkpt lat="43.4336273" lon="11.254236"><ele>257.99999999999994</ele><time>2026-04-29T15:09:21.467Z</time></trkpt><trkpt lat="43.4336756" lon="11.2543062"><ele>258.0</ele><time>2026-04-29T15:09:24.393Z</time></trkpt><trkpt lat="43.4337469" lon="11.254251"><ele>258.0</ele><time>2026-04-29T15:09:29.392Z</time></trkpt><trkpt lat="43.4338171" lon="11.2542787"><ele>258.0</ele><time>2026-04-29T15:09:34.382Z</time></trkpt><trkpt lat="43.4338884" lon="11.2542862"><ele>258.0</ele><time>2026-04-29T15:09:39.391Z</time></trkpt><trkpt lat="43.4339552" lon="11.2542948"><ele>257.99999999999994</ele><time>2026-04-29T15:09:49.387Z</time></trkpt><trkpt lat="43.4340275" lon="11.254298"><ele>258.0</ele><time>2026-04-29T15:09:56.454Z</time></trkpt><trkpt lat="43.4340939" lon="11.2543109"><ele>259.4285714285714</ele><time>2026-04-29T15:10:01.46Z</time></trkpt><trkpt lat="43.4341658" lon="11.2543169"><ele>260.85714285714283</ele><time>2026-04-29T15:10:05.382Z</time></trkpt><trkpt lat="43.4342403" lon="11.2543215"><ele>262.2857142857143</ele><time>2026-04-29T15:10:16.385Z</time></trkpt><trkpt lat="43.4343141" lon="11.2543382"><ele>263.71428571428567</ele><time>2026-04-29T15:10:22.375Z</time></trkpt><trkpt lat="43.4343795" lon="11.2543306"><ele>265.1428571428571</ele><time>2026-04-29T15:10:26.471Z</time></trkpt><trkpt lat="43.4344498" lon="11.2543383"><ele>266.57142857142856</ele><time>2026-04-29T15:10:33.4Z</time></trkpt><trkpt lat="43.4345124" lon="11.2543619"><ele>268.0</ele><time>2026-04-29T15:10:39.393Z</time></trkpt><trkpt lat="43.4345871" lon="11.2543827"><ele>269.42857142857144</ele><time>2026-04-29T15:10:43.398Z</time></trkpt><trkpt lat="43.4346601" lon="11.2543948"><ele>270.85714285714283</ele><time>2026-04-29T15:10:46.392Z</time></trkpt><trkpt lat="43.4347239" lon="11.2543919"><ele>272.2857142857143</ele><time>2026-04-29T15:10:50.477Z</time></trkpt><trkpt lat="43.434791" lon="11.2543912"><ele>273.7142857142857</ele><time>2026-04-29T15:10:56.45Z</time></trkpt><trkpt lat="43.4348575" lon="11.2543998"><ele>275.14285714285717</ele><time>2026-04-29T15:11:02.397Z</time></trkpt><trkpt lat="43.4349282" lon="11.2543854"><ele>276.57142857142856</ele><time>2026-04-29T15:11:07.397Z</time></trkpt><trkpt lat="43.4349936" lon="11.2543523"><ele>278.0</ele><time>2026-04-29T15:11:09.402Z</time></trkpt><trkpt lat="43.4350532" lon="11.2543904"><ele>278.0</ele><time>2026-04-29T15:11:13.396Z</time></trkpt><trkpt lat="43.4351199" lon="11.2544277"><ele>278.0</ele><time>2026-04-29T15:11:23.399Z</time></trkpt><trkpt lat="43.4351649" lon="11.2545058"><ele>278.0</ele><time>2026-04-29T15:11:35.467Z</time></trkpt><trkpt lat="43.4352393" lon="11.2545008"><ele>278.0</ele><time>2026-04-29T15:11:40.453Z</time></trkpt><trkpt lat="43.4353003" lon="11.2545235"><ele>278.0</ele><time>2026-04-29T15:11:43.398Z</time></trkpt><trkpt lat="43.4353638" lon="11.2545094"><ele>278.0</ele><time>2026-04-29T15:11:48.396Z</time></trkpt><trkpt lat="43.4354346" lon="11.2544991"><ele>278.0</ele><time>2026-04-29T15:11:54.409Z</time></trkpt><trkpt lat="43.4355185" lon="11.2545234"><ele>279.1428571428571</ele><time>2026-04-29T15:12:08.388Z</time></trkpt><trkpt lat="43.4355859" lon="11.2545138"><ele>280.2857142857143</ele><time>2026-04-29T15:12:11.377Z</time></trkpt><trkpt lat="43.4356539" lon="11.2545031"><ele>281.42857142857144</ele><time>2026-04-29T15:12:17.464Z</time></trkpt><trkpt lat="43.4357214" lon="11.2545096"><ele>282.57142857142856</ele><time>2026-04-29T15:12:22.369Z</time></trkpt><trkpt lat="43.4357884" lon="11.2545173"><ele>283.7142857142857</ele><time>2026-04-29T15:12:28.391Z</time></trkpt><trkpt lat="43.4358602" lon="11.2545243"><ele>284.85714285714283</ele><time>2026-04-29T15:12:35.391Z</time></trkpt><trkpt lat="43.4359284" lon="11.2545181"><ele>286.0</ele><time>2026-04-29T15:12:41.45Z</time></trkpt><trkpt lat="43.4359981" lon="11.2545399"><ele>285.99999999999994</ele><time>2026-04-29T15:12:47.397Z</time></trkpt><trkpt lat="43.4360712" lon="11.2545932"><ele>286.0</ele><time>2026-04-29T15:12:52.415Z</time></trkpt><trkpt lat="43.4361224" lon="11.2546648"><ele>286.0</ele><time>2026-04-29T15:12:54.391Z</time></trkpt><trkpt lat="43.4362076" lon="11.2546947"><ele>286.0</ele><time>2026-04-29T15:12:57.384Z</time></trkpt><trkpt lat="43.4362548" lon="11.2546351"><ele>286.0</ele><time>2026-04-29T15:13:03.396Z</time></trkpt><trkpt lat="43.4363188" lon="11.2546209"><ele>285.99999999999994</ele><time>2026-04-29T15:13:12.385Z</time></trkpt><trkpt lat="43.4363806" lon="11.2546472"><ele>286.0</ele><time>2026-04-29T15:13:17.377Z</time></trkpt><trkpt lat="43.436457" lon="11.2546755"><ele>287.66666666666663</ele><time>2026-04-29T15:13:21.453Z</time></trkpt><trkpt lat="43.436526" lon="11.2547261"><ele>289.3333333333333</ele><time>2026-04-29T15:13:23.394Z</time></trkpt><trkpt lat="43.4365824" lon="11.2547863"><ele>291.0</ele><time>2026-04-29T15:13:27.395Z</time></trkpt><trkpt lat="43.4366373" lon="11.2547196"><ele>292.6666666666667</ele><time>2026-04-29T15:13:31.369Z</time></trkpt><trkpt lat="43.4367" lon="11.2546465"><ele>294.33333333333337</ele><time>2026-04-29T15:13:38.372Z</time></trkpt><trkpt lat="43.4367785" lon="11.2546032"><ele>296.0</ele><time>2026-04-29T15:13:41.37Z</time></trkpt><trkpt lat="43.4367992" lon="11.2544862"><ele>296.0</ele><time>2026-04-29T15:13:44.398Z</time></trkpt><trkpt lat="43.436809" lon="11.2543832"><ele>296.0</ele><time>2026-04-29T15:13:46.392Z</time></trkpt><trkpt lat="43.4368499" lon="11.2543009"><ele>296.0</ele><time>2026-04-29T15:13:48.366Z</time></trkpt><trkpt lat="43.4369266" lon="11.2542543"><ele>296.0</ele><time>2026-04-29T15:13:50.366Z</time></trkpt><trkpt lat="43.4370024" lon="11.2542281"><ele>296.0</ele><time>2026-04-29T15:13:52.384Z</time></trkpt><trkpt lat="43.437065" lon="11.2541914"><ele>296.0</ele><time>2026-04-29T15:13:54.392Z</time></trkpt><trkpt lat="43.437126" lon="11.2541675"><ele>296.0</ele><time>2026-04-29T15:13:56.469Z</time></trkpt><trkpt lat="43.4372186" lon="11.2541321"><ele>297.0</ele><time>2026-04-29T15:13:59.385Z</time></trkpt><trkpt lat="43.4372974" lon="11.2541145"><ele>298.0</ele><time>2026-04-29T15:14:01.456Z</time></trkpt><trkpt lat="43.4373687" lon="11.2541188"><ele>299.0</ele><time>2026-04-29T15:14:03.39Z</time></trkpt><trkpt lat="43.4374596" lon="11.2541225"><ele>300.0</ele><time>2026-04-29T15:14:06.456Z</time></trkpt><trkpt lat="43.4375244" lon="11.2540984"><ele>301.0</ele><time>2026-04-29T15:14:08.382Z</time></trkpt><trkpt lat="43.4375906" lon="11.2540608"><ele>302.0</ele><time>2026-04-29T15:14:10.39Z</time></trkpt><trkpt lat="43.4376675" lon="11.2540174"><ele>300.0</ele><time>2026-04-29T15:14:12.404Z</time></trkpt><trkpt lat="43.4377393" lon="11.2539485"><ele>298.0</ele><time>2026-04-29T15:14:14.407Z</time></trkpt><trkpt lat="43.4378054" lon="11.2538592"><ele>296.0</ele><time>2026-04-29T15:14:16.397Z</time></trkpt><trkpt lat="43.4378642" lon="11.2537576"><ele>294.0</ele><time>2026-04-29T15:14:18.42Z</time></trkpt><trkpt lat="43.4379231" lon="11.2536437"><ele>292.0</ele><time>2026-04-29T15:14:20.388Z</time></trkpt><trkpt lat="43.4379683" lon="11.2535388"><ele>292.4</ele><time>2026-04-29T15:14:22.459Z</time></trkpt><trkpt lat="43.4380121" lon="11.2534323"><ele>292.79999999999995</ele><time>2026-04-29T15:14:24.38Z</time></trkpt><trkpt lat="43.438052" lon="11.2533039"><ele>293.2</ele><time>2026-04-29T15:14:26.381Z</time></trkpt><trkpt lat="43.438122" lon="11.2532111"><ele>293.59999999999997</ele><time>2026-04-29T15:14:28.395Z</time></trkpt><trkpt lat="43.438186" lon="11.2531133"><ele>294.0</ele><time>2026-04-29T15:14:30.465Z</time></trkpt><trkpt lat="43.4382231" lon="11.2529751"><ele>294.0</ele><time>2026-04-29T15:14:32.373Z</time></trkpt><trkpt lat="43.4382608" lon="11.2528263"><ele>294.0</ele><time>2026-04-29T15:14:34.391Z</time></trkpt><trkpt lat="43.4383103" lon="11.2527089"><ele>294.0</ele><time>2026-04-29T15:14:36.4Z</time></trkpt><trkpt lat="43.4383365" lon="11.2525741"><ele>294.0</ele><time>2026-04-29T15:14:38.41Z</time></trkpt><trkpt lat="43.4383694" lon="11.2524174"><ele>294.0</ele><time>2026-04-29T15:14:40.41Z</time></trkpt><trkpt lat="43.4384227" lon="11.252294"><ele>293.3333333333333</ele><time>2026-04-29T15:14:42.374Z</time></trkpt><trkpt lat="43.4384639" lon="11.2522"><ele>292.6666666666667</ele><time>2026-04-29T15:14:44.39Z</time></trkpt><trkpt lat="43.4385271" lon="11.2520756"><ele>292.0</ele><time>2026-04-29T15:14:46.39Z</time></trkpt><trkpt lat="43.4385604" lon="11.2519452"><ele>291.33333333333337</ele><time>2026-04-29T15:14:48.386Z</time></trkpt><trkpt lat="43.4385876" lon="11.2518448"><ele>290.6666666666667</ele><time>2026-04-29T15:14:50.407Z</time></trkpt><trkpt lat="43.4386053" lon="11.2517481"><ele>290.0</ele><time>2026-04-29T15:14:52.403Z</time></trkpt><trkpt lat="43.4386199" lon="11.2516556"><ele>290.0</ele><time>2026-04-29T15:14:54.388Z</time></trkpt><trkpt lat="43.4386379" lon="11.2515648"><ele>290.0</ele><time>2026-04-29T15:14:56.407Z</time></trkpt><trkpt lat="43.4386566" lon="11.2514731"><ele>290.0</ele><time>2026-04-29T15:14:58.395Z</time></trkpt><trkpt lat="43.4386725" lon="11.2513818"><ele>290.0</ele><time>2026-04-29T15:15:00.393Z</time></trkpt><trkpt lat="43.4386846" lon="11.2512868"><ele>290.0</ele><time>2026-04-29T15:15:02.419Z</time></trkpt><trkpt lat="43.438706" lon="11.2512013"><ele>290.0</ele><time>2026-04-29T15:15:04.392Z</time></trkpt><trkpt lat="43.4387291" lon="11.2511064"><ele>290.0</ele><time>2026-04-29T15:15:06.454Z</time></trkpt><trkpt lat="43.4387362" lon="11.2509802"><ele>290.0</ele><time>2026-04-29T15:15:09.398Z</time></trkpt><trkpt lat="43.4387396" lon="11.2508883"><ele>290.0</ele><time>2026-04-29T15:15:11.472Z</time></trkpt><trkpt lat="43.4387345" lon="11.2507986"><ele>290.0</ele><time>2026-04-29T15:15:13.395Z</time></trkpt><trkpt lat="43.4387261" lon="11.2506782"><ele>290.0</ele><time>2026-04-29T15:15:15.459Z</time></trkpt><trkpt lat="43.4387152" lon="11.2505904"><ele>290.0</ele><time>2026-04-29T15:15:17.388Z</time></trkpt><trkpt lat="43.4387055" lon="11.2504851"><ele>290.0</ele><time>2026-04-29T15:15:19.398Z</time></trkpt><trkpt lat="43.4386963" lon="11.2503816"><ele>290.0</ele><time>2026-04-29T15:15:21.408Z</time></trkpt><trkpt lat="43.4386871" lon="11.250286"><ele>290.0</ele><time>2026-04-29T15:15:23.387Z</time></trkpt><trkpt lat="43.4386882" lon="11.2501831"><ele>290.0</ele><time>2026-04-29T15:15:25.388Z</time></trkpt><trkpt lat="43.4386899" lon="11.2500885"><ele>290.0</ele><time>2026-04-29T15:15:27.4Z</time></trkpt><trkpt lat="43.4386772" lon="11.2499925"><ele>290.0</ele><time>2026-04-29T15:15:29.387Z</time></trkpt><trkpt lat="43.4386658" lon="11.2498967"><ele>290.0</ele><time>2026-04-29T15:15:31.397Z</time></trkpt><trkpt lat="43.4386563" lon="11.2497976"><ele>290.0</ele><time>2026-04-29T15:15:33.386Z</time></trkpt><trkpt lat="43.4386533" lon="11.2497034"><ele>290.0</ele><time>2026-04-29T15:15:35.45Z</time></trkpt><trkpt lat="43.438644" lon="11.2496111"><ele>290.0</ele><time>2026-04-29T15:15:37.457Z</time></trkpt><trkpt lat="43.4386202" lon="11.2495216"><ele>290.0</ele><time>2026-04-29T15:15:39.397Z</time></trkpt><trkpt lat="43.4386024" lon="11.2494261"><ele>290.0</ele><time>2026-04-29T15:15:41.454Z</time></trkpt><trkpt lat="43.4385895" lon="11.2493335"><ele>290.0</ele><time>2026-04-29T15:15:43.381Z</time></trkpt><trkpt lat="43.4385851" lon="11.2492446"><ele>290.0</ele><time>2026-04-29T15:15:45.395Z</time></trkpt><trkpt lat="43.4385756" lon="11.2491329"><ele>290.0</ele><time>2026-04-29T15:15:48.387Z</time></trkpt><trkpt lat="43.4385745" lon="11.24904"><ele>290.0</ele><time>2026-04-29T15:15:50.39Z</time></trkpt><trkpt lat="43.438577" lon="11.2489418"><ele>290.0</ele><time>2026-04-29T15:15:52.375Z</time></trkpt><trkpt lat="43.4385808" lon="11.2488467"><ele>290.0</ele><time>2026-04-29T15:15:54.391Z</time></trkpt><trkpt lat="43.4385756" lon="11.2487527"><ele>290.0</ele><time>2026-04-29T15:15:56.463Z</time></trkpt><trkpt lat="43.4385741" lon="11.248659"><ele>290.0</ele><time>2026-04-29T15:15:58.39Z</time></trkpt><trkpt lat="43.4385822" lon="11.248549"><ele>290.0</ele><time>2026-04-29T15:16:00.392Z</time></trkpt><trkpt lat="43.4385924" lon="11.2484027"><ele>290.0</ele><time>2026-04-29T15:16:02.385Z</time></trkpt><trkpt lat="43.4385917" lon="11.2483119"><ele>290.0</ele><time>2026-04-29T15:16:03.392Z</time></trkpt><trkpt lat="43.4385906" lon="11.2482169"><ele>290.0</ele><time>2026-04-29T15:16:04.399Z</time></trkpt><trkpt lat="43.4385834" lon="11.2481295"><ele>290.0</ele><time>2026-04-29T15:16:05.367Z</time></trkpt><trkpt lat="43.4385702" lon="11.2480355"><ele>290.0</ele><time>2026-04-29T15:16:06.396Z</time></trkpt><trkpt lat="43.438561" lon="11.2479417"><ele>290.0</ele><time>2026-04-29T15:16:07.395Z</time></trkpt><trkpt lat="43.4385506" lon="11.2478497"><ele>290.0</ele><time>2026-04-29T15:16:08.391Z</time></trkpt><trkpt lat="43.4385408" lon="11.2477549"><ele>290.0</ele><time>2026-04-29T15:16:09.37Z</time></trkpt><trkpt lat="43.438535" lon="11.2476611"><ele>290.0</ele><time>2026-04-29T15:16:10.383Z</time></trkpt><trkpt lat="43.4385269" lon="11.2475714"><ele>290.0</ele><time>2026-04-29T15:16:11.465Z</time></trkpt><trkpt lat="43.4385175" lon="11.247405"><ele>290.0</ele><time>2026-04-29T15:16:13.407Z</time></trkpt><trkpt lat="43.4385104" lon="11.2472472"><ele>290.0</ele><time>2026-04-29T15:16:15.385Z</time></trkpt><trkpt lat="43.4385086" lon="11.2471039"><ele>290.0</ele><time>2026-04-29T15:16:17.455Z</time></trkpt><trkpt lat="43.4384952" lon="11.2469787"><ele>290.0</ele><time>2026-04-29T15:16:19.386Z</time></trkpt><trkpt lat="43.4384885" lon="11.2468528"><ele>290.0</ele><time>2026-04-29T15:16:21.468Z</time></trkpt><trkpt lat="43.4384843" lon="11.2467318"><ele>290.0</ele><time>2026-04-29T15:16:24.381Z</time></trkpt><trkpt lat="43.4384903" lon="11.246615"><ele>290.0</ele><time>2026-04-29T15:16:27.445Z</time></trkpt><trkpt lat="43.4384823" lon="11.2465096"><ele>290.0</ele><time>2026-04-29T15:16:30.394Z</time></trkpt><trkpt lat="43.4384413" lon="11.2463887"><ele>290.0</ele><time>2026-04-29T15:16:33.396Z</time></trkpt><trkpt lat="43.4383977" lon="11.2462988"><ele>290.0</ele><time>2026-04-29T15:16:35.39Z</time></trkpt><trkpt lat="43.4383356" lon="11.2461959"><ele>290.0</ele><time>2026-04-29T15:16:37.389Z</time></trkpt><trkpt lat="43.4382686" lon="11.2460915"><ele>290.0</ele><time>2026-04-29T15:16:39.397Z</time></trkpt><trkpt lat="43.438194" lon="11.2459891"><ele>290.0</ele><time>2026-04-29T15:16:41.387Z</time></trkpt><trkpt lat="43.438127" lon="11.2458858"><ele>290.0</ele><time>2026-04-29T15:16:43.387Z</time></trkpt><trkpt lat="43.4380676" lon="11.2457912"><ele>290.0</ele><time>2026-04-29T15:16:45.456Z</time></trkpt><trkpt lat="43.4380107" lon="11.2457065"><ele>290.0</ele><time>2026-04-29T15:16:47.451Z</time></trkpt><trkpt lat="43.4379565" lon="11.2456211"><ele>290.0</ele><time>2026-04-29T15:16:49.386Z</time></trkpt><trkpt lat="43.4379005" lon="11.2455216"><ele>290.0</ele><time>2026-04-29T15:16:51.456Z</time></trkpt><trkpt lat="43.4378442" lon="11.2454259"><ele>290.0</ele><time>2026-04-29T15:16:53.404Z</time></trkpt><trkpt lat="43.4377817" lon="11.2453136"><ele>290.0</ele><time>2026-04-29T15:16:55.399Z</time></trkpt><trkpt lat="43.4377128" lon="11.245197"><ele>290.0</ele><time>2026-04-29T15:16:57.396Z</time></trkpt><trkpt lat="43.4376686" lon="11.2451325"><ele>290.0</ele><time>2026-04-29T15:16:58.394Z</time></trkpt><trkpt lat="43.4376241" lon="11.2450678"><ele>290.0</ele><time>2026-04-29T15:16:59.394Z</time></trkpt><trkpt lat="43.4375742" lon="11.2450015"><ele>290.0</ele><time>2026-04-29T15:17:00.397Z</time></trkpt><trkpt lat="43.437523" lon="11.2449343"><ele>290.0</ele><time>2026-04-29T15:17:01.38Z</time></trkpt><trkpt lat="43.4374716" lon="11.2448635"><ele>289.14285714285717</ele><time>2026-04-29T15:17:02.399Z</time></trkpt><trkpt lat="43.4374224" lon="11.2447909"><ele>288.28571428571433</ele><time>2026-04-29T15:17:03.385Z</time></trkpt><trkpt lat="43.4373731" lon="11.2447151"><ele>287.42857142857144</ele><time>2026-04-29T15:17:04.393Z</time></trkpt><trkpt lat="43.4373234" lon="11.244639"><ele>286.57142857142856</ele><time>2026-04-29T15:17:05.463Z</time></trkpt><trkpt lat="43.4372747" lon="11.2445641"><ele>285.71428571428567</ele><time>2026-04-29T15:17:06.457Z</time></trkpt><trkpt lat="43.437233" lon="11.2444878"><ele>284.85714285714283</ele><time>2026-04-29T15:17:07.458Z</time></trkpt><trkpt lat="43.4371899" lon="11.2444221"><ele>284.0</ele><time>2026-04-29T15:17:08.396Z</time></trkpt><trkpt lat="43.4371388" lon="11.2443666"><ele>284.0</ele><time>2026-04-29T15:17:09.375Z</time></trkpt><trkpt lat="43.4370864" lon="11.2442991"><ele>284.0</ele><time>2026-04-29T15:17:10.394Z</time></trkpt><trkpt lat="43.4370317" lon="11.2442311"><ele>284.0</ele><time>2026-04-29T15:17:11.388Z</time></trkpt><trkpt lat="43.436979" lon="11.2441558"><ele>284.0</ele><time>2026-04-29T15:17:12.397Z</time></trkpt><trkpt lat="43.4369308" lon="11.244082"><ele>284.0</ele><time>2026-04-29T15:17:13.38Z</time></trkpt><trkpt lat="43.4368882" lon="11.2440094"><ele>284.0</ele><time>2026-04-29T15:17:14.387Z</time></trkpt><trkpt lat="43.4368138" lon="11.243872"><ele>284.0</ele><time>2026-04-29T15:17:16.403Z</time></trkpt><trkpt lat="43.4367314" lon="11.2437408"><ele>284.0</ele><time>2026-04-29T15:17:18.402Z</time></trkpt><trkpt lat="43.4366883" lon="11.2436757"><ele>284.0</ele><time>2026-04-29T15:17:19.389Z</time></trkpt><trkpt lat="43.4366053" lon="11.2435463"><ele>284.0</ele><time>2026-04-29T15:17:21.454Z</time></trkpt><trkpt lat="43.4365665" lon="11.2434757"><ele>284.0</ele><time>2026-04-29T15:17:22.392Z</time></trkpt><trkpt lat="43.4365283" lon="11.2434066"><ele>284.0</ele><time>2026-04-29T15:17:23.374Z</time></trkpt><trkpt lat="43.4364652" lon="11.243286"><ele>284.0</ele><time>2026-04-29T15:17:25.458Z</time></trkpt><trkpt lat="43.4363865" lon="11.2431584"><ele>284.0</ele><time>2026-04-29T15:17:27.447Z</time></trkpt><trkpt lat="43.4363041" lon="11.2430317"><ele>284.0</ele><time>2026-04-29T15:17:29.387Z</time></trkpt><trkpt lat="43.4362177" lon="11.2429192"><ele>284.0</ele><time>2026-04-29T15:17:31.461Z</time></trkpt><trkpt lat="43.4361526" lon="11.2428222"><ele>284.6666666666667</ele><time>2026-04-29T15:17:33.396Z</time></trkpt><trkpt lat="43.4360897" lon="11.2427353"><ele>285.33333333333337</ele><time>2026-04-29T15:17:35.401Z</time></trkpt><trkpt lat="43.4360411" lon="11.2426491"><ele>286.0</ele><time>2026-04-29T15:17:37.469Z</time></trkpt><trkpt lat="43.4360043" lon="11.242563"><ele>286.6666666666667</ele><time>2026-04-29T15:17:39.39Z</time></trkpt><trkpt lat="43.4359531" lon="11.2424862"><ele>287.3333333333333</ele><time>2026-04-29T15:17:41.46Z</time></trkpt><trkpt lat="43.4359115" lon="11.2423892"><ele>288.0</ele><time>2026-04-29T15:17:44.401Z</time></trkpt><trkpt lat="43.4358635" lon="11.2423247"><ele>288.42857142857144</ele><time>2026-04-29T15:17:46.388Z</time></trkpt><trkpt lat="43.4358002" lon="11.2422418"><ele>288.8571428571429</ele><time>2026-04-29T15:17:49.388Z</time></trkpt><trkpt lat="43.4357446" lon="11.2421766"><ele>289.2857142857143</ele><time>2026-04-29T15:17:52.386Z</time></trkpt><trkpt lat="43.435687" lon="11.2421067"><ele>289.7142857142857</ele><time>2026-04-29T15:17:56.395Z</time></trkpt><trkpt lat="43.4356845" lon="11.2420198"><ele>290.1428571428571</ele><time>2026-04-29T15:18:07.456Z</time></trkpt><trkpt lat="43.4356395" lon="11.2419487"><ele>290.57142857142856</ele><time>2026-04-29T15:18:10.404Z</time></trkpt><trkpt lat="43.4355897" lon="11.2418653"><ele>291.0</ele><time>2026-04-29T15:18:15.393Z</time></trkpt><trkpt lat="43.4355478" lon="11.2417989"><ele>291.0</ele><time>2026-04-29T15:18:19.385Z</time></trkpt><trkpt lat="43.4355002" lon="11.2417166"><ele>291.0</ele><time>2026-04-29T15:18:23.402Z</time></trkpt><trkpt lat="43.4354687" lon="11.2416301"><ele>291.0</ele><time>2026-04-29T15:18:27.388Z</time></trkpt><trkpt lat="43.4354383" lon="11.241527"><ele>291.0</ele><time>2026-04-29T15:18:31.389Z</time></trkpt><trkpt lat="43.4354298" lon="11.2414385"><ele>291.0</ele><time>2026-04-29T15:18:34.403Z</time></trkpt><trkpt lat="43.4354273" lon="11.241326"><ele>291.0</ele><time>2026-04-29T15:18:37.457Z</time></trkpt><trkpt lat="43.435435" lon="11.2412072"><ele>290.6</ele><time>2026-04-29T15:18:40.395Z</time></trkpt><trkpt lat="43.4354341" lon="11.2411039"><ele>290.20000000000005</ele><time>2026-04-29T15:18:42.462Z</time></trkpt><trkpt lat="43.4354474" lon="11.2409738"><ele>289.79999999999995</ele><time>2026-04-29T15:18:45.39Z</time></trkpt><trkpt lat="43.4354499" lon="11.2408521"><ele>289.4</ele><time>2026-04-29T15:18:47.456Z</time></trkpt><trkpt lat="43.4354426" lon="11.240723"><ele>289.0</ele><time>2026-04-29T15:18:49.405Z</time></trkpt><trkpt lat="43.4354291" lon="11.2405822"><ele>289.0</ele><time>2026-04-29T15:18:51.386Z</time></trkpt><trkpt lat="43.4354294" lon="11.240438"><ele>289.0</ele><time>2026-04-29T15:18:53.386Z</time></trkpt><trkpt lat="43.4354377" lon="11.2403"><ele>289.0</ele><time>2026-04-29T15:18:55.455Z</time></trkpt><trkpt lat="43.4354757" lon="11.240148"><ele>289.0</ele><time>2026-04-29T15:18:57.387Z</time></trkpt><trkpt lat="43.4355299" lon="11.2400075"><ele>289.0</ele><time>2026-04-29T15:18:59.399Z</time></trkpt><trkpt lat="43.4355941" lon="11.2398749"><ele>288.59999999999997</ele><time>2026-04-29T15:19:01.368Z</time></trkpt><trkpt lat="43.4356666" lon="11.2397495"><ele>288.2</ele><time>2026-04-29T15:19:03.395Z</time></trkpt><trkpt lat="43.4357365" lon="11.2396228"><ele>287.79999999999995</ele><time>2026-04-29T15:19:05.384Z</time></trkpt><trkpt lat="43.4357968" lon="11.2394977"><ele>287.4</ele><time>2026-04-29T15:19:07.402Z</time></trkpt><trkpt lat="43.4358581" lon="11.2393959"><ele>287.0</ele><time>2026-04-29T15:19:09.385Z</time></trkpt><trkpt lat="43.4359136" lon="11.2392844"><ele>287.0</ele><time>2026-04-29T15:19:11.467Z</time></trkpt><trkpt lat="43.4359664" lon="11.2391795"><ele>287.0</ele><time>2026-04-29T15:19:13.399Z</time></trkpt><trkpt lat="43.4360285" lon="11.2390878"><ele>287.0</ele><time>2026-04-29T15:19:15.396Z</time></trkpt><trkpt lat="43.4360855" lon="11.2389973"><ele>287.0</ele><time>2026-04-29T15:19:17.455Z</time></trkpt><trkpt lat="43.4361351" lon="11.2389082"><ele>287.0</ele><time>2026-04-29T15:19:19.388Z</time></trkpt><trkpt lat="43.4361874" lon="11.238823"><ele>287.0</ele><time>2026-04-29T15:19:21.47Z</time></trkpt><trkpt lat="43.4362483" lon="11.2387525"><ele>286.83333333333337</ele><time>2026-04-29T15:19:23.397Z</time></trkpt><trkpt lat="43.4362918" lon="11.2386837"><ele>286.6666666666667</ele><time>2026-04-29T15:19:25.373Z</time></trkpt><trkpt lat="43.4363302" lon="11.238602"><ele>286.5</ele><time>2026-04-29T15:19:27.456Z</time></trkpt><trkpt lat="43.4363724" lon="11.2385211"><ele>286.3333333333333</ele><time>2026-04-29T15:19:29.373Z</time></trkpt><trkpt lat="43.436424" lon="11.2384093"><ele>286.16666666666663</ele><time>2026-04-29T15:19:32.383Z</time></trkpt><trkpt lat="43.4364693" lon="11.2383077"><ele>286.0</ele><time>2026-04-29T15:19:35.383Z</time></trkpt><trkpt lat="43.4365204" lon="11.2382001"><ele>287.4285714285714</ele><time>2026-04-29T15:19:38.393Z</time></trkpt><trkpt lat="43.4365516" lon="11.2381247"><ele>288.85714285714283</ele><time>2026-04-29T15:19:40.378Z</time></trkpt><trkpt lat="43.4365842" lon="11.2380472"><ele>290.2857142857143</ele><time>2026-04-29T15:19:42.448Z</time></trkpt><trkpt lat="43.4366457" lon="11.2379475"><ele>291.71428571428567</ele><time>2026-04-29T15:19:45.463Z</time></trkpt><trkpt lat="43.4366681" lon="11.237866"><ele>293.1428571428571</ele><time>2026-04-29T15:19:47.39Z</time></trkpt><trkpt lat="43.4366962" lon="11.23777"><ele>294.57142857142856</ele><time>2026-04-29T15:19:49.39Z</time></trkpt><trkpt lat="43.436742" lon="11.237688"><ele>296.0</ele><time>2026-04-29T15:19:51.452Z</time></trkpt><trkpt lat="43.4367659" lon="11.2375668"><ele>296.0</ele><time>2026-04-29T15:19:53.388Z</time></trkpt><trkpt lat="43.4368117" lon="11.2374502"><ele>296.0</ele><time>2026-04-29T15:19:55.455Z</time></trkpt><trkpt lat="43.4368921" lon="11.2373514"><ele>296.0</ele><time>2026-04-29T15:19:57.463Z</time></trkpt><trkpt lat="43.43698" lon="11.2372761"><ele>296.0</ele><time>2026-04-29T15:19:59.392Z</time></trkpt><trkpt lat="43.437093" lon="11.2372353"><ele>296.0</ele><time>2026-04-29T15:20:01.372Z</time></trkpt><trkpt lat="43.4371599" lon="11.2372173"><ele>296.14285714285717</ele><time>2026-04-29T15:20:02.461Z</time></trkpt><trkpt lat="43.437227" lon="11.2371984"><ele>296.2857142857143</ele><time>2026-04-29T15:20:03.396Z</time></trkpt><trkpt lat="43.4372924" lon="11.2371774"><ele>296.42857142857144</ele><time>2026-04-29T15:20:04.388Z</time></trkpt><trkpt lat="43.4373591" lon="11.2371543"><ele>296.57142857142856</ele><time>2026-04-29T15:20:05.403Z</time></trkpt><trkpt lat="43.4374248" lon="11.2371289"><ele>296.7142857142857</ele><time>2026-04-29T15:20:06.384Z</time></trkpt><trkpt lat="43.4374904" lon="11.2371017"><ele>296.8571428571429</ele><time>2026-04-29T15:20:07.391Z</time></trkpt><trkpt lat="43.4375532" lon="11.2370701"><ele>297.0</ele><time>2026-04-29T15:20:08.384Z</time></trkpt><trkpt lat="43.4376174" lon="11.2370371"><ele>297.0</ele><time>2026-04-29T15:20:09.387Z</time></trkpt><trkpt lat="43.4376854" lon="11.2370022"><ele>297.0</ele><time>2026-04-29T15:20:10.398Z</time></trkpt><trkpt lat="43.4377515" lon="11.2369636"><ele>297.0</ele><time>2026-04-29T15:20:11.388Z</time></trkpt><trkpt lat="43.4378178" lon="11.2369212"><ele>297.0</ele><time>2026-04-29T15:20:12.395Z</time></trkpt><trkpt lat="43.4378794" lon="11.2368764"><ele>297.0</ele><time>2026-04-29T15:20:13.386Z</time></trkpt><trkpt lat="43.4379373" lon="11.2368352"><ele>297.0</ele><time>2026-04-29T15:20:14.387Z</time></trkpt><trkpt lat="43.4380349" lon="11.2367444"><ele>296.8</ele><time>2026-04-29T15:20:16.46Z</time></trkpt><trkpt lat="43.4381097" lon="11.236653"><ele>296.6</ele><time>2026-04-29T15:20:18.385Z</time></trkpt><trkpt lat="43.4381755" lon="11.2365508"><ele>296.40000000000003</ele><time>2026-04-29T15:20:20.39Z</time></trkpt><trkpt lat="43.4382533" lon="11.2364447"><ele>296.2</ele><time>2026-04-29T15:20:22.454Z</time></trkpt><trkpt lat="43.4383279" lon="11.2363613"><ele>296.0</ele><time>2026-04-29T15:20:24.387Z</time></trkpt><trkpt lat="43.4383888" lon="11.2362881"><ele>296.0</ele><time>2026-04-29T15:20:26.455Z</time></trkpt><trkpt lat="43.438446" lon="11.2361895"><ele>296.0</ele><time>2026-04-29T15:20:28.4Z</time></trkpt><trkpt lat="43.4384872" lon="11.2361051"><ele>296.0</ele><time>2026-04-29T15:20:30.391Z</time></trkpt><trkpt lat="43.4385461" lon="11.2360284"><ele>296.0</ele><time>2026-04-29T15:20:32.452Z</time></trkpt><trkpt lat="43.4386008" lon="11.2359442"><ele>296.0</ele><time>2026-04-29T15:20:34.394Z</time></trkpt><trkpt lat="43.4386556" lon="11.2358584"><ele>296.0</ele><time>2026-04-29T15:20:36.382Z</time></trkpt><trkpt lat="43.4387196" lon="11.2357581"><ele>296.0</ele><time>2026-04-29T15:20:38.401Z</time></trkpt><trkpt lat="43.4387794" lon="11.2356654"><ele>296.0</ele><time>2026-04-29T15:20:40.398Z</time></trkpt><trkpt lat="43.438842" lon="11.23558"><ele>296.0</ele><time>2026-04-29T15:20:42.386Z</time></trkpt><trkpt lat="43.438906" lon="11.2354881"><ele>296.0</ele><time>2026-04-29T15:20:44.404Z</time></trkpt><trkpt lat="43.4389717" lon="11.2353858"><ele>296.0</ele><time>2026-04-29T15:20:46.395Z</time></trkpt><trkpt lat="43.4390365" lon="11.2352848"><ele>294.40000000000003</ele><time>2026-04-29T15:20:48.392Z</time></trkpt><trkpt lat="43.4391071" lon="11.2351897"><ele>292.8</ele><time>2026-04-29T15:20:50.402Z</time></trkpt><trkpt lat="43.4391795" lon="11.2350964"><ele>291.20000000000005</ele><time>2026-04-29T15:20:52.46Z</time></trkpt><trkpt lat="43.4392507" lon="11.2350079"><ele>289.6</ele><time>2026-04-29T15:20:54.395Z</time></trkpt><trkpt lat="43.4393307" lon="11.2349247"><ele>288.0</ele><time>2026-04-29T15:20:56.448Z</time></trkpt><trkpt lat="43.4394053" lon="11.2348317"><ele>286.8</ele><time>2026-04-29T15:20:58.373Z</time></trkpt><trkpt lat="43.439482" lon="11.2347369"><ele>285.6</ele><time>2026-04-29T15:21:00.39Z</time></trkpt><trkpt lat="43.4395647" lon="11.2346341"><ele>284.4</ele><time>2026-04-29T15:21:02.454Z</time></trkpt><trkpt lat="43.4396512" lon="11.2345475"><ele>283.2</ele><time>2026-04-29T15:21:04.407Z</time></trkpt><trkpt lat="43.4397084" lon="11.2345047"><ele>282.0</ele><time>2026-04-29T15:21:05.463Z</time></trkpt><trkpt lat="43.4397711" lon="11.2344667"><ele>282.0</ele><time>2026-04-29T15:21:06.476Z</time></trkpt><trkpt lat="43.4398956" lon="11.2343693"><ele>282.0</ele><time>2026-04-29T15:21:08.389Z</time></trkpt><trkpt lat="43.4399546" lon="11.2343147"><ele>282.0</ele><time>2026-04-29T15:21:09.394Z</time></trkpt><trkpt lat="43.4400025" lon="11.2342374"><ele>282.0</ele><time>2026-04-29T15:21:10.471Z</time></trkpt><trkpt lat="43.4400461" lon="11.2341568"><ele>282.0</ele><time>2026-04-29T15:21:11.373Z</time></trkpt><trkpt lat="43.4400863" lon="11.2340797"><ele>282.0</ele><time>2026-04-29T15:21:12.444Z</time></trkpt><trkpt lat="43.4401294" lon="11.2340061"><ele>280.6</ele><time>2026-04-29T15:21:13.389Z</time></trkpt><trkpt lat="43.440202" lon="11.2338721"><ele>279.2</ele><time>2026-04-29T15:21:15.399Z</time></trkpt><trkpt lat="43.4402339" lon="11.2337945"><ele>277.8</ele><time>2026-04-29T15:21:16.384Z</time></trkpt><trkpt lat="43.4402855" lon="11.2336836"><ele>276.4</ele><time>2026-04-29T15:21:18.392Z</time></trkpt><trkpt lat="43.440334" lon="11.2335555"><ele>275.0</ele><time>2026-04-29T15:21:20.384Z</time></trkpt><trkpt lat="43.4403777" lon="11.2334369"><ele>275.0</ele><time>2026-04-29T15:21:22.46Z</time></trkpt><trkpt lat="43.4404297" lon="11.2333398"><ele>275.0</ele><time>2026-04-29T15:21:24.402Z</time></trkpt><trkpt lat="43.4405149" lon="11.2331917"><ele>275.0</ele><time>2026-04-29T15:21:26.465Z</time></trkpt><trkpt lat="43.4405661" lon="11.2330909"><ele>275.0</ele><time>2026-04-29T15:21:27.393Z</time></trkpt><trkpt lat="43.4406192" lon="11.233024"><ele>275.0</ele><time>2026-04-29T15:21:28.391Z</time></trkpt><trkpt lat="43.4406759" lon="11.2329622"><ele>274.5</ele><time>2026-04-29T15:21:29.392Z</time></trkpt><trkpt lat="43.440736" lon="11.232899"><ele>274.0</ele><time>2026-04-29T15:21:30.455Z</time></trkpt><trkpt lat="43.4407899" lon="11.232838"><ele>273.5</ele><time>2026-04-29T15:21:31.39Z</time></trkpt><trkpt lat="43.4408478" lon="11.2327702"><ele>273.0</ele><time>2026-04-29T15:21:32.445Z</time></trkpt><trkpt lat="43.4409195" lon="11.2327126"><ele>272.5</ele><time>2026-04-29T15:21:33.38Z</time></trkpt><trkpt lat="43.4409881" lon="11.232649"><ele>272.0</ele><time>2026-04-29T15:21:34.388Z</time></trkpt><trkpt lat="43.441045" lon="11.232589"><ele>272.0</ele><time>2026-04-29T15:21:35.446Z</time></trkpt><trkpt lat="43.4411015" lon="11.2325244"><ele>272.0</ele><time>2026-04-29T15:21:36.465Z</time></trkpt><trkpt lat="43.4411562" lon="11.2324713"><ele>272.0</ele><time>2026-04-29T15:21:37.447Z</time></trkpt><trkpt lat="43.4412378" lon="11.2323806"><ele>272.0</ele><time>2026-04-29T15:21:39.397Z</time></trkpt><trkpt lat="43.4413315" lon="11.2322637"><ele>272.0</ele><time>2026-04-29T15:21:41.451Z</time></trkpt><trkpt lat="43.4414335" lon="11.2321596"><ele>272.33333333333337</ele><time>2026-04-29T15:21:43.395Z</time></trkpt><trkpt lat="43.4415186" lon="11.2320662"><ele>272.6666666666667</ele><time>2026-04-29T15:21:45.39Z</time></trkpt><trkpt lat="43.4415774" lon="11.2320056"><ele>273.0</ele><time>2026-04-29T15:21:47.399Z</time></trkpt><trkpt lat="43.4416358" lon="11.2319591"><ele>273.3333333333333</ele><time>2026-04-29T15:21:49.397Z</time></trkpt><trkpt lat="43.4417178" lon="11.2319365"><ele>273.66666666666663</ele><time>2026-04-29T15:21:52.396Z</time></trkpt><trkpt lat="43.4417907" lon="11.2319349"><ele>274.0</ele><time>2026-04-29T15:21:55.404Z</time></trkpt><trkpt lat="43.441858" lon="11.2319132"><ele>274.0</ele><time>2026-04-29T15:21:58.408Z</time></trkpt><trkpt lat="43.4419195" lon="11.2318826"><ele>274.0</ele><time>2026-04-29T15:22:01.395Z</time></trkpt><trkpt lat="43.4419834" lon="11.231819"><ele>274.0</ele><time>2026-04-29T15:22:05.403Z</time></trkpt><trkpt lat="43.4420574" lon="11.2317757"><ele>274.0</ele><time>2026-04-29T15:22:09.388Z</time></trkpt><trkpt lat="43.4421559" lon="11.2317441"><ele>274.0</ele><time>2026-04-29T15:22:13.384Z</time></trkpt><trkpt lat="43.4422198" lon="11.231736"><ele>274.0</ele><time>2026-04-29T15:22:15.448Z</time></trkpt><trkpt lat="43.4422912" lon="11.2317145"><ele>272.3333333333333</ele><time>2026-04-29T15:22:18.393Z</time></trkpt><trkpt lat="43.4423237" lon="11.2316146"><ele>270.66666666666663</ele><time>2026-04-29T15:22:21.394Z</time></trkpt><trkpt lat="43.4423405" lon="11.2315259"><ele>269.0</ele><time>2026-04-29T15:22:23.378Z</time></trkpt><trkpt lat="43.4423705" lon="11.2314486"><ele>267.3333333333333</ele><time>2026-04-29T15:22:25.384Z</time></trkpt><trkpt lat="43.4424118" lon="11.2313402"><ele>265.6666666666667</ele><time>2026-04-29T15:22:28.38Z</time></trkpt><trkpt lat="43.4424341" lon="11.2312203"><ele>264.0</ele><time>2026-04-29T15:22:31.39Z</time></trkpt><trkpt lat="43.4424355" lon="11.2311093"><ele>262.57142857142856</ele><time>2026-04-29T15:22:34.376Z</time></trkpt><trkpt lat="43.4424339" lon="11.2310099"><ele>261.14285714285717</ele><time>2026-04-29T15:22:36.395Z</time></trkpt><trkpt lat="43.4424309" lon="11.2309069"><ele>259.7142857142857</ele><time>2026-04-29T15:22:38.376Z</time></trkpt><trkpt lat="43.4424283" lon="11.2308068"><ele>258.2857142857143</ele><time>2026-04-29T15:22:40.395Z</time></trkpt><trkpt lat="43.4424371" lon="11.2307139"><ele>256.85714285714283</ele><time>2026-04-29T15:22:42.459Z</time></trkpt><trkpt lat="43.4424235" lon="11.2306231"><ele>255.42857142857144</ele><time>2026-04-29T15:22:44.409Z</time></trkpt><trkpt lat="43.4424218" lon="11.230507"><ele>254.0</ele><time>2026-04-29T15:22:46.461Z</time></trkpt><trkpt lat="43.4424306" lon="11.2304016"><ele>252.16666666666669</ele><time>2026-04-29T15:22:48.399Z</time></trkpt><trkpt lat="43.4424346" lon="11.2302996"><ele>250.33333333333334</ele><time>2026-04-29T15:22:50.388Z</time></trkpt><trkpt lat="43.4424331" lon="11.2301838"><ele>248.5</ele><time>2026-04-29T15:22:52.453Z</time></trkpt><trkpt lat="43.442436" lon="11.2300401"><ele>246.66666666666669</ele><time>2026-04-29T15:22:54.387Z</time></trkpt><trkpt lat="43.4424417" lon="11.2299476"><ele>244.83333333333334</ele><time>2026-04-29T15:22:55.38Z</time></trkpt><trkpt lat="43.4424403" lon="11.2298449"><ele>243.0</ele><time>2026-04-29T15:22:56.466Z</time></trkpt><trkpt lat="43.4424483" lon="11.2297384"><ele>241.66666666666666</ele><time>2026-04-29T15:22:57.402Z</time></trkpt><trkpt lat="43.4424596" lon="11.2296225"><ele>240.33333333333331</ele><time>2026-04-29T15:22:58.391Z</time></trkpt><trkpt lat="43.4424567" lon="11.2294999"><ele>239.0</ele><time>2026-04-29T15:22:59.394Z</time></trkpt><trkpt lat="43.4424616" lon="11.2293791"><ele>237.66666666666666</ele><time>2026-04-29T15:23:00.404Z</time></trkpt><trkpt lat="43.4424632" lon="11.2292546"><ele>236.33333333333331</ele><time>2026-04-29T15:23:01.4Z</time></trkpt><trkpt lat="43.4424626" lon="11.2291264"><ele>235.0</ele><time>2026-04-29T15:23:02.396Z</time></trkpt><trkpt lat="43.4424673" lon="11.228994"><ele>234.49999999999997</ele><time>2026-04-29T15:23:03.402Z</time></trkpt><trkpt lat="43.4424661" lon="11.2288644"><ele>234.0</ele><time>2026-04-29T15:23:04.388Z</time></trkpt><trkpt lat="43.442462" lon="11.2287385"><ele>233.5</ele><time>2026-04-29T15:23:05.393Z</time></trkpt><trkpt lat="43.4424631" lon="11.2286171"><ele>233.0</ele><time>2026-04-29T15:23:06.397Z</time></trkpt><trkpt lat="43.442467" lon="11.2285005"><ele>232.49999999999997</ele><time>2026-04-29T15:23:07.384Z</time></trkpt><trkpt lat="43.4424694" lon="11.228392"><ele>232.0</ele><time>2026-04-29T15:23:08.385Z</time></trkpt><trkpt lat="43.4424708" lon="11.2282865"><ele>231.99999999999997</ele><time>2026-04-29T15:23:09.401Z</time></trkpt><trkpt lat="43.4424692" lon="11.228188"><ele>232.0</ele><time>2026-04-29T15:23:10.398Z</time></trkpt><trkpt lat="43.4424636" lon="11.2280861"><ele>232.0</ele><time>2026-04-29T15:23:11.399Z</time></trkpt><trkpt lat="43.4424597" lon="11.2279813"><ele>232.0</ele><time>2026-04-29T15:23:12.466Z</time></trkpt><trkpt lat="43.4424586" lon="11.2278725"><ele>231.99999999999997</ele><time>2026-04-29T15:23:13.392Z</time></trkpt><trkpt lat="43.4424645" lon="11.2277662"><ele>232.0</ele><time>2026-04-29T15:23:14.398Z</time></trkpt><trkpt lat="43.4424719" lon="11.2276623"><ele>231.71428571428575</ele><time>2026-04-29T15:23:15.392Z</time></trkpt><trkpt lat="43.4424852" lon="11.2275566"><ele>231.42857142857144</ele><time>2026-04-29T15:23:16.376Z</time></trkpt><trkpt lat="43.442502" lon="11.2274533"><ele>231.14285714285714</ele><time>2026-04-29T15:23:17.461Z</time></trkpt><trkpt lat="43.4425138" lon="11.2273527"><ele>230.85714285714286</ele><time>2026-04-29T15:23:18.382Z</time></trkpt><trkpt lat="43.4425183" lon="11.2272523"><ele>230.57142857142856</ele><time>2026-04-29T15:23:19.403Z</time></trkpt><trkpt lat="43.4425298" lon="11.2271519"><ele>230.28571428571425</ele><time>2026-04-29T15:23:20.444Z</time></trkpt><trkpt lat="43.4425521" lon="11.227055"><ele>229.99999999999997</ele><time>2026-04-29T15:23:21.365Z</time></trkpt><trkpt lat="43.4425727" lon="11.2269683"><ele>229.8</ele><time>2026-04-29T15:23:22.463Z</time></trkpt><trkpt lat="43.4425909" lon="11.2268711"><ele>229.6</ele><time>2026-04-29T15:23:23.4Z</time></trkpt><trkpt lat="43.4426089" lon="11.2267701"><ele>229.39999999999998</ele><time>2026-04-29T15:23:24.384Z</time></trkpt><trkpt lat="43.4426537" lon="11.226624"><ele>229.2</ele><time>2026-04-29T15:23:26.389Z</time></trkpt><trkpt lat="43.4426877" lon="11.2264847"><ele>229.0</ele><time>2026-04-29T15:23:28.369Z</time></trkpt><trkpt lat="43.4427143" lon="11.2263665"><ele>228.99999999999997</ele><time>2026-04-29T15:23:30.387Z</time></trkpt><trkpt lat="43.4427406" lon="11.2262554"><ele>229.0</ele><time>2026-04-29T15:23:32.458Z</time></trkpt><trkpt lat="43.4427389" lon="11.2261341"><ele>229.0</ele><time>2026-04-29T15:23:34.387Z</time></trkpt><trkpt lat="43.4427755" lon="11.2260356"><ele>229.0</ele><time>2026-04-29T15:23:36.389Z</time></trkpt><trkpt lat="43.4428047" lon="11.2259316"><ele>228.99999999999997</ele><time>2026-04-29T15:23:38.403Z</time></trkpt><trkpt lat="43.4428622" lon="11.2258432"><ele>229.0</ele><time>2026-04-29T15:23:41.387Z</time></trkpt><trkpt lat="43.4429296" lon="11.2258585"><ele>228.99999999999997</ele><time>2026-04-29T15:23:45.397Z</time></trkpt><trkpt lat="43.4429955" lon="11.2259179"><ele>229.0</ele><time>2026-04-29T15:23:48.39Z</time></trkpt><trkpt lat="43.4430794" lon="11.2259301"><ele>229.0</ele><time>2026-04-29T15:23:52.459Z</time></trkpt><trkpt lat="43.4431486" lon="11.2259656"><ele>229.0</ele><time>2026-04-29T15:23:55.371Z</time></trkpt><trkpt lat="43.4432123" lon="11.225997"><ele>228.99999999999997</ele><time>2026-04-29T15:23:57.463Z</time></trkpt><trkpt lat="43.4432873" lon="11.2260155"><ele>229.0</ele><time>2026-04-29T15:23:59.386Z</time></trkpt><trkpt lat="43.4433567" lon="11.2260239"><ele>228.99999999999997</ele><time>2026-04-29T15:24:01.453Z</time></trkpt><trkpt lat="43.4434459" lon="11.2260354"><ele>229.0</ele><time>2026-04-29T15:24:04.378Z</time></trkpt><trkpt lat="43.4435123" lon="11.2260618"><ele>229.0</ele><time>2026-04-29T15:24:06.454Z</time></trkpt><trkpt lat="43.4435787" lon="11.2260795"><ele>229.0</ele><time>2026-04-29T15:24:08.397Z</time></trkpt><trkpt lat="43.4436562" lon="11.2261041"><ele>228.99999999999997</ele><time>2026-04-29T15:24:10.397Z</time></trkpt><trkpt lat="43.4437273" lon="11.2261258"><ele>229.0</ele><time>2026-04-29T15:24:12.391Z</time></trkpt><trkpt lat="43.4438057" lon="11.2261446"><ele>227.0</ele><time>2026-04-29T15:24:14.395Z</time></trkpt><trkpt lat="43.4438894" lon="11.2261677"><ele>224.99999999999997</ele><time>2026-04-29T15:24:16.38Z</time></trkpt><trkpt lat="43.4439763" lon="11.226195"><ele>222.99999999999997</ele><time>2026-04-29T15:24:18.388Z</time></trkpt><trkpt lat="43.4440723" lon="11.2262293"><ele>221.0</ele><time>2026-04-29T15:24:20.396Z</time></trkpt><trkpt lat="43.4441686" lon="11.2262598"><ele>219.0</ele><time>2026-04-29T15:24:22.46Z</time></trkpt><trkpt lat="43.4442722" lon="11.2262909"><ele>219.0</ele><time>2026-04-29T15:24:24.387Z</time></trkpt><trkpt lat="43.4443771" lon="11.2263241"><ele>218.99999999999997</ele><time>2026-04-29T15:24:26.454Z</time></trkpt><trkpt lat="43.4444455" lon="11.22635"><ele>218.99999999999997</ele><time>2026-04-29T15:24:27.454Z</time></trkpt><trkpt lat="43.4445497" lon="11.2263669"><ele>219.0</ele><time>2026-04-29T15:24:29.392Z</time></trkpt><trkpt lat="43.4446432" lon="11.2264022"><ele>219.0</ele><time>2026-04-29T15:24:31.46Z</time></trkpt><trkpt lat="43.4447454" lon="11.226452"><ele>217.2</ele><time>2026-04-29T15:24:33.373Z</time></trkpt><trkpt lat="43.444842" lon="11.2264814"><ele>215.39999999999998</ele><time>2026-04-29T15:24:35.391Z</time></trkpt><trkpt lat="43.4449365" lon="11.2264938"><ele>213.6</ele><time>2026-04-29T15:24:37.46Z</time></trkpt><trkpt lat="43.4450444" lon="11.2265195"><ele>211.8</ele><time>2026-04-29T15:24:39.4Z</time></trkpt><trkpt lat="43.4451447" lon="11.2265391"><ele>210.0</ele><time>2026-04-29T15:24:41.4Z</time></trkpt><trkpt lat="43.4452324" lon="11.2265708"><ele>210.0</ele><time>2026-04-29T15:24:43.379Z</time></trkpt><trkpt lat="43.445298" lon="11.2265844"><ele>210.0</ele><time>2026-04-29T15:24:45.369Z</time></trkpt><trkpt lat="43.4453557" lon="11.2266307"><ele>210.0</ele><time>2026-04-29T15:24:47.389Z</time></trkpt><trkpt lat="43.4454083" lon="11.2267038"><ele>210.0</ele><time>2026-04-29T15:24:50.394Z</time></trkpt><trkpt lat="43.4454559" lon="11.2267722"><ele>210.0</ele><time>2026-04-29T15:24:53.391Z</time></trkpt><trkpt lat="43.4455154" lon="11.2268675"><ele>210.0</ele><time>2026-04-29T15:24:56.406Z</time></trkpt><trkpt lat="43.4455643" lon="11.2269289"><ele>210.0</ele><time>2026-04-29T15:24:58.371Z</time></trkpt><trkpt lat="43.4456203" lon="11.2269914"><ele>208.83333333333334</ele><time>2026-04-29T15:25:00.46Z</time></trkpt><trkpt lat="43.4456692" lon="11.227055"><ele>207.66666666666669</ele><time>2026-04-29T15:25:02.449Z</time></trkpt><trkpt lat="43.4457427" lon="11.2271205"><ele>206.5</ele><time>2026-04-29T15:25:04.384Z</time></trkpt><trkpt lat="43.4458487" lon="11.2271654"><ele>205.33333333333334</ele><time>2026-04-29T15:25:06.399Z</time></trkpt><trkpt lat="43.44592" lon="11.2271853"><ele>204.16666666666669</ele><time>2026-04-29T15:25:07.381Z</time></trkpt><trkpt lat="43.4460058" lon="11.2272074"><ele>203.0</ele><time>2026-04-29T15:25:08.382Z</time></trkpt><trkpt lat="43.4460891" lon="11.227213"><ele>203.00000000000003</ele><time>2026-04-29T15:25:09.392Z</time></trkpt><trkpt lat="43.4461676" lon="11.2272023"><ele>203.0</ele><time>2026-04-29T15:25:10.404Z</time></trkpt><trkpt lat="43.4462447" lon="11.2272039"><ele>203.0</ele><time>2026-04-29T15:25:11.393Z</time></trkpt><trkpt lat="43.446321" lon="11.2272077"><ele>203.0</ele><time>2026-04-29T15:25:12.398Z</time></trkpt><trkpt lat="43.4463999" lon="11.2271998"><ele>203.00000000000003</ele><time>2026-04-29T15:25:13.398Z</time></trkpt><trkpt lat="43.446472" lon="11.2271989"><ele>203.0</ele><time>2026-04-29T15:25:14.393Z</time></trkpt><trkpt lat="43.4465483" lon="11.227208"><ele>200.4</ele><time>2026-04-29T15:25:15.445Z</time></trkpt><trkpt lat="43.4466182" lon="11.2272245"><ele>197.8</ele><time>2026-04-29T15:25:16.446Z</time></trkpt><trkpt lat="43.4466805" lon="11.2272389"><ele>195.2</ele><time>2026-04-29T15:25:17.442Z</time></trkpt><trkpt lat="43.4467955" lon="11.2272372"><ele>192.6</ele><time>2026-04-29T15:25:19.361Z</time></trkpt><trkpt lat="43.446891" lon="11.2271687"><ele>190.0</ele><time>2026-04-29T15:25:21.399Z</time></trkpt><trkpt lat="43.446973" lon="11.2271018"><ele>190.0</ele><time>2026-04-29T15:25:23.397Z</time></trkpt><trkpt lat="43.447044" lon="11.2270957"><ele>190.0</ele><time>2026-04-29T15:25:25.373Z</time></trkpt><trkpt lat="43.4471117" lon="11.2271181"><ele>190.0</ele><time>2026-04-29T15:25:27.408Z</time></trkpt><trkpt lat="43.4471643" lon="11.2271669"><ele>190.0</ele><time>2026-04-29T15:25:29.383Z</time></trkpt><trkpt lat="43.4472024" lon="11.2272438"><ele>190.0</ele><time>2026-04-29T15:25:31.386Z</time></trkpt><trkpt lat="43.4472324" lon="11.2273672"><ele>190.0</ele><time>2026-04-29T15:25:34.385Z</time></trkpt><trkpt lat="43.4472393" lon="11.2274904"><ele>190.16666666666669</ele><time>2026-04-29T15:25:37.373Z</time></trkpt><trkpt lat="43.4472596" lon="11.2276044"><ele>190.33333333333334</ele><time>2026-04-29T15:25:40.4Z</time></trkpt><trkpt lat="43.447228" lon="11.2277225"><ele>190.5</ele><time>2026-04-29T15:25:43.389Z</time></trkpt><trkpt lat="43.4472372" lon="11.2278457"><ele>190.66666666666666</ele><time>2026-04-29T15:25:46.389Z</time></trkpt><trkpt lat="43.4472553" lon="11.2279324"><ele>190.83333333333331</ele><time>2026-04-29T15:25:48.384Z</time></trkpt><trkpt lat="43.447293" lon="11.2280175"><ele>191.0</ele><time>2026-04-29T15:25:51.447Z</time></trkpt><trkpt lat="43.4473021" lon="11.2281221"><ele>191.16666666666666</ele><time>2026-04-29T15:25:54.396Z</time></trkpt><trkpt lat="43.4473376" lon="11.2282164"><ele>191.33333333333331</ele><time>2026-04-29T15:25:57.386Z</time></trkpt><trkpt lat="43.4473969" lon="11.228307"><ele>191.5</ele><time>2026-04-29T15:26:00.4Z</time></trkpt><trkpt lat="43.4474771" lon="11.2283645"><ele>191.66666666666666</ele><time>2026-04-29T15:26:03.387Z</time></trkpt><trkpt lat="43.4475663" lon="11.2283726"><ele>191.83333333333334</ele><time>2026-04-29T15:26:06.39Z</time></trkpt><trkpt lat="43.4476439" lon="11.2283505"><ele>192.0</ele><time>2026-04-29T15:26:09.384Z</time></trkpt><trkpt lat="43.4477124" lon="11.2283484"><ele>191.99999999999997</ele><time>2026-04-29T15:26:12.45Z</time></trkpt><trkpt lat="43.4477869" lon="11.2283541"><ele>192.0</ele><time>2026-04-29T15:26:16.446Z</time></trkpt><trkpt lat="43.4478622" lon="11.2283267"><ele>192.0</ele><time>2026-04-29T15:26:20.392Z</time></trkpt><trkpt lat="43.4479337" lon="11.2283314"><ele>192.0</ele><time>2026-04-29T15:26:25.386Z</time></trkpt><trkpt lat="43.447995" lon="11.2282989"><ele>192.0</ele><time>2026-04-29T15:26:35.394Z</time></trkpt><trkpt lat="43.4480703" lon="11.2282964"><ele>191.99999999999997</ele><time>2026-04-29T15:26:40.393Z</time></trkpt><trkpt lat="43.4481331" lon="11.2282652"><ele>192.0</ele><time>2026-04-29T15:26:44.386Z</time></trkpt><trkpt lat="43.4481992" lon="11.228263"><ele>193.14285714285714</ele><time>2026-04-29T15:26:55.487Z</time></trkpt><trkpt lat="43.4482752" lon="11.2282476"><ele>194.28571428571428</ele><time>2026-04-29T15:26:59.38Z</time></trkpt><trkpt lat="43.4483476" lon="11.2282483"><ele>195.42857142857144</ele><time>2026-04-29T15:27:16.365Z</time></trkpt><trkpt lat="43.4484246" lon="11.2282302"><ele>196.57142857142856</ele><time>2026-04-29T15:27:23.381Z</time></trkpt><trkpt lat="43.4484895" lon="11.2282217"><ele>197.71428571428572</ele><time>2026-04-29T15:27:27.462Z</time></trkpt><trkpt lat="43.4485583" lon="11.2282205"><ele>198.85714285714286</ele><time>2026-04-29T15:27:32.457Z</time></trkpt><trkpt lat="43.4486204" lon="11.2281865"><ele>200.0</ele><time>2026-04-29T15:27:44.39Z</time></trkpt><trkpt lat="43.4486952" lon="11.2281985"><ele>200.00000000000003</ele><time>2026-04-29T15:27:55.386Z</time></trkpt><trkpt lat="43.4487613" lon="11.2282273"><ele>200.0</ele><time>2026-04-29T15:28:05.386Z</time></trkpt><trkpt lat="43.4488324" lon="11.2282046"><ele>200.0</ele><time>2026-04-29T15:28:09.381Z</time></trkpt><trkpt lat="43.4488997" lon="11.2281872"><ele>200.0</ele><time>2026-04-29T15:28:16.397Z</time></trkpt><trkpt lat="43.4490062" lon="11.2281419"><ele>200.00000000000003</ele><time>2026-04-29T15:28:30.39Z</time></trkpt><trkpt lat="43.4490713" lon="11.2281595"><ele>200.0</ele><time>2026-04-29T15:28:40.394Z</time></trkpt><trkpt lat="43.4491359" lon="11.2281406"><ele>201.2857142857143</ele><time>2026-04-29T15:28:45.394Z</time></trkpt><trkpt lat="43.4492013" lon="11.228131"><ele>202.57142857142858</ele><time>2026-04-29T15:28:51.382Z</time></trkpt><trkpt lat="43.4492701" lon="11.2280973"><ele>203.85714285714286</ele><time>2026-04-29T15:29:00.392Z</time></trkpt><trkpt lat="43.449339" lon="11.2280914"><ele>205.14285714285717</ele><time>2026-04-29T15:29:04.392Z</time></trkpt><trkpt lat="43.4494069" lon="11.2280629"><ele>206.42857142857142</ele><time>2026-04-29T15:29:09.394Z</time></trkpt><trkpt lat="43.449486" lon="11.2280853"><ele>207.71428571428572</ele><time>2026-04-29T15:29:16.458Z</time></trkpt><trkpt lat="43.4495512" lon="11.2281073"><ele>209.0</ele><time>2026-04-29T15:29:21.396Z</time></trkpt><trkpt lat="43.4496167" lon="11.2280919"><ele>210.57142857142856</ele><time>2026-04-29T15:29:26.447Z</time></trkpt><trkpt lat="43.4496878" lon="11.2280726"><ele>212.14285714285714</ele><time>2026-04-29T15:29:32.442Z</time></trkpt><trkpt lat="43.4497428" lon="11.2280304"><ele>213.71428571428572</ele><time>2026-04-29T15:29:43.383Z</time></trkpt><trkpt lat="43.4498105" lon="11.2280262"><ele>215.28571428571428</ele><time>2026-04-29T15:29:47.451Z</time></trkpt><trkpt lat="43.4498843" lon="11.2279961"><ele>216.85714285714286</ele><time>2026-04-29T15:29:54.397Z</time></trkpt><trkpt lat="43.4499807" lon="11.2279798"><ele>218.42857142857142</ele><time>2026-04-29T15:30:05.41Z</time></trkpt><trkpt lat="43.4500496" lon="11.2279881"><ele>220.0</ele><time>2026-04-29T15:30:08.372Z</time></trkpt><trkpt lat="43.4501208" lon="11.227981"><ele>219.99999999999997</ele><time>2026-04-29T15:30:16.46Z</time></trkpt><trkpt lat="43.4501913" lon="11.2279632"><ele>220.0</ele><time>2026-04-29T15:30:30.402Z</time></trkpt><trkpt lat="43.4502645" lon="11.2279563"><ele>220.0</ele><time>2026-04-29T15:30:37.462Z</time></trkpt><trkpt lat="43.450327" lon="11.2279001"><ele>220.0</ele><time>2026-04-29T15:30:47.394Z</time></trkpt><trkpt lat="43.4503968" lon="11.2279339"><ele>220.0</ele><time>2026-04-29T15:30:50.413Z</time></trkpt><trkpt lat="43.4504626" lon="11.2279231"><ele>219.99999999999997</ele><time>2026-04-29T15:30:57.393Z</time></trkpt><trkpt lat="43.4505252" lon="11.22791"><ele>220.0</ele><time>2026-04-29T15:31:03.367Z</time></trkpt><trkpt lat="43.4505941" lon="11.2279009"><ele>221.66666666666666</ele><time>2026-04-29T15:31:14.392Z</time></trkpt><trkpt lat="43.4506685" lon="11.2278816"><ele>223.33333333333331</ele><time>2026-04-29T15:31:22.403Z</time></trkpt><trkpt lat="43.4507322" lon="11.2278372"><ele>225.0</ele><time>2026-04-29T15:31:29.392Z</time></trkpt><trkpt lat="43.4507991" lon="11.2278203"><ele>226.66666666666669</ele><time>2026-04-29T15:31:51.367Z</time></trkpt><trkpt lat="43.4508813" lon="11.2277912"><ele>228.33333333333334</ele><time>2026-04-29T15:31:54.381Z</time></trkpt><trkpt lat="43.4509692" lon="11.2277439"><ele>230.0</ele><time>2026-04-29T15:31:57.388Z</time></trkpt><trkpt lat="43.4510319" lon="11.2277093"><ele>229.99999999999997</ele><time>2026-04-29T15:32:00.483Z</time></trkpt><trkpt lat="43.4510946" lon="11.227698"><ele>230.0</ele><time>2026-04-29T15:32:05.391Z</time></trkpt><trkpt lat="43.4511439" lon="11.2276358"><ele>229.99999999999997</ele><time>2026-04-29T15:32:09.389Z</time></trkpt><trkpt lat="43.4512067" lon="11.2276244"><ele>229.99999999999997</ele><time>2026-04-29T15:32:13.396Z</time></trkpt><trkpt lat="43.4512734" lon="11.2276421"><ele>230.0</ele><time>2026-04-29T15:32:19.387Z</time></trkpt><trkpt lat="43.4513363" lon="11.227607"><ele>229.99999999999997</ele><time>2026-04-29T15:32:27.369Z</time></trkpt><trkpt lat="43.4514054" lon="11.2275609"><ele>229.99999999999997</ele><time>2026-04-29T15:32:41.397Z</time></trkpt><trkpt lat="43.4514651" lon="11.2275297"><ele>231.99999999999997</ele><time>2026-04-29T15:32:47.37Z</time></trkpt><trkpt lat="43.4515354" lon="11.2274969"><ele>234.0</ele><time>2026-04-29T15:33:00.455Z</time></trkpt><trkpt lat="43.4516055" lon="11.2274493"><ele>235.99999999999997</ele><time>2026-04-29T15:33:20.457Z</time></trkpt><trkpt lat="43.4516705" lon="11.2274166"><ele>237.99999999999997</ele><time>2026-04-29T15:33:28.381Z</time></trkpt><trkpt lat="43.4517388" lon="11.2273958"><ele>240.0</ele><time>2026-04-29T15:33:54.375Z</time></trkpt><trkpt lat="43.4518048" lon="11.2273854"><ele>241.99999999999997</ele><time>2026-04-29T15:34:13.388Z</time></trkpt><trkpt lat="43.4518789" lon="11.2273876"><ele>243.99999999999997</ele><time>2026-04-29T15:34:23.384Z</time></trkpt><trkpt lat="43.4519409" lon="11.2273541"><ele>243.99999999999997</ele><time>2026-04-29T15:34:29.381Z</time></trkpt><trkpt lat="43.4520023" lon="11.2273231"><ele>244.0</ele><time>2026-04-29T15:34:47.363Z</time></trkpt><trkpt lat="43.4520671" lon="11.2273052"><ele>243.99999999999997</ele><time>2026-04-29T15:34:52.456Z</time></trkpt><trkpt lat="43.4521482" lon="11.2272907"><ele>243.99999999999997</ele><time>2026-04-29T15:34:57.393Z</time></trkpt><trkpt lat="43.4522208" lon="11.2272638"><ele>244.0</ele><time>2026-04-29T15:35:05.398Z</time></trkpt><trkpt lat="43.4522985" lon="11.227246"><ele>243.99999999999997</ele><time>2026-04-29T15:35:11.388Z</time></trkpt><trkpt lat="43.452365" lon="11.2272063"><ele>243.99999999999997</ele><time>2026-04-29T15:35:26.456Z</time></trkpt><trkpt lat="43.4524416" lon="11.2271756"><ele>246.66666666666666</ele><time>2026-04-29T15:35:44.399Z</time></trkpt><trkpt lat="43.4525704" lon="11.2271507"><ele>249.33333333333331</ele><time>2026-04-29T15:35:50.383Z</time></trkpt><trkpt lat="43.4526259" lon="11.227095"><ele>252.0</ele><time>2026-04-29T15:36:03.385Z</time></trkpt><trkpt lat="43.452693" lon="11.2270299"><ele>254.66666666666669</ele><time>2026-04-29T15:36:07.384Z</time></trkpt><trkpt lat="43.4527542" lon="11.2270081"><ele>257.33333333333337</ele><time>2026-04-29T15:36:12.4Z</time></trkpt><trkpt lat="43.4528163" lon="11.2269568"><ele>260.0</ele><time>2026-04-29T15:36:17.384Z</time></trkpt><trkpt lat="43.4528754" lon="11.2269148"><ele>260.0</ele><time>2026-04-29T15:36:28.387Z</time></trkpt><trkpt lat="43.4529467" lon="11.226877"><ele>260.0</ele><time>2026-04-29T15:36:32.393Z</time></trkpt><trkpt lat="43.4530129" lon="11.2268582"><ele>260.0</ele><time>2026-04-29T15:36:41.368Z</time></trkpt><trkpt lat="43.4530709" lon="11.226796"><ele>260.0</ele><time>2026-04-29T15:36:57.373Z</time></trkpt><trkpt lat="43.4531334" lon="11.2267714"><ele>260.0</ele><time>2026-04-29T15:37:09.399Z</time></trkpt><trkpt lat="43.4532305" lon="11.2266587"><ele>260.0</ele><time>2026-04-29T15:37:41.373Z</time></trkpt><trkpt lat="43.4532947" lon="11.2266692"><ele>262.7142857142857</ele><time>2026-04-29T15:37:51.38Z</time></trkpt><trkpt lat="43.4533507" lon="11.2266105"><ele>265.42857142857144</ele><time>2026-04-29T15:37:58.38Z</time></trkpt><trkpt lat="43.4533877" lon="11.2264956"><ele>268.1428571428571</ele><time>2026-04-29T15:38:07.452Z</time></trkpt><trkpt lat="43.4534615" lon="11.2264931"><ele>270.8571428571429</ele><time>2026-04-29T15:38:10.386Z</time></trkpt><trkpt lat="43.4535001" lon="11.2264152"><ele>273.57142857142856</ele><time>2026-04-29T15:38:15.364Z</time></trkpt><trkpt lat="43.4535625" lon="11.2263779"><ele>276.2857142857143</ele><time>2026-04-29T15:38:20.368Z</time></trkpt><trkpt lat="43.4535919" lon="11.2262849"><ele>279.0</ele><time>2026-04-29T15:38:25.385Z</time></trkpt><trkpt lat="43.4536281" lon="11.2262043"><ele>279.1428571428571</ele><time>2026-04-29T15:38:30.38Z</time></trkpt><trkpt lat="43.4536595" lon="11.2261109"><ele>279.2857142857143</ele><time>2026-04-29T15:38:37.393Z</time></trkpt><trkpt lat="43.4537143" lon="11.2260657"><ele>279.42857142857144</ele><time>2026-04-29T15:38:43.379Z</time></trkpt><trkpt lat="43.4537216" lon="11.2259774"><ele>279.57142857142856</ele><time>2026-04-29T15:38:48.379Z</time></trkpt><trkpt lat="43.4537407" lon="11.2258821"><ele>279.7142857142857</ele><time>2026-04-29T15:38:55.384Z</time></trkpt><trkpt lat="43.4537589" lon="11.2257843"><ele>279.85714285714283</ele><time>2026-04-29T15:39:02.389Z</time></trkpt><trkpt lat="43.4537681" lon="11.2256978"><ele>280.0</ele><time>2026-04-29T15:39:07.385Z</time></trkpt><trkpt lat="43.4538141" lon="11.2256264"><ele>281.14285714285717</ele><time>2026-04-29T15:39:13.38Z</time></trkpt><trkpt lat="43.4538635" lon="11.2255499"><ele>282.2857142857143</ele><time>2026-04-29T15:39:19.387Z</time></trkpt><trkpt lat="43.4539124" lon="11.2254892"><ele>283.42857142857144</ele><time>2026-04-29T15:39:25.41Z</time></trkpt><trkpt lat="43.4539685" lon="11.2254335"><ele>284.57142857142856</ele><time>2026-04-29T15:39:29.39Z</time></trkpt><trkpt lat="43.4540187" lon="11.2253767"><ele>285.7142857142857</ele><time>2026-04-29T15:39:33.399Z</time></trkpt><trkpt lat="43.4540553" lon="11.2253005"><ele>286.8571428571429</ele><time>2026-04-29T15:39:37.394Z</time></trkpt><trkpt lat="43.4541181" lon="11.2252827"><ele>288.0</ele><time>2026-04-29T15:39:41.394Z</time></trkpt><trkpt lat="43.4541801" lon="11.2253218"><ele>288.00000000000006</ele><time>2026-04-29T15:39:45.392Z</time></trkpt><trkpt lat="43.4542372" lon="11.225371"><ele>288.0</ele><time>2026-04-29T15:39:49.391Z</time></trkpt><trkpt lat="43.4543034" lon="11.2254127"><ele>288.0</ele><time>2026-04-29T15:39:53.365Z</time></trkpt><trkpt lat="43.4543681" lon="11.2254591"><ele>288.0</ele><time>2026-04-29T15:39:57.386Z</time></trkpt><trkpt lat="43.4544289" lon="11.2255201"><ele>288.0</ele><time>2026-04-29T15:40:01.413Z</time></trkpt><trkpt lat="43.4544828" lon="11.2255882"><ele>288.00000000000006</ele><time>2026-04-29T15:40:05.396Z</time></trkpt><trkpt lat="43.4545395" lon="11.2256401"><ele>288.0</ele><time>2026-04-29T15:40:09.389Z</time></trkpt><trkpt lat="43.4545925" lon="11.2257096"><ele>288.0</ele><time>2026-04-29T15:40:13.386Z</time></trkpt><trkpt lat="43.4546566" lon="11.2257622"><ele>288.0</ele><time>2026-04-29T15:40:17.397Z</time></trkpt><trkpt lat="43.4547049" lon="11.2258275"><ele>288.0</ele><time>2026-04-29T15:40:21.384Z</time></trkpt><trkpt lat="43.454754" lon="11.2259003"><ele>288.0</ele><time>2026-04-29T15:40:43.378Z</time></trkpt><trkpt lat="43.4547985" lon="11.2260026"><ele>288.0</ele><time>2026-04-29T15:40:47.387Z</time></trkpt><trkpt lat="43.4548424" lon="11.2261133"><ele>288.0</ele><time>2026-04-29T15:40:50.387Z</time></trkpt><trkpt lat="43.4548639" lon="11.2262004"><ele>288.0</ele><time>2026-04-29T15:40:52.409Z</time></trkpt><trkpt lat="43.4548869" lon="11.226288"><ele>288.0</ele><time>2026-04-29T15:40:54.399Z</time></trkpt><trkpt lat="43.4549104" lon="11.2263939"><ele>288.0</ele><time>2026-04-29T15:40:56.386Z</time></trkpt><trkpt lat="43.4549361" lon="11.2265268"><ele>288.0</ele><time>2026-04-29T15:40:58.391Z</time></trkpt><trkpt lat="43.4549635" lon="11.2266839"><ele>288.0</ele><time>2026-04-29T15:41:00.385Z</time></trkpt><trkpt lat="43.4550134" lon="11.2268382"><ele>288.4</ele><time>2026-04-29T15:41:02.391Z</time></trkpt><trkpt lat="43.4550785" lon="11.2269858"><ele>288.8</ele><time>2026-04-29T15:41:04.383Z</time></trkpt><trkpt lat="43.4551206" lon="11.227052"><ele>289.2</ele><time>2026-04-29T15:41:05.387Z</time></trkpt><trkpt lat="43.4552154" lon="11.2271581"><ele>289.6</ele><time>2026-04-29T15:41:07.389Z</time></trkpt><trkpt lat="43.4553017" lon="11.2272717"><ele>290.0</ele><time>2026-04-29T15:41:09.39Z</time></trkpt><trkpt lat="43.4553901" lon="11.2273783"><ele>289.0</ele><time>2026-04-29T15:41:11.401Z</time></trkpt><trkpt lat="43.4554689" lon="11.2274846"><ele>288.0</ele><time>2026-04-29T15:41:13.381Z</time></trkpt><trkpt lat="43.4555486" lon="11.2275809"><ele>287.0</ele><time>2026-04-29T15:41:15.399Z</time></trkpt><trkpt lat="43.4556223" lon="11.2276747"><ele>286.0</ele><time>2026-04-29T15:41:17.395Z</time></trkpt><trkpt lat="43.4556847" lon="11.2277657"><ele>285.0</ele><time>2026-04-29T15:41:19.389Z</time></trkpt><trkpt lat="43.4557388" lon="11.2278553"><ele>285.0</ele><time>2026-04-29T15:41:21.392Z</time></trkpt><trkpt lat="43.4557833" lon="11.2279429"><ele>285.0</ele><time>2026-04-29T15:41:23.403Z</time></trkpt><trkpt lat="43.455833" lon="11.2280159"><ele>285.0</ele><time>2026-04-29T15:41:25.385Z</time></trkpt><trkpt lat="43.455881" lon="11.2280803"><ele>285.0</ele><time>2026-04-29T15:41:27.4Z</time></trkpt><trkpt lat="43.4559276" lon="11.2281458"><ele>285.0</ele><time>2026-04-29T15:41:29.398Z</time></trkpt><trkpt lat="43.4559781" lon="11.2282158"><ele>285.0</ele><time>2026-04-29T15:41:31.388Z</time></trkpt><trkpt lat="43.4560236" lon="11.2282868"><ele>285.0</ele><time>2026-04-29T15:41:33.393Z</time></trkpt><trkpt lat="43.4560726" lon="11.228352"><ele>285.1666666666667</ele><time>2026-04-29T15:41:35.395Z</time></trkpt><trkpt lat="43.4561201" lon="11.2284173"><ele>285.3333333333333</ele><time>2026-04-29T15:41:37.399Z</time></trkpt><trkpt lat="43.4561657" lon="11.2284823"><ele>285.5</ele><time>2026-04-29T15:41:39.391Z</time></trkpt><trkpt lat="43.456215" lon="11.2285448"><ele>285.66666666666663</ele><time>2026-04-29T15:41:41.393Z</time></trkpt><trkpt lat="43.4562757" lon="11.2286382"><ele>285.8333333333333</ele><time>2026-04-29T15:41:44.392Z</time></trkpt><trkpt lat="43.4563423" lon="11.228723"><ele>286.0</ele><time>2026-04-29T15:41:47.391Z</time></trkpt><trkpt lat="43.4564038" lon="11.2288057"><ele>286.0</ele><time>2026-04-29T15:41:50.394Z</time></trkpt><trkpt lat="43.4564588" lon="11.228887"><ele>286.0</ele><time>2026-04-29T15:41:53.391Z</time></trkpt><trkpt lat="43.4565132" lon="11.2289594"><ele>286.0</ele><time>2026-04-29T15:41:56.393Z</time></trkpt><trkpt lat="43.45657" lon="11.2290463"><ele>286.0</ele><time>2026-04-29T15:42:00.389Z</time></trkpt><trkpt lat="43.4566214" lon="11.22912"><ele>286.0</ele><time>2026-04-29T15:42:03.387Z</time></trkpt><trkpt lat="43.4566724" lon="11.2291828"><ele>286.0</ele><time>2026-04-29T15:42:06.388Z</time></trkpt><trkpt lat="43.4567122" lon="11.2292693"><ele>286.8333333333333</ele><time>2026-04-29T15:42:09.388Z</time></trkpt><trkpt lat="43.4567584" lon="11.2293689"><ele>287.66666666666663</ele><time>2026-04-29T15:42:12.39Z</time></trkpt><trkpt lat="43.4567986" lon="11.2294707"><ele>288.5</ele><time>2026-04-29T15:42:15.41Z</time></trkpt><trkpt lat="43.45683" lon="11.2295681"><ele>289.3333333333333</ele><time>2026-04-29T15:42:18.382Z</time></trkpt><trkpt lat="43.4568525" lon="11.2296605"><ele>290.1666666666667</ele><time>2026-04-29T15:42:21.385Z</time></trkpt><trkpt lat="43.4568844" lon="11.2297412"><ele>291.0</ele><time>2026-04-29T15:42:24.389Z</time></trkpt><trkpt lat="43.4569152" lon="11.2298286"><ele>290.85714285714283</ele><time>2026-04-29T15:42:27.368Z</time></trkpt><trkpt lat="43.4569452" lon="11.2299083"><ele>290.71428571428567</ele><time>2026-04-29T15:42:30.379Z</time></trkpt><trkpt lat="43.4569774" lon="11.2299982"><ele>290.57142857142856</ele><time>2026-04-29T15:42:33.391Z</time></trkpt><trkpt lat="43.4570106" lon="11.2300908"><ele>290.42857142857144</ele><time>2026-04-29T15:42:36.392Z</time></trkpt><trkpt lat="43.4570454" lon="11.2301937"><ele>290.28571428571433</ele><time>2026-04-29T15:42:39.393Z</time></trkpt><trkpt lat="43.4570805" lon="11.2302929"><ele>290.14285714285717</ele><time>2026-04-29T15:42:42.39Z</time></trkpt><trkpt lat="43.4571123" lon="11.2303807"><ele>290.0</ele><time>2026-04-29T15:42:45.392Z</time></trkpt><trkpt lat="43.4571466" lon="11.2304604"><ele>290.0</ele><time>2026-04-29T15:42:48.386Z</time></trkpt><trkpt lat="43.4571863" lon="11.2305606"><ele>290.0</ele><time>2026-04-29T15:42:52.385Z</time></trkpt><trkpt lat="43.4572346" lon="11.2306298"><ele>290.0</ele><time>2026-04-29T15:42:55.377Z</time></trkpt><trkpt lat="43.4572861" lon="11.2307026"><ele>290.0</ele><time>2026-04-29T15:42:58.403Z</time></trkpt><trkpt lat="43.4573353" lon="11.2307629"><ele>290.0</ele><time>2026-04-29T15:43:00.39Z</time></trkpt><trkpt lat="43.4573878" lon="11.2308257"><ele>290.0</ele><time>2026-04-29T15:43:02.39Z</time></trkpt><trkpt lat="43.4574615" lon="11.2308939"><ele>290.6</ele><time>2026-04-29T15:43:04.384Z</time></trkpt><trkpt lat="43.4575528" lon="11.2309794"><ele>291.2</ele><time>2026-04-29T15:43:07.379Z</time></trkpt><trkpt lat="43.4576251" lon="11.2310579"><ele>291.8</ele><time>2026-04-29T15:43:09.385Z</time></trkpt><trkpt lat="43.4576993" lon="11.2311458"><ele>292.4</ele><time>2026-04-29T15:43:11.365Z</time></trkpt><trkpt lat="43.457786" lon="11.2312454"><ele>293.0</ele><time>2026-04-29T15:43:13.368Z</time></trkpt><trkpt lat="43.4578658" lon="11.2313359"><ele>293.0</ele><time>2026-04-29T15:43:15.377Z</time></trkpt><trkpt lat="43.457934" lon="11.2314285"><ele>293.0</ele><time>2026-04-29T15:43:17.372Z</time></trkpt><trkpt lat="43.4580036" lon="11.2315122"><ele>293.0</ele><time>2026-04-29T15:43:19.39Z</time></trkpt><trkpt lat="43.4580697" lon="11.2315858"><ele>293.0</ele><time>2026-04-29T15:43:21.458Z</time></trkpt><trkpt lat="43.4581329" lon="11.2316499"><ele>293.0</ele><time>2026-04-29T15:43:23.383Z</time></trkpt><trkpt lat="43.4581963" lon="11.2317127"><ele>293.0</ele><time>2026-04-29T15:43:25.403Z</time></trkpt><trkpt lat="43.4582713" lon="11.2317464"><ele>292.0</ele><time>2026-04-29T15:43:27.389Z</time></trkpt><trkpt lat="43.4583732" lon="11.2317566"><ele>291.0</ele><time>2026-04-29T15:43:29.387Z</time></trkpt><trkpt lat="43.4584804" lon="11.2317421"><ele>290.0</ele><time>2026-04-29T15:43:31.427Z</time></trkpt><trkpt lat="43.4585788" lon="11.2317044"><ele>289.0</ele><time>2026-04-29T15:43:33.386Z</time></trkpt><trkpt lat="43.4586978" lon="11.2316455"><ele>288.0</ele><time>2026-04-29T15:43:35.451Z</time></trkpt><trkpt lat="43.4587645" lon="11.2316067"><ele>286.0</ele><time>2026-04-29T15:43:36.454Z</time></trkpt><trkpt lat="43.4588378" lon="11.2315612"><ele>284.0</ele><time>2026-04-29T15:43:37.387Z</time></trkpt><trkpt lat="43.4589241" lon="11.2315111"><ele>282.0</ele><time>2026-04-29T15:43:38.379Z</time></trkpt><trkpt lat="43.4590123" lon="11.2314596"><ele>280.0</ele><time>2026-04-29T15:43:39.393Z</time></trkpt><trkpt lat="43.459102" lon="11.2314053"><ele>278.0</ele><time>2026-04-29T15:43:40.394Z</time></trkpt><trkpt lat="43.4591921" lon="11.2313499"><ele>277.4</ele><time>2026-04-29T15:43:41.379Z</time></trkpt><trkpt lat="43.459286" lon="11.2312917"><ele>276.8</ele><time>2026-04-29T15:43:42.444Z</time></trkpt><trkpt lat="43.459379" lon="11.2312384"><ele>276.2</ele><time>2026-04-29T15:43:43.384Z</time></trkpt><trkpt lat="43.4594827" lon="11.2311853"><ele>275.6</ele><time>2026-04-29T15:43:44.382Z</time></trkpt><trkpt lat="43.4595824" lon="11.2311431"><ele>275.0</ele><time>2026-04-29T15:43:45.379Z</time></trkpt><trkpt lat="43.4596802" lon="11.231104"><ele>274.6666666666667</ele><time>2026-04-29T15:43:46.384Z</time></trkpt><trkpt lat="43.459766" lon="11.2310729"><ele>274.33333333333337</ele><time>2026-04-29T15:43:47.387Z</time></trkpt><trkpt lat="43.4598457" lon="11.231045"><ele>274.0</ele><time>2026-04-29T15:43:48.378Z</time></trkpt><trkpt lat="43.4599253" lon="11.2310152"><ele>273.6666666666667</ele><time>2026-04-29T15:43:49.367Z</time></trkpt><trkpt lat="43.4600034" lon="11.2309811"><ele>273.3333333333333</ele><time>2026-04-29T15:43:50.399Z</time></trkpt><trkpt lat="43.4600794" lon="11.2309453"><ele>273.0</ele><time>2026-04-29T15:43:51.385Z</time></trkpt><trkpt lat="43.460154" lon="11.2309127"><ele>273.0</ele><time>2026-04-29T15:43:52.375Z</time></trkpt><trkpt lat="43.4602282" lon="11.2308787"><ele>273.0</ele><time>2026-04-29T15:43:53.39Z</time></trkpt><trkpt lat="43.4602977" lon="11.2308489"><ele>273.0</ele><time>2026-04-29T15:43:54.389Z</time></trkpt><trkpt lat="43.4603648" lon="11.2308183"><ele>273.0</ele><time>2026-04-29T15:43:55.378Z</time></trkpt><trkpt lat="43.4604251" lon="11.2307925"><ele>273.0</ele><time>2026-04-29T15:43:56.394Z</time></trkpt><trkpt lat="43.4605059" lon="11.2307452"><ele>273.0</ele><time>2026-04-29T15:43:58.407Z</time></trkpt><trkpt lat="43.4605035" lon="11.2306413"><ele>273.0</ele><time>2026-04-29T15:44:01.386Z</time></trkpt><trkpt lat="43.460495" lon="11.2305291"><ele>272.6666666666667</ele><time>2026-04-29T15:44:04.375Z</time></trkpt><trkpt lat="43.4604831" lon="11.2304345"><ele>272.3333333333333</ele><time>2026-04-29T15:44:06.397Z</time></trkpt><trkpt lat="43.460448" lon="11.230329"><ele>272.0</ele><time>2026-04-29T15:44:08.383Z</time></trkpt><trkpt lat="43.4604129" lon="11.2302132"><ele>271.66666666666663</ele><time>2026-04-29T15:44:10.447Z</time></trkpt><trkpt lat="43.4603964" lon="11.2300786"><ele>271.3333333333333</ele><time>2026-04-29T15:44:12.46Z</time></trkpt><trkpt lat="43.4603725" lon="11.229962"><ele>271.0</ele><time>2026-04-29T15:44:14.383Z</time></trkpt><trkpt lat="43.460337" lon="11.2298158"><ele>270.8</ele><time>2026-04-29T15:44:16.45Z</time></trkpt><trkpt lat="43.4603069" lon="11.2296756"><ele>270.6</ele><time>2026-04-29T15:44:18.398Z</time></trkpt><trkpt lat="43.4602705" lon="11.2295305"><ele>270.4</ele><time>2026-04-29T15:44:20.38Z</time></trkpt><trkpt lat="43.460237" lon="11.2294539"><ele>270.2</ele><time>2026-04-29T15:44:21.45Z</time></trkpt><trkpt lat="43.460238" lon="11.2293398"><ele>270.0</ele><time>2026-04-29T15:44:23.367Z</time></trkpt><trkpt lat="43.4602" lon="11.2291946"><ele>270.0</ele><time>2026-04-29T15:44:25.4Z</time></trkpt><trkpt lat="43.4601772" lon="11.2290369"><ele>270.0</ele><time>2026-04-29T15:44:27.442Z</time></trkpt><trkpt lat="43.4601526" lon="11.2288872"><ele>270.0</ele><time>2026-04-29T15:44:29.384Z</time></trkpt><trkpt lat="43.4601204" lon="11.228774"><ele>270.0</ele><time>2026-04-29T15:44:31.381Z</time></trkpt><trkpt lat="43.4601088" lon="11.2286491"><ele>270.0</ele><time>2026-04-29T15:44:33.389Z</time></trkpt><trkpt lat="43.4601005" lon="11.228531"><ele>270.2</ele><time>2026-04-29T15:44:35.391Z</time></trkpt><trkpt lat="43.4600879" lon="11.228407"><ele>270.4</ele><time>2026-04-29T15:44:37.384Z</time></trkpt><trkpt lat="43.4600701" lon="11.2282805"><ele>270.6</ele><time>2026-04-29T15:44:39.394Z</time></trkpt><trkpt lat="43.4600541" lon="11.2281543"><ele>270.8</ele><time>2026-04-29T15:44:41.448Z</time></trkpt><trkpt lat="43.4600367" lon="11.2280443"><ele>271.0</ele><time>2026-04-29T15:44:43.369Z</time></trkpt><trkpt lat="43.460029" lon="11.2279153"><ele>271.57142857142856</ele><time>2026-04-29T15:44:45.394Z</time></trkpt><trkpt lat="43.4600195" lon="11.2278138"><ele>272.14285714285717</ele><time>2026-04-29T15:44:47.445Z</time></trkpt><trkpt lat="43.4599981" lon="11.2277212"><ele>272.7142857142857</ele><time>2026-04-29T15:44:50.399Z</time></trkpt><trkpt lat="43.4599728" lon="11.2276325"><ele>273.2857142857143</ele><time>2026-04-29T15:44:55.401Z</time></trkpt><trkpt lat="43.4599187" lon="11.2275749"><ele>273.85714285714283</ele><time>2026-04-29T15:44:59.389Z</time></trkpt><trkpt lat="43.459858" lon="11.2275087"><ele>274.42857142857144</ele><time>2026-04-29T15:45:04.384Z</time></trkpt><trkpt lat="43.4598003" lon="11.2274465"><ele>275.0</ele><time>2026-04-29T15:45:10.381Z</time></trkpt><trkpt lat="43.4597669" lon="11.2273591"><ele>275.14285714285717</ele><time>2026-04-29T15:45:16.462Z</time></trkpt><trkpt lat="43.4597662" lon="11.2272689"><ele>275.2857142857143</ele><time>2026-04-29T15:45:20.382Z</time></trkpt><trkpt lat="43.4597871" lon="11.2271747"><ele>275.42857142857144</ele><time>2026-04-29T15:45:24.381Z</time></trkpt><trkpt lat="43.4597969" lon="11.22708"><ele>275.57142857142856</ele><time>2026-04-29T15:45:29.392Z</time></trkpt><trkpt lat="43.4598339" lon="11.2269765"><ele>275.7142857142857</ele><time>2026-04-29T15:45:36.445Z</time></trkpt><trkpt lat="43.4598682" lon="11.226898"><ele>275.8571428571429</ele><time>2026-04-29T15:45:39.392Z</time></trkpt><trkpt lat="43.4598967" lon="11.2267879"><ele>276.0</ele><time>2026-04-29T15:45:42.383Z</time></trkpt><trkpt lat="43.4598832" lon="11.2266937"><ele>276.0</ele><time>2026-04-29T15:45:44.386Z</time></trkpt><trkpt lat="43.4598471" lon="11.2265713"><ele>276.0</ele><time>2026-04-29T15:45:46.384Z</time></trkpt><trkpt lat="43.4597927" lon="11.2264356"><ele>276.0</ele><time>2026-04-29T15:45:48.389Z</time></trkpt><trkpt lat="43.4597367" lon="11.2262846"><ele>276.0</ele><time>2026-04-29T15:45:50.407Z</time></trkpt><trkpt lat="43.459707" lon="11.2262045"><ele>276.0</ele><time>2026-04-29T15:45:51.392Z</time></trkpt><trkpt lat="43.4596715" lon="11.2261218"><ele>276.1666666666667</ele><time>2026-04-29T15:45:52.374Z</time></trkpt><trkpt lat="43.4596305" lon="11.2260365"><ele>276.3333333333333</ele><time>2026-04-29T15:45:53.393Z</time></trkpt><trkpt lat="43.4595837" lon="11.225948"><ele>276.5</ele><time>2026-04-29T15:45:54.396Z</time></trkpt><trkpt lat="43.4595339" lon="11.2258446"><ele>276.66666666666663</ele><time>2026-04-29T15:45:55.373Z</time></trkpt><trkpt lat="43.4594965" lon="11.2257355"><ele>276.8333333333333</ele><time>2026-04-29T15:45:56.446Z</time></trkpt><trkpt lat="43.4594601" lon="11.2256363"><ele>277.0</ele><time>2026-04-29T15:45:57.45Z</time></trkpt><trkpt lat="43.4594247" lon="11.2255372"><ele>276.16666666666663</ele><time>2026-04-29T15:45:58.392Z</time></trkpt><trkpt lat="43.4593848" lon="11.2254336"><ele>275.3333333333333</ele><time>2026-04-29T15:45:59.399Z</time></trkpt><trkpt lat="43.45935" lon="11.2253322"><ele>274.5</ele><time>2026-04-29T15:46:00.388Z</time></trkpt><trkpt lat="43.4593186" lon="11.2252312"><ele>273.6666666666667</ele><time>2026-04-29T15:46:01.455Z</time></trkpt><trkpt lat="43.4592894" lon="11.2251393"><ele>272.83333333333337</ele><time>2026-04-29T15:46:02.452Z</time></trkpt><trkpt lat="43.4592626" lon="11.2250554"><ele>272.0</ele><time>2026-04-29T15:46:03.367Z</time></trkpt><trkpt lat="43.4592347" lon="11.2249652"><ele>272.0</ele><time>2026-04-29T15:46:04.374Z</time></trkpt><trkpt lat="43.459203" lon="11.22487"><ele>272.0</ele><time>2026-04-29T15:46:05.389Z</time></trkpt><trkpt lat="43.4591603" lon="11.2247669"><ele>272.0</ele><time>2026-04-29T15:46:06.458Z</time></trkpt><trkpt lat="43.4591038" lon="11.2246544"><ele>272.0</ele><time>2026-04-29T15:46:07.458Z</time></trkpt><trkpt lat="43.4590525" lon="11.224533"><ele>272.0</ele><time>2026-04-29T15:46:08.371Z</time></trkpt><trkpt lat="43.4590114" lon="11.2244144"><ele>272.1666666666667</ele><time>2026-04-29T15:46:09.37Z</time></trkpt><trkpt lat="43.4589754" lon="11.2243003"><ele>272.33333333333337</ele><time>2026-04-29T15:46:10.386Z</time></trkpt><trkpt lat="43.4589368" lon="11.2241955"><ele>272.5</ele><time>2026-04-29T15:46:11.442Z</time></trkpt><trkpt lat="43.4589218" lon="11.2240989"><ele>272.6666666666667</ele><time>2026-04-29T15:46:12.469Z</time></trkpt><trkpt lat="43.4588986" lon="11.224011"><ele>272.8333333333333</ele><time>2026-04-29T15:46:13.397Z</time></trkpt><trkpt lat="43.4588484" lon="11.2239309"><ele>273.0</ele><time>2026-04-29T15:46:14.381Z</time></trkpt><trkpt lat="43.4587986" lon="11.2238427"><ele>270.0</ele><time>2026-04-29T15:46:15.381Z</time></trkpt><trkpt lat="43.458748" lon="11.2237496"><ele>267.0</ele><time>2026-04-29T15:46:16.384Z</time></trkpt><trkpt lat="43.4586841" lon="11.2236469"><ele>264.0</ele><time>2026-04-29T15:46:17.366Z</time></trkpt><trkpt lat="43.45862" lon="11.2235338"><ele>261.0</ele><time>2026-04-29T15:46:18.4Z</time></trkpt><trkpt lat="43.4585624" lon="11.223415"><ele>258.0</ele><time>2026-04-29T15:46:19.384Z</time></trkpt><trkpt lat="43.4585032" lon="11.2232945"><ele>258.0</ele><time>2026-04-29T15:46:20.367Z</time></trkpt><trkpt lat="43.4584387" lon="11.2231689"><ele>258.0</ele><time>2026-04-29T15:46:21.386Z</time></trkpt><trkpt lat="43.4583767" lon="11.2230421"><ele>258.0</ele><time>2026-04-29T15:46:22.383Z</time></trkpt><trkpt lat="43.458315" lon="11.2229139"><ele>258.0</ele><time>2026-04-29T15:46:23.382Z</time></trkpt><trkpt lat="43.4582577" lon="11.2227839"><ele>258.0</ele><time>2026-04-29T15:46:24.377Z</time></trkpt><trkpt lat="43.4582034" lon="11.2226585"><ele>259.6</ele><time>2026-04-29T15:46:25.38Z</time></trkpt><trkpt lat="43.4581474" lon="11.2225418"><ele>261.20000000000005</ele><time>2026-04-29T15:46:26.392Z</time></trkpt><trkpt lat="43.4580916" lon="11.2224331"><ele>262.8</ele><time>2026-04-29T15:46:27.446Z</time></trkpt><trkpt lat="43.4580483" lon="11.2223235"><ele>264.40000000000003</ele><time>2026-04-29T15:46:28.391Z</time></trkpt><trkpt lat="43.4580175" lon="11.2221984"><ele>266.0</ele><time>2026-04-29T15:46:29.393Z</time></trkpt><trkpt lat="43.4579728" lon="11.2220865"><ele>265.5</ele><time>2026-04-29T15:46:30.464Z</time></trkpt><trkpt lat="43.457917" lon="11.2220121"><ele>265.0</ele><time>2026-04-29T15:46:31.458Z</time></trkpt><trkpt lat="43.4578625" lon="11.2219556"><ele>264.5</ele><time>2026-04-29T15:46:32.449Z</time></trkpt><trkpt lat="43.457817" lon="11.2218888"><ele>264.0</ele><time>2026-04-29T15:46:33.364Z</time></trkpt><trkpt lat="43.4577762" lon="11.2218127"><ele>263.5</ele><time>2026-04-29T15:46:34.391Z</time></trkpt><trkpt lat="43.4577073" lon="11.2216772"><ele>263.0</ele><time>2026-04-29T15:46:36.449Z</time></trkpt><trkpt lat="43.4576648" lon="11.2215162"><ele>264.0</ele><time>2026-04-29T15:46:39.381Z</time></trkpt><trkpt lat="43.4575952" lon="11.221384"><ele>265.0</ele><time>2026-04-29T15:46:41.457Z</time></trkpt><trkpt lat="43.4575341" lon="11.2211029"><ele>266.0</ele><time>2026-04-29T15:46:45.368Z</time></trkpt><trkpt lat="43.4574853" lon="11.2209926"><ele>267.0</ele><time>2026-04-29T15:46:47.363Z</time></trkpt><trkpt lat="43.4574257" lon="11.2208918"><ele>267.0</ele><time>2026-04-29T15:46:48.372Z</time></trkpt><trkpt lat="43.4573943" lon="11.2208104"><ele>267.0</ele><time>2026-04-29T15:46:49.372Z</time></trkpt><trkpt lat="43.457345" lon="11.2206698"><ele>267.0</ele><time>2026-04-29T15:46:51.384Z</time></trkpt><trkpt lat="43.4573041" lon="11.2205514"><ele>267.0</ele><time>2026-04-29T15:46:53.373Z</time></trkpt><trkpt lat="43.4572748" lon="11.2204317"><ele>267.0</ele><time>2026-04-29T15:46:55.373Z</time></trkpt><trkpt lat="43.4572447" lon="11.2203073"><ele>266.4</ele><time>2026-04-29T15:46:57.372Z</time></trkpt><trkpt lat="43.4572073" lon="11.2201826"><ele>265.79999999999995</ele><time>2026-04-29T15:46:59.38Z</time></trkpt><trkpt lat="43.4571631" lon="11.2200549"><ele>265.2</ele><time>2026-04-29T15:47:01.389Z</time></trkpt><trkpt lat="43.457098" lon="11.219918"><ele>264.59999999999997</ele><time>2026-04-29T15:47:03.365Z</time></trkpt><trkpt lat="43.4570151" lon="11.2197871"><ele>264.0</ele><time>2026-04-29T15:47:05.445Z</time></trkpt><trkpt lat="43.4569205" lon="11.2196956"><ele>262.4</ele><time>2026-04-29T15:47:07.373Z</time></trkpt><trkpt lat="43.4568017" lon="11.2196268"><ele>260.79999999999995</ele><time>2026-04-29T15:47:09.362Z</time></trkpt><trkpt lat="43.4567188" lon="11.2195438"><ele>259.20000000000005</ele><time>2026-04-29T15:47:10.381Z</time></trkpt><trkpt lat="43.4566574" lon="11.2194726"><ele>257.6</ele><time>2026-04-29T15:47:11.463Z</time></trkpt><trkpt lat="43.4566094" lon="11.2194048"><ele>256.0</ele><time>2026-04-29T15:47:12.452Z</time></trkpt><trkpt lat="43.4565127" lon="11.2193055"><ele>256.0</ele><time>2026-04-29T15:47:14.375Z</time></trkpt><trkpt lat="43.4564114" lon="11.2191957"><ele>256.0</ele><time>2026-04-29T15:47:16.449Z</time></trkpt><trkpt lat="43.4563231" lon="11.2190977"><ele>256.0</ele><time>2026-04-29T15:47:18.367Z</time></trkpt><trkpt lat="43.4562257" lon="11.2190166"><ele>256.0</ele><time>2026-04-29T15:47:20.382Z</time></trkpt><trkpt lat="43.4561382" lon="11.2189401"><ele>256.8333333333333</ele><time>2026-04-29T15:47:22.379Z</time></trkpt><trkpt lat="43.456068" lon="11.2188581"><ele>257.66666666666663</ele><time>2026-04-29T15:47:24.388Z</time></trkpt><trkpt lat="43.4559965" lon="11.2188139"><ele>258.5</ele><time>2026-04-29T15:47:26.389Z</time></trkpt><trkpt lat="43.4559252" lon="11.2187751"><ele>259.3333333333333</ele><time>2026-04-29T15:47:28.372Z</time></trkpt><trkpt lat="43.4558464" lon="11.2187426"><ele>260.1666666666667</ele><time>2026-04-29T15:47:30.38Z</time></trkpt><trkpt lat="43.4557785" lon="11.2187087"><ele>261.0</ele><time>2026-04-29T15:47:32.374Z</time></trkpt><trkpt lat="43.4557105" lon="11.2186629"><ele>261.0</ele><time>2026-04-29T15:47:34.383Z</time></trkpt><trkpt lat="43.4556352" lon="11.2186285"><ele>261.0</ele><time>2026-04-29T15:47:36.353Z</time></trkpt><trkpt lat="43.4555341" lon="11.218585"><ele>261.0</ele><time>2026-04-29T15:47:39.367Z</time></trkpt><trkpt lat="43.455466" lon="11.2185389"><ele>261.0</ele><time>2026-04-29T15:47:41.454Z</time></trkpt><trkpt lat="43.4553818" lon="11.2185221"><ele>261.0</ele><time>2026-04-29T15:47:43.362Z</time></trkpt><trkpt lat="43.4552961" lon="11.2184361"><ele>261.40000000000003</ele><time>2026-04-29T15:47:45.369Z</time></trkpt><trkpt lat="43.4552115" lon="11.2183464"><ele>261.8</ele><time>2026-04-29T15:47:47.457Z</time></trkpt><trkpt lat="43.4551546" lon="11.2182121"><ele>262.20000000000005</ele><time>2026-04-29T15:47:49.375Z</time></trkpt><trkpt lat="43.4550864" lon="11.2181407"><ele>262.6</ele><time>2026-04-29T15:47:50.381Z</time></trkpt><trkpt lat="43.4550207" lon="11.2180624"><ele>263.0</ele><time>2026-04-29T15:47:51.447Z</time></trkpt><trkpt lat="43.4549482" lon="11.2179937"><ele>262.0</ele><time>2026-04-29T15:47:52.443Z</time></trkpt><trkpt lat="43.4548754" lon="11.2179189"><ele>261.0</ele><time>2026-04-29T15:47:53.383Z</time></trkpt><trkpt lat="43.4548076" lon="11.2178412"><ele>260.0</ele><time>2026-04-29T15:47:54.378Z</time></trkpt><trkpt lat="43.4547447" lon="11.2177534"><ele>259.0</ele><time>2026-04-29T15:47:55.381Z</time></trkpt><trkpt lat="43.4546806" lon="11.2176682"><ele>258.0</ele><time>2026-04-29T15:47:56.437Z</time></trkpt><trkpt lat="43.4546137" lon="11.2175787"><ele>256.8</ele><time>2026-04-29T15:47:57.35Z</time></trkpt><trkpt lat="43.4545337" lon="11.2175041"><ele>255.60000000000002</ele><time>2026-04-29T15:47:58.351Z</time></trkpt><trkpt lat="43.454448" lon="11.2174462"><ele>254.39999999999998</ele><time>2026-04-29T15:47:59.381Z</time></trkpt><trkpt lat="43.4543441" lon="11.2174143"><ele>253.2</ele><time>2026-04-29T15:48:00.365Z</time></trkpt><trkpt lat="43.4542491" lon="11.2174206"><ele>252.0</ele><time>2026-04-29T15:48:01.382Z</time></trkpt><trkpt lat="43.4541497" lon="11.2174343"><ele>252.0</ele><time>2026-04-29T15:48:02.364Z</time></trkpt><trkpt lat="43.4540488" lon="11.2174407"><ele>252.0</ele><time>2026-04-29T15:48:03.375Z</time></trkpt><trkpt lat="43.453946" lon="11.2174186"><ele>252.0</ele><time>2026-04-29T15:48:04.356Z</time></trkpt><trkpt lat="43.4538407" lon="11.2173884"><ele>252.0</ele><time>2026-04-29T15:48:05.378Z</time></trkpt><trkpt lat="43.4537368" lon="11.2173379"><ele>252.0</ele><time>2026-04-29T15:48:06.367Z</time></trkpt><trkpt lat="43.4536317" lon="11.2172706"><ele>250.0</ele><time>2026-04-29T15:48:07.369Z</time></trkpt><trkpt lat="43.4535242" lon="11.2171989"><ele>248.0</ele><time>2026-04-29T15:48:08.378Z</time></trkpt><trkpt lat="43.453416" lon="11.2171311"><ele>246.0</ele><time>2026-04-29T15:48:09.384Z</time></trkpt><trkpt lat="43.4533096" lon="11.2170615"><ele>244.0</ele><time>2026-04-29T15:48:10.464Z</time></trkpt><trkpt lat="43.4532027" lon="11.2169729"><ele>244.0</ele><time>2026-04-29T15:48:11.455Z</time></trkpt><trkpt lat="43.4530953" lon="11.2168697"><ele>244.0</ele><time>2026-04-29T15:48:12.45Z</time></trkpt><trkpt lat="43.4529953" lon="11.2167799"><ele>244.0</ele><time>2026-04-29T15:48:13.373Z</time></trkpt><trkpt lat="43.4528986" lon="11.2166948"><ele>244.0</ele><time>2026-04-29T15:48:14.385Z</time></trkpt><trkpt lat="43.452822" lon="11.2166079"><ele>242.79999999999998</ele><time>2026-04-29T15:48:15.38Z</time></trkpt><trkpt lat="43.4527561" lon="11.216492"><ele>241.59999999999997</ele><time>2026-04-29T15:48:16.453Z</time></trkpt><trkpt lat="43.4526963" lon="11.2163771"><ele>240.4</ele><time>2026-04-29T15:48:17.454Z</time></trkpt><trkpt lat="43.4526376" lon="11.2162576"><ele>239.2</ele><time>2026-04-29T15:48:18.363Z</time></trkpt><trkpt lat="43.4525725" lon="11.2161155"><ele>238.0</ele><time>2026-04-29T15:48:19.373Z</time></trkpt><trkpt lat="43.4525124" lon="11.2159798"><ele>238.0</ele><time>2026-04-29T15:48:20.377Z</time></trkpt><trkpt lat="43.452453" lon="11.2158511"><ele>238.0</ele><time>2026-04-29T15:48:21.454Z</time></trkpt><trkpt lat="43.4524027" lon="11.2157357"><ele>238.0</ele><time>2026-04-29T15:48:22.362Z</time></trkpt><trkpt lat="43.4523494" lon="11.2156123"><ele>238.0</ele><time>2026-04-29T15:48:23.383Z</time></trkpt><trkpt lat="43.4523004" lon="11.2154933"><ele>238.0</ele><time>2026-04-29T15:48:24.371Z</time></trkpt><trkpt lat="43.4522571" lon="11.2153667"><ele>237.4</ele><time>2026-04-29T15:48:25.374Z</time></trkpt><trkpt lat="43.4522229" lon="11.2152326"><ele>236.8</ele><time>2026-04-29T15:48:26.371Z</time></trkpt><trkpt lat="43.4521941" lon="11.2151015"><ele>236.2</ele><time>2026-04-29T15:48:27.441Z</time></trkpt><trkpt lat="43.4521702" lon="11.2149695"><ele>235.6</ele><time>2026-04-29T15:48:28.386Z</time></trkpt><trkpt lat="43.4521561" lon="11.2148197"><ele>235.0</ele><time>2026-04-29T15:48:29.386Z</time></trkpt><trkpt lat="43.4521487" lon="11.2146549"><ele>233.75</ele><time>2026-04-29T15:48:30.367Z</time></trkpt><trkpt lat="43.4521451" lon="11.2144874"><ele>232.5</ele><time>2026-04-29T15:48:31.357Z</time></trkpt><trkpt lat="43.4521384" lon="11.2143183"><ele>231.25</ele><time>2026-04-29T15:48:32.394Z</time></trkpt><trkpt lat="43.4521304" lon="11.2141551"><ele>230.0</ele><time>2026-04-29T15:48:33.383Z</time></trkpt><trkpt lat="43.452119" lon="11.2139951"><ele>226.6</ele><time>2026-04-29T15:48:34.372Z</time></trkpt><trkpt lat="43.4521062" lon="11.2138447"><ele>223.2</ele><time>2026-04-29T15:48:35.372Z</time></trkpt><trkpt lat="43.4520906" lon="11.2136947"><ele>219.8</ele><time>2026-04-29T15:48:36.384Z</time></trkpt><trkpt lat="43.4520786" lon="11.2135509"><ele>216.4</ele><time>2026-04-29T15:48:37.385Z</time></trkpt><trkpt lat="43.45207" lon="11.2134041"><ele>213.0</ele><time>2026-04-29T15:48:38.374Z</time></trkpt><trkpt lat="43.4520585" lon="11.2132636"><ele>213.0</ele><time>2026-04-29T15:48:39.374Z</time></trkpt><trkpt lat="43.4520463" lon="11.2131247"><ele>213.0</ele><time>2026-04-29T15:48:40.378Z</time></trkpt><trkpt lat="43.452038" lon="11.2129854"><ele>213.0</ele><time>2026-04-29T15:48:41.382Z</time></trkpt><trkpt lat="43.4520226" lon="11.2128457"><ele>213.0</ele><time>2026-04-29T15:48:42.374Z</time></trkpt><trkpt lat="43.4520074" lon="11.2127143"><ele>213.0</ele><time>2026-04-29T15:48:43.382Z</time></trkpt><trkpt lat="43.4519926" lon="11.2125913"><ele>213.0</ele><time>2026-04-29T15:48:44.375Z</time></trkpt><trkpt lat="43.4519716" lon="11.2124657"><ele>213.0</ele><time>2026-04-29T15:48:45.364Z</time></trkpt><trkpt lat="43.4519437" lon="11.2123367"><ele>213.0</ele><time>2026-04-29T15:48:46.457Z</time></trkpt><trkpt lat="43.4518773" lon="11.2120787"><ele>213.0</ele><time>2026-04-29T15:48:48.449Z</time></trkpt><trkpt lat="43.4518452" lon="11.2119571"><ele>212.8</ele><time>2026-04-29T15:48:49.356Z</time></trkpt><trkpt lat="43.4518147" lon="11.2118228"><ele>212.60000000000002</ele><time>2026-04-29T15:48:50.387Z</time></trkpt><trkpt lat="43.4517803" lon="11.2116899"><ele>212.39999999999998</ele><time>2026-04-29T15:48:51.443Z</time></trkpt><trkpt lat="43.451743" lon="11.2115557"><ele>212.2</ele><time>2026-04-29T15:48:52.444Z</time></trkpt><trkpt lat="43.4517125" lon="11.2114207"><ele>212.0</ele><time>2026-04-29T15:48:53.367Z</time></trkpt><trkpt lat="43.4516899" lon="11.2112619"><ele>212.0</ele><time>2026-04-29T15:48:54.376Z</time></trkpt><trkpt lat="43.4516681" lon="11.21109"><ele>212.0</ele><time>2026-04-29T15:48:55.382Z</time></trkpt><trkpt lat="43.4516573" lon="11.2109046"><ele>212.0</ele><time>2026-04-29T15:48:56.445Z</time></trkpt><trkpt lat="43.4516437" lon="11.2107178"><ele>212.0</ele><time>2026-04-29T15:48:57.373Z</time></trkpt><trkpt lat="43.4516191" lon="11.2105265"><ele>211.75</ele><time>2026-04-29T15:48:58.458Z</time></trkpt><trkpt lat="43.4515804" lon="11.2103463"><ele>211.5</ele><time>2026-04-29T15:48:59.368Z</time></trkpt><trkpt lat="43.4515398" lon="11.2101765"><ele>211.25</ele><time>2026-04-29T15:49:00.385Z</time></trkpt><trkpt lat="43.4514998" lon="11.2100343"><ele>211.0</ele><time>2026-04-29T15:49:01.393Z</time></trkpt><trkpt lat="43.4514747" lon="11.2099049"><ele>210.0</ele><time>2026-04-29T15:49:02.447Z</time></trkpt><trkpt lat="43.4514543" lon="11.2097826"><ele>209.0</ele><time>2026-04-29T15:49:03.356Z</time></trkpt><trkpt lat="43.4514376" lon="11.2096428"><ele>208.0</ele><time>2026-04-29T15:49:04.383Z</time></trkpt><trkpt lat="43.4514289" lon="11.2094947"><ele>207.0</ele><time>2026-04-29T15:49:05.367Z</time></trkpt><trkpt lat="43.4514231" lon="11.2093366"><ele>206.0</ele><time>2026-04-29T15:49:06.458Z</time></trkpt><trkpt lat="43.4514389" lon="11.2091817"><ele>206.0</ele><time>2026-04-29T15:49:07.371Z</time></trkpt><trkpt lat="43.4514701" lon="11.2089981"><ele>206.0</ele><time>2026-04-29T15:49:08.374Z</time></trkpt><trkpt lat="43.4514933" lon="11.2088168"><ele>206.0</ele><time>2026-04-29T15:49:09.369Z</time></trkpt><trkpt lat="43.4515021" lon="11.2086518"><ele>206.0</ele><time>2026-04-29T15:49:10.385Z</time></trkpt><trkpt lat="43.4515093" lon="11.2084991"><ele>204.0</ele><time>2026-04-29T15:49:11.389Z</time></trkpt><trkpt lat="43.4515086" lon="11.2083417"><ele>202.0</ele><time>2026-04-29T15:49:12.392Z</time></trkpt><trkpt lat="43.4514934" lon="11.2081781"><ele>200.0</ele><time>2026-04-29T15:49:13.378Z</time></trkpt><trkpt lat="43.4514747" lon="11.2080159"><ele>198.0</ele><time>2026-04-29T15:49:14.368Z</time></trkpt><trkpt lat="43.4514524" lon="11.207852"><ele>194.5</ele><time>2026-04-29T15:49:15.365Z</time></trkpt><trkpt lat="43.4514081" lon="11.2076899"><ele>191.0</ele><time>2026-04-29T15:49:16.394Z</time></trkpt><trkpt lat="43.4513476" lon="11.2075372"><ele>187.5</ele><time>2026-04-29T15:49:17.382Z</time></trkpt><trkpt lat="43.4512845" lon="11.2073864"><ele>184.0</ele><time>2026-04-29T15:49:18.38Z</time></trkpt><trkpt lat="43.4512246" lon="11.2072286"><ele>182.0</ele><time>2026-04-29T15:49:19.375Z</time></trkpt><trkpt lat="43.4511608" lon="11.2070654"><ele>180.0</ele><time>2026-04-29T15:49:20.382Z</time></trkpt><trkpt lat="43.4510952" lon="11.206908"><ele>178.0</ele><time>2026-04-29T15:49:21.386Z</time></trkpt><trkpt lat="43.4510342" lon="11.2067587"><ele>176.0</ele><time>2026-04-29T15:49:22.361Z</time></trkpt><trkpt lat="43.4509776" lon="11.2066149"><ele>174.75</ele><time>2026-04-29T15:49:23.385Z</time></trkpt><trkpt lat="43.4509309" lon="11.2064698"><ele>173.5</ele><time>2026-04-29T15:49:24.369Z</time></trkpt><trkpt lat="43.4509023" lon="11.2063119"><ele>172.25</ele><time>2026-04-29T15:49:25.382Z</time></trkpt><trkpt lat="43.450878" lon="11.2061452"><ele>171.0</ele><time>2026-04-29T15:49:26.463Z</time></trkpt><trkpt lat="43.4508554" lon="11.2059952"><ele>171.0</ele><time>2026-04-29T15:49:27.453Z</time></trkpt><trkpt lat="43.450814" lon="11.2058581"><ele>171.0</ele><time>2026-04-29T15:49:28.355Z</time></trkpt><trkpt lat="43.4507476" lon="11.205715"><ele>171.0</ele><time>2026-04-29T15:49:29.377Z</time></trkpt><trkpt lat="43.4506743" lon="11.2055818"><ele>171.0</ele><time>2026-04-29T15:49:30.388Z</time></trkpt><trkpt lat="43.450609" lon="11.2054575"><ele>170.4</ele><time>2026-04-29T15:49:31.379Z</time></trkpt><trkpt lat="43.450554" lon="11.2053245"><ele>169.8</ele><time>2026-04-29T15:49:32.459Z</time></trkpt><trkpt lat="43.450525" lon="11.2051903"><ele>169.20000000000002</ele><time>2026-04-29T15:49:33.378Z</time></trkpt><trkpt lat="43.4505249" lon="11.2050428"><ele>168.60000000000002</ele><time>2026-04-29T15:49:34.374Z</time></trkpt><trkpt lat="43.4505637" lon="11.2048918"><ele>168.0</ele><time>2026-04-29T15:49:35.382Z</time></trkpt><trkpt lat="43.4506151" lon="11.204755"><ele>167.2</ele><time>2026-04-29T15:49:36.457Z</time></trkpt><trkpt lat="43.4506544" lon="11.2046162"><ele>166.4</ele><time>2026-04-29T15:49:37.446Z</time></trkpt><trkpt lat="43.4506975" lon="11.2045013"><ele>165.6</ele><time>2026-04-29T15:49:38.379Z</time></trkpt><trkpt lat="43.4507537" lon="11.2043821"><ele>164.79999999999998</ele><time>2026-04-29T15:49:39.372Z</time></trkpt><trkpt lat="43.4508002" lon="11.2042672"><ele>164.0</ele><time>2026-04-29T15:49:40.382Z</time></trkpt><trkpt lat="43.4508495" lon="11.2041487"><ele>164.0</ele><time>2026-04-29T15:49:41.448Z</time></trkpt><trkpt lat="43.4509042" lon="11.204007"><ele>164.0</ele><time>2026-04-29T15:49:42.45Z</time></trkpt><trkpt lat="43.4509643" lon="11.2038694"><ele>164.0</ele><time>2026-04-29T15:49:43.376Z</time></trkpt><trkpt lat="43.4510113" lon="11.2037543"><ele>164.0</ele><time>2026-04-29T15:49:44.367Z</time></trkpt><trkpt lat="43.4510414" lon="11.2036425"><ele>164.0</ele><time>2026-04-29T15:49:45.362Z</time></trkpt><trkpt lat="43.4510566" lon="11.2035209"><ele>163.2</ele><time>2026-04-29T15:49:46.377Z</time></trkpt><trkpt lat="43.4510452" lon="11.2033906"><ele>162.39999999999998</ele><time>2026-04-29T15:49:47.369Z</time></trkpt><trkpt lat="43.451028" lon="11.2032567"><ele>161.6</ele><time>2026-04-29T15:49:48.374Z</time></trkpt><trkpt lat="43.451013" lon="11.2031255"><ele>160.8</ele><time>2026-04-29T15:49:49.368Z</time></trkpt><trkpt lat="43.4510108" lon="11.2029834"><ele>160.0</ele><time>2026-04-29T15:49:50.37Z</time></trkpt><trkpt lat="43.4510339" lon="11.2028436"><ele>159.83333333333334</ele><time>2026-04-29T15:49:51.379Z</time></trkpt><trkpt lat="43.451074" lon="11.2027144"><ele>159.66666666666669</ele><time>2026-04-29T15:49:52.369Z</time></trkpt><trkpt lat="43.4511129" lon="11.2025911"><ele>159.5</ele><time>2026-04-29T15:49:53.449Z</time></trkpt><trkpt lat="43.4511406" lon="11.2024869"><ele>159.33333333333334</ele><time>2026-04-29T15:49:54.393Z</time></trkpt><trkpt lat="43.4511579" lon="11.2023825"><ele>159.16666666666666</ele><time>2026-04-29T15:49:55.366Z</time></trkpt><trkpt lat="43.4511616" lon="11.2022733"><ele>159.0</ele><time>2026-04-29T15:49:56.448Z</time></trkpt><trkpt lat="43.4511335" lon="11.2021046"><ele>159.0</ele><time>2026-04-29T15:49:58.359Z</time></trkpt><trkpt lat="43.451111" lon="11.2020194"><ele>159.0</ele><time>2026-04-29T15:49:59.365Z</time></trkpt><trkpt lat="43.4510813" lon="11.2019382"><ele>159.0</ele><time>2026-04-29T15:50:00.373Z</time></trkpt><trkpt lat="43.4510482" lon="11.201863"><ele>159.0</ele><time>2026-04-29T15:50:01.439Z</time></trkpt><trkpt lat="43.4509771" lon="11.2017051"><ele>159.0</ele><time>2026-04-29T15:50:03.368Z</time></trkpt><trkpt lat="43.4509348" lon="11.2016127"><ele>159.0</ele><time>2026-04-29T15:50:04.372Z</time></trkpt><trkpt lat="43.4508997" lon="11.2015328"><ele>159.66666666666666</ele><time>2026-04-29T15:50:05.379Z</time></trkpt><trkpt lat="43.4508731" lon="11.2014523"><ele>160.33333333333334</ele><time>2026-04-29T15:50:06.443Z</time></trkpt><trkpt lat="43.4508507" lon="11.2013206"><ele>161.0</ele><time>2026-04-29T15:50:08.363Z</time></trkpt><trkpt lat="43.4508453" lon="11.2012026"><ele>161.66666666666669</ele><time>2026-04-29T15:50:10.372Z</time></trkpt><trkpt lat="43.4508531" lon="11.2010964"><ele>162.33333333333334</ele><time>2026-04-29T15:50:12.441Z</time></trkpt><trkpt lat="43.4508471" lon="11.2009792"><ele>163.0</ele><time>2026-04-29T15:50:14.372Z</time></trkpt><trkpt lat="43.450823" lon="11.20086"><ele>163.0</ele><time>2026-04-29T15:50:16.375Z</time></trkpt><trkpt lat="43.4507792" lon="11.2007511"><ele>163.0</ele><time>2026-04-29T15:50:18.376Z</time></trkpt><trkpt lat="43.4507233" lon="11.2006427"><ele>163.0</ele><time>2026-04-29T15:50:20.368Z</time></trkpt><trkpt lat="43.4506544" lon="11.2005554"><ele>163.0</ele><time>2026-04-29T15:50:22.378Z</time></trkpt><trkpt lat="43.4505791" lon="11.2004662"><ele>163.0</ele><time>2026-04-29T15:50:24.353Z</time></trkpt><trkpt lat="43.4505" lon="11.2003755"><ele>161.8</ele><time>2026-04-29T15:50:26.376Z</time></trkpt><trkpt lat="43.4504374" lon="11.200292"><ele>160.60000000000002</ele><time>2026-04-29T15:50:28.37Z</time></trkpt><trkpt lat="43.4503666" lon="11.2002055"><ele>159.39999999999998</ele><time>2026-04-29T15:50:30.372Z</time></trkpt><trkpt lat="43.4502989" lon="11.2001041"><ele>158.2</ele><time>2026-04-29T15:50:32.441Z</time></trkpt><trkpt lat="43.4502262" lon="11.1999692"><ele>157.0</ele><time>2026-04-29T15:50:34.368Z</time></trkpt><trkpt lat="43.4501578" lon="11.1998463"><ele>156.83333333333334</ele><time>2026-04-29T15:50:36.441Z</time></trkpt><trkpt lat="43.4501141" lon="11.1997717"><ele>156.66666666666669</ele><time>2026-04-29T15:50:37.374Z</time></trkpt><trkpt lat="43.4500695" lon="11.1996954"><ele>156.5</ele><time>2026-04-29T15:50:38.451Z</time></trkpt><trkpt lat="43.4499855" lon="11.1995908"><ele>156.33333333333334</ele><time>2026-04-29T15:50:40.379Z</time></trkpt><trkpt lat="43.4499435" lon="11.1995258"><ele>156.16666666666666</ele><time>2026-04-29T15:50:41.448Z</time></trkpt><trkpt lat="43.4498714" lon="11.1993952"><ele>156.0</ele><time>2026-04-29T15:50:43.357Z</time></trkpt><trkpt lat="43.4498131" lon="11.1992458"><ele>156.0</ele><time>2026-04-29T15:50:45.36Z</time></trkpt><trkpt lat="43.4497845" lon="11.1991595"><ele>156.0</ele><time>2026-04-29T15:50:46.367Z</time></trkpt><trkpt lat="43.4497666" lon="11.1990706"><ele>156.0</ele><time>2026-04-29T15:50:47.367Z</time></trkpt><trkpt lat="43.4497614" lon="11.1989774"><ele>156.0</ele><time>2026-04-29T15:50:48.362Z</time></trkpt><trkpt lat="43.4497668" lon="11.1988844"><ele>156.0</ele><time>2026-04-29T15:50:49.36Z</time></trkpt><trkpt lat="43.4497808" lon="11.1987933"><ele>156.0</ele><time>2026-04-29T15:50:50.45Z</time></trkpt><trkpt lat="43.4498043" lon="11.1986923"><ele>156.0</ele><time>2026-04-29T15:50:51.388Z</time></trkpt><trkpt lat="43.4498329" lon="11.1985751"><ele>155.83333333333334</ele><time>2026-04-29T15:50:52.374Z</time></trkpt><trkpt lat="43.4498508" lon="11.1984555"><ele>155.66666666666666</ele><time>2026-04-29T15:50:53.367Z</time></trkpt><trkpt lat="43.4498584" lon="11.198341"><ele>155.5</ele><time>2026-04-29T15:50:54.387Z</time></trkpt><trkpt lat="43.4498672" lon="11.1982268"><ele>155.33333333333331</ele><time>2026-04-29T15:50:55.378Z</time></trkpt><trkpt lat="43.44988" lon="11.1981097"><ele>155.16666666666666</ele><time>2026-04-29T15:50:56.381Z</time></trkpt><trkpt lat="43.4499078" lon="11.1979919"><ele>155.0</ele><time>2026-04-29T15:50:57.352Z</time></trkpt><trkpt lat="43.4499464" lon="11.1978711"><ele>154.83333333333331</ele><time>2026-04-29T15:50:58.373Z</time></trkpt><trkpt lat="43.4499895" lon="11.197753"><ele>154.66666666666666</ele><time>2026-04-29T15:50:59.375Z</time></trkpt><trkpt lat="43.4500349" lon="11.1976446"><ele>154.5</ele><time>2026-04-29T15:51:00.374Z</time></trkpt><trkpt lat="43.4500762" lon="11.1975419"><ele>154.33333333333334</ele><time>2026-04-29T15:51:01.379Z</time></trkpt><trkpt lat="43.4501167" lon="11.1974448"><ele>154.16666666666669</ele><time>2026-04-29T15:51:02.373Z</time></trkpt><trkpt lat="43.4501529" lon="11.1973533"><ele>154.0</ele><time>2026-04-29T15:51:03.388Z</time></trkpt><trkpt lat="43.450184" lon="11.1972724"><ele>153.66666666666669</ele><time>2026-04-29T15:51:04.36Z</time></trkpt><trkpt lat="43.4502013" lon="11.1971793"><ele>153.33333333333334</ele><time>2026-04-29T15:51:05.364Z</time></trkpt><trkpt lat="43.4502008" lon="11.1970761"><ele>153.0</ele><time>2026-04-29T15:51:06.376Z</time></trkpt><trkpt lat="43.4501979" lon="11.1969704"><ele>152.66666666666666</ele><time>2026-04-29T15:51:07.44Z</time></trkpt><trkpt lat="43.4501905" lon="11.1968644"><ele>152.33333333333331</ele><time>2026-04-29T15:51:08.37Z</time></trkpt><trkpt lat="43.4501828" lon="11.1967458"><ele>152.0</ele><time>2026-04-29T15:51:09.379Z</time></trkpt><trkpt lat="43.4501862" lon="11.1966274"><ele>152.0</ele><time>2026-04-29T15:51:10.374Z</time></trkpt><trkpt lat="43.4502031" lon="11.1965089"><ele>152.0</ele><time>2026-04-29T15:51:11.461Z</time></trkpt><trkpt lat="43.4502327" lon="11.1964014"><ele>152.0</ele><time>2026-04-29T15:51:12.448Z</time></trkpt><trkpt lat="43.4502715" lon="11.1963046"><ele>152.0</ele><time>2026-04-29T15:51:13.388Z</time></trkpt><trkpt lat="43.4503164" lon="11.1962094"><ele>152.0</ele><time>2026-04-29T15:51:14.373Z</time></trkpt><trkpt lat="43.4503627" lon="11.1961161"><ele>152.0</ele><time>2026-04-29T15:51:15.375Z</time></trkpt><trkpt lat="43.4504077" lon="11.1960251"><ele>151.83333333333331</ele><time>2026-04-29T15:51:16.455Z</time></trkpt><trkpt lat="43.4504513" lon="11.1959354"><ele>151.66666666666666</ele><time>2026-04-29T15:51:17.456Z</time></trkpt><trkpt lat="43.4504927" lon="11.1958433"><ele>151.5</ele><time>2026-04-29T15:51:18.43Z</time></trkpt><trkpt lat="43.4505225" lon="11.1957398"><ele>151.33333333333334</ele><time>2026-04-29T15:51:19.391Z</time></trkpt><trkpt lat="43.4505391" lon="11.1956327"><ele>151.16666666666669</ele><time>2026-04-29T15:51:20.359Z</time></trkpt><trkpt lat="43.4505427" lon="11.1955164"><ele>151.0</ele><time>2026-04-29T15:51:21.373Z</time></trkpt><trkpt lat="43.4505402" lon="11.1953948"><ele>151.0</ele><time>2026-04-29T15:51:22.46Z</time></trkpt><trkpt lat="43.4505392" lon="11.1952738"><ele>151.0</ele><time>2026-04-29T15:51:23.371Z</time></trkpt><trkpt lat="43.4505461" lon="11.1951536"><ele>151.0</ele><time>2026-04-29T15:51:24.381Z</time></trkpt><trkpt lat="43.4505566" lon="11.1950361"><ele>151.0</ele><time>2026-04-29T15:51:25.372Z</time></trkpt><trkpt lat="43.4505636" lon="11.1949293"><ele>151.0</ele><time>2026-04-29T15:51:26.451Z</time></trkpt><trkpt lat="43.4505688" lon="11.1948178"><ele>151.0</ele><time>2026-04-29T15:51:27.378Z</time></trkpt><trkpt lat="43.450566" lon="11.1947016"><ele>150.5</ele><time>2026-04-29T15:51:28.363Z</time></trkpt><trkpt lat="43.450551" lon="11.1945964"><ele>150.0</ele><time>2026-04-29T15:51:29.369Z</time></trkpt><trkpt lat="43.4505352" lon="11.1944869"><ele>149.5</ele><time>2026-04-29T15:51:30.38Z</time></trkpt><trkpt lat="43.4505215" lon="11.1943803"><ele>149.0</ele><time>2026-04-29T15:51:31.38Z</time></trkpt><trkpt lat="43.4505085" lon="11.1942741"><ele>148.5</ele><time>2026-04-29T15:51:32.368Z</time></trkpt><trkpt lat="43.4504966" lon="11.1941706"><ele>148.0</ele><time>2026-04-29T15:51:33.354Z</time></trkpt><trkpt lat="43.4504916" lon="11.1940675"><ele>148.0</ele><time>2026-04-29T15:51:34.37Z</time></trkpt><trkpt lat="43.4504903" lon="11.1939738"><ele>148.0</ele><time>2026-04-29T15:51:35.36Z</time></trkpt><trkpt lat="43.4504866" lon="11.1938738"><ele>148.0</ele><time>2026-04-29T15:51:36.452Z</time></trkpt><trkpt lat="43.450486" lon="11.193783"><ele>148.0</ele><time>2026-04-29T15:51:37.369Z</time></trkpt><trkpt lat="43.4504841" lon="11.193684"><ele>148.0</ele><time>2026-04-29T15:51:38.471Z</time></trkpt><trkpt lat="43.4504646" lon="11.193518"><ele>148.0</ele><time>2026-04-29T15:51:40.366Z</time></trkpt><trkpt lat="43.4504898" lon="11.1933411"><ele>148.0</ele><time>2026-04-29T15:51:42.369Z</time></trkpt><trkpt lat="43.4505026" lon="11.1932286"><ele>148.0</ele><time>2026-04-29T15:51:43.367Z</time></trkpt><trkpt lat="43.4505144" lon="11.1931261"><ele>148.0</ele><time>2026-04-29T15:51:44.374Z</time></trkpt><trkpt lat="43.4505227" lon="11.1930292"><ele>148.0</ele><time>2026-04-29T15:51:45.386Z</time></trkpt><trkpt lat="43.4505329" lon="11.1929392"><ele>148.0</ele><time>2026-04-29T15:51:46.393Z</time></trkpt><trkpt lat="43.4505404" lon="11.192843"><ele>148.0</ele><time>2026-04-29T15:51:47.442Z</time></trkpt><trkpt lat="43.4505494" lon="11.1927398"><ele>148.0</ele><time>2026-04-29T15:51:48.364Z</time></trkpt><trkpt lat="43.4505619" lon="11.192625"><ele>148.0</ele><time>2026-04-29T15:51:49.375Z</time></trkpt><trkpt lat="43.4505689" lon="11.1925233"><ele>148.0</ele><time>2026-04-29T15:51:50.382Z</time></trkpt><trkpt lat="43.4505559" lon="11.1924348"><ele>148.0</ele><time>2026-04-29T15:51:51.451Z</time></trkpt><trkpt lat="43.4505364" lon="11.192348"><ele>148.0</ele><time>2026-04-29T15:51:52.454Z</time></trkpt><trkpt lat="43.4505261" lon="11.1922526"><ele>148.0</ele><time>2026-04-29T15:51:53.381Z</time></trkpt><trkpt lat="43.450514" lon="11.1921621"><ele>148.0</ele><time>2026-04-29T15:51:54.372Z</time></trkpt><trkpt lat="43.4504937" lon="11.1920785"><ele>148.0</ele><time>2026-04-29T15:51:55.392Z</time></trkpt><trkpt lat="43.4504731" lon="11.1919911"><ele>146.6</ele><time>2026-04-29T15:51:56.444Z</time></trkpt><trkpt lat="43.4504465" lon="11.1918364"><ele>145.20000000000002</ele><time>2026-04-29T15:51:58.378Z</time></trkpt><trkpt lat="43.4503928" lon="11.1916935"><ele>143.8</ele><time>2026-04-29T15:52:00.383Z</time></trkpt><trkpt lat="43.4503513" lon="11.1916152"><ele>142.4</ele><time>2026-04-29T15:52:01.376Z</time></trkpt><trkpt lat="43.4503182" lon="11.1915388"><ele>141.0</ele><time>2026-04-29T15:52:02.373Z</time></trkpt><trkpt lat="43.450267" lon="11.1913948"><ele>141.0</ele><time>2026-04-29T15:52:04.38Z</time></trkpt><trkpt lat="43.4502186" lon="11.1912431"><ele>141.0</ele><time>2026-04-29T15:52:06.369Z</time></trkpt><trkpt lat="43.4501748" lon="11.1910874"><ele>141.0</ele><time>2026-04-29T15:52:08.37Z</time></trkpt><trkpt lat="43.4501484" lon="11.1910084"><ele>141.0</ele><time>2026-04-29T15:52:09.378Z</time></trkpt><trkpt lat="43.4501247" lon="11.1909277"><ele>141.0</ele><time>2026-04-29T15:52:10.377Z</time></trkpt><trkpt lat="43.4500919" lon="11.1907688"><ele>141.2</ele><time>2026-04-29T15:52:12.369Z</time></trkpt><trkpt lat="43.450077" lon="11.1906139"><ele>141.39999999999998</ele><time>2026-04-29T15:52:14.379Z</time></trkpt><trkpt lat="43.4500638" lon="11.1904629"><ele>141.6</ele><time>2026-04-29T15:52:16.361Z</time></trkpt><trkpt lat="43.4500558" lon="11.1902996"><ele>141.79999999999998</ele><time>2026-04-29T15:52:18.387Z</time></trkpt><trkpt lat="43.4500779" lon="11.1901687"><ele>142.0</ele><time>2026-04-29T15:52:20.38Z</time></trkpt><trkpt lat="43.450118" lon="11.190051"><ele>142.0</ele><time>2026-04-29T15:52:22.431Z</time></trkpt><trkpt lat="43.4501551" lon="11.1899523"><ele>142.0</ele><time>2026-04-29T15:52:24.388Z</time></trkpt><trkpt lat="43.4502007" lon="11.1898829"><ele>142.0</ele><time>2026-04-29T15:52:27.372Z</time></trkpt><trkpt lat="43.4502263" lon="11.1897832"><ele>142.0</ele><time>2026-04-29T15:52:32.448Z</time></trkpt><trkpt lat="43.450244" lon="11.1896937"><ele>142.0</ele><time>2026-04-29T15:52:37.379Z</time></trkpt><trkpt lat="43.4502671" lon="11.1895957"><ele>142.0</ele><time>2026-04-29T15:52:43.385Z</time></trkpt><trkpt lat="43.4502777" lon="11.1895044"><ele>142.0</ele><time>2026-04-29T15:52:49.392Z</time></trkpt><trkpt lat="43.4502868" lon="11.1894177"><ele>142.14285714285714</ele><time>2026-04-29T15:52:54.362Z</time></trkpt><trkpt lat="43.4503241" lon="11.1893473"><ele>142.28571428571428</ele><time>2026-04-29T15:52:59.353Z</time></trkpt><trkpt lat="43.4503371" lon="11.1892603"><ele>142.42857142857142</ele><time>2026-04-29T15:53:03.449Z</time></trkpt><trkpt lat="43.4503437" lon="11.1891726"><ele>142.57142857142856</ele><time>2026-04-29T15:53:06.386Z</time></trkpt><trkpt lat="43.450404" lon="11.1891053"><ele>142.71428571428572</ele><time>2026-04-29T15:53:15.366Z</time></trkpt><trkpt lat="43.4504259" lon="11.1890048"><ele>142.85714285714283</ele><time>2026-04-29T15:53:20.361Z</time></trkpt><trkpt lat="43.4504611" lon="11.188925"><ele>143.0</ele><time>2026-04-29T15:53:24.357Z</time></trkpt><trkpt lat="43.4504915" lon="11.188827"><ele>145.33333333333331</ele><time>2026-04-29T15:53:29.375Z</time></trkpt><trkpt lat="43.4505036" lon="11.1887183"><ele>147.66666666666666</ele><time>2026-04-29T15:53:35.378Z</time></trkpt><trkpt lat="43.4505317" lon="11.1886253"><ele>150.0</ele><time>2026-04-29T15:53:39.352Z</time></trkpt><trkpt lat="43.450554" lon="11.1885227"><ele>152.33333333333334</ele><time>2026-04-29T15:53:44.363Z</time></trkpt><trkpt lat="43.4505892" lon="11.1884282"><ele>154.66666666666669</ele><time>2026-04-29T15:53:48.363Z</time></trkpt><trkpt lat="43.4506037" lon="11.1883162"><ele>157.0</ele><time>2026-04-29T15:53:51.37Z</time></trkpt><trkpt lat="43.4506267" lon="11.1882287"><ele>156.5</ele><time>2026-04-29T15:53:54.365Z</time></trkpt><trkpt lat="43.4506636" lon="11.1881374"><ele>156.0</ele><time>2026-04-29T15:53:57.375Z</time></trkpt><trkpt lat="43.4507085" lon="11.1880447"><ele>155.5</ele><time>2026-04-29T15:54:01.365Z</time></trkpt><trkpt lat="43.450762" lon="11.1879577"><ele>155.0</ele><time>2026-04-29T15:54:05.371Z</time></trkpt><trkpt lat="43.4507808" lon="11.1878709"><ele>154.5</ele><time>2026-04-29T15:54:08.369Z</time></trkpt><trkpt lat="43.4508026" lon="11.1877826"><ele>154.0</ele><time>2026-04-29T15:54:11.444Z</time></trkpt><trkpt lat="43.450844" lon="11.1876636"><ele>154.0</ele><time>2026-04-29T15:54:13.445Z</time></trkpt><trkpt lat="43.4508495" lon="11.1875535"><ele>154.0</ele><time>2026-04-29T15:54:16.449Z</time></trkpt><trkpt lat="43.450891" lon="11.1874705"><ele>154.0</ele><time>2026-04-29T15:54:18.444Z</time></trkpt><trkpt lat="43.4509431" lon="11.1874045"><ele>154.0</ele><time>2026-04-29T15:54:21.383Z</time></trkpt><trkpt lat="43.4508911" lon="11.1873055"><ele>154.0</ele><time>2026-04-29T15:54:24.396Z</time></trkpt><trkpt lat="43.4508786" lon="11.1872195"><ele>154.0</ele><time>2026-04-29T15:54:26.372Z</time></trkpt><trkpt lat="43.4508902" lon="11.1871206"><ele>154.0</ele><time>2026-04-29T15:54:28.378Z</time></trkpt><trkpt lat="43.4509074" lon="11.1870189"><ele>153.4</ele><time>2026-04-29T15:54:30.375Z</time></trkpt><trkpt lat="43.4509223" lon="11.1869013"><ele>152.8</ele><time>2026-04-29T15:54:32.436Z</time></trkpt><trkpt lat="43.4509108" lon="11.1867549"><ele>152.2</ele><time>2026-04-29T15:54:34.388Z</time></trkpt><trkpt lat="43.4509227" lon="11.1866273"><ele>151.6</ele><time>2026-04-29T15:54:36.377Z</time></trkpt><trkpt lat="43.4509106" lon="11.1864751"><ele>151.0</ele><time>2026-04-29T15:54:38.442Z</time></trkpt><trkpt lat="43.4508819" lon="11.1863076"><ele>150.85714285714286</ele><time>2026-04-29T15:54:40.37Z</time></trkpt><trkpt lat="43.4508642" lon="11.1862172"><ele>150.71428571428572</ele><time>2026-04-29T15:54:41.362Z</time></trkpt><trkpt lat="43.4508453" lon="11.1861217"><ele>150.57142857142856</ele><time>2026-04-29T15:54:42.459Z</time></trkpt><trkpt lat="43.4508371" lon="11.1860295"><ele>150.42857142857144</ele><time>2026-04-29T15:54:43.454Z</time></trkpt><trkpt lat="43.4508346" lon="11.1859237"><ele>150.28571428571428</ele><time>2026-04-29T15:54:44.375Z</time></trkpt><trkpt lat="43.4508336" lon="11.1858165"><ele>150.14285714285714</ele><time>2026-04-29T15:54:45.36Z</time></trkpt><trkpt lat="43.4508235" lon="11.1857101"><ele>150.0</ele><time>2026-04-29T15:54:46.376Z</time></trkpt><trkpt lat="43.4508029" lon="11.1856138"><ele>149.5</ele><time>2026-04-29T15:54:47.44Z</time></trkpt><trkpt lat="43.4507919" lon="11.1855153"><ele>149.0</ele><time>2026-04-29T15:54:48.351Z</time></trkpt><trkpt lat="43.4507808" lon="11.1854055"><ele>148.5</ele><time>2026-04-29T15:54:49.378Z</time></trkpt><trkpt lat="43.4507669" lon="11.1853101"><ele>148.0</ele><time>2026-04-29T15:54:50.377Z</time></trkpt><trkpt lat="43.4507529" lon="11.1852078"><ele>147.5</ele><time>2026-04-29T15:54:51.456Z</time></trkpt><trkpt lat="43.4507398" lon="11.1851069"><ele>147.0</ele><time>2026-04-29T15:54:52.447Z</time></trkpt><trkpt lat="43.450729" lon="11.1849984"><ele>147.0</ele><time>2026-04-29T15:54:53.45Z</time></trkpt><trkpt lat="43.4507288" lon="11.1848945"><ele>147.0</ele><time>2026-04-29T15:54:54.357Z</time></trkpt><trkpt lat="43.4507291" lon="11.1847831"><ele>147.0</ele><time>2026-04-29T15:54:55.36Z</time></trkpt><trkpt lat="43.4507317" lon="11.1846754"><ele>147.0</ele><time>2026-04-29T15:54:56.371Z</time></trkpt><trkpt lat="43.4507309" lon="11.1845664"><ele>147.0</ele><time>2026-04-29T15:54:57.366Z</time></trkpt><trkpt lat="43.4507377" lon="11.1844643"><ele>147.0</ele><time>2026-04-29T15:54:58.381Z</time></trkpt><trkpt lat="43.4507458" lon="11.1843653"><ele>146.57142857142858</ele><time>2026-04-29T15:54:59.369Z</time></trkpt><trkpt lat="43.4507529" lon="11.1842676"><ele>146.14285714285714</ele><time>2026-04-29T15:55:00.378Z</time></trkpt><trkpt lat="43.4507565" lon="11.1841717"><ele>145.71428571428572</ele><time>2026-04-29T15:55:01.375Z</time></trkpt><trkpt lat="43.4507556" lon="11.1840721"><ele>145.28571428571428</ele><time>2026-04-29T15:55:02.375Z</time></trkpt><trkpt lat="43.4507492" lon="11.1839752"><ele>144.85714285714286</ele><time>2026-04-29T15:55:03.372Z</time></trkpt><trkpt lat="43.4507428" lon="11.1838827"><ele>144.42857142857144</ele><time>2026-04-29T15:55:04.385Z</time></trkpt><trkpt lat="43.4507354" lon="11.1837873"><ele>144.0</ele><time>2026-04-29T15:55:05.379Z</time></trkpt><trkpt lat="43.4507317" lon="11.1836937"><ele>143.85714285714286</ele><time>2026-04-29T15:55:06.38Z</time></trkpt><trkpt lat="43.4507241" lon="11.1836023"><ele>143.71428571428572</ele><time>2026-04-29T15:55:07.381Z</time></trkpt><trkpt lat="43.4507108" lon="11.1835096"><ele>143.57142857142856</ele><time>2026-04-29T15:55:08.357Z</time></trkpt><trkpt lat="43.4506931" lon="11.1834151"><ele>143.42857142857144</ele><time>2026-04-29T15:55:09.389Z</time></trkpt><trkpt lat="43.4506726" lon="11.1833234"><ele>143.28571428571428</ele><time>2026-04-29T15:55:10.379Z</time></trkpt><trkpt lat="43.4506547" lon="11.183232"><ele>143.14285714285714</ele><time>2026-04-29T15:55:11.37Z</time></trkpt><trkpt lat="43.4506392" lon="11.1831387"><ele>143.0</ele><time>2026-04-29T15:55:12.459Z</time></trkpt><trkpt lat="43.4506257" lon="11.1830507"><ele>142.66666666666666</ele><time>2026-04-29T15:55:13.366Z</time></trkpt><trkpt lat="43.4506127" lon="11.1829585"><ele>142.33333333333331</ele><time>2026-04-29T15:55:14.381Z</time></trkpt><trkpt lat="43.4506004" lon="11.1828675"><ele>142.0</ele><time>2026-04-29T15:55:15.39Z</time></trkpt><trkpt lat="43.4505903" lon="11.1827771"><ele>141.66666666666666</ele><time>2026-04-29T15:55:16.359Z</time></trkpt><trkpt lat="43.4505787" lon="11.1826817"><ele>141.33333333333334</ele><time>2026-04-29T15:55:17.443Z</time></trkpt><trkpt lat="43.4505569" lon="11.1825872"><ele>141.0</ele><time>2026-04-29T15:55:18.448Z</time></trkpt><trkpt lat="43.4505403" lon="11.182423"><ele>140.71428571428572</ele><time>2026-04-29T15:55:20.376Z</time></trkpt><trkpt lat="43.4505393" lon="11.1823306"><ele>140.42857142857142</ele><time>2026-04-29T15:55:21.378Z</time></trkpt><trkpt lat="43.450535" lon="11.1822363"><ele>140.14285714285714</ele><time>2026-04-29T15:55:22.359Z</time></trkpt><trkpt lat="43.4505396" lon="11.1821437"><ele>139.85714285714286</ele><time>2026-04-29T15:55:23.444Z</time></trkpt><trkpt lat="43.4505426" lon="11.1820566"><ele>139.57142857142858</ele><time>2026-04-29T15:55:24.366Z</time></trkpt><trkpt lat="43.4505429" lon="11.1819659"><ele>139.28571428571428</ele><time>2026-04-29T15:55:25.385Z</time></trkpt><trkpt lat="43.45054" lon="11.1818741"><ele>139.0</ele><time>2026-04-29T15:55:26.378Z</time></trkpt><trkpt lat="43.4505438" lon="11.1817847"><ele>139.0</ele><time>2026-04-29T15:55:27.45Z</time></trkpt><trkpt lat="43.4505487" lon="11.1816184"><ele>139.0</ele><time>2026-04-29T15:55:29.374Z</time></trkpt><trkpt lat="43.450556" lon="11.1814453"><ele>139.0</ele><time>2026-04-29T15:55:31.382Z</time></trkpt><trkpt lat="43.4505643" lon="11.1812741"><ele>139.0</ele><time>2026-04-29T15:55:33.366Z</time></trkpt><trkpt lat="43.4505685" lon="11.1811082"><ele>139.0</ele><time>2026-04-29T15:55:35.392Z</time></trkpt><trkpt lat="43.4505726" lon="11.1809455"><ele>139.0</ele><time>2026-04-29T15:55:37.446Z</time></trkpt><trkpt lat="43.4505724" lon="11.1807796"><ele>139.0</ele><time>2026-04-29T15:55:39.377Z</time></trkpt><trkpt lat="43.4505685" lon="11.1806869"><ele>139.0</ele><time>2026-04-29T15:55:40.38Z</time></trkpt><trkpt lat="43.4505677" lon="11.1805338"><ele>139.0</ele><time>2026-04-29T15:55:42.455Z</time></trkpt><trkpt lat="43.4505864" lon="11.1803649"><ele>138.6</ele><time>2026-04-29T15:55:44.357Z</time></trkpt><trkpt lat="43.4505955" lon="11.1802079"><ele>138.2</ele><time>2026-04-29T15:55:46.356Z</time></trkpt><trkpt lat="43.4505995" lon="11.1800373"><ele>137.79999999999998</ele><time>2026-04-29T15:55:48.449Z</time></trkpt><trkpt lat="43.4505931" lon="11.1798632"><ele>137.4</ele><time>2026-04-29T15:55:50.378Z</time></trkpt><trkpt lat="43.4505981" lon="11.1797711"><ele>137.0</ele><time>2026-04-29T15:55:51.456Z</time></trkpt><trkpt lat="43.450611" lon="11.1796799"><ele>136.16666666666666</ele><time>2026-04-29T15:55:52.42Z</time></trkpt><trkpt lat="43.4506285" lon="11.179584"><ele>135.33333333333331</ele><time>2026-04-29T15:55:53.394Z</time></trkpt><trkpt lat="43.450649" lon="11.1794744"><ele>134.5</ele><time>2026-04-29T15:55:54.356Z</time></trkpt><trkpt lat="43.450675" lon="11.179355"><ele>133.66666666666666</ele><time>2026-04-29T15:55:55.387Z</time></trkpt><trkpt lat="43.4507051" lon="11.1792347"><ele>132.83333333333334</ele><time>2026-04-29T15:55:56.364Z</time></trkpt><trkpt lat="43.4507456" lon="11.1791081"><ele>132.0</ele><time>2026-04-29T15:55:57.373Z</time></trkpt><trkpt lat="43.4507943" lon="11.1789725"><ele>130.79999999999998</ele><time>2026-04-29T15:55:58.448Z</time></trkpt><trkpt lat="43.4508338" lon="11.1788457"><ele>129.6</ele><time>2026-04-29T15:55:59.363Z</time></trkpt><trkpt lat="43.4508745" lon="11.1787096"><ele>128.39999999999998</ele><time>2026-04-29T15:56:00.365Z</time></trkpt><trkpt lat="43.4509312" lon="11.1785883"><ele>127.19999999999999</ele><time>2026-04-29T15:56:01.353Z</time></trkpt><trkpt lat="43.451016" lon="11.1784808"><ele>126.0</ele><time>2026-04-29T15:56:02.37Z</time></trkpt><trkpt lat="43.4511078" lon="11.1783927"><ele>126.0</ele><time>2026-04-29T15:56:03.375Z</time></trkpt><trkpt lat="43.4512022" lon="11.1783277"><ele>126.0</ele><time>2026-04-29T15:56:04.375Z</time></trkpt><trkpt lat="43.4512963" lon="11.178256"><ele>126.0</ele><time>2026-04-29T15:56:05.361Z</time></trkpt><trkpt lat="43.4513849" lon="11.1781877"><ele>126.0</ele><time>2026-04-29T15:56:06.375Z</time></trkpt><trkpt lat="43.4514833" lon="11.1781563"><ele>126.0</ele><time>2026-04-29T15:56:07.376Z</time></trkpt><trkpt lat="43.451579" lon="11.1781614"><ele>126.19999999999999</ele><time>2026-04-29T15:56:08.391Z</time></trkpt><trkpt lat="43.4516731" lon="11.1781744"><ele>126.39999999999999</ele><time>2026-04-29T15:56:09.388Z</time></trkpt><trkpt lat="43.451769" lon="11.178213"><ele>126.6</ele><time>2026-04-29T15:56:10.373Z</time></trkpt><trkpt lat="43.4518566" lon="11.1782747"><ele>126.8</ele><time>2026-04-29T15:56:11.37Z</time></trkpt><trkpt lat="43.4519382" lon="11.1783539"><ele>127.0</ele><time>2026-04-29T15:56:12.386Z</time></trkpt><trkpt lat="43.4520072" lon="11.1784342"><ele>127.00000000000001</ele><time>2026-04-29T15:56:13.377Z</time></trkpt><trkpt lat="43.4520761" lon="11.1785189"><ele>127.0</ele><time>2026-04-29T15:56:14.379Z</time></trkpt><trkpt lat="43.4521419" lon="11.1785998"><ele>127.0</ele><time>2026-04-29T15:56:15.373Z</time></trkpt><trkpt lat="43.4522134" lon="11.1786666"><ele>127.0</ele><time>2026-04-29T15:56:16.366Z</time></trkpt><trkpt lat="43.4522912" lon="11.1787108"><ele>127.00000000000001</ele><time>2026-04-29T15:56:17.459Z</time></trkpt><trkpt lat="43.4523681" lon="11.1787191"><ele>127.0</ele><time>2026-04-29T15:56:18.448Z</time></trkpt><trkpt lat="43.4524448" lon="11.1787174"><ele>127.00000000000001</ele><time>2026-04-29T15:56:19.376Z</time></trkpt><trkpt lat="43.4525239" lon="11.1786952"><ele>127.0</ele><time>2026-04-29T15:56:20.383Z</time></trkpt><trkpt lat="43.4526038" lon="11.1786488"><ele>127.0</ele><time>2026-04-29T15:56:21.38Z</time></trkpt><trkpt lat="43.4526827" lon="11.1785883"><ele>127.0</ele><time>2026-04-29T15:56:22.456Z</time></trkpt><trkpt lat="43.4527487" lon="11.1785231"><ele>127.00000000000001</ele><time>2026-04-29T15:56:23.448Z</time></trkpt><trkpt lat="43.4528087" lon="11.1784539"><ele>127.0</ele><time>2026-04-29T15:56:24.372Z</time></trkpt><trkpt lat="43.4528654" lon="11.1783837"><ele>127.00000000000001</ele><time>2026-04-29T15:56:25.37Z</time></trkpt><trkpt lat="43.4529203" lon="11.178315"><ele>127.0</ele><time>2026-04-29T15:56:26.373Z</time></trkpt><trkpt lat="43.4529724" lon="11.1782526"><ele>127.0</ele><time>2026-04-29T15:56:27.45Z</time></trkpt><trkpt lat="43.4530597" lon="11.1781628"><ele>127.0</ele><time>2026-04-29T15:56:29.389Z</time></trkpt><trkpt lat="43.4531216" lon="11.1780914"><ele>127.00000000000001</ele><time>2026-04-29T15:56:31.374Z</time></trkpt><trkpt lat="43.453169" lon="11.1780083"><ele>127.0</ele><time>2026-04-29T15:56:34.377Z</time></trkpt><trkpt lat="43.4531794" lon="11.1779068"><ele>127.83333333333334</ele><time>2026-04-29T15:56:39.386Z</time></trkpt><trkpt lat="43.4532382" lon="11.1778594"><ele>128.66666666666669</ele><time>2026-04-29T15:56:43.394Z</time></trkpt><trkpt lat="43.4532796" lon="11.1777773"><ele>129.5</ele><time>2026-04-29T15:56:48.379Z</time></trkpt><trkpt lat="43.4533464" lon="11.1777272"><ele>130.33333333333334</ele><time>2026-04-29T15:56:52.467Z</time></trkpt><trkpt lat="43.4534185" lon="11.1776765"><ele>131.16666666666666</ele><time>2026-04-29T15:56:56.434Z</time></trkpt><trkpt lat="43.4534802" lon="11.1776134"><ele>132.0</ele><time>2026-04-29T15:56:59.363Z</time></trkpt><trkpt lat="43.453556" lon="11.1775841"><ele>132.0</ele><time>2026-04-29T15:57:02.45Z</time></trkpt><trkpt lat="43.4536299" lon="11.1775487"><ele>132.0</ele><time>2026-04-29T15:57:05.377Z</time></trkpt><trkpt lat="43.4537042" lon="11.1775014"><ele>132.0</ele><time>2026-04-29T15:57:10.368Z</time></trkpt><trkpt lat="43.453766" lon="11.1774747"><ele>132.0</ele><time>2026-04-29T15:57:14.38Z</time></trkpt><trkpt lat="43.4538202" lon="11.1774255"><ele>132.0</ele><time>2026-04-29T15:57:19.365Z</time></trkpt><trkpt lat="43.4538778" lon="11.1773904"><ele>132.0</ele><time>2026-04-29T15:57:23.373Z</time></trkpt><trkpt lat="43.4539322" lon="11.1773438"><ele>132.0</ele><time>2026-04-29T15:57:27.444Z</time></trkpt><trkpt lat="43.454002" lon="11.1773197"><ele>133.28571428571428</ele><time>2026-04-29T15:57:31.385Z</time></trkpt><trkpt lat="43.4540677" lon="11.1773246"><ele>134.57142857142858</ele><time>2026-04-29T15:57:34.377Z</time></trkpt><trkpt lat="43.4541295" lon="11.1772965"><ele>135.85714285714286</ele><time>2026-04-29T15:57:38.445Z</time></trkpt><trkpt lat="43.4541873" lon="11.177209"><ele>137.14285714285714</ele><time>2026-04-29T15:57:40.387Z</time></trkpt><trkpt lat="43.4542336" lon="11.1771477"><ele>138.42857142857142</ele><time>2026-04-29T15:57:47.445Z</time></trkpt><trkpt lat="43.4542987" lon="11.1771388"><ele>139.71428571428572</ele><time>2026-04-29T15:57:51.37Z</time></trkpt><trkpt lat="43.4543622" lon="11.1771027"><ele>141.0</ele><time>2026-04-29T15:57:57.379Z</time></trkpt><trkpt lat="43.4544301" lon="11.1770511"><ele>141.0</ele><time>2026-04-29T15:58:03.441Z</time></trkpt><trkpt lat="43.454501" lon="11.1770254"><ele>141.0</ele><time>2026-04-29T15:58:07.449Z</time></trkpt><trkpt lat="43.4545603" lon="11.1769858"><ele>141.0</ele><time>2026-04-29T15:58:13.444Z</time></trkpt><trkpt lat="43.4546249" lon="11.1769717"><ele>141.0</ele><time>2026-04-29T15:58:18.456Z</time></trkpt><trkpt lat="43.4546918" lon="11.1769603"><ele>141.0</ele><time>2026-04-29T15:58:23.449Z</time></trkpt><trkpt lat="43.454754" lon="11.176923"><ele>141.0</ele><time>2026-04-29T15:58:26.383Z</time></trkpt><trkpt lat="43.4547893" lon="11.1768488"><ele>141.0</ele><time>2026-04-29T15:58:29.38Z</time></trkpt><trkpt lat="43.4548224" lon="11.1767436"><ele>140.83333333333334</ele><time>2026-04-29T15:58:32.381Z</time></trkpt><trkpt lat="43.4548341" lon="11.1766534"><ele>140.66666666666666</ele><time>2026-04-29T15:58:35.379Z</time></trkpt><trkpt lat="43.4548402" lon="11.1765499"><ele>140.5</ele><time>2026-04-29T15:58:38.444Z</time></trkpt><trkpt lat="43.4548397" lon="11.1764569"><ele>140.33333333333331</ele><time>2026-04-29T15:58:41.373Z</time></trkpt><trkpt lat="43.454834" lon="11.1763308"><ele>140.16666666666666</ele><time>2026-04-29T15:58:43.445Z</time></trkpt><trkpt lat="43.4548302" lon="11.1761889"><ele>140.0</ele><time>2026-04-29T15:58:45.395Z</time></trkpt><trkpt lat="43.4548149" lon="11.1760315"><ele>140.0</ele><time>2026-04-29T15:58:47.443Z</time></trkpt><trkpt lat="43.4547983" lon="11.1758787"><ele>140.0</ele><time>2026-04-29T15:58:49.37Z</time></trkpt><trkpt lat="43.454789" lon="11.1757885"><ele>140.0</ele><time>2026-04-29T15:58:50.375Z</time></trkpt><trkpt lat="43.4547771" lon="11.1756056"><ele>140.0</ele><time>2026-04-29T15:58:52.455Z</time></trkpt><trkpt lat="43.4547906" lon="11.175494"><ele>140.0</ele><time>2026-04-29T15:58:53.448Z</time></trkpt><trkpt lat="43.4548043" lon="11.1753635"><ele>138.4</ele><time>2026-04-29T15:58:54.363Z</time></trkpt><trkpt lat="43.4547997" lon="11.1752186"><ele>136.8</ele><time>2026-04-29T15:58:55.38Z</time></trkpt><trkpt lat="43.4547926" lon="11.1750802"><ele>135.2</ele><time>2026-04-29T15:58:56.376Z</time></trkpt><trkpt lat="43.4547904" lon="11.174941"><ele>133.6</ele><time>2026-04-29T15:58:57.445Z</time></trkpt><trkpt lat="43.4547947" lon="11.1747977"><ele>132.0</ele><time>2026-04-29T15:58:58.447Z</time></trkpt><trkpt lat="43.4548048" lon="11.1746456"><ele>131.2</ele><time>2026-04-29T15:58:59.375Z</time></trkpt><trkpt lat="43.4548169" lon="11.1744976"><ele>130.39999999999998</ele><time>2026-04-29T15:59:00.379Z</time></trkpt><trkpt lat="43.4548236" lon="11.1743568"><ele>129.60000000000002</ele><time>2026-04-29T15:59:01.39Z</time></trkpt><trkpt lat="43.4548287" lon="11.1742199"><ele>128.8</ele><time>2026-04-29T15:59:02.37Z</time></trkpt><trkpt lat="43.4548324" lon="11.1740761"><ele>128.0</ele><time>2026-04-29T15:59:03.375Z</time></trkpt><trkpt lat="43.454838" lon="11.1739293"><ele>127.60000000000001</ele><time>2026-04-29T15:59:04.371Z</time></trkpt><trkpt lat="43.4548431" lon="11.1737845"><ele>127.20000000000002</ele><time>2026-04-29T15:59:05.376Z</time></trkpt><trkpt lat="43.4548453" lon="11.1736486"><ele>126.8</ele><time>2026-04-29T15:59:06.378Z</time></trkpt><trkpt lat="43.4548551" lon="11.1735202"><ele>126.4</ele><time>2026-04-29T15:59:07.378Z</time></trkpt><trkpt lat="43.4548704" lon="11.173393"><ele>126.0</ele><time>2026-04-29T15:59:08.371Z</time></trkpt><trkpt lat="43.4548885" lon="11.1732606"><ele>125.4</ele><time>2026-04-29T15:59:09.383Z</time></trkpt><trkpt lat="43.4549078" lon="11.1731225"><ele>124.8</ele><time>2026-04-29T15:59:10.374Z</time></trkpt><trkpt lat="43.4549331" lon="11.1729828"><ele>124.20000000000002</ele><time>2026-04-29T15:59:11.376Z</time></trkpt><trkpt lat="43.4549675" lon="11.1728495"><ele>123.60000000000001</ele><time>2026-04-29T15:59:12.362Z</time></trkpt><trkpt lat="43.4550098" lon="11.1727136"><ele>123.0</ele><time>2026-04-29T15:59:13.439Z</time></trkpt><trkpt lat="43.4550662" lon="11.1725931"><ele>123.0</ele><time>2026-04-29T15:59:14.358Z</time></trkpt><trkpt lat="43.4551182" lon="11.172465"><ele>123.00000000000001</ele><time>2026-04-29T15:59:15.379Z</time></trkpt><trkpt lat="43.4551467" lon="11.1723299"><ele>123.00000000000001</ele><time>2026-04-29T15:59:16.433Z</time></trkpt><trkpt lat="43.4551683" lon="11.1721934"><ele>123.0</ele><time>2026-04-29T15:59:17.356Z</time></trkpt><trkpt lat="43.4551888" lon="11.1720587"><ele>123.0</ele><time>2026-04-29T15:59:18.434Z</time></trkpt><trkpt lat="43.4551999" lon="11.1719274"><ele>122.2</ele><time>2026-04-29T15:59:19.374Z</time></trkpt><trkpt lat="43.4552113" lon="11.1717903"><ele>121.4</ele><time>2026-04-29T15:59:20.372Z</time></trkpt><trkpt lat="43.4552177" lon="11.1716532"><ele>120.60000000000001</ele><time>2026-04-29T15:59:21.375Z</time></trkpt><trkpt lat="43.4552307" lon="11.1715107"><ele>119.80000000000001</ele><time>2026-04-29T15:59:22.452Z</time></trkpt><trkpt lat="43.455245" lon="11.171365"><ele>119.0</ele><time>2026-04-29T15:59:23.377Z</time></trkpt><trkpt lat="43.4552541" lon="11.171212"><ele>118.25</ele><time>2026-04-29T15:59:24.386Z</time></trkpt><trkpt lat="43.4552638" lon="11.1710663"><ele>117.5</ele><time>2026-04-29T15:59:25.386Z</time></trkpt><trkpt lat="43.4552807" lon="11.1709228"><ele>116.75</ele><time>2026-04-29T15:59:26.445Z</time></trkpt><trkpt lat="43.4553168" lon="11.1707669"><ele>116.0</ele><time>2026-04-29T15:59:27.468Z</time></trkpt><trkpt lat="43.4553698" lon="11.1706074"><ele>116.0</ele><time>2026-04-29T15:59:28.466Z</time></trkpt><trkpt lat="43.4554452" lon="11.1705019"><ele>116.0</ele><time>2026-04-29T15:59:29.386Z</time></trkpt><trkpt lat="43.4555504" lon="11.1704214"><ele>116.0</ele><time>2026-04-29T15:59:30.38Z</time></trkpt><trkpt lat="43.4556458" lon="11.170345"><ele>116.0</ele><time>2026-04-29T15:59:31.379Z</time></trkpt><trkpt lat="43.4557384" lon="11.1702666"><ele>116.0</ele><time>2026-04-29T15:59:32.375Z</time></trkpt><trkpt lat="43.455823" lon="11.170185"><ele>116.0</ele><time>2026-04-29T15:59:33.453Z</time></trkpt><trkpt lat="43.4559093" lon="11.1701107"><ele>116.0</ele><time>2026-04-29T15:59:34.37Z</time></trkpt><trkpt lat="43.455999" lon="11.1700343"><ele>116.0</ele><time>2026-04-29T15:59:35.377Z</time></trkpt><trkpt lat="43.4560655" lon="11.1699569"><ele>116.0</ele><time>2026-04-29T15:59:36.357Z</time></trkpt><trkpt lat="43.4561603" lon="11.169864"><ele>116.0</ele><time>2026-04-29T15:59:38.375Z</time></trkpt><trkpt lat="43.4562205" lon="11.1697682"><ele>115.99999999999999</ele><time>2026-04-29T15:59:40.371Z</time></trkpt><trkpt lat="43.4562706" lon="11.1696741"><ele>116.0</ele><time>2026-04-29T15:59:42.387Z</time></trkpt><trkpt lat="43.4563153" lon="11.1695695"><ele>116.0</ele><time>2026-04-29T15:59:44.37Z</time></trkpt><trkpt lat="43.45637" lon="11.1694785"><ele>116.0</ele><time>2026-04-29T15:59:46.386Z</time></trkpt><trkpt lat="43.4564208" lon="11.1693785"><ele>115.99999999999999</ele><time>2026-04-29T15:59:48.376Z</time></trkpt><trkpt lat="43.4564659" lon="11.1692689"><ele>116.0</ele><time>2026-04-29T15:59:50.369Z</time></trkpt><trkpt lat="43.4565198" lon="11.1691674"><ele>116.49999999999999</ele><time>2026-04-29T15:59:52.448Z</time></trkpt><trkpt lat="43.4565593" lon="11.1690947"><ele>117.0</ele><time>2026-04-29T15:59:53.444Z</time></trkpt><trkpt lat="43.4565988" lon="11.1689669"><ele>117.5</ele><time>2026-04-29T15:59:55.378Z</time></trkpt><trkpt lat="43.4565598" lon="11.1690695"><ele>118.0</ele><time>2026-04-29T16:00:11.378Z</time></trkpt><trkpt lat="43.4565776" lon="11.168969"><ele>118.49999999999999</ele><time>2026-04-29T16:00:14.376Z</time></trkpt><trkpt lat="43.4565961" lon="11.1688842"><ele>119.0</ele><time>2026-04-29T16:00:18.4Z</time></trkpt><trkpt lat="43.456636" lon="11.1687854"><ele>118.99999999999999</ele><time>2026-04-29T16:00:23.389Z</time></trkpt><trkpt lat="43.4566751" lon="11.1687117"><ele>119.0</ele><time>2026-04-29T16:00:26.383Z</time></trkpt><trkpt lat="43.456722" lon="11.1686199"><ele>119.0</ele><time>2026-04-29T16:00:30.396Z</time></trkpt><trkpt lat="43.4567625" lon="11.168534"><ele>119.0</ele><time>2026-04-29T16:00:33.449Z</time></trkpt><trkpt lat="43.4568041" lon="11.1684552"><ele>118.99999999999999</ele><time>2026-04-29T16:00:36.392Z</time></trkpt><trkpt lat="43.4568839" lon="11.1683514"><ele>119.0</ele><time>2026-04-29T16:00:40.403Z</time></trkpt><trkpt lat="43.4568953" lon="11.168264"><ele>118.99999999999999</ele><time>2026-04-29T16:00:44.385Z</time></trkpt><trkpt lat="43.4569664" lon="11.1682747"><ele>119.0</ele><time>2026-04-29T16:01:34.381Z</time></trkpt><trkpt lat="43.4570138" lon="11.1682098"><ele>119.0</ele><time>2026-04-29T16:01:36.461Z</time></trkpt><trkpt lat="43.4570995" lon="11.1681599"><ele>119.0</ele><time>2026-04-29T16:01:38.455Z</time></trkpt><trkpt lat="43.4571604" lon="11.168098"><ele>118.99999999999999</ele><time>2026-04-29T16:01:40.388Z</time></trkpt><trkpt lat="43.4571989" lon="11.1679822"><ele>119.0</ele><time>2026-04-29T16:01:42.378Z</time></trkpt><trkpt lat="43.4572466" lon="11.1678879"><ele>118.83333333333333</ele><time>2026-04-29T16:01:44.364Z</time></trkpt><trkpt lat="43.4573002" lon="11.1677899"><ele>118.66666666666666</ele><time>2026-04-29T16:01:46.395Z</time></trkpt><trkpt lat="43.4573374" lon="11.1677103"><ele>118.5</ele><time>2026-04-29T16:01:48.453Z</time></trkpt><trkpt lat="43.4573911" lon="11.1675858"><ele>118.33333333333334</ele><time>2026-04-29T16:01:50.38Z</time></trkpt><trkpt lat="43.4574271" lon="11.1674901"><ele>118.16666666666667</ele><time>2026-04-29T16:01:52.454Z</time></trkpt><trkpt lat="43.4574924" lon="11.1674229"><ele>118.0</ele><time>2026-04-29T16:01:54.387Z</time></trkpt><trkpt lat="43.4575337" lon="11.1673306"><ele>118.00000000000001</ele><time>2026-04-29T16:01:56.452Z</time></trkpt><trkpt lat="43.4575736" lon="11.1672435"><ele>118.0</ele><time>2026-04-29T16:01:58.455Z</time></trkpt><trkpt lat="43.4576123" lon="11.1671574"><ele>118.0</ele><time>2026-04-29T16:02:00.381Z</time></trkpt><trkpt lat="43.4576597" lon="11.167065"><ele>118.0</ele><time>2026-04-29T16:02:02.388Z</time></trkpt><trkpt lat="43.4577123" lon="11.1669671"><ele>118.00000000000001</ele><time>2026-04-29T16:02:04.378Z</time></trkpt><trkpt lat="43.4577591" lon="11.1668686"><ele>118.0</ele><time>2026-04-29T16:02:06.373Z</time></trkpt><trkpt lat="43.457807" lon="11.1667779"><ele>118.00000000000001</ele><time>2026-04-29T16:02:08.387Z</time></trkpt><trkpt lat="43.4578478" lon="11.1666923"><ele>118.0</ele><time>2026-04-29T16:02:10.374Z</time></trkpt><trkpt lat="43.4578944" lon="11.1666098"><ele>118.0</ele><time>2026-04-29T16:02:12.468Z</time></trkpt><trkpt lat="43.4579336" lon="11.1665196"><ele>118.0</ele><time>2026-04-29T16:02:14.383Z</time></trkpt><trkpt lat="43.4579767" lon="11.1664041"><ele>118.00000000000001</ele><time>2026-04-29T16:02:16.457Z</time></trkpt><trkpt lat="43.4580348" lon="11.1663109"><ele>118.0</ele><time>2026-04-29T16:02:18.377Z</time></trkpt><trkpt lat="43.4580922" lon="11.1661636"><ele>118.00000000000001</ele><time>2026-04-29T16:02:20.383Z</time></trkpt><trkpt lat="43.4581197" lon="11.1660792"><ele>118.0</ele><time>2026-04-29T16:02:21.369Z</time></trkpt><trkpt lat="43.4581371" lon="11.1659894"><ele>118.0</ele><time>2026-04-29T16:02:22.378Z</time></trkpt><trkpt lat="43.4581681" lon="11.165893"><ele>118.0</ele><time>2026-04-29T16:02:23.474Z</time></trkpt><trkpt lat="43.4582551" lon="11.1657185"><ele>118.00000000000001</ele><time>2026-04-29T16:02:25.379Z</time></trkpt><trkpt lat="43.4582854" lon="11.1656304"><ele>118.0</ele><time>2026-04-29T16:02:26.398Z</time></trkpt><trkpt lat="43.4582982" lon="11.1655313"><ele>117.28571428571428</ele><time>2026-04-29T16:02:27.447Z</time></trkpt><trkpt lat="43.4583299" lon="11.1654524"><ele>116.57142857142858</ele><time>2026-04-29T16:02:28.384Z</time></trkpt><trkpt lat="43.4583677" lon="11.1653688"><ele>115.85714285714286</ele><time>2026-04-29T16:02:29.386Z</time></trkpt><trkpt lat="43.4583889" lon="11.1652856"><ele>115.14285714285714</ele><time>2026-04-29T16:02:30.386Z</time></trkpt><trkpt lat="43.4583997" lon="11.1651825"><ele>114.42857142857142</ele><time>2026-04-29T16:02:31.393Z</time></trkpt><trkpt lat="43.4584176" lon="11.1650629"><ele>113.71428571428572</ele><time>2026-04-29T16:02:32.456Z</time></trkpt><trkpt lat="43.4584504" lon="11.1649684"><ele>113.0</ele><time>2026-04-29T16:02:33.452Z</time></trkpt><trkpt lat="43.4586232" lon="11.1642046"><ele>112.33333333333333</ele><time>2026-04-29T16:02:38.392Z</time></trkpt><trkpt lat="43.4586329" lon="11.1640748"><ele>111.66666666666666</ele><time>2026-04-29T16:02:39.386Z</time></trkpt><trkpt lat="43.4586849" lon="11.1640012"><ele>111.0</ele><time>2026-04-29T16:02:40.398Z</time></trkpt><trkpt lat="43.458743" lon="11.1639143"><ele>110.33333333333334</ele><time>2026-04-29T16:02:41.39Z</time></trkpt><trkpt lat="43.4587792" lon="11.1638065"><ele>109.66666666666667</ele><time>2026-04-29T16:02:42.381Z</time></trkpt><trkpt lat="43.4588082" lon="11.1637041"><ele>109.0</ele><time>2026-04-29T16:02:43.384Z</time></trkpt><trkpt lat="43.4588304" lon="11.163618"><ele>109.0</ele><time>2026-04-29T16:02:44.387Z</time></trkpt><trkpt lat="43.4588734" lon="11.1634703"><ele>109.0</ele><time>2026-04-29T16:02:46.382Z</time></trkpt><trkpt lat="43.4589113" lon="11.1633386"><ele>109.0</ele><time>2026-04-29T16:02:48.456Z</time></trkpt><trkpt lat="43.4589604" lon="11.1632337"><ele>109.0</ele><time>2026-04-29T16:02:50.383Z</time></trkpt><trkpt lat="43.4590009" lon="11.1630979"><ele>109.0</ele><time>2026-04-29T16:02:52.448Z</time></trkpt><trkpt lat="43.4590366" lon="11.1629828"><ele>108.80000000000001</ele><time>2026-04-29T16:02:54.383Z</time></trkpt><trkpt lat="43.4590739" lon="11.1628794"><ele>108.60000000000001</ele><time>2026-04-29T16:02:56.383Z</time></trkpt><trkpt lat="43.459112" lon="11.1627834"><ele>108.4</ele><time>2026-04-29T16:02:58.445Z</time></trkpt><trkpt lat="43.4591537" lon="11.162698"><ele>108.2</ele><time>2026-04-29T16:03:00.378Z</time></trkpt><trkpt lat="43.4592006" lon="11.1625637"><ele>108.0</ele><time>2026-04-29T16:03:02.427Z</time></trkpt><trkpt lat="43.4592452" lon="11.1624184"><ele>107.42857142857143</ele><time>2026-04-29T16:03:04.373Z</time></trkpt><trkpt lat="43.4592707" lon="11.162339"><ele>106.85714285714286</ele><time>2026-04-29T16:03:05.395Z</time></trkpt><trkpt lat="43.4592913" lon="11.1622499"><ele>106.28571428571428</ele><time>2026-04-29T16:03:06.449Z</time></trkpt><trkpt lat="43.4593143" lon="11.1621656"><ele>105.71428571428572</ele><time>2026-04-29T16:03:07.454Z</time></trkpt><trkpt lat="43.4593514" lon="11.1620114"><ele>105.14285714285715</ele><time>2026-04-29T16:03:09.386Z</time></trkpt><trkpt lat="43.4593631" lon="11.1619239"><ele>104.57142857142857</ele><time>2026-04-29T16:03:10.386Z</time></trkpt><trkpt lat="43.4593774" lon="11.1618323"><ele>104.0</ele><time>2026-04-29T16:03:11.451Z</time></trkpt><trkpt lat="43.4593949" lon="11.1617329"><ele>103.99999999999999</ele><time>2026-04-29T16:03:12.375Z</time></trkpt><trkpt lat="43.4594106" lon="11.1616329"><ele>104.0</ele><time>2026-04-29T16:03:13.362Z</time></trkpt><trkpt lat="43.4594235" lon="11.1615278"><ele>104.0</ele><time>2026-04-29T16:03:14.387Z</time></trkpt><trkpt lat="43.4594566" lon="11.161435"><ele>104.0</ele><time>2026-04-29T16:03:15.373Z</time></trkpt><trkpt lat="43.4594991" lon="11.1613511"><ele>103.99999999999999</ele><time>2026-04-29T16:03:16.368Z</time></trkpt><trkpt lat="43.4595629" lon="11.1612769"><ele>104.0</ele><time>2026-04-29T16:03:17.381Z</time></trkpt><trkpt lat="43.459642" lon="11.1612128"><ele>104.33333333333333</ele><time>2026-04-29T16:03:18.38Z</time></trkpt><trkpt lat="43.4597256" lon="11.1611553"><ele>104.66666666666666</ele><time>2026-04-29T16:03:19.38Z</time></trkpt><trkpt lat="43.4598088" lon="11.1611118"><ele>105.0</ele><time>2026-04-29T16:03:20.368Z</time></trkpt><trkpt lat="43.4598934" lon="11.1610754"><ele>105.33333333333334</ele><time>2026-04-29T16:03:21.362Z</time></trkpt><trkpt lat="43.4599784" lon="11.1610403"><ele>105.66666666666667</ele><time>2026-04-29T16:03:22.378Z</time></trkpt><trkpt lat="43.4600616" lon="11.1610043"><ele>106.0</ele><time>2026-04-29T16:03:23.377Z</time></trkpt><trkpt lat="43.4601447" lon="11.160973"><ele>106.00000000000001</ele><time>2026-04-29T16:03:24.366Z</time></trkpt><trkpt lat="43.4602254" lon="11.1609393"><ele>106.0</ele><time>2026-04-29T16:03:25.375Z</time></trkpt><trkpt lat="43.460304" lon="11.1609021"><ele>106.0</ele><time>2026-04-29T16:03:26.383Z</time></trkpt><trkpt lat="43.460372" lon="11.160872"><ele>106.0</ele><time>2026-04-29T16:03:27.374Z</time></trkpt><trkpt lat="43.4604394" lon="11.1608456"><ele>106.00000000000001</ele><time>2026-04-29T16:03:28.384Z</time></trkpt><trkpt lat="43.4605542" lon="11.160794"><ele>106.0</ele><time>2026-04-29T16:03:30.385Z</time></trkpt><trkpt lat="43.4606647" lon="11.1607508"><ele>106.0</ele><time>2026-04-29T16:03:32.354Z</time></trkpt><trkpt lat="43.4607701" lon="11.1607041"><ele>106.0</ele><time>2026-04-29T16:03:34.386Z</time></trkpt><trkpt lat="43.4608603" lon="11.1606721"><ele>106.0</ele><time>2026-04-29T16:03:36.391Z</time></trkpt><trkpt lat="43.4609472" lon="11.1606336"><ele>106.0</ele><time>2026-04-29T16:03:38.372Z</time></trkpt><trkpt lat="43.4610268" lon="11.1605964"><ele>106.0</ele><time>2026-04-29T16:03:40.372Z</time></trkpt><trkpt lat="43.4611019" lon="11.1605597"><ele>106.6</ele><time>2026-04-29T16:03:42.382Z</time></trkpt><trkpt lat="43.461176" lon="11.1604983"><ele>107.19999999999999</ele><time>2026-04-29T16:03:44.379Z</time></trkpt><trkpt lat="43.4612486" lon="11.1604229"><ele>107.80000000000001</ele><time>2026-04-29T16:03:46.391Z</time></trkpt><trkpt lat="43.4613221" lon="11.1603314"><ele>108.4</ele><time>2026-04-29T16:03:48.362Z</time></trkpt><trkpt lat="43.4613869" lon="11.1602405"><ele>109.0</ele><time>2026-04-29T16:03:50.378Z</time></trkpt><trkpt lat="43.4614606" lon="11.160163"><ele>109.0</ele><time>2026-04-29T16:03:52.359Z</time></trkpt><trkpt lat="43.4615624" lon="11.1601394"><ele>109.0</ele><time>2026-04-29T16:03:54.375Z</time></trkpt><trkpt lat="43.4616667" lon="11.160193"><ele>109.0</ele><time>2026-04-29T16:03:56.381Z</time></trkpt><trkpt lat="43.4617642" lon="11.1602742"><ele>109.0</ele><time>2026-04-29T16:03:58.376Z</time></trkpt><trkpt lat="43.4618741" lon="11.1603307"><ele>109.0</ele><time>2026-04-29T16:04:00.386Z</time></trkpt><trkpt lat="43.4619367" lon="11.1603552"><ele>109.0</ele><time>2026-04-29T16:04:01.456Z</time></trkpt><trkpt lat="43.4620025" lon="11.1603768"><ele>109.0</ele><time>2026-04-29T16:04:02.455Z</time></trkpt><trkpt lat="43.4621976" lon="11.1604852"><ele>109.0</ele><time>2026-04-29T16:04:05.357Z</time></trkpt><trkpt lat="43.4624441" lon="11.1606221"><ele>108.83333333333334</ele><time>2026-04-29T16:04:09.384Z</time></trkpt><trkpt lat="43.4625177" lon="11.1605956"><ele>108.66666666666667</ele><time>2026-04-29T16:04:10.387Z</time></trkpt><trkpt lat="43.4626032" lon="11.1606227"><ele>108.5</ele><time>2026-04-29T16:04:11.444Z</time></trkpt><trkpt lat="43.4626918" lon="11.160652"><ele>108.33333333333334</ele><time>2026-04-29T16:04:12.446Z</time></trkpt><trkpt lat="43.4627736" lon="11.1606827"><ele>108.16666666666667</ele><time>2026-04-29T16:04:13.374Z</time></trkpt><trkpt lat="43.4628487" lon="11.1607132"><ele>108.0</ele><time>2026-04-29T16:04:14.388Z</time></trkpt><trkpt lat="43.4629187" lon="11.1607408"><ele>107.33333333333333</ele><time>2026-04-29T16:04:15.381Z</time></trkpt><trkpt lat="43.4629881" lon="11.1607637"><ele>106.66666666666666</ele><time>2026-04-29T16:04:16.45Z</time></trkpt><trkpt lat="43.4630528" lon="11.160771"><ele>106.0</ele><time>2026-04-29T16:04:17.449Z</time></trkpt><trkpt lat="43.4631157" lon="11.1607796"><ele>105.33333333333333</ele><time>2026-04-29T16:04:18.376Z</time></trkpt><trkpt lat="43.4631811" lon="11.160772"><ele>104.66666666666666</ele><time>2026-04-29T16:04:19.391Z</time></trkpt><trkpt lat="43.4632421" lon="11.1607361"><ele>104.0</ele><time>2026-04-29T16:04:20.386Z</time></trkpt><trkpt lat="43.4633607" lon="11.1606562"><ele>104.0</ele><time>2026-04-29T16:04:22.426Z</time></trkpt><trkpt lat="43.4634232" lon="11.1606098"><ele>104.0</ele><time>2026-04-29T16:04:23.378Z</time></trkpt><trkpt lat="43.4634814" lon="11.1605628"><ele>104.0</ele><time>2026-04-29T16:04:24.366Z</time></trkpt><trkpt lat="43.4635428" lon="11.1605247"><ele>104.0</ele><time>2026-04-29T16:04:25.378Z</time></trkpt><trkpt lat="43.4636062" lon="11.1604929"><ele>104.0</ele><time>2026-04-29T16:04:26.365Z</time></trkpt><trkpt lat="43.4636682" lon="11.16046"><ele>104.0</ele><time>2026-04-29T16:04:27.38Z</time></trkpt><trkpt lat="43.4637288" lon="11.1604249"><ele>104.0</ele><time>2026-04-29T16:04:28.388Z</time></trkpt><trkpt lat="43.4637879" lon="11.1603886"><ele>103.83333333333333</ele><time>2026-04-29T16:04:29.382Z</time></trkpt><trkpt lat="43.4638503" lon="11.1603539"><ele>103.66666666666666</ele><time>2026-04-29T16:04:30.368Z</time></trkpt><trkpt lat="43.4639178" lon="11.1603151"><ele>103.5</ele><time>2026-04-29T16:04:31.386Z</time></trkpt><trkpt lat="43.4639808" lon="11.1602761"><ele>103.33333333333334</ele><time>2026-04-29T16:04:32.394Z</time></trkpt><trkpt lat="43.4640409" lon="11.1602402"><ele>103.16666666666667</ele><time>2026-04-29T16:04:33.392Z</time></trkpt><trkpt lat="43.4641545" lon="11.1601692"><ele>103.0</ele><time>2026-04-29T16:04:35.383Z</time></trkpt><trkpt lat="43.4642609" lon="11.1600839"><ele>103.00000000000001</ele><time>2026-04-29T16:04:37.377Z</time></trkpt><trkpt lat="43.4643147" lon="11.1600335"><ele>103.0</ele><time>2026-04-29T16:04:38.471Z</time></trkpt><trkpt lat="43.464417" lon="11.1599311"><ele>103.0</ele><time>2026-04-29T16:04:40.381Z</time></trkpt><trkpt lat="43.4644677" lon="11.1598701"><ele>103.0</ele><time>2026-04-29T16:04:41.381Z</time></trkpt><trkpt lat="43.4645168" lon="11.1598083"><ele>103.00000000000001</ele><time>2026-04-29T16:04:42.466Z</time></trkpt><trkpt lat="43.464611" lon="11.1597381"><ele>103.0</ele><time>2026-04-29T16:04:44.37Z</time></trkpt><trkpt lat="43.46469" lon="11.1596053"><ele>103.0</ele><time>2026-04-29T16:04:46.376Z</time></trkpt><trkpt lat="43.4647272" lon="11.1595229"><ele>103.0</ele><time>2026-04-29T16:04:47.459Z</time></trkpt><trkpt lat="43.4647602" lon="11.1594466"><ele>103.0</ele><time>2026-04-29T16:04:48.459Z</time></trkpt><trkpt lat="43.4648151" lon="11.1593001"><ele>103.0</ele><time>2026-04-29T16:04:50.39Z</time></trkpt><trkpt lat="43.4648734" lon="11.159145"><ele>103.0</ele><time>2026-04-29T16:04:52.449Z</time></trkpt><trkpt lat="43.4649146" lon="11.1589917"><ele>103.0</ele><time>2026-04-29T16:04:54.392Z</time></trkpt><trkpt lat="43.4649534" lon="11.1588335"><ele>103.0</ele><time>2026-04-29T16:04:56.375Z</time></trkpt><trkpt lat="43.4649846" lon="11.1586835"><ele>103.0</ele><time>2026-04-29T16:04:58.37Z</time></trkpt><trkpt lat="43.4650309" lon="11.1585457"><ele>103.0</ele><time>2026-04-29T16:05:00.388Z</time></trkpt><trkpt lat="43.4650592" lon="11.158419"><ele>103.0</ele><time>2026-04-29T16:05:02.378Z</time></trkpt><trkpt lat="43.4651234" lon="11.1582265"><ele>102.5</ele><time>2026-04-29T16:05:05.462Z</time></trkpt><trkpt lat="43.465173" lon="11.158013"><ele>102.0</ele><time>2026-04-29T16:05:08.409Z</time></trkpt><trkpt lat="43.4652078" lon="11.1578665"><ele>101.5</ele><time>2026-04-29T16:05:10.386Z</time></trkpt><trkpt lat="43.4652412" lon="11.1577137"><ele>101.0</ele><time>2026-04-29T16:05:12.404Z</time></trkpt><trkpt lat="43.4652708" lon="11.157556"><ele>101.0</ele><time>2026-04-29T16:05:14.376Z</time></trkpt><trkpt lat="43.4653071" lon="11.1574031"><ele>101.0</ele><time>2026-04-29T16:05:16.38Z</time></trkpt><trkpt lat="43.4653331" lon="11.1572349"><ele>101.0</ele><time>2026-04-29T16:05:18.373Z</time></trkpt><trkpt lat="43.4653649" lon="11.1570729"><ele>101.0</ele><time>2026-04-29T16:05:20.37Z</time></trkpt><trkpt lat="43.4654016" lon="11.156923"><ele>101.6</ele><time>2026-04-29T16:05:22.374Z</time></trkpt><trkpt lat="43.4654364" lon="11.1567596"><ele>102.19999999999999</ele><time>2026-04-29T16:05:24.358Z</time></trkpt><trkpt lat="43.465475" lon="11.1565925"><ele>102.80000000000001</ele><time>2026-04-29T16:05:26.375Z</time></trkpt><trkpt lat="43.4655234" lon="11.1564399"><ele>103.4</ele><time>2026-04-29T16:05:28.354Z</time></trkpt><trkpt lat="43.4655435" lon="11.1563542"><ele>104.0</ele><time>2026-04-29T16:05:29.376Z</time></trkpt><trkpt lat="43.4655795" lon="11.1561952"><ele>104.2</ele><time>2026-04-29T16:05:31.366Z</time></trkpt><trkpt lat="43.4656111" lon="11.1560511"><ele>104.4</ele><time>2026-04-29T16:05:33.355Z</time></trkpt><trkpt lat="43.465626" lon="11.1559491"><ele>104.6</ele><time>2026-04-29T16:05:35.386Z</time></trkpt><trkpt lat="43.4656591" lon="11.1558416"><ele>104.8</ele><time>2026-04-29T16:05:37.359Z</time></trkpt><trkpt lat="43.4656978" lon="11.15571"><ele>105.0</ele><time>2026-04-29T16:05:39.377Z</time></trkpt><trkpt lat="43.4657433" lon="11.1555691"><ele>105.0</ele><time>2026-04-29T16:05:41.371Z</time></trkpt><trkpt lat="43.4657854" lon="11.1554228"><ele>105.0</ele><time>2026-04-29T16:05:43.366Z</time></trkpt><trkpt lat="43.465823" lon="11.1552837"><ele>105.0</ele><time>2026-04-29T16:05:45.38Z</time></trkpt><trkpt lat="43.4658632" lon="11.1551336"><ele>105.0</ele><time>2026-04-29T16:05:47.401Z</time></trkpt><trkpt lat="43.4659059" lon="11.1549788"><ele>105.0</ele><time>2026-04-29T16:05:49.374Z</time></trkpt><trkpt lat="43.4659478" lon="11.1548261"><ele>105.0</ele><time>2026-04-29T16:05:51.37Z</time></trkpt><trkpt lat="43.4659911" lon="11.1546761"><ele>105.0</ele><time>2026-04-29T16:05:53.373Z</time></trkpt><trkpt lat="43.4660347" lon="11.1545281"><ele>105.0</ele><time>2026-04-29T16:05:55.372Z</time></trkpt><trkpt lat="43.4660964" lon="11.1543854"><ele>105.0</ele><time>2026-04-29T16:05:57.363Z</time></trkpt><trkpt lat="43.4661597" lon="11.1542519"><ele>105.0</ele><time>2026-04-29T16:05:59.365Z</time></trkpt><trkpt lat="43.4661973" lon="11.154182"><ele>105.0</ele><time>2026-04-29T16:06:00.377Z</time></trkpt><trkpt lat="43.4662696" lon="11.1540543"><ele>105.0</ele><time>2026-04-29T16:06:02.382Z</time></trkpt><trkpt lat="43.4663493" lon="11.1539267"><ele>105.0</ele><time>2026-04-29T16:06:04.372Z</time></trkpt><trkpt lat="43.466422" lon="11.1538079"><ele>104.6</ele><time>2026-04-29T16:06:06.372Z</time></trkpt><trkpt lat="43.4664896" lon="11.1536974"><ele>104.2</ele><time>2026-04-29T16:06:08.39Z</time></trkpt><trkpt lat="43.4665656" lon="11.1536095"><ele>103.80000000000001</ele><time>2026-04-29T16:06:10.376Z</time></trkpt><trkpt lat="43.4666314" lon="11.1535235"><ele>103.4</ele><time>2026-04-29T16:06:12.379Z</time></trkpt><trkpt lat="43.4666912" lon="11.1534188"><ele>103.0</ele><time>2026-04-29T16:06:14.386Z</time></trkpt><trkpt lat="43.4667513" lon="11.1533303"><ele>103.00000000000001</ele><time>2026-04-29T16:06:16.375Z</time></trkpt><trkpt lat="43.4668104" lon="11.1532385"><ele>103.0</ele><time>2026-04-29T16:06:18.374Z</time></trkpt><trkpt lat="43.4668778" lon="11.1531565"><ele>103.0</ele><time>2026-04-29T16:06:20.374Z</time></trkpt><trkpt lat="43.4669449" lon="11.1530753"><ele>103.0</ele><time>2026-04-29T16:06:22.384Z</time></trkpt><trkpt lat="43.4670148" lon="11.1530011"><ele>103.00000000000001</ele><time>2026-04-29T16:06:24.38Z</time></trkpt><trkpt lat="43.4670831" lon="11.1529665"><ele>103.0</ele><time>2026-04-29T16:06:26.381Z</time></trkpt><trkpt lat="43.467154" lon="11.1530022"><ele>102.66666666666667</ele><time>2026-04-29T16:06:28.363Z</time></trkpt><trkpt lat="43.4672287" lon="11.1530034"><ele>102.33333333333334</ele><time>2026-04-29T16:06:30.377Z</time></trkpt><trkpt lat="43.467302" lon="11.1530293"><ele>102.0</ele><time>2026-04-29T16:06:32.359Z</time></trkpt><trkpt lat="43.4673627" lon="11.1530894"><ele>101.66666666666666</ele><time>2026-04-29T16:06:34.366Z</time></trkpt><trkpt lat="43.4674235" lon="11.1531402"><ele>101.33333333333333</ele><time>2026-04-29T16:06:36.371Z</time></trkpt><trkpt lat="43.467484" lon="11.1532045"><ele>101.0</ele><time>2026-04-29T16:06:38.37Z</time></trkpt><trkpt lat="43.4675387" lon="11.1533131"><ele>100.99999999999999</ele><time>2026-04-29T16:06:40.381Z</time></trkpt><trkpt lat="43.4676081" lon="11.1534116"><ele>101.0</ele><time>2026-04-29T16:06:42.362Z</time></trkpt><trkpt lat="43.4676785" lon="11.1535021"><ele>101.0</ele><time>2026-04-29T16:06:44.37Z</time></trkpt><trkpt lat="43.4677198" lon="11.1535811"><ele>101.0</ele><time>2026-04-29T16:06:46.382Z</time></trkpt><trkpt lat="43.4677496" lon="11.1536592"><ele>100.99999999999999</ele><time>2026-04-29T16:06:49.375Z</time></trkpt><trkpt lat="43.4677935" lon="11.1537333"><ele>101.0</ele><time>2026-04-29T16:06:54.373Z</time></trkpt><trkpt lat="43.4678056" lon="11.153864"><ele>100.99999999999999</ele><time>2026-04-29T16:06:57.373Z</time></trkpt><trkpt lat="43.4678238" lon="11.1539877"><ele>101.0</ele><time>2026-04-29T16:06:59.394Z</time></trkpt><trkpt lat="43.4679015" lon="11.1540562"><ele>101.0</ele><time>2026-04-29T16:07:01.384Z</time></trkpt><trkpt lat="43.4679665" lon="11.1540451"><ele>101.0</ele><time>2026-04-29T16:07:02.384Z</time></trkpt><trkpt lat="43.4680255" lon="11.154014"><ele>100.99999999999999</ele><time>2026-04-29T16:07:03.37Z</time></trkpt><trkpt lat="43.4681051" lon="11.1539022"><ele>101.0</ele><time>2026-04-29T16:07:05.368Z</time></trkpt><trkpt lat="43.4681678" lon="11.1537731"><ele>101.19999999999999</ele><time>2026-04-29T16:07:07.375Z</time></trkpt><trkpt lat="43.4682193" lon="11.1536459"><ele>101.39999999999999</ele><time>2026-04-29T16:07:09.378Z</time></trkpt><trkpt lat="43.4682913" lon="11.1535443"><ele>101.6</ele><time>2026-04-29T16:07:11.38Z</time></trkpt><trkpt lat="43.4683723" lon="11.1534638"><ele>101.8</ele><time>2026-04-29T16:07:13.366Z</time></trkpt><trkpt lat="43.4684735" lon="11.1533838"><ele>102.0</ele><time>2026-04-29T16:07:15.38Z</time></trkpt><trkpt lat="43.4685669" lon="11.1533136"><ele>102.0</ele><time>2026-04-29T16:07:17.381Z</time></trkpt><trkpt lat="43.4686596" lon="11.153252"><ele>102.0</ele><time>2026-04-29T16:07:19.386Z</time></trkpt><trkpt lat="43.4688062" lon="11.153164"><ele>102.0</ele><time>2026-04-29T16:07:22.367Z</time></trkpt><trkpt lat="43.4688988" lon="11.1531179"><ele>102.0</ele><time>2026-04-29T16:07:24.367Z</time></trkpt><trkpt lat="43.4689873" lon="11.1530723"><ele>102.0</ele><time>2026-04-29T16:07:26.377Z</time></trkpt><trkpt lat="43.4690708" lon="11.1530645"><ele>102.0</ele><time>2026-04-29T16:07:29.362Z</time></trkpt><trkpt lat="43.4691542" lon="11.1530676"><ele>102.0</ele><time>2026-04-29T16:07:37.441Z</time></trkpt><trkpt lat="43.4691305" lon="11.152935"><ele>102.0</ele><time>2026-04-29T16:07:51.376Z</time></trkpt><trkpt lat="43.4690206" lon="11.1529721"><ele>102.0</ele><time>2026-04-29T16:07:53.458Z</time></trkpt><trkpt lat="43.4691034" lon="11.1530883"><ele>102.0</ele><time>2026-04-29T16:07:58.379Z</time></trkpt><trkpt lat="43.4691891" lon="11.1531143"><ele>102.0</ele><time>2026-04-29T16:08:58.458Z</time></trkpt><trkpt lat="43.4691368" lon="11.1530478"><ele>102.0</ele><time>2026-04-29T16:09:10.378Z</time></trkpt><trkpt lat="43.469159" lon="11.1529389"><ele>102.0</ele><time>2026-04-29T16:09:31.373Z</time></trkpt><trkpt lat="43.4691373" lon="11.1530397"><ele>102.0</ele><time>2026-04-29T16:09:35.389Z</time></trkpt><trkpt lat="43.4691194" lon="11.1531345"><ele>102.0</ele><time>2026-04-29T16:09:39.395Z</time></trkpt><trkpt lat="43.4691314" lon="11.1530338"><ele>102.0</ele><time>2026-04-29T16:10:00.381Z</time></trkpt><trkpt lat="43.4689634" lon="11.1529323"><ele>102.0</ele><time>2026-04-29T16:10:05.373Z</time></trkpt><trkpt lat="43.4688805" lon="11.1529991"><ele>102.0</ele><time>2026-04-29T16:10:07.448Z</time></trkpt><trkpt lat="43.4687985" lon="11.1530416"><ele>102.0</ele><time>2026-04-29T16:10:09.369Z</time></trkpt><trkpt lat="43.4687277" lon="11.1530714"><ele>102.0</ele><time>2026-04-29T16:10:11.379Z</time></trkpt><trkpt lat="43.4686496" lon="11.1531207"><ele>102.0</ele><time>2026-04-29T16:10:13.445Z</time></trkpt><trkpt lat="43.4685709" lon="11.1531767"><ele>102.0</ele><time>2026-04-29T16:10:15.38Z</time></trkpt><trkpt lat="43.4684982" lon="11.1532298"><ele>102.0</ele><time>2026-04-29T16:10:17.395Z</time></trkpt><trkpt lat="43.4684207" lon="11.1532855"><ele>102.0</ele><time>2026-04-29T16:10:19.384Z</time></trkpt><trkpt lat="43.4683457" lon="11.1533453"><ele>102.0</ele><time>2026-04-29T16:10:21.38Z</time></trkpt><trkpt lat="43.468273" lon="11.1534094"><ele>102.0</ele><time>2026-04-29T16:10:23.375Z</time></trkpt><trkpt lat="43.4681999" lon="11.1534781"><ele>102.0</ele><time>2026-04-29T16:10:25.392Z</time></trkpt><trkpt lat="43.4681313" lon="11.1535476"><ele>102.0</ele><time>2026-04-29T16:10:27.387Z</time></trkpt><trkpt lat="43.4680595" lon="11.1536063"><ele>102.0</ele><time>2026-04-29T16:10:29.398Z</time></trkpt><trkpt lat="43.467977" lon="11.153634"><ele>102.0</ele><time>2026-04-29T16:10:31.386Z</time></trkpt><trkpt lat="43.4678845" lon="11.1536291"><ele>102.0</ele><time>2026-04-29T16:10:33.452Z</time></trkpt><trkpt lat="43.4677939" lon="11.1535677"><ele>102.0</ele><time>2026-04-29T16:10:35.382Z</time></trkpt><trkpt lat="43.4677392" lon="11.1534638"><ele>101.8</ele><time>2026-04-29T16:10:37.454Z</time></trkpt><trkpt lat="43.4676805" lon="11.15334"><ele>101.6</ele><time>2026-04-29T16:10:39.381Z</time></trkpt><trkpt lat="43.4676206" lon="11.1532204"><ele>101.39999999999999</ele><time>2026-04-29T16:10:41.388Z</time></trkpt><trkpt lat="43.4675601" lon="11.1531247"><ele>101.19999999999999</ele><time>2026-04-29T16:10:43.39Z</time></trkpt><trkpt lat="43.4674991" lon="11.1530265"><ele>101.0</ele><time>2026-04-29T16:10:45.383Z</time></trkpt><trkpt lat="43.4674855" lon="11.1529159"><ele>101.0</ele><time>2026-04-29T16:10:47.452Z</time></trkpt><trkpt lat="43.4674895" lon="11.152784"><ele>101.0</ele><time>2026-04-29T16:10:49.371Z</time></trkpt><trkpt lat="43.4674872" lon="11.1526618"><ele>101.0</ele><time>2026-04-29T16:10:51.399Z</time></trkpt><trkpt lat="43.4674465" lon="11.1525634"><ele>101.0</ele><time>2026-04-29T16:10:53.375Z</time></trkpt><trkpt lat="43.4673699" lon="11.1524952"><ele>101.0</ele><time>2026-04-29T16:10:55.388Z</time></trkpt><trkpt lat="43.4672687" lon="11.1524553"><ele>101.0</ele><time>2026-04-29T16:10:57.395Z</time></trkpt><trkpt lat="43.4671699" lon="11.1523883"><ele>101.0</ele><time>2026-04-29T16:10:59.383Z</time></trkpt><trkpt lat="43.4670923" lon="11.1522709"><ele>101.0</ele><time>2026-04-29T16:11:01.381Z</time></trkpt><trkpt lat="43.4670498" lon="11.1521933"><ele>101.0</ele><time>2026-04-29T16:11:02.448Z</time></trkpt><trkpt lat="43.4670029" lon="11.1521103"><ele>101.0</ele><time>2026-04-29T16:11:03.441Z</time></trkpt><trkpt lat="43.4669509" lon="11.1520181"><ele>101.0</ele><time>2026-04-29T16:11:04.369Z</time></trkpt><trkpt lat="43.4668943" lon="11.1519181"><ele>101.0</ele><time>2026-04-29T16:11:05.377Z</time></trkpt><trkpt lat="43.4668349" lon="11.1518123"><ele>101.0</ele><time>2026-04-29T16:11:06.382Z</time></trkpt><trkpt lat="43.4667691" lon="11.1517065"><ele>101.0</ele><time>2026-04-29T16:11:07.456Z</time></trkpt><trkpt lat="43.4667013" lon="11.1516086"><ele>101.0</ele><time>2026-04-29T16:11:08.368Z</time></trkpt><trkpt lat="43.4666301" lon="11.1515121"><ele>101.66666666666666</ele><time>2026-04-29T16:11:09.369Z</time></trkpt><trkpt lat="43.4665674" lon="11.1514319"><ele>102.33333333333333</ele><time>2026-04-29T16:11:10.379Z</time></trkpt><trkpt lat="43.4665052" lon="11.1513656"><ele>103.0</ele><time>2026-04-29T16:11:11.462Z</time></trkpt><trkpt lat="43.4664537" lon="11.1513131"><ele>103.66666666666666</ele><time>2026-04-29T16:11:12.445Z</time></trkpt><trkpt lat="43.4663685" lon="11.1512225"><ele>104.33333333333333</ele><time>2026-04-29T16:11:14.388Z</time></trkpt><trkpt lat="43.4662953" lon="11.1511625"><ele>105.0</ele><time>2026-04-29T16:11:16.379Z</time></trkpt><trkpt lat="43.4662367" lon="11.1511005"><ele>105.33333333333333</ele><time>2026-04-29T16:11:18.385Z</time></trkpt><trkpt lat="43.4661689" lon="11.1510319"><ele>105.66666666666666</ele><time>2026-04-29T16:11:20.388Z</time></trkpt><trkpt lat="43.4661114" lon="11.1509624"><ele>106.0</ele><time>2026-04-29T16:11:22.451Z</time></trkpt><trkpt lat="43.4660486" lon="11.1509009"><ele>106.33333333333333</ele><time>2026-04-29T16:11:24.388Z</time></trkpt><trkpt lat="43.465975" lon="11.1508462"><ele>106.66666666666666</ele><time>2026-04-29T16:11:26.38Z</time></trkpt><trkpt lat="43.4658837" lon="11.1508275"><ele>107.0</ele><time>2026-04-29T16:11:29.396Z</time></trkpt><trkpt lat="43.4658202" lon="11.1508735"><ele>106.99999999999999</ele><time>2026-04-29T16:11:31.382Z</time></trkpt><trkpt lat="43.4657655" lon="11.1509525"><ele>107.0</ele><time>2026-04-29T16:11:33.371Z</time></trkpt><trkpt lat="43.4657121" lon="11.1510403"><ele>107.0</ele><time>2026-04-29T16:11:35.391Z</time></trkpt><trkpt lat="43.4656586" lon="11.1511307"><ele>107.0</ele><time>2026-04-29T16:11:37.394Z</time></trkpt><trkpt lat="43.4655947" lon="11.1512258"><ele>106.99999999999999</ele><time>2026-04-29T16:11:39.379Z</time></trkpt><trkpt lat="43.4655397" lon="11.1513349"><ele>107.0</ele><time>2026-04-29T16:11:41.378Z</time></trkpt><trkpt lat="43.4654992" lon="11.1514015"><ele>107.19999999999999</ele><time>2026-04-29T16:11:43.461Z</time></trkpt><trkpt lat="43.4654267" lon="11.1514765"><ele>107.39999999999999</ele><time>2026-04-29T16:11:45.393Z</time></trkpt><trkpt lat="43.4653625" lon="11.1515934"><ele>107.60000000000001</ele><time>2026-04-29T16:11:47.453Z</time></trkpt><trkpt lat="43.4653051" lon="11.1517119"><ele>107.80000000000001</ele><time>2026-04-29T16:11:49.39Z</time></trkpt><trkpt lat="43.4652566" lon="11.1518185"><ele>108.0</ele><time>2026-04-29T16:11:51.381Z</time></trkpt><trkpt lat="43.4652221" lon="11.1519099"><ele>108.0</ele><time>2026-04-29T16:11:53.448Z</time></trkpt><trkpt lat="43.4651538" lon="11.1519755"><ele>108.0</ele><time>2026-04-29T16:11:55.386Z</time></trkpt><trkpt lat="43.465076" lon="11.1519583"><ele>108.0</ele><time>2026-04-29T16:11:57.458Z</time></trkpt><trkpt lat="43.4649992" lon="11.1519203"><ele>108.0</ele><time>2026-04-29T16:11:59.38Z</time></trkpt><trkpt lat="43.4649337" lon="11.1518779"><ele>108.0</ele><time>2026-04-29T16:12:01.373Z</time></trkpt><trkpt lat="43.4648935" lon="11.1517931"><ele>108.0</ele><time>2026-04-29T16:12:05.385Z</time></trkpt><trkpt lat="43.464919" lon="11.1516957"><ele>108.0</ele><time>2026-04-29T16:12:09.397Z</time></trkpt><trkpt lat="43.4649426" lon="11.1517942"><ele>108.0</ele><time>2026-04-29T16:12:20.374Z</time></trkpt><trkpt lat="43.4649882" lon="11.1518599"><ele>108.0</ele><time>2026-04-29T16:12:24.381Z</time></trkpt><trkpt lat="43.465045" lon="11.1518991"><ele>108.0</ele><time>2026-04-29T16:12:31.395Z</time></trkpt><trkpt lat="43.4650045" lon="11.1519798"><ele>108.0</ele><time>2026-04-29T16:16:10.381Z</time></trkpt><trkpt lat="43.4650201" lon="11.1518898"><ele>108.0</ele><time>2026-04-29T16:16:44.381Z</time></trkpt><trkpt lat="43.4650887" lon="11.1518806"><ele>108.0</ele><time>2026-04-29T16:17:49.393Z</time></trkpt><trkpt lat="43.4650281" lon="11.1519237"><ele>108.0</ele><time>2026-04-29T16:17:56.377Z</time></trkpt><trkpt lat="43.4649258" lon="11.1519822"><ele>108.0</ele><time>2026-04-29T16:19:02.467Z</time></trkpt><trkpt lat="43.4649777" lon="11.1519108"><ele>108.0</ele><time>2026-04-29T16:19:04.382Z</time></trkpt><trkpt lat="43.4650383" lon="11.1519495"><ele>108.0</ele><time>2026-04-29T16:19:25.387Z</time></trkpt><trkpt lat="43.464954" lon="11.1518871"><ele>108.0</ele><time>2026-04-29T16:19:40.372Z</time></trkpt><trkpt lat="43.4650311" lon="11.1519041"><ele>108.0</ele><time>2026-04-29T16:20:04.385Z</time></trkpt><trkpt lat="43.4649786" lon="11.1519977"><ele>108.0</ele><time>2026-04-29T16:21:41.376Z</time></trkpt><trkpt lat="43.4650063" lon="11.1519183"><ele>108.0</ele><time>2026-04-29T16:21:54.364Z</time></trkpt><trkpt lat="43.4650321" lon="11.1518367"><ele>108.0</ele><time>2026-04-29T16:22:21.381Z</time></trkpt><trkpt lat="43.4650424" lon="11.1519323"><ele>108.0</ele><time>2026-04-29T16:22:45.369Z</time></trkpt><trkpt lat="43.4649807" lon="11.1518809"><ele>108.0</ele><time>2026-04-29T16:23:02.452Z</time></trkpt><trkpt lat="43.4650433" lon="11.1518539"><ele>108.0</ele><time>2026-04-29T16:23:41.386Z</time></trkpt><trkpt lat="43.4649742" lon="11.1518805"><ele>108.0</ele><time>2026-04-29T16:23:57.454Z</time></trkpt><trkpt lat="43.4650173" lon="11.1518162"><ele>108.0</ele><time>2026-04-29T16:24:10.376Z</time></trkpt><trkpt lat="43.4649888" lon="11.1518947"><ele>108.0</ele><time>2026-04-29T16:25:14.361Z</time></trkpt><trkpt lat="43.4650298" lon="11.1519641"><ele>108.0</ele><time>2026-04-29T16:25:56.392Z</time></trkpt><trkpt lat="43.4651044" lon="11.1519693"><ele>108.0</ele><time>2026-04-29T16:26:22.454Z</time></trkpt><trkpt lat="43.465038" lon="11.1519328"><ele>108.0</ele><time>2026-04-29T16:26:30.395Z</time></trkpt><trkpt lat="43.4649657" lon="11.1519709"><ele>108.0</ele><time>2026-04-29T16:27:23.381Z</time></trkpt><trkpt lat="43.4650048" lon="11.1518977"><ele>108.0</ele><time>2026-04-29T16:27:30.375Z</time></trkpt><trkpt lat="43.4650711" lon="11.1518777"><ele>108.0</ele><time>2026-04-29T16:28:40.372Z</time></trkpt><trkpt lat="43.4649916" lon="11.151956"><ele>108.0</ele><time>2026-04-29T16:29:55.387Z</time></trkpt><trkpt lat="43.4650095" lon="11.151864"><ele>108.0</ele><time>2026-04-29T16:31:04.456Z</time></trkpt><trkpt lat="43.4649499" lon="11.1519298"><ele>108.0</ele><time>2026-04-29T16:31:31.378Z</time></trkpt><trkpt lat="43.4649867" lon="11.1518555"><ele>108.0</ele><time>2026-04-29T16:31:57.387Z</time></trkpt><trkpt lat="43.4650775" lon="11.1518308"><ele>108.0</ele><time>2026-04-29T16:32:34.449Z</time></trkpt><trkpt lat="43.4650066" lon="11.1518741"><ele>108.0</ele><time>2026-04-29T16:32:55.378Z</time></trkpt><trkpt lat="43.4649721" lon="11.1517972"><ele>108.0</ele><time>2026-04-29T16:35:19.376Z</time></trkpt><trkpt lat="43.4649811" lon="11.1516997"><ele>108.0</ele><time>2026-04-29T16:35:22.382Z</time></trkpt><trkpt lat="43.4649924" lon="11.15161"><ele>108.0</ele><time>2026-04-29T16:35:26.379Z</time></trkpt><trkpt lat="43.4650362" lon="11.1515341"><ele>108.0</ele><time>2026-04-29T16:35:30.391Z</time></trkpt><trkpt lat="43.4650609" lon="11.151437"><ele>108.0</ele><time>2026-04-29T16:35:34.457Z</time></trkpt><trkpt lat="43.4650843" lon="11.1513387"><ele>108.0</ele><time>2026-04-29T16:35:37.391Z</time></trkpt><trkpt lat="43.4651209" lon="11.15126"><ele>108.5</ele><time>2026-04-29T16:35:40.364Z</time></trkpt><trkpt lat="43.4650409" lon="11.1512236"><ele>109.0</ele><time>2026-04-29T16:35:49.447Z</time></trkpt><trkpt lat="43.4649866" lon="11.1512831"><ele>109.5</ele><time>2026-04-29T16:35:51.371Z</time></trkpt><trkpt lat="43.4649375" lon="11.1513474"><ele>110.0</ele><time>2026-04-29T16:35:53.377Z</time></trkpt><trkpt lat="43.4648395" lon="11.1513285"><ele>110.5</ele><time>2026-04-29T16:35:56.385Z</time></trkpt><trkpt lat="43.4647417" lon="11.1512844"><ele>111.0</ele><time>2026-04-29T16:35:58.381Z</time></trkpt><trkpt lat="43.4646665" lon="11.1512363"><ele>110.66666666666667</ele><time>2026-04-29T16:36:00.386Z</time></trkpt><trkpt lat="43.4645972" lon="11.1511994"><ele>110.33333333333334</ele><time>2026-04-29T16:36:02.385Z</time></trkpt><trkpt lat="43.464532" lon="11.1512314"><ele>110.0</ele><time>2026-04-29T16:36:04.386Z</time></trkpt><trkpt lat="43.4644836" lon="11.1513117"><ele>109.66666666666667</ele><time>2026-04-29T16:36:06.385Z</time></trkpt><trkpt lat="43.4644334" lon="11.1514085"><ele>109.33333333333334</ele><time>2026-04-29T16:36:08.387Z</time></trkpt><trkpt lat="43.4643831" lon="11.1514938"><ele>109.0</ele><time>2026-04-29T16:36:10.373Z</time></trkpt><trkpt lat="43.4643452" lon="11.1516043"><ele>109.00000000000001</ele><time>2026-04-29T16:36:12.384Z</time></trkpt><trkpt lat="43.4642994" lon="11.1517028"><ele>109.0</ele><time>2026-04-29T16:36:14.436Z</time></trkpt><trkpt lat="43.4642523" lon="11.1517993"><ele>109.0</ele><time>2026-04-29T16:36:16.384Z</time></trkpt><trkpt lat="43.4641994" lon="11.1519068"><ele>109.0</ele><time>2026-04-29T16:36:18.456Z</time></trkpt><trkpt lat="43.4641232" lon="11.1519795"><ele>109.00000000000001</ele><time>2026-04-29T16:36:20.373Z</time></trkpt><trkpt lat="43.4640673" lon="11.1520516"><ele>109.0</ele><time>2026-04-29T16:36:22.383Z</time></trkpt><trkpt lat="43.4640135" lon="11.1521333"><ele>109.00000000000001</ele><time>2026-04-29T16:36:24.45Z</time></trkpt><trkpt lat="43.4639742" lon="11.1522053"><ele>109.0</ele><time>2026-04-29T16:36:26.394Z</time></trkpt><trkpt lat="43.4639611" lon="11.1523129"><ele>109.0</ele><time>2026-04-29T16:36:28.389Z</time></trkpt><trkpt lat="43.4639334" lon="11.1524242"><ele>109.0</ele><time>2026-04-29T16:36:30.381Z</time></trkpt><trkpt lat="43.463877" lon="11.1525082"><ele>109.00000000000001</ele><time>2026-04-29T16:36:32.386Z</time></trkpt><trkpt lat="43.4638264" lon="11.1526091"><ele>109.0</ele><time>2026-04-29T16:36:34.376Z</time></trkpt><trkpt lat="43.4637885" lon="11.1527204"><ele>109.83333333333334</ele><time>2026-04-29T16:36:36.365Z</time></trkpt><trkpt lat="43.4637403" lon="11.152815"><ele>110.66666666666667</ele><time>2026-04-29T16:36:38.397Z</time></trkpt><trkpt lat="43.4636943" lon="11.1529114"><ele>111.5</ele><time>2026-04-29T16:36:40.386Z</time></trkpt><trkpt lat="43.4636334" lon="11.1530061"><ele>112.33333333333334</ele><time>2026-04-29T16:36:42.387Z</time></trkpt><trkpt lat="43.463577" lon="11.1531031"><ele>113.16666666666667</ele><time>2026-04-29T16:36:44.392Z</time></trkpt><trkpt lat="43.4635248" lon="11.1531832"><ele>114.0</ele><time>2026-04-29T16:36:46.382Z</time></trkpt><trkpt lat="43.4634715" lon="11.1532787"><ele>114.0</ele><time>2026-04-29T16:36:48.383Z</time></trkpt><trkpt lat="43.4634196" lon="11.1533771"><ele>114.0</ele><time>2026-04-29T16:36:50.386Z</time></trkpt><trkpt lat="43.4633673" lon="11.1534763"><ele>114.0</ele><time>2026-04-29T16:36:52.36Z</time></trkpt><trkpt lat="43.4633149" lon="11.1535817"><ele>114.0</ele><time>2026-04-29T16:36:54.455Z</time></trkpt><trkpt lat="43.4632657" lon="11.153692"><ele>114.0</ele><time>2026-04-29T16:36:56.39Z</time></trkpt><trkpt lat="43.4632199" lon="11.1537981"><ele>114.0</ele><time>2026-04-29T16:36:58.393Z</time></trkpt><trkpt lat="43.4631814" lon="11.1539064"><ele>114.0</ele><time>2026-04-29T16:37:00.373Z</time></trkpt><trkpt lat="43.463141" lon="11.1540215"><ele>114.0</ele><time>2026-04-29T16:37:02.458Z</time></trkpt><trkpt lat="43.4631076" lon="11.1541522"><ele>114.0</ele><time>2026-04-29T16:37:04.374Z</time></trkpt><trkpt lat="43.4630677" lon="11.1542607"><ele>114.0</ele><time>2026-04-29T16:37:06.373Z</time></trkpt><trkpt lat="43.4630408" lon="11.1543765"><ele>114.0</ele><time>2026-04-29T16:37:08.368Z</time></trkpt><trkpt lat="43.4630151" lon="11.1545135"><ele>114.0</ele><time>2026-04-29T16:37:10.391Z</time></trkpt><trkpt lat="43.4629765" lon="11.15464"><ele>114.0</ele><time>2026-04-29T16:37:12.362Z</time></trkpt><trkpt lat="43.4629339" lon="11.1547723"><ele>114.0</ele><time>2026-04-29T16:37:14.467Z</time></trkpt><trkpt lat="43.4628965" lon="11.154895"><ele>114.0</ele><time>2026-04-29T16:37:16.398Z</time></trkpt><trkpt lat="43.4628492" lon="11.1550313"><ele>114.0</ele><time>2026-04-29T16:37:18.456Z</time></trkpt><trkpt lat="43.4628089" lon="11.1551457"><ele>114.0</ele><time>2026-04-29T16:37:20.387Z</time></trkpt><trkpt lat="43.4627789" lon="11.1552816"><ele>114.0</ele><time>2026-04-29T16:37:22.38Z</time></trkpt><trkpt lat="43.4627406" lon="11.1554186"><ele>114.0</ele><time>2026-04-29T16:37:24.449Z</time></trkpt><trkpt lat="43.4626998" lon="11.1554885"><ele>114.0</ele><time>2026-04-29T16:37:25.368Z</time></trkpt><trkpt lat="43.4626524" lon="11.1556211"><ele>113.4</ele><time>2026-04-29T16:37:27.396Z</time></trkpt><trkpt lat="43.4626194" lon="11.155728"><ele>112.80000000000001</ele><time>2026-04-29T16:37:29.448Z</time></trkpt><trkpt lat="43.4625815" lon="11.1558354"><ele>112.19999999999999</ele><time>2026-04-29T16:37:31.389Z</time></trkpt><trkpt lat="43.4625451" lon="11.1559575"><ele>111.6</ele><time>2026-04-29T16:37:33.448Z</time></trkpt><trkpt lat="43.4625077" lon="11.1560795"><ele>111.0</ele><time>2026-04-29T16:37:35.386Z</time></trkpt><trkpt lat="43.462469" lon="11.156198"><ele>111.0</ele><time>2026-04-29T16:37:37.373Z</time></trkpt><trkpt lat="43.4624225" lon="11.1563066"><ele>111.0</ele><time>2026-04-29T16:37:39.39Z</time></trkpt><trkpt lat="43.4623814" lon="11.1564181"><ele>111.0</ele><time>2026-04-29T16:37:41.379Z</time></trkpt><trkpt lat="43.4623473" lon="11.1565358"><ele>111.0</ele><time>2026-04-29T16:37:43.383Z</time></trkpt><trkpt lat="43.4623181" lon="11.1566489"><ele>111.0</ele><time>2026-04-29T16:37:45.38Z</time></trkpt><trkpt lat="43.4622865" lon="11.1567706"><ele>111.16666666666667</ele><time>2026-04-29T16:37:47.383Z</time></trkpt><trkpt lat="43.462246" lon="11.1568864"><ele>111.33333333333334</ele><time>2026-04-29T16:37:49.382Z</time></trkpt><trkpt lat="43.4621909" lon="11.1569922"><ele>111.5</ele><time>2026-04-29T16:37:51.39Z</time></trkpt><trkpt lat="43.4621553" lon="11.1570958"><ele>111.66666666666667</ele><time>2026-04-29T16:37:53.385Z</time></trkpt><trkpt lat="43.462163" lon="11.1572145"><ele>111.83333333333334</ele><time>2026-04-29T16:37:55.378Z</time></trkpt><trkpt lat="43.4621381" lon="11.1573351"><ele>112.0</ele><time>2026-04-29T16:37:57.392Z</time></trkpt><trkpt lat="43.4620757" lon="11.1574284"><ele>112.16666666666667</ele><time>2026-04-29T16:37:59.386Z</time></trkpt><trkpt lat="43.4620062" lon="11.1575169"><ele>112.33333333333334</ele><time>2026-04-29T16:38:01.378Z</time></trkpt><trkpt lat="43.4619652" lon="11.1576078"><ele>112.5</ele><time>2026-04-29T16:38:03.447Z</time></trkpt><trkpt lat="43.4619192" lon="11.1577128"><ele>112.66666666666666</ele><time>2026-04-29T16:38:06.398Z</time></trkpt><trkpt lat="43.461881" lon="11.1578251"><ele>112.83333333333333</ele><time>2026-04-29T16:38:08.451Z</time></trkpt><trkpt lat="43.4618371" lon="11.1579135"><ele>113.0</ele><time>2026-04-29T16:38:10.379Z</time></trkpt><trkpt lat="43.4617753" lon="11.1580321"><ele>112.99999999999999</ele><time>2026-04-29T16:38:12.392Z</time></trkpt><trkpt lat="43.4617342" lon="11.1581177"><ele>113.0</ele><time>2026-04-29T16:38:14.391Z</time></trkpt><trkpt lat="43.4616746" lon="11.1581987"><ele>113.0</ele><time>2026-04-29T16:38:16.375Z</time></trkpt><trkpt lat="43.4616188" lon="11.1582782"><ele>113.0</ele><time>2026-04-29T16:38:18.385Z</time></trkpt><trkpt lat="43.4615558" lon="11.1583484"><ele>112.99999999999999</ele><time>2026-04-29T16:38:20.397Z</time></trkpt><trkpt lat="43.4614874" lon="11.1584096"><ele>113.0</ele><time>2026-04-29T16:38:22.383Z</time></trkpt><trkpt lat="43.4614197" lon="11.1584646"><ele>113.16666666666666</ele><time>2026-04-29T16:38:24.377Z</time></trkpt><trkpt lat="43.4613494" lon="11.1585205"><ele>113.33333333333333</ele><time>2026-04-29T16:38:26.381Z</time></trkpt><trkpt lat="43.4612794" lon="11.1585772"><ele>113.5</ele><time>2026-04-29T16:38:28.451Z</time></trkpt><trkpt lat="43.4612086" lon="11.158626"><ele>113.66666666666666</ele><time>2026-04-29T16:38:30.362Z</time></trkpt><trkpt lat="43.4611331" lon="11.1586657"><ele>113.83333333333333</ele><time>2026-04-29T16:38:32.391Z</time></trkpt><trkpt lat="43.4610618" lon="11.1587012"><ele>114.0</ele><time>2026-04-29T16:38:34.463Z</time></trkpt><trkpt lat="43.4609872" lon="11.1587208"><ele>115.0</ele><time>2026-04-29T16:38:36.362Z</time></trkpt><trkpt lat="43.460906" lon="11.1587345"><ele>116.0</ele><time>2026-04-29T16:38:38.443Z</time></trkpt><trkpt lat="43.4608171" lon="11.1587685"><ele>117.0</ele><time>2026-04-29T16:38:40.366Z</time></trkpt><trkpt lat="43.4607423" lon="11.1587831"><ele>118.0</ele><time>2026-04-29T16:38:42.386Z</time></trkpt><trkpt lat="43.4606652" lon="11.1587865"><ele>119.0</ele><time>2026-04-29T16:38:44.391Z</time></trkpt><trkpt lat="43.4605855" lon="11.1587882"><ele>120.0</ele><time>2026-04-29T16:38:46.401Z</time></trkpt><trkpt lat="43.4605089" lon="11.1587848"><ele>120.66666666666667</ele><time>2026-04-29T16:38:48.377Z</time></trkpt><trkpt lat="43.4604324" lon="11.158801"><ele>121.33333333333334</ele><time>2026-04-29T16:38:51.38Z</time></trkpt><trkpt lat="43.4603663" lon="11.1588169"><ele>122.0</ele><time>2026-04-29T16:38:54.374Z</time></trkpt><trkpt lat="43.4602851" lon="11.1588127"><ele>122.66666666666667</ele><time>2026-04-29T16:38:57.381Z</time></trkpt><trkpt lat="43.4601962" lon="11.1588151"><ele>123.33333333333334</ele><time>2026-04-29T16:38:59.382Z</time></trkpt><trkpt lat="43.4601107" lon="11.1588091"><ele>124.0</ele><time>2026-04-29T16:39:01.384Z</time></trkpt><trkpt lat="43.4600229" lon="11.1588026"><ele>124.00000000000001</ele><time>2026-04-29T16:39:03.453Z</time></trkpt><trkpt lat="43.4599205" lon="11.1587917"><ele>124.0</ele><time>2026-04-29T16:39:05.372Z</time></trkpt><trkpt lat="43.4598345" lon="11.158734"><ele>124.0</ele><time>2026-04-29T16:39:07.389Z</time></trkpt><trkpt lat="43.4597677" lon="11.1586851"><ele>124.0</ele><time>2026-04-29T16:39:09.453Z</time></trkpt><trkpt lat="43.4597023" lon="11.1586349"><ele>124.00000000000001</ele><time>2026-04-29T16:39:11.395Z</time></trkpt><trkpt lat="43.4596337" lon="11.1585724"><ele>124.0</ele><time>2026-04-29T16:39:13.387Z</time></trkpt><trkpt lat="43.4595692" lon="11.1585256"><ele>123.66666666666667</ele><time>2026-04-29T16:39:15.379Z</time></trkpt><trkpt lat="43.4594985" lon="11.158488"><ele>123.33333333333334</ele><time>2026-04-29T16:39:17.373Z</time></trkpt><trkpt lat="43.4594229" lon="11.1584366"><ele>123.0</ele><time>2026-04-29T16:39:19.38Z</time></trkpt><trkpt lat="43.4593596" lon="11.1583776"><ele>122.66666666666666</ele><time>2026-04-29T16:39:21.372Z</time></trkpt><trkpt lat="43.459297" lon="11.1583274"><ele>122.33333333333333</ele><time>2026-04-29T16:39:23.36Z</time></trkpt><trkpt lat="43.4592344" lon="11.1582578"><ele>122.0</ele><time>2026-04-29T16:39:25.374Z</time></trkpt><trkpt lat="43.4591637" lon="11.1581923"><ele>124.33333333333333</ele><time>2026-04-29T16:39:27.386Z</time></trkpt><trkpt lat="43.4591072" lon="11.1581168"><ele>126.66666666666666</ele><time>2026-04-29T16:39:29.393Z</time></trkpt><trkpt lat="43.4590497" lon="11.1580524"><ele>129.0</ele><time>2026-04-29T16:39:31.374Z</time></trkpt><trkpt lat="43.4589883" lon="11.1579864"><ele>131.33333333333334</ele><time>2026-04-29T16:39:33.373Z</time></trkpt><trkpt lat="43.4589266" lon="11.1579191"><ele>133.66666666666669</ele><time>2026-04-29T16:39:35.386Z</time></trkpt><trkpt lat="43.4588656" lon="11.1578535"><ele>136.0</ele><time>2026-04-29T16:39:37.375Z</time></trkpt><trkpt lat="43.4588175" lon="11.157786"><ele>134.33333333333334</ele><time>2026-04-29T16:39:39.453Z</time></trkpt><trkpt lat="43.4587525" lon="11.1577056"><ele>132.66666666666669</ele><time>2026-04-29T16:39:42.391Z</time></trkpt><trkpt lat="43.4586906" lon="11.1576158"><ele>131.0</ele><time>2026-04-29T16:39:45.368Z</time></trkpt><trkpt lat="43.4586325" lon="11.157533"><ele>129.33333333333334</ele><time>2026-04-29T16:39:48.377Z</time></trkpt><trkpt lat="43.4585895" lon="11.1574565"><ele>127.66666666666667</ele><time>2026-04-29T16:39:50.396Z</time></trkpt><trkpt lat="43.4585059" lon="11.1573742"><ele>126.0</ele><time>2026-04-29T16:39:52.454Z</time></trkpt><trkpt lat="43.4584606" lon="11.1572484"><ele>126.0</ele><time>2026-04-29T16:39:54.447Z</time></trkpt><trkpt lat="43.458402" lon="11.1571128"><ele>126.0</ele><time>2026-04-29T16:39:56.384Z</time></trkpt><trkpt lat="43.4583443" lon="11.1570501"><ele>126.0</ele><time>2026-04-29T16:39:57.394Z</time></trkpt><trkpt lat="43.4582971" lon="11.1569923"><ele>126.0</ele><time>2026-04-29T16:39:58.456Z</time></trkpt><trkpt lat="43.4581893" lon="11.1568934"><ele>126.0</ele><time>2026-04-29T16:40:00.355Z</time></trkpt><trkpt lat="43.4581331" lon="11.1568315"><ele>126.0</ele><time>2026-04-29T16:40:01.368Z</time></trkpt><trkpt lat="43.4580315" lon="11.1567212"><ele>126.0</ele><time>2026-04-29T16:40:03.39Z</time></trkpt><trkpt lat="43.4579744" lon="11.1566725"><ele>126.0</ele><time>2026-04-29T16:40:04.381Z</time></trkpt><trkpt lat="43.4579257" lon="11.1566155"><ele>126.0</ele><time>2026-04-29T16:40:05.374Z</time></trkpt><trkpt lat="43.4578702" lon="11.1565683"><ele>126.0</ele><time>2026-04-29T16:40:06.374Z</time></trkpt><trkpt lat="43.4577612" lon="11.1564864"><ele>125.0</ele><time>2026-04-29T16:40:08.383Z</time></trkpt><trkpt lat="43.4577014" lon="11.1564464"><ele>124.0</ele><time>2026-04-29T16:40:09.381Z</time></trkpt><trkpt lat="43.4575924" lon="11.1563668"><ele>123.0</ele><time>2026-04-29T16:40:11.374Z</time></trkpt><trkpt lat="43.4575398" lon="11.1563124"><ele>122.0</ele><time>2026-04-29T16:40:12.457Z</time></trkpt><trkpt lat="43.4574836" lon="11.1562546"><ele>121.0</ele><time>2026-04-29T16:40:13.445Z</time></trkpt><trkpt lat="43.4574308" lon="11.1561966"><ele>120.0</ele><time>2026-04-29T16:40:14.453Z</time></trkpt><trkpt lat="43.4573786" lon="11.1561403"><ele>120.0</ele><time>2026-04-29T16:40:15.379Z</time></trkpt><trkpt lat="43.457327" lon="11.1560786"><ele>120.0</ele><time>2026-04-29T16:40:16.38Z</time></trkpt><trkpt lat="43.4572756" lon="11.1560176"><ele>120.0</ele><time>2026-04-29T16:40:17.367Z</time></trkpt><trkpt lat="43.4572208" lon="11.1559544"><ele>120.0</ele><time>2026-04-29T16:40:18.458Z</time></trkpt><trkpt lat="43.4571744" lon="11.1558829"><ele>120.0</ele><time>2026-04-29T16:40:19.448Z</time></trkpt><trkpt lat="43.4571396" lon="11.1557985"><ele>120.0</ele><time>2026-04-29T16:40:20.376Z</time></trkpt><trkpt lat="43.4570938" lon="11.155726"><ele>120.0</ele><time>2026-04-29T16:40:21.377Z</time></trkpt><trkpt lat="43.4570021" lon="11.1556141"><ele>120.0</ele><time>2026-04-29T16:40:23.446Z</time></trkpt><trkpt lat="43.4569295" lon="11.1555053"><ele>120.0</ele><time>2026-04-29T16:40:25.373Z</time></trkpt><trkpt lat="43.4568703" lon="11.155451"><ele>120.0</ele><time>2026-04-29T16:40:26.393Z</time></trkpt><trkpt lat="43.4567987" lon="11.1554226"><ele>120.0</ele><time>2026-04-29T16:40:27.397Z</time></trkpt><trkpt lat="43.4567288" lon="11.1554217"><ele>120.0</ele><time>2026-04-29T16:40:28.457Z</time></trkpt><trkpt lat="43.4566658" lon="11.1553994"><ele>120.0</ele><time>2026-04-29T16:40:29.445Z</time></trkpt><trkpt lat="43.4565559" lon="11.1553587"><ele>120.0</ele><time>2026-04-29T16:40:31.38Z</time></trkpt><trkpt lat="43.4564586" lon="11.1553421"><ele>120.0</ele><time>2026-04-29T16:40:33.444Z</time></trkpt><trkpt lat="43.4563551" lon="11.1553164"><ele>120.0</ele><time>2026-04-29T16:40:35.393Z</time></trkpt><trkpt lat="43.4562781" lon="11.1552925"><ele>120.0</ele><time>2026-04-29T16:40:37.389Z</time></trkpt><trkpt lat="43.4561948" lon="11.1552578"><ele>120.0</ele><time>2026-04-29T16:40:39.389Z</time></trkpt><trkpt lat="43.4561055" lon="11.1552081"><ele>119.2</ele><time>2026-04-29T16:40:41.359Z</time></trkpt><trkpt lat="43.4560204" lon="11.1551567"><ele>118.4</ele><time>2026-04-29T16:40:43.379Z</time></trkpt><trkpt lat="43.4559327" lon="11.1551141"><ele>117.6</ele><time>2026-04-29T16:40:45.377Z</time></trkpt><trkpt lat="43.4558383" lon="11.1550884"><ele>116.8</ele><time>2026-04-29T16:40:47.38Z</time></trkpt><trkpt lat="43.4557357" lon="11.1550516"><ele>116.0</ele><time>2026-04-29T16:40:49.38Z</time></trkpt><trkpt lat="43.4556302" lon="11.1549949"><ele>116.0</ele><time>2026-04-29T16:40:51.388Z</time></trkpt><trkpt lat="43.4555258" lon="11.1549249"><ele>116.0</ele><time>2026-04-29T16:40:53.393Z</time></trkpt><trkpt lat="43.4554256" lon="11.1548462"><ele>116.0</ele><time>2026-04-29T16:40:55.372Z</time></trkpt><trkpt lat="43.4553286" lon="11.1547629"><ele>116.0</ele><time>2026-04-29T16:40:57.384Z</time></trkpt><trkpt lat="43.4552491" lon="11.1546842"><ele>116.0</ele><time>2026-04-29T16:40:59.455Z</time></trkpt><trkpt lat="43.455192" lon="11.154611"><ele>116.0</ele><time>2026-04-29T16:41:01.379Z</time></trkpt><trkpt lat="43.455104" lon="11.1545237"><ele>116.0</ele><time>2026-04-29T16:41:03.449Z</time></trkpt><trkpt lat="43.4550001" lon="11.154448"><ele>116.0</ele><time>2026-04-29T16:41:05.374Z</time></trkpt><trkpt lat="43.4549013" lon="11.1543634"><ele>116.0</ele><time>2026-04-29T16:41:07.392Z</time></trkpt><trkpt lat="43.4548116" lon="11.1542794"><ele>116.0</ele><time>2026-04-29T16:41:09.394Z</time></trkpt><trkpt lat="43.4547234" lon="11.1541986"><ele>116.0</ele><time>2026-04-29T16:41:11.397Z</time></trkpt><trkpt lat="43.454644" lon="11.1541191"><ele>116.0</ele><time>2026-04-29T16:41:13.382Z</time></trkpt><trkpt lat="43.4545746" lon="11.1540376"><ele>116.0</ele><time>2026-04-29T16:41:15.379Z</time></trkpt><trkpt lat="43.4545099" lon="11.1539534"><ele>116.0</ele><time>2026-04-29T16:41:17.38Z</time></trkpt><trkpt lat="43.4544473" lon="11.1538695"><ele>115.99999999999999</ele><time>2026-04-29T16:41:19.38Z</time></trkpt><trkpt lat="43.4543845" lon="11.1537914"><ele>116.0</ele><time>2026-04-29T16:41:21.376Z</time></trkpt><trkpt lat="43.4543236" lon="11.1537056"><ele>116.0</ele><time>2026-04-29T16:41:23.457Z</time></trkpt><trkpt lat="43.4542649" lon="11.1536046"><ele>116.0</ele><time>2026-04-29T16:41:25.374Z</time></trkpt><trkpt lat="43.4542016" lon="11.1535315"><ele>115.99999999999999</ele><time>2026-04-29T16:41:27.375Z</time></trkpt><trkpt lat="43.4541612" lon="11.1534562"><ele>116.0</ele><time>2026-04-29T16:41:29.458Z</time></trkpt><trkpt lat="43.4540686" lon="11.1532984"><ele>116.49999999999999</ele><time>2026-04-29T16:41:32.36Z</time></trkpt><trkpt lat="43.4540461" lon="11.1531711"><ele>117.0</ele><time>2026-04-29T16:41:34.395Z</time></trkpt><trkpt lat="43.4540566" lon="11.153083"><ele>117.5</ele><time>2026-04-29T16:41:35.395Z</time></trkpt><trkpt lat="43.4540618" lon="11.1529378"><ele>118.0</ele><time>2026-04-29T16:41:37.414Z</time></trkpt><trkpt lat="43.4540482" lon="11.1528464"><ele>118.49999999999999</ele><time>2026-04-29T16:41:39.474Z</time></trkpt><trkpt lat="43.4539999" lon="11.1527881"><ele>119.0</ele><time>2026-04-29T16:41:41.407Z</time></trkpt><trkpt lat="43.4539146" lon="11.152781"><ele>119.0</ele><time>2026-04-29T16:41:43.472Z</time></trkpt><trkpt lat="43.4538333" lon="11.1528119"><ele>119.0</ele><time>2026-04-29T16:41:45.418Z</time></trkpt><trkpt lat="43.4537417" lon="11.1528771"><ele>119.0</ele><time>2026-04-29T16:41:47.409Z</time></trkpt><trkpt lat="43.4536464" lon="11.1529096"><ele>119.0</ele><time>2026-04-29T16:41:49.405Z</time></trkpt><trkpt lat="43.4535376" lon="11.1528733"><ele>119.0</ele><time>2026-04-29T16:41:51.411Z</time></trkpt><trkpt lat="43.4534543" lon="11.152805"><ele>118.5</ele><time>2026-04-29T16:41:53.405Z</time></trkpt><trkpt lat="43.4533709" lon="11.1527126"><ele>118.0</ele><time>2026-04-29T16:41:55.401Z</time></trkpt><trkpt lat="43.4532797" lon="11.1526091"><ele>117.5</ele><time>2026-04-29T16:41:57.404Z</time></trkpt><trkpt lat="43.4531894" lon="11.1524978"><ele>117.0</ele><time>2026-04-29T16:41:59.465Z</time></trkpt><trkpt lat="43.453105" lon="11.1523928"><ele>116.66666666666667</ele><time>2026-04-29T16:42:01.4Z</time></trkpt><trkpt lat="43.4530256" lon="11.1522992"><ele>116.33333333333334</ele><time>2026-04-29T16:42:03.47Z</time></trkpt><trkpt lat="43.4529675" lon="11.1522287"><ele>116.0</ele><time>2026-04-29T16:42:05.413Z</time></trkpt><trkpt lat="43.4529036" lon="11.1521603"><ele>115.66666666666667</ele><time>2026-04-29T16:42:08.468Z</time></trkpt><trkpt lat="43.4528426" lon="11.1521111"><ele>115.33333333333334</ele><time>2026-04-29T16:42:11.403Z</time></trkpt><trkpt lat="43.4527855" lon="11.1520734"><ele>115.0</ele><time>2026-04-29T16:42:22.391Z</time></trkpt><trkpt lat="43.4527798" lon="11.151958"><ele>115.0</ele><time>2026-04-29T16:42:40.422Z</time></trkpt><trkpt lat="43.4527021" lon="11.1520212"><ele>115.0</ele><time>2026-04-29T16:43:01.409Z</time></trkpt><trkpt lat="43.4526079" lon="11.1520658"><ele>115.0</ele><time>2026-04-29T16:43:04.4Z</time></trkpt><trkpt lat="43.4524988" lon="11.1520901"><ele>115.0</ele><time>2026-04-29T16:43:06.402Z</time></trkpt><trkpt lat="43.4523814" lon="11.1521209"><ele>115.0</ele><time>2026-04-29T16:43:08.491Z</time></trkpt><trkpt lat="43.4522639" lon="11.1521344"><ele>115.0</ele><time>2026-04-29T16:43:10.398Z</time></trkpt><trkpt lat="43.4521346" lon="11.1521436"><ele>115.0</ele><time>2026-04-29T16:43:12.476Z</time></trkpt><trkpt lat="43.4520692" lon="11.1521422"><ele>115.0</ele><time>2026-04-29T16:43:13.478Z</time></trkpt><trkpt lat="43.4520021" lon="11.1521382"><ele>115.0</ele><time>2026-04-29T16:43:14.398Z</time></trkpt><trkpt lat="43.4519333" lon="11.1521334"><ele>115.0</ele><time>2026-04-29T16:43:15.417Z</time></trkpt><trkpt lat="43.4518096" lon="11.1521159"><ele>114.83333333333334</ele><time>2026-04-29T16:43:17.474Z</time></trkpt><trkpt lat="43.4517455" lon="11.1520969"><ele>114.66666666666667</ele><time>2026-04-29T16:43:18.465Z</time></trkpt><trkpt lat="43.4516808" lon="11.152069"><ele>114.5</ele><time>2026-04-29T16:43:19.399Z</time></trkpt><trkpt lat="43.4516083" lon="11.151992"><ele>114.33333333333334</ele><time>2026-04-29T16:43:21.399Z</time></trkpt><trkpt lat="43.4515416" lon="11.1518945"><ele>114.16666666666667</ele><time>2026-04-29T16:43:23.392Z</time></trkpt><trkpt lat="43.4514504" lon="11.1517959"><ele>114.0</ele><time>2026-04-29T16:43:25.392Z</time></trkpt><trkpt lat="43.4513863" lon="11.1517111"><ele>114.0</ele><time>2026-04-29T16:43:27.476Z</time></trkpt><trkpt lat="43.4513526" lon="11.1516258"><ele>114.0</ele><time>2026-04-29T16:43:30.386Z</time></trkpt><trkpt lat="43.4512793" lon="11.1515836"><ele>114.0</ele><time>2026-04-29T16:43:33.416Z</time></trkpt><trkpt lat="43.4512169" lon="11.1515564"><ele>114.0</ele><time>2026-04-29T16:43:35.415Z</time></trkpt><trkpt lat="43.4511327" lon="11.151553"><ele>114.0</ele><time>2026-04-29T16:43:38.431Z</time></trkpt><trkpt lat="43.4510464" lon="11.151572"><ele>114.0</ele><time>2026-04-29T16:43:41.413Z</time></trkpt><trkpt lat="43.4509606" lon="11.1516169"><ele>114.33333333333333</ele><time>2026-04-29T16:43:44.473Z</time></trkpt><trkpt lat="43.4509086" lon="11.1516776"><ele>114.66666666666666</ele><time>2026-04-29T16:43:46.397Z</time></trkpt><trkpt lat="43.4508645" lon="11.1517408"><ele>115.0</ele><time>2026-04-29T16:43:48.463Z</time></trkpt><trkpt lat="43.4508012" lon="11.1518291"><ele>115.33333333333333</ele><time>2026-04-29T16:43:51.4Z</time></trkpt><trkpt lat="43.4507618" lon="11.1519447"><ele>115.66666666666666</ele><time>2026-04-29T16:43:54.463Z</time></trkpt><trkpt lat="43.4507138" lon="11.1520216"><ele>116.0</ele><time>2026-04-29T16:43:57.407Z</time></trkpt><trkpt lat="43.4507088" lon="11.1521243"><ele>115.99999999999999</ele><time>2026-04-29T16:43:59.442Z</time></trkpt><trkpt lat="43.4507289" lon="11.1522533"><ele>116.0</ele><time>2026-04-29T16:44:01.385Z</time></trkpt><trkpt lat="43.4507543" lon="11.1523583"><ele>116.0</ele><time>2026-04-29T16:44:03.459Z</time></trkpt><trkpt lat="43.450773" lon="11.1524426"><ele>116.0</ele><time>2026-04-29T16:44:05.365Z</time></trkpt><trkpt lat="43.4508068" lon="11.1525209"><ele>115.99999999999999</ele><time>2026-04-29T16:44:07.377Z</time></trkpt><trkpt lat="43.4508413" lon="11.1525995"><ele>116.0</ele><time>2026-04-29T16:44:09.378Z</time></trkpt><trkpt lat="43.4509014" lon="11.1526874"><ele>117.16666666666666</ele><time>2026-04-29T16:44:12.381Z</time></trkpt><trkpt lat="43.4509639" lon="11.1527634"><ele>118.33333333333333</ele><time>2026-04-29T16:44:15.393Z</time></trkpt><trkpt lat="43.4510314" lon="11.1528484"><ele>119.5</ele><time>2026-04-29T16:44:18.384Z</time></trkpt><trkpt lat="43.4510806" lon="11.1529321"><ele>120.66666666666666</ele><time>2026-04-29T16:44:21.387Z</time></trkpt><trkpt lat="43.4511126" lon="11.1530325"><ele>121.83333333333333</ele><time>2026-04-29T16:44:24.45Z</time></trkpt><trkpt lat="43.4511355" lon="11.1531391"><ele>123.0</ele><time>2026-04-29T16:44:27.386Z</time></trkpt><trkpt lat="43.4511242" lon="11.1532493"><ele>123.66666666666667</ele><time>2026-04-29T16:44:31.373Z</time></trkpt><trkpt lat="43.4510773" lon="11.1533368"><ele>124.33333333333334</ele><time>2026-04-29T16:44:34.456Z</time></trkpt><trkpt lat="43.4510357" lon="11.1534282"><ele>125.0</ele><time>2026-04-29T16:44:36.395Z</time></trkpt><trkpt lat="43.4509872" lon="11.1535258"><ele>125.66666666666667</ele><time>2026-04-29T16:44:38.448Z</time></trkpt><trkpt lat="43.450948" lon="11.153608"><ele>126.33333333333334</ele><time>2026-04-29T16:44:40.379Z</time></trkpt><trkpt lat="43.4509066" lon="11.1536911"><ele>127.0</ele><time>2026-04-29T16:44:42.446Z</time></trkpt><trkpt lat="43.4508406" lon="11.1538056"><ele>127.0</ele><time>2026-04-29T16:44:44.382Z</time></trkpt><trkpt lat="43.4508034" lon="11.1538948"><ele>127.0</ele><time>2026-04-29T16:44:46.376Z</time></trkpt><trkpt lat="43.4507663" lon="11.1539719"><ele>127.0</ele><time>2026-04-29T16:44:48.368Z</time></trkpt><trkpt lat="43.4507329" lon="11.1540506"><ele>127.0</ele><time>2026-04-29T16:44:50.383Z</time></trkpt><trkpt lat="43.4506871" lon="11.1541265"><ele>127.0</ele><time>2026-04-29T16:44:52.392Z</time></trkpt><trkpt lat="43.4506486" lon="11.154206"><ele>127.0</ele><time>2026-04-29T16:44:54.375Z</time></trkpt><trkpt lat="43.4506089" lon="11.154287"><ele>127.0</ele><time>2026-04-29T16:44:56.388Z</time></trkpt><trkpt lat="43.4505719" lon="11.1543652"><ele>127.50000000000001</ele><time>2026-04-29T16:44:58.448Z</time></trkpt><trkpt lat="43.4505205" lon="11.1544536"><ele>128.0</ele><time>2026-04-29T16:45:00.378Z</time></trkpt><trkpt lat="43.4504764" lon="11.1545295"><ele>128.5</ele><time>2026-04-29T16:45:02.444Z</time></trkpt><trkpt lat="43.4504089" lon="11.1546563"><ele>129.0</ele><time>2026-04-29T16:45:05.381Z</time></trkpt><trkpt lat="43.4503319" lon="11.1547258"><ele>129.5</ele><time>2026-04-29T16:45:07.375Z</time></trkpt><trkpt lat="43.4502723" lon="11.1547677"><ele>130.0</ele><time>2026-04-29T16:45:09.442Z</time></trkpt><trkpt lat="43.4502078" lon="11.1547946"><ele>130.0</ele><time>2026-04-29T16:45:11.376Z</time></trkpt><trkpt lat="43.45014" lon="11.1548112"><ele>130.0</ele><time>2026-04-29T16:45:13.454Z</time></trkpt><trkpt lat="43.4500763" lon="11.1548264"><ele>130.0</ele><time>2026-04-29T16:45:15.358Z</time></trkpt><trkpt lat="43.4499787" lon="11.1548003"><ele>130.0</ele><time>2026-04-29T16:45:17.377Z</time></trkpt><trkpt lat="43.4498926" lon="11.1547945"><ele>130.0</ele><time>2026-04-29T16:45:19.383Z</time></trkpt><trkpt lat="43.4498035" lon="11.1547914"><ele>130.0</ele><time>2026-04-29T16:45:22.384Z</time></trkpt><trkpt lat="43.4497329" lon="11.1548215"><ele>130.0</ele><time>2026-04-29T16:45:24.368Z</time></trkpt><trkpt lat="43.4496542" lon="11.1548447"><ele>130.0</ele><time>2026-04-29T16:45:26.379Z</time></trkpt><trkpt lat="43.4495679" lon="11.1548559"><ele>130.0</ele><time>2026-04-29T16:45:28.377Z</time></trkpt><trkpt lat="43.4494818" lon="11.1548811"><ele>130.0</ele><time>2026-04-29T16:45:30.377Z</time></trkpt><trkpt lat="43.4493925" lon="11.1549004"><ele>130.0</ele><time>2026-04-29T16:45:32.452Z</time></trkpt><trkpt lat="43.4493114" lon="11.1549238"><ele>130.0</ele><time>2026-04-29T16:45:34.471Z</time></trkpt><trkpt lat="43.4492247" lon="11.1549321"><ele>129.8</ele><time>2026-04-29T16:45:36.386Z</time></trkpt><trkpt lat="43.4491212" lon="11.1549377"><ele>129.6</ele><time>2026-04-29T16:45:38.449Z</time></trkpt><trkpt lat="43.4490254" lon="11.1549362"><ele>129.4</ele><time>2026-04-29T16:45:40.376Z</time></trkpt><trkpt lat="43.4489356" lon="11.1549581"><ele>129.2</ele><time>2026-04-29T16:45:42.378Z</time></trkpt><trkpt lat="43.4488421" lon="11.1549654"><ele>129.0</ele><time>2026-04-29T16:45:44.395Z</time></trkpt><trkpt lat="43.4487558" lon="11.1550005"><ele>129.0</ele><time>2026-04-29T16:45:46.374Z</time></trkpt><trkpt lat="43.4486769" lon="11.1550101"><ele>129.0</ele><time>2026-04-29T16:45:48.449Z</time></trkpt><trkpt lat="43.4485959" lon="11.1550454"><ele>129.0</ele><time>2026-04-29T16:45:50.38Z</time></trkpt><trkpt lat="43.4485264" lon="11.155088"><ele>129.0</ele><time>2026-04-29T16:45:52.391Z</time></trkpt><trkpt lat="43.4484457" lon="11.1551523"><ele>129.0</ele><time>2026-04-29T16:45:54.457Z</time></trkpt><trkpt lat="43.4483813" lon="11.1552057"><ele>129.0</ele><time>2026-04-29T16:45:56.383Z</time></trkpt><trkpt lat="43.4483182" lon="11.1552752"><ele>129.0</ele><time>2026-04-29T16:45:58.381Z</time></trkpt><trkpt lat="43.448261" lon="11.1553293"><ele>129.0</ele><time>2026-04-29T16:46:00.378Z</time></trkpt><trkpt lat="43.4482032" lon="11.1553801"><ele>129.0</ele><time>2026-04-29T16:46:02.387Z</time></trkpt><trkpt lat="43.4481446" lon="11.1554329"><ele>129.0</ele><time>2026-04-29T16:46:04.444Z</time></trkpt><trkpt lat="43.4480818" lon="11.1555023"><ele>129.0</ele><time>2026-04-29T16:46:07.458Z</time></trkpt><trkpt lat="43.4480229" lon="11.1555806"><ele>129.0</ele><time>2026-04-29T16:46:09.464Z</time></trkpt><trkpt lat="43.4479353" lon="11.1556536"><ele>129.66666666666666</ele><time>2026-04-29T16:46:11.384Z</time></trkpt><trkpt lat="43.4478559" lon="11.1557154"><ele>130.33333333333334</ele><time>2026-04-29T16:46:13.448Z</time></trkpt><trkpt lat="43.4477825" lon="11.1557863"><ele>131.0</ele><time>2026-04-29T16:46:15.364Z</time></trkpt><trkpt lat="43.4477079" lon="11.1558505"><ele>131.66666666666669</ele><time>2026-04-29T16:46:17.377Z</time></trkpt><trkpt lat="43.4476309" lon="11.155905"><ele>132.33333333333334</ele><time>2026-04-29T16:46:19.449Z</time></trkpt><trkpt lat="43.4475407" lon="11.1559244"><ele>133.0</ele><time>2026-04-29T16:46:21.38Z</time></trkpt><trkpt lat="43.4474567" lon="11.1559465"><ele>133.0</ele><time>2026-04-29T16:46:23.444Z</time></trkpt><trkpt lat="43.4473588" lon="11.1559777"><ele>133.0</ele><time>2026-04-29T16:46:25.374Z</time></trkpt><trkpt lat="43.4472955" lon="11.1559921"><ele>133.0</ele><time>2026-04-29T16:46:26.383Z</time></trkpt><trkpt lat="43.4472279" lon="11.1560128"><ele>133.0</ele><time>2026-04-29T16:46:27.371Z</time></trkpt><trkpt lat="43.447156" lon="11.1560297"><ele>133.0</ele><time>2026-04-29T16:46:28.355Z</time></trkpt><trkpt lat="43.4470811" lon="11.1560486"><ele>133.0</ele><time>2026-04-29T16:46:29.376Z</time></trkpt><trkpt lat="43.4470078" lon="11.156068"><ele>131.85714285714286</ele><time>2026-04-29T16:46:30.377Z</time></trkpt><trkpt lat="43.4469356" lon="11.1560835"><ele>130.71428571428572</ele><time>2026-04-29T16:46:31.386Z</time></trkpt><trkpt lat="43.4468667" lon="11.1560985"><ele>129.57142857142856</ele><time>2026-04-29T16:46:32.38Z</time></trkpt><trkpt lat="43.4467972" lon="11.1561148"><ele>128.42857142857144</ele><time>2026-04-29T16:46:33.382Z</time></trkpt><trkpt lat="43.4467286" lon="11.1561302"><ele>127.28571428571429</ele><time>2026-04-29T16:46:34.379Z</time></trkpt><trkpt lat="43.4466603" lon="11.1561468"><ele>126.14285714285714</ele><time>2026-04-29T16:46:35.379Z</time></trkpt><trkpt lat="43.4465929" lon="11.1561622"><ele>125.0</ele><time>2026-04-29T16:46:36.375Z</time></trkpt><trkpt lat="43.4465279" lon="11.1561762"><ele>125.0</ele><time>2026-04-29T16:46:37.377Z</time></trkpt><trkpt lat="43.4464647" lon="11.1561884"><ele>125.0</ele><time>2026-04-29T16:46:38.375Z</time></trkpt><trkpt lat="43.446346" lon="11.1562148"><ele>125.0</ele><time>2026-04-29T16:46:40.379Z</time></trkpt><trkpt lat="43.4462267" lon="11.1562433"><ele>125.0</ele><time>2026-04-29T16:46:42.46Z</time></trkpt><trkpt lat="43.4461171" lon="11.1562631"><ele>125.0</ele><time>2026-04-29T16:46:44.379Z</time></trkpt><trkpt lat="43.446013" lon="11.1562544"><ele>125.4</ele><time>2026-04-29T16:46:46.371Z</time></trkpt><trkpt lat="43.445912" lon="11.1562338"><ele>125.8</ele><time>2026-04-29T16:46:48.452Z</time></trkpt><trkpt lat="43.4458079" lon="11.1562067"><ele>126.19999999999999</ele><time>2026-04-29T16:46:50.381Z</time></trkpt><trkpt lat="43.4457061" lon="11.1561874"><ele>126.6</ele><time>2026-04-29T16:46:52.459Z</time></trkpt><trkpt lat="43.4455972" lon="11.1561743"><ele>127.0</ele><time>2026-04-29T16:46:54.447Z</time></trkpt><trkpt lat="43.4454951" lon="11.1561388"><ele>128.0</ele><time>2026-04-29T16:46:56.38Z</time></trkpt><trkpt lat="43.4453754" lon="11.1560987"><ele>129.0</ele><time>2026-04-29T16:46:58.464Z</time></trkpt><trkpt lat="43.4453133" lon="11.1560838"><ele>130.0</ele><time>2026-04-29T16:46:59.389Z</time></trkpt><trkpt lat="43.4452017" lon="11.1560625"><ele>131.0</ele><time>2026-04-29T16:47:01.378Z</time></trkpt><trkpt lat="43.4450971" lon="11.1560434"><ele>132.0</ele><time>2026-04-29T16:47:03.371Z</time></trkpt><trkpt lat="43.4449939" lon="11.1560193"><ele>132.0</ele><time>2026-04-29T16:47:05.389Z</time></trkpt><trkpt lat="43.4448882" lon="11.1560149"><ele>132.0</ele><time>2026-04-29T16:47:07.378Z</time></trkpt><trkpt lat="43.4447777" lon="11.1560148"><ele>132.0</ele><time>2026-04-29T16:47:09.382Z</time></trkpt><trkpt lat="43.4446614" lon="11.1560241"><ele>132.0</ele><time>2026-04-29T16:47:11.375Z</time></trkpt><trkpt lat="43.4445507" lon="11.1560466"><ele>132.0</ele><time>2026-04-29T16:47:13.378Z</time></trkpt><trkpt lat="43.4444342" lon="11.1560665"><ele>131.5</ele><time>2026-04-29T16:47:15.388Z</time></trkpt><trkpt lat="43.4443709" lon="11.1560828"><ele>131.0</ele><time>2026-04-29T16:47:16.373Z</time></trkpt><trkpt lat="43.4442996" lon="11.156103"><ele>130.5</ele><time>2026-04-29T16:47:17.394Z</time></trkpt><trkpt lat="43.4442268" lon="11.156128"><ele>130.0</ele><time>2026-04-29T16:47:18.444Z</time></trkpt><trkpt lat="43.4441526" lon="11.1561559"><ele>129.5</ele><time>2026-04-29T16:47:19.461Z</time></trkpt><trkpt lat="43.4440027" lon="11.15622"><ele>129.0</ele><time>2026-04-29T16:47:21.358Z</time></trkpt><trkpt lat="43.4439305" lon="11.1562572"><ele>128.99999999999997</ele><time>2026-04-29T16:47:22.377Z</time></trkpt><trkpt lat="43.4438596" lon="11.1562987"><ele>129.0</ele><time>2026-04-29T16:47:23.445Z</time></trkpt><trkpt lat="43.4437897" lon="11.1563424"><ele>129.0</ele><time>2026-04-29T16:47:24.442Z</time></trkpt><trkpt lat="43.4437241" lon="11.1563832"><ele>129.0</ele><time>2026-04-29T16:47:25.381Z</time></trkpt><trkpt lat="43.4436572" lon="11.1564301"><ele>129.0</ele><time>2026-04-29T16:47:26.387Z</time></trkpt><trkpt lat="43.4435955" lon="11.1564826"><ele>128.99999999999997</ele><time>2026-04-29T16:47:27.389Z</time></trkpt><trkpt lat="43.4435339" lon="11.1565306"><ele>129.0</ele><time>2026-04-29T16:47:28.456Z</time></trkpt><trkpt lat="43.4434725" lon="11.1565671"><ele>129.5</ele><time>2026-04-29T16:47:29.449Z</time></trkpt><trkpt lat="43.443377" lon="11.1566071"><ele>130.0</ele><time>2026-04-29T16:47:31.4Z</time></trkpt><trkpt lat="43.4433146" lon="11.1566374"><ele>130.5</ele><time>2026-04-29T16:47:32.384Z</time></trkpt><trkpt lat="43.4432515" lon="11.1566706"><ele>131.0</ele><time>2026-04-29T16:47:33.445Z</time></trkpt><trkpt lat="43.4431581" lon="11.1566537"><ele>131.5</ele><time>2026-04-29T16:47:35.36Z</time></trkpt><trkpt lat="43.4430624" lon="11.156731"><ele>132.0</ele><time>2026-04-29T16:47:37.381Z</time></trkpt><trkpt lat="43.4430018" lon="11.1568075"><ele>132.0</ele><time>2026-04-29T16:47:38.451Z</time></trkpt><trkpt lat="43.4429026" lon="11.1569209"><ele>132.0</ele><time>2026-04-29T16:47:40.372Z</time></trkpt><trkpt lat="43.4428477" lon="11.1569794"><ele>132.0</ele><time>2026-04-29T16:47:41.384Z</time></trkpt><trkpt lat="43.442789" lon="11.1570326"><ele>132.0</ele><time>2026-04-29T16:47:42.389Z</time></trkpt><trkpt lat="43.4427304" lon="11.1570845"><ele>132.0</ele><time>2026-04-29T16:47:43.38Z</time></trkpt><trkpt lat="43.4426746" lon="11.1571274"><ele>132.0</ele><time>2026-04-29T16:47:44.383Z</time></trkpt><trkpt lat="43.4425694" lon="11.1572059"><ele>132.0</ele><time>2026-04-29T16:47:46.391Z</time></trkpt><trkpt lat="43.442479" lon="11.1572934"><ele>132.0</ele><time>2026-04-29T16:47:48.389Z</time></trkpt><trkpt lat="43.4423939" lon="11.1573881"><ele>132.0</ele><time>2026-04-29T16:47:50.38Z</time></trkpt><trkpt lat="43.4423085" lon="11.1574721"><ele>132.0</ele><time>2026-04-29T16:47:52.361Z</time></trkpt><trkpt lat="43.4422267" lon="11.1575602"><ele>132.0</ele><time>2026-04-29T16:47:54.45Z</time></trkpt><trkpt lat="43.442152" lon="11.1576558"><ele>132.0</ele><time>2026-04-29T16:47:56.379Z</time></trkpt><trkpt lat="43.4420756" lon="11.1577378"><ele>132.0</ele><time>2026-04-29T16:47:58.454Z</time></trkpt><trkpt lat="43.4419994" lon="11.1577737"><ele>132.0</ele><time>2026-04-29T16:48:00.386Z</time></trkpt><trkpt lat="43.441919" lon="11.1578724"><ele>132.0</ele><time>2026-04-29T16:48:02.377Z</time></trkpt><trkpt lat="43.441845" lon="11.1579718"><ele>132.0</ele><time>2026-04-29T16:48:04.45Z</time></trkpt><trkpt lat="43.4417728" lon="11.1580424"><ele>132.0</ele><time>2026-04-29T16:48:06.375Z</time></trkpt><trkpt lat="43.4416962" lon="11.1581217"><ele>132.0</ele><time>2026-04-29T16:48:08.452Z</time></trkpt><trkpt lat="43.4416342" lon="11.1581855"><ele>132.0</ele><time>2026-04-29T16:48:10.379Z</time></trkpt><trkpt lat="43.4415561" lon="11.1582723"><ele>132.0</ele><time>2026-04-29T16:48:12.387Z</time></trkpt><trkpt lat="43.4414867" lon="11.158373"><ele>132.0</ele><time>2026-04-29T16:48:14.364Z</time></trkpt><trkpt lat="43.4414281" lon="11.1584822"><ele>132.6</ele><time>2026-04-29T16:48:16.381Z</time></trkpt><trkpt lat="43.4413746" lon="11.1585958"><ele>133.2</ele><time>2026-04-29T16:48:18.387Z</time></trkpt><trkpt lat="43.4413115" lon="11.1587092"><ele>133.8</ele><time>2026-04-29T16:48:20.392Z</time></trkpt><trkpt lat="43.441256" lon="11.1588364"><ele>134.4</ele><time>2026-04-29T16:48:22.405Z</time></trkpt><trkpt lat="43.4412068" lon="11.1589644"><ele>135.0</ele><time>2026-04-29T16:48:24.388Z</time></trkpt><trkpt lat="43.4411488" lon="11.1590931"><ele>135.4</ele><time>2026-04-29T16:48:26.37Z</time></trkpt><trkpt lat="43.4410924" lon="11.1592254"><ele>135.8</ele><time>2026-04-29T16:48:28.452Z</time></trkpt><trkpt lat="43.4410367" lon="11.1593524"><ele>136.2</ele><time>2026-04-29T16:48:30.376Z</time></trkpt><trkpt lat="43.4409796" lon="11.1594712"><ele>136.6</ele><time>2026-04-29T16:48:32.396Z</time></trkpt><trkpt lat="43.440927" lon="11.1596061"><ele>137.0</ele><time>2026-04-29T16:48:34.463Z</time></trkpt><trkpt lat="43.440886" lon="11.1597279"><ele>137.0</ele><time>2026-04-29T16:48:36.399Z</time></trkpt><trkpt lat="43.4408471" lon="11.1598485"><ele>137.0</ele><time>2026-04-29T16:48:38.422Z</time></trkpt><trkpt lat="43.4408052" lon="11.1599686"><ele>137.0</ele><time>2026-04-29T16:48:40.377Z</time></trkpt><trkpt lat="43.4407572" lon="11.1600862"><ele>137.0</ele><time>2026-04-29T16:48:42.456Z</time></trkpt><trkpt lat="43.4407187" lon="11.1601949"><ele>137.0</ele><time>2026-04-29T16:48:44.375Z</time></trkpt><trkpt lat="43.4406909" lon="11.1603281"><ele>137.6</ele><time>2026-04-29T16:48:46.385Z</time></trkpt><trkpt lat="43.4406572" lon="11.1604603"><ele>138.2</ele><time>2026-04-29T16:48:48.445Z</time></trkpt><trkpt lat="43.4406295" lon="11.1605693"><ele>138.8</ele><time>2026-04-29T16:48:50.374Z</time></trkpt><trkpt lat="43.4405953" lon="11.1608017"><ele>139.4</ele><time>2026-04-29T16:48:53.362Z</time></trkpt><trkpt lat="43.4405799" lon="11.1608903"><ele>140.0</ele><time>2026-04-29T16:48:54.378Z</time></trkpt><trkpt lat="43.4405575" lon="11.1610239"><ele>140.0</ele><time>2026-04-29T16:48:56.377Z</time></trkpt><trkpt lat="43.4405479" lon="11.1611381"><ele>140.0</ele><time>2026-04-29T16:48:58.376Z</time></trkpt><trkpt lat="43.4405594" lon="11.1612521"><ele>140.0</ele><time>2026-04-29T16:49:00.383Z</time></trkpt><trkpt lat="43.4406547" lon="11.1613045"><ele>140.0</ele><time>2026-04-29T16:49:02.423Z</time></trkpt><trkpt lat="43.4407445" lon="11.161319"><ele>140.0</ele><time>2026-04-29T16:49:04.469Z</time></trkpt><trkpt lat="43.4408386" lon="11.1613516"><ele>140.0</ele><time>2026-04-29T16:49:06.386Z</time></trkpt><trkpt lat="43.4409164" lon="11.161366"><ele>140.0</ele><time>2026-04-29T16:49:08.455Z</time></trkpt><trkpt lat="43.440996" lon="11.1614019"><ele>140.0</ele><time>2026-04-29T16:49:10.381Z</time></trkpt><trkpt lat="43.4410742" lon="11.1614488"><ele>140.0</ele><time>2026-04-29T16:49:12.38Z</time></trkpt><trkpt lat="43.4411342" lon="11.1614785"><ele>140.0</ele><time>2026-04-29T16:49:14.453Z</time></trkpt><trkpt lat="43.4411885" lon="11.1615407"><ele>140.0</ele><time>2026-04-29T16:49:16.382Z</time></trkpt><trkpt lat="43.4412652" lon="11.1616108"><ele>140.57142857142858</ele><time>2026-04-29T16:49:18.382Z</time></trkpt><trkpt lat="43.4413467" lon="11.1616634"><ele>141.14285714285714</ele><time>2026-04-29T16:49:20.376Z</time></trkpt><trkpt lat="43.4414232" lon="11.1617154"><ele>141.71428571428572</ele><time>2026-04-29T16:49:22.388Z</time></trkpt><trkpt lat="43.4414859" lon="11.1617584"><ele>142.28571428571428</ele><time>2026-04-29T16:49:24.395Z</time></trkpt><trkpt lat="43.4415452" lon="11.1617952"><ele>142.85714285714286</ele><time>2026-04-29T16:49:26.376Z</time></trkpt><trkpt lat="43.4416078" lon="11.1618181"><ele>143.42857142857144</ele><time>2026-04-29T16:49:28.382Z</time></trkpt><trkpt lat="43.4416655" lon="11.1618637"><ele>144.0</ele><time>2026-04-29T16:49:31.39Z</time></trkpt><trkpt lat="43.4416884" lon="11.161947"><ele>144.00000000000003</ele><time>2026-04-29T16:49:35.388Z</time></trkpt><trkpt lat="43.441733" lon="11.1620085"><ele>144.0</ele><time>2026-04-29T16:49:39.383Z</time></trkpt><trkpt lat="43.4417954" lon="11.1619867"><ele>144.0</ele><time>2026-04-29T16:50:19.448Z</time></trkpt><trkpt lat="43.4417342" lon="11.1619222"><ele>144.0</ele><time>2026-04-29T16:51:04.478Z</time></trkpt><trkpt lat="43.4417305" lon="11.1620111"><ele>144.0</ele><time>2026-04-29T16:52:43.457Z</time></trkpt><trkpt lat="43.4416549" lon="11.1620067"><ele>144.00000000000003</ele><time>2026-04-29T16:53:24.383Z</time></trkpt><trkpt lat="43.4415746" lon="11.1620016"><ele>144.0</ele><time>2026-04-29T16:53:28.482Z</time></trkpt><trkpt lat="43.4415034" lon="11.1620185"><ele>144.0</ele><time>2026-04-29T16:53:31.386Z</time></trkpt><trkpt lat="43.4414453" lon="11.1621147"><ele>144.0</ele><time>2026-04-29T16:53:34.378Z</time></trkpt><trkpt lat="43.441439" lon="11.1622053"><ele>144.0</ele><time>2026-04-29T16:53:38.366Z</time></trkpt><trkpt lat="43.4414058" lon="11.1623226"><ele>144.0</ele><time>2026-04-29T16:53:44.387Z</time></trkpt><trkpt lat="43.4413654" lon="11.1624193"><ele>144.0</ele><time>2026-04-29T16:53:46.387Z</time></trkpt><trkpt lat="43.4413468" lon="11.1625217"><ele>144.0</ele><time>2026-04-29T16:53:48.359Z</time></trkpt><trkpt lat="43.4412833" lon="11.1625094"><ele>144.0</ele><time>2026-04-29T16:53:50.382Z</time></trkpt><trkpt lat="43.4412099" lon="11.1625648"><ele>144.0</ele><time>2026-04-29T16:53:53.379Z</time></trkpt><trkpt lat="43.4412126" lon="11.1626619"><ele>144.0</ele><time>2026-04-29T16:53:55.365Z</time></trkpt><trkpt lat="43.441161" lon="11.1627591"><ele>144.0</ele><time>2026-04-29T16:53:58.385Z</time></trkpt><trkpt lat="43.4411152" lon="11.1628255"><ele>144.0</ele><time>2026-04-29T16:54:00.387Z</time></trkpt><trkpt lat="43.441104" lon="11.162928"><ele>144.0</ele><time>2026-04-29T16:54:02.384Z</time></trkpt><trkpt lat="43.4411238" lon="11.1630186"><ele>144.00000000000003</ele><time>2026-04-29T16:54:04.394Z</time></trkpt><trkpt lat="43.4411437" lon="11.1631067"><ele>144.0</ele><time>2026-04-29T16:54:06.364Z</time></trkpt><trkpt lat="43.4411665" lon="11.1631942"><ele>144.0</ele><time>2026-04-29T16:54:08.398Z</time></trkpt><trkpt lat="43.4411917" lon="11.1632784"><ele>144.0</ele><time>2026-04-29T16:54:10.377Z</time></trkpt><trkpt lat="43.4412234" lon="11.1633973"><ele>144.0</ele><time>2026-04-29T16:54:13.383Z</time></trkpt><trkpt lat="43.4412489" lon="11.1634767"><ele>144.00000000000003</ele><time>2026-04-29T16:54:15.379Z</time></trkpt><trkpt lat="43.4412801" lon="11.1635592"><ele>144.0</ele><time>2026-04-29T16:54:17.392Z</time></trkpt><trkpt lat="43.4413057" lon="11.1636415"><ele>144.83333333333334</ele><time>2026-04-29T16:54:19.394Z</time></trkpt><trkpt lat="43.4413304" lon="11.163723"><ele>145.66666666666666</ele><time>2026-04-29T16:54:21.386Z</time></trkpt><trkpt lat="43.4413531" lon="11.1638107"><ele>146.5</ele><time>2026-04-29T16:54:23.378Z</time></trkpt><trkpt lat="43.4413745" lon="11.1638977"><ele>147.33333333333331</ele><time>2026-04-29T16:54:25.383Z</time></trkpt><trkpt lat="43.4414085" lon="11.1640059"><ele>148.16666666666666</ele><time>2026-04-29T16:54:28.38Z</time></trkpt><trkpt lat="43.4414413" lon="11.1641032"><ele>149.0</ele><time>2026-04-29T16:54:31.365Z</time></trkpt><trkpt lat="43.4414908" lon="11.164207"><ele>149.16666666666666</ele><time>2026-04-29T16:54:34.384Z</time></trkpt><trkpt lat="43.4415308" lon="11.1643141"><ele>149.33333333333331</ele><time>2026-04-29T16:54:36.379Z</time></trkpt><trkpt lat="43.4415487" lon="11.1644297"><ele>149.5</ele><time>2026-04-29T16:54:38.39Z</time></trkpt><trkpt lat="43.4415803" lon="11.1645229"><ele>149.66666666666666</ele><time>2026-04-29T16:54:40.399Z</time></trkpt><trkpt lat="43.4416117" lon="11.1646033"><ele>149.83333333333334</ele><time>2026-04-29T16:54:42.398Z</time></trkpt><trkpt lat="43.4416493" lon="11.164687"><ele>150.0</ele><time>2026-04-29T16:54:44.383Z</time></trkpt><trkpt lat="43.4416748" lon="11.164777"><ele>150.14285714285714</ele><time>2026-04-29T16:54:46.383Z</time></trkpt><trkpt lat="43.4416939" lon="11.1648696"><ele>150.28571428571428</ele><time>2026-04-29T16:54:48.39Z</time></trkpt><trkpt lat="43.441721" lon="11.164957"><ele>150.42857142857144</ele><time>2026-04-29T16:54:50.401Z</time></trkpt><trkpt lat="43.4417445" lon="11.1650471"><ele>150.57142857142856</ele><time>2026-04-29T16:54:52.384Z</time></trkpt><trkpt lat="43.4417674" lon="11.1651315"><ele>150.71428571428572</ele><time>2026-04-29T16:54:54.379Z</time></trkpt><trkpt lat="43.4417967" lon="11.1652139"><ele>150.85714285714286</ele><time>2026-04-29T16:54:56.391Z</time></trkpt><trkpt lat="43.4418228" lon="11.1653071"><ele>151.0</ele><time>2026-04-29T16:54:58.39Z</time></trkpt><trkpt lat="43.4418446" lon="11.1653911"><ele>151.0</ele><time>2026-04-29T16:55:00.389Z</time></trkpt><trkpt lat="43.4418653" lon="11.1654855"><ele>151.0</ele><time>2026-04-29T16:55:03.402Z</time></trkpt><trkpt lat="43.4419062" lon="11.1655679"><ele>151.0</ele><time>2026-04-29T16:55:07.399Z</time></trkpt><trkpt lat="43.4419393" lon="11.1656439"><ele>151.0</ele><time>2026-04-29T16:55:09.387Z</time></trkpt><trkpt lat="43.4419669" lon="11.1657221"><ele>151.0</ele><time>2026-04-29T16:55:11.393Z</time></trkpt><trkpt lat="43.441997" lon="11.1658485"><ele>151.0</ele><time>2026-04-29T16:55:14.392Z</time></trkpt><trkpt lat="43.4420293" lon="11.1659637"><ele>150.66666666666669</ele><time>2026-04-29T16:55:17.368Z</time></trkpt><trkpt lat="43.4420691" lon="11.1660661"><ele>150.33333333333334</ele><time>2026-04-29T16:55:20.4Z</time></trkpt><trkpt lat="43.4420964" lon="11.1661589"><ele>150.0</ele><time>2026-04-29T16:55:23.398Z</time></trkpt><trkpt lat="43.4421005" lon="11.1662508"><ele>149.66666666666666</ele><time>2026-04-29T16:55:26.397Z</time></trkpt><trkpt lat="43.4420451" lon="11.166337"><ele>149.33333333333331</ele><time>2026-04-29T16:55:29.384Z</time></trkpt><trkpt lat="43.4419317" lon="11.1663873"><ele>149.0</ele><time>2026-04-29T16:55:31.398Z</time></trkpt><trkpt lat="43.4418614" lon="11.1664193"><ele>149.0</ele><time>2026-04-29T16:55:32.388Z</time></trkpt><trkpt lat="43.4417953" lon="11.1664494"><ele>149.0</ele><time>2026-04-29T16:55:33.388Z</time></trkpt><trkpt lat="43.441736" lon="11.1664855"><ele>149.0</ele><time>2026-04-29T16:55:34.383Z</time></trkpt><trkpt lat="43.4416695" lon="11.1665328"><ele>149.0</ele><time>2026-04-29T16:55:35.391Z</time></trkpt><trkpt lat="43.4416093" lon="11.1665984"><ele>149.0</ele><time>2026-04-29T16:55:36.378Z</time></trkpt><trkpt lat="43.4415728" lon="11.1667048"><ele>149.0</ele><time>2026-04-29T16:55:37.389Z</time></trkpt><trkpt lat="43.4415465" lon="11.1668139"><ele>149.0</ele><time>2026-04-29T16:55:38.381Z</time></trkpt><trkpt lat="43.4415312" lon="11.1669052"><ele>149.0</ele><time>2026-04-29T16:55:39.396Z</time></trkpt><trkpt lat="43.4415351" lon="11.1670055"><ele>149.0</ele><time>2026-04-29T16:55:40.384Z</time></trkpt><trkpt lat="43.4415647" lon="11.1670974"><ele>149.0</ele><time>2026-04-29T16:55:41.398Z</time></trkpt><trkpt lat="43.4416004" lon="11.1671825"><ele>149.0</ele><time>2026-04-29T16:55:42.385Z</time></trkpt><trkpt lat="43.4416386" lon="11.1672583"><ele>149.0</ele><time>2026-04-29T16:55:43.393Z</time></trkpt><trkpt lat="43.4416816" lon="11.167327"><ele>149.0</ele><time>2026-04-29T16:55:44.394Z</time></trkpt><trkpt lat="43.4417209" lon="11.1673953"><ele>148.75</ele><time>2026-04-29T16:55:45.378Z</time></trkpt><trkpt lat="43.4417914" lon="11.1675267"><ele>148.5</ele><time>2026-04-29T16:55:47.382Z</time></trkpt><trkpt lat="43.4418627" lon="11.1676493"><ele>148.25</ele><time>2026-04-29T16:55:49.379Z</time></trkpt><trkpt lat="43.4419295" lon="11.1677718"><ele>148.0</ele><time>2026-04-29T16:55:51.383Z</time></trkpt><trkpt lat="43.4419769" lon="11.1679075"><ele>148.0</ele><time>2026-04-29T16:55:53.381Z</time></trkpt><trkpt lat="43.4420256" lon="11.1680394"><ele>148.0</ele><time>2026-04-29T16:55:55.387Z</time></trkpt><trkpt lat="43.4420746" lon="11.1681759"><ele>148.0</ele><time>2026-04-29T16:55:57.383Z</time></trkpt><trkpt lat="43.4421145" lon="11.1683127"><ele>148.0</ele><time>2026-04-29T16:55:59.389Z</time></trkpt><trkpt lat="43.442166" lon="11.1684422"><ele>148.0</ele><time>2026-04-29T16:56:01.38Z</time></trkpt><trkpt lat="43.4422105" lon="11.1685779"><ele>148.5</ele><time>2026-04-29T16:56:03.383Z</time></trkpt><trkpt lat="43.4422555" lon="11.168718"><ele>149.0</ele><time>2026-04-29T16:56:05.401Z</time></trkpt><trkpt lat="43.4423082" lon="11.1688686"><ele>149.5</ele><time>2026-04-29T16:56:07.388Z</time></trkpt><trkpt lat="43.4423656" lon="11.1690165"><ele>150.0</ele><time>2026-04-29T16:56:09.393Z</time></trkpt><trkpt lat="43.442402" lon="11.1691707"><ele>148.85714285714283</ele><time>2026-04-29T16:56:11.402Z</time></trkpt><trkpt lat="43.4423994" lon="11.169258"><ele>147.71428571428572</ele><time>2026-04-29T16:56:12.393Z</time></trkpt><trkpt lat="43.4423893" lon="11.1693497"><ele>146.57142857142856</ele><time>2026-04-29T16:56:13.39Z</time></trkpt><trkpt lat="43.4423532" lon="11.1694418"><ele>145.42857142857142</ele><time>2026-04-29T16:56:14.397Z</time></trkpt><trkpt lat="43.4422931" lon="11.169515"><ele>144.28571428571428</ele><time>2026-04-29T16:56:15.394Z</time></trkpt><trkpt lat="43.4422251" lon="11.1695718"><ele>143.14285714285714</ele><time>2026-04-29T16:56:16.392Z</time></trkpt><trkpt lat="43.4421535" lon="11.1696272"><ele>142.0</ele><time>2026-04-29T16:56:17.392Z</time></trkpt><trkpt lat="43.4420847" lon="11.1696865"><ele>142.0</ele><time>2026-04-29T16:56:18.396Z</time></trkpt><trkpt lat="43.4420189" lon="11.1697495"><ele>142.0</ele><time>2026-04-29T16:56:19.4Z</time></trkpt><trkpt lat="43.4419581" lon="11.1698035"><ele>142.0</ele><time>2026-04-29T16:56:20.4Z</time></trkpt><trkpt lat="43.4419033" lon="11.1698577"><ele>142.0</ele><time>2026-04-29T16:56:21.391Z</time></trkpt><trkpt lat="43.4418532" lon="11.1699185"><ele>142.0</ele><time>2026-04-29T16:56:22.39Z</time></trkpt><trkpt lat="43.4418007" lon="11.1699769"><ele>142.0</ele><time>2026-04-29T16:56:23.387Z</time></trkpt><trkpt lat="43.4417133" lon="11.1700384"><ele>140.5</ele><time>2026-04-29T16:56:25.395Z</time></trkpt><trkpt lat="43.4416644" lon="11.1700951"><ele>139.0</ele><time>2026-04-29T16:56:28.4Z</time></trkpt><trkpt lat="43.4417223" lon="11.1702011"><ele>137.5</ele><time>2026-04-29T16:56:31.402Z</time></trkpt><trkpt lat="43.4417825" lon="11.1702599"><ele>136.0</ele><time>2026-04-29T16:56:33.383Z</time></trkpt><trkpt lat="43.4418324" lon="11.1703303"><ele>134.5</ele><time>2026-04-29T16:56:37.381Z</time></trkpt><trkpt lat="43.4419182" lon="11.1704493"><ele>133.0</ele><time>2026-04-29T16:56:41.378Z</time></trkpt><trkpt lat="43.4419772" lon="11.1705337"><ele>133.0</ele><time>2026-04-29T16:56:43.376Z</time></trkpt><trkpt lat="43.442032" lon="11.1706221"><ele>133.0</ele><time>2026-04-29T16:56:45.388Z</time></trkpt><trkpt lat="43.4420836" lon="11.1707163"><ele>133.0</ele><time>2026-04-29T16:56:47.395Z</time></trkpt><trkpt lat="43.4421278" lon="11.1707983"><ele>133.0</ele><time>2026-04-29T16:56:49.37Z</time></trkpt><trkpt lat="43.4421856" lon="11.1708767"><ele>133.0</ele><time>2026-04-29T16:56:51.379Z</time></trkpt><trkpt lat="43.4422352" lon="11.17094"><ele>133.0</ele><time>2026-04-29T16:56:53.381Z</time></trkpt><trkpt lat="43.4422996" lon="11.1710135"><ele>132.71428571428572</ele><time>2026-04-29T16:56:56.372Z</time></trkpt><trkpt lat="43.4423509" lon="11.1710799"><ele>132.42857142857144</ele><time>2026-04-29T16:56:59.447Z</time></trkpt><trkpt lat="43.4424057" lon="11.1711493"><ele>132.14285714285714</ele><time>2026-04-29T16:57:02.367Z</time></trkpt><trkpt lat="43.4424624" lon="11.1712221"><ele>131.85714285714286</ele><time>2026-04-29T16:57:06.381Z</time></trkpt><trkpt lat="43.4425137" lon="11.1712829"><ele>131.57142857142858</ele><time>2026-04-29T16:57:10.366Z</time></trkpt><trkpt lat="43.4425706" lon="11.1713443"><ele>131.28571428571428</ele><time>2026-04-29T16:57:14.454Z</time></trkpt><trkpt lat="43.4426451" lon="11.1713938"><ele>131.0</ele><time>2026-04-29T16:57:18.449Z</time></trkpt><trkpt lat="43.4427176" lon="11.1714002"><ele>131.0</ele><time>2026-04-29T16:57:21.398Z</time></trkpt><trkpt lat="43.4427333" lon="11.1714975"><ele>131.0</ele><time>2026-04-29T16:57:27.383Z</time></trkpt><trkpt lat="43.4427777" lon="11.1715739"><ele>131.0</ele><time>2026-04-29T16:57:33.385Z</time></trkpt><trkpt lat="43.4427703" lon="11.1716721"><ele>131.0</ele><time>2026-04-29T16:57:40.394Z</time></trkpt><trkpt lat="43.4428172" lon="11.1717312"><ele>131.0</ele><time>2026-04-29T16:57:45.382Z</time></trkpt><trkpt lat="43.4428748" lon="11.1717911"><ele>131.0</ele><time>2026-04-29T16:57:50.364Z</time></trkpt><trkpt lat="43.4429424" lon="11.1718463"><ele>131.0</ele><time>2026-04-29T16:57:53.448Z</time></trkpt><trkpt lat="43.4430311" lon="11.1718823"><ele>132.42857142857144</ele><time>2026-04-29T16:57:57.381Z</time></trkpt><trkpt lat="43.4430781" lon="11.1719506"><ele>133.85714285714286</ele><time>2026-04-29T16:58:03.378Z</time></trkpt><trkpt lat="43.4431443" lon="11.1719983"><ele>135.28571428571428</ele><time>2026-04-29T16:58:08.464Z</time></trkpt><trkpt lat="43.4432073" lon="11.1720163"><ele>136.71428571428572</ele><time>2026-04-29T16:58:12.473Z</time></trkpt><trkpt lat="43.4432492" lon="11.1720862"><ele>138.14285714285714</ele><time>2026-04-29T16:58:17.388Z</time></trkpt><trkpt lat="43.44333" lon="11.1721651"><ele>139.57142857142858</ele><time>2026-04-29T16:58:23.433Z</time></trkpt><trkpt lat="43.4433059" lon="11.1722574"><ele>141.0</ele><time>2026-04-29T16:58:27.351Z</time></trkpt><trkpt lat="43.4433714" lon="11.1723062"><ele>141.0</ele><time>2026-04-29T16:58:33.369Z</time></trkpt><trkpt lat="43.443431" lon="11.1723418"><ele>141.0</ele><time>2026-04-29T16:58:38.364Z</time></trkpt><trkpt lat="43.4434916" lon="11.172366"><ele>141.0</ele><time>2026-04-29T16:58:44.46Z</time></trkpt><trkpt lat="43.4435323" lon="11.1724367"><ele>141.0</ele><time>2026-04-29T16:58:50.371Z</time></trkpt><trkpt lat="43.4435951" lon="11.1724681"><ele>141.0</ele><time>2026-04-29T16:58:56.357Z</time></trkpt><trkpt lat="43.4436547" lon="11.1725114"><ele>141.0</ele><time>2026-04-29T16:59:01.37Z</time></trkpt><trkpt lat="43.4437206" lon="11.1725439"><ele>141.0</ele><time>2026-04-29T16:59:09.366Z</time></trkpt><trkpt lat="43.4437877" lon="11.1725527"><ele>143.57142857142858</ele><time>2026-04-29T16:59:25.372Z</time></trkpt><trkpt lat="43.4438451" lon="11.1725995"><ele>146.14285714285714</ele><time>2026-04-29T16:59:27.36Z</time></trkpt><trkpt lat="43.4439058" lon="11.1726303"><ele>148.71428571428572</ele><time>2026-04-29T16:59:30.346Z</time></trkpt><trkpt lat="43.443969" lon="11.1726822"><ele>151.28571428571428</ele><time>2026-04-29T16:59:35.341Z</time></trkpt><trkpt lat="43.4440488" lon="11.1727013"><ele>153.85714285714286</ele><time>2026-04-29T16:59:41.372Z</time></trkpt><trkpt lat="43.4441086" lon="11.1727363"><ele>156.42857142857142</ele><time>2026-04-29T16:59:47.36Z</time></trkpt><trkpt lat="43.4441732" lon="11.172808"><ele>159.0</ele><time>2026-04-29T16:59:58.44Z</time></trkpt><trkpt lat="43.4442568" lon="11.1727971"><ele>159.0</ele><time>2026-04-29T17:00:04.365Z</time></trkpt><trkpt lat="43.4443169" lon="11.1727604"><ele>159.0</ele><time>2026-04-29T17:00:06.375Z</time></trkpt><trkpt lat="43.4443555" lon="11.1728347"><ele>159.0</ele><time>2026-04-29T17:00:11.369Z</time></trkpt><trkpt lat="43.4444197" lon="11.1728997"><ele>159.0</ele><time>2026-04-29T17:00:16.368Z</time></trkpt><trkpt lat="43.4444851" lon="11.1729124"><ele>159.0</ele><time>2026-04-29T17:00:21.367Z</time></trkpt><trkpt lat="43.4445471" lon="11.1729292"><ele>159.0</ele><time>2026-04-29T17:00:27.38Z</time></trkpt><trkpt lat="43.4446167" lon="11.172955"><ele>159.0</ele><time>2026-04-29T17:00:33.379Z</time></trkpt><trkpt lat="43.4446851" lon="11.17298"><ele>160.57142857142856</ele><time>2026-04-29T17:00:39.442Z</time></trkpt><trkpt lat="43.4447506" lon="11.1730036"><ele>162.14285714285717</ele><time>2026-04-29T17:00:44.441Z</time></trkpt><trkpt lat="43.4447705" lon="11.1731085"><ele>163.71428571428572</ele><time>2026-04-29T17:00:51.361Z</time></trkpt><trkpt lat="43.4448184" lon="11.1731783"><ele>165.28571428571428</ele><time>2026-04-29T17:00:57.37Z</time></trkpt><trkpt lat="43.4448548" lon="11.1732505"><ele>166.85714285714283</ele><time>2026-04-29T17:01:02.369Z</time></trkpt><trkpt lat="43.4448872" lon="11.1733413"><ele>168.42857142857144</ele><time>2026-04-29T17:01:08.43Z</time></trkpt><trkpt lat="43.4449161" lon="11.1734241"><ele>170.0</ele><time>2026-04-29T17:01:14.389Z</time></trkpt><trkpt lat="43.4449495" lon="11.1735284"><ele>170.57142857142858</ele><time>2026-04-29T17:01:22.373Z</time></trkpt><trkpt lat="43.4449787" lon="11.1736114"><ele>171.14285714285714</ele><time>2026-04-29T17:01:28.437Z</time></trkpt><trkpt lat="43.4450208" lon="11.1736868"><ele>171.71428571428572</ele><time>2026-04-29T17:01:30.366Z</time></trkpt><trkpt lat="43.4450291" lon="11.1737803"><ele>172.28571428571428</ele><time>2026-04-29T17:01:39.366Z</time></trkpt><trkpt lat="43.4450342" lon="11.1738759"><ele>172.85714285714286</ele><time>2026-04-29T17:01:44.375Z</time></trkpt><trkpt lat="43.4450299" lon="11.1739759"><ele>173.42857142857142</ele><time>2026-04-29T17:01:48.429Z</time></trkpt><trkpt lat="43.4450389" lon="11.1740674"><ele>174.0</ele><time>2026-04-29T17:01:53.447Z</time></trkpt><trkpt lat="43.4450213" lon="11.1741509"><ele>174.5</ele><time>2026-04-29T17:01:57.353Z</time></trkpt><trkpt lat="43.4450097" lon="11.1742439"><ele>175.0</ele><time>2026-04-29T17:02:01.359Z</time></trkpt><trkpt lat="43.4449946" lon="11.17436"><ele>175.5</ele><time>2026-04-29T17:02:05.359Z</time></trkpt><trkpt lat="43.4449503" lon="11.1744515"><ele>176.0</ele><time>2026-04-29T17:02:09.361Z</time></trkpt><trkpt lat="43.4449232" lon="11.1745525"><ele>176.5</ele><time>2026-04-29T17:02:13.369Z</time></trkpt><trkpt lat="43.4448935" lon="11.1746305"><ele>177.0</ele><time>2026-04-29T17:02:16.364Z</time></trkpt><trkpt lat="43.4448706" lon="11.1747384"><ele>177.0</ele><time>2026-04-29T17:02:19.426Z</time></trkpt><trkpt lat="43.4448641" lon="11.1748297"><ele>177.0</ele><time>2026-04-29T17:02:21.365Z</time></trkpt><trkpt lat="43.4448359" lon="11.1749136"><ele>177.0</ele><time>2026-04-29T17:02:24.439Z</time></trkpt><trkpt lat="43.4448087" lon="11.1749991"><ele>177.0</ele><time>2026-04-29T17:02:27.372Z</time></trkpt><trkpt lat="43.4447799" lon="11.1750947"><ele>177.0</ele><time>2026-04-29T17:02:30.369Z</time></trkpt><trkpt lat="43.4447588" lon="11.1751794"><ele>177.0</ele><time>2026-04-29T17:02:33.379Z</time></trkpt><trkpt lat="43.4447321" lon="11.1752582"><ele>177.0</ele><time>2026-04-29T17:02:36.361Z</time></trkpt><trkpt lat="43.4446732" lon="11.1753802"><ele>177.14285714285714</ele><time>2026-04-29T17:02:41.382Z</time></trkpt><trkpt lat="43.4446308" lon="11.1754529"><ele>177.28571428571428</ele><time>2026-04-29T17:02:44.381Z</time></trkpt><trkpt lat="43.4445869" lon="11.1755374"><ele>177.42857142857142</ele><time>2026-04-29T17:02:48.371Z</time></trkpt><trkpt lat="43.444538" lon="11.1756306"><ele>177.57142857142856</ele><time>2026-04-29T17:02:52.378Z</time></trkpt><trkpt lat="43.4444984" lon="11.1757031"><ele>177.71428571428572</ele><time>2026-04-29T17:02:55.361Z</time></trkpt><trkpt lat="43.4444613" lon="11.1757796"><ele>177.85714285714283</ele><time>2026-04-29T17:02:58.361Z</time></trkpt><trkpt lat="43.4444215" lon="11.1758691"><ele>178.0</ele><time>2026-04-29T17:03:02.354Z</time></trkpt><trkpt lat="43.4443816" lon="11.1759569"><ele>177.7142857142857</ele><time>2026-04-29T17:03:06.365Z</time></trkpt><trkpt lat="43.4443356" lon="11.1760412"><ele>177.42857142857142</ele><time>2026-04-29T17:03:10.368Z</time></trkpt><trkpt lat="43.4442931" lon="11.1761113"><ele>177.14285714285714</ele><time>2026-04-29T17:03:13.372Z</time></trkpt><trkpt lat="43.44425" lon="11.1762058"><ele>176.85714285714283</ele><time>2026-04-29T17:03:17.381Z</time></trkpt><trkpt lat="43.4442116" lon="11.176284"><ele>176.57142857142856</ele><time>2026-04-29T17:03:20.373Z</time></trkpt><trkpt lat="43.4441614" lon="11.1763735"><ele>176.28571428571428</ele><time>2026-04-29T17:03:24.376Z</time></trkpt><trkpt lat="43.4441226" lon="11.1764449"><ele>176.0</ele><time>2026-04-29T17:03:27.355Z</time></trkpt><trkpt lat="43.4440729" lon="11.1765362"><ele>177.16666666666666</ele><time>2026-04-29T17:03:31.367Z</time></trkpt><trkpt lat="43.4440294" lon="11.1766037"><ele>178.33333333333331</ele><time>2026-04-29T17:03:34.361Z</time></trkpt><trkpt lat="43.4439951" lon="11.1766784"><ele>179.5</ele><time>2026-04-29T17:03:37.349Z</time></trkpt><trkpt lat="43.4439532" lon="11.1767666"><ele>180.66666666666666</ele><time>2026-04-29T17:03:40.376Z</time></trkpt><trkpt lat="43.4439001" lon="11.1768678"><ele>181.83333333333334</ele><time>2026-04-29T17:03:43.361Z</time></trkpt><trkpt lat="43.4438662" lon="11.176956"><ele>183.0</ele><time>2026-04-29T17:03:46.366Z</time></trkpt><trkpt lat="43.4438301" lon="11.1770784"><ele>183.28571428571428</ele><time>2026-04-29T17:03:49.365Z</time></trkpt><trkpt lat="43.4437915" lon="11.1771627"><ele>183.57142857142858</ele><time>2026-04-29T17:03:51.38Z</time></trkpt><trkpt lat="43.4437429" lon="11.1772436"><ele>183.85714285714283</ele><time>2026-04-29T17:03:53.37Z</time></trkpt><trkpt lat="43.4436971" lon="11.1773362"><ele>184.14285714285714</ele><time>2026-04-29T17:03:55.368Z</time></trkpt><trkpt lat="43.4436452" lon="11.1774168"><ele>184.42857142857142</ele><time>2026-04-29T17:03:57.394Z</time></trkpt><trkpt lat="43.443604" lon="11.1774908"><ele>184.7142857142857</ele><time>2026-04-29T17:03:59.385Z</time></trkpt><trkpt lat="43.4435595" lon="11.1775639"><ele>185.0</ele><time>2026-04-29T17:04:01.38Z</time></trkpt><trkpt lat="43.4435106" lon="11.1776405"><ele>185.0</ele><time>2026-04-29T17:04:03.365Z</time></trkpt><trkpt lat="43.4434546" lon="11.1777298"><ele>185.0</ele><time>2026-04-29T17:04:05.378Z</time></trkpt><trkpt lat="43.443402" lon="11.1778201"><ele>185.0</ele><time>2026-04-29T17:04:07.382Z</time></trkpt><trkpt lat="43.4433464" lon="11.1779146"><ele>185.0</ele><time>2026-04-29T17:04:09.379Z</time></trkpt><trkpt lat="43.4432815" lon="11.1780071"><ele>185.0</ele><time>2026-04-29T17:04:11.375Z</time></trkpt><trkpt lat="43.4432032" lon="11.1781096"><ele>184.4</ele><time>2026-04-29T17:04:13.369Z</time></trkpt><trkpt lat="43.4431171" lon="11.1782222"><ele>183.8</ele><time>2026-04-29T17:04:15.378Z</time></trkpt><trkpt lat="43.4430391" lon="11.1783585"><ele>183.2</ele><time>2026-04-29T17:04:17.393Z</time></trkpt><trkpt lat="43.4429712" lon="11.178502"><ele>182.6</ele><time>2026-04-29T17:04:19.376Z</time></trkpt><trkpt lat="43.4429461" lon="11.1785859"><ele>182.0</ele><time>2026-04-29T17:04:20.377Z</time></trkpt><trkpt lat="43.4429099" lon="11.1787497"><ele>181.0</ele><time>2026-04-29T17:04:22.368Z</time></trkpt><trkpt lat="43.4428966" lon="11.1789173"><ele>180.0</ele><time>2026-04-29T17:04:24.377Z</time></trkpt><trkpt lat="43.4428911" lon="11.1790941"><ele>179.0</ele><time>2026-04-29T17:04:26.385Z</time></trkpt><trkpt lat="43.44289" lon="11.1792582"><ele>178.0</ele><time>2026-04-29T17:04:28.377Z</time></trkpt><trkpt lat="43.4428757" lon="11.1794122"><ele>178.0</ele><time>2026-04-29T17:04:30.375Z</time></trkpt><trkpt lat="43.4428312" lon="11.1795464"><ele>178.0</ele><time>2026-04-29T17:04:32.382Z</time></trkpt><trkpt lat="43.4427663" lon="11.1796687"><ele>178.0</ele><time>2026-04-29T17:04:34.375Z</time></trkpt><trkpt lat="43.4426855" lon="11.1797882"><ele>178.0</ele><time>2026-04-29T17:04:36.377Z</time></trkpt><trkpt lat="43.4425903" lon="11.1798911"><ele>178.0</ele><time>2026-04-29T17:04:38.384Z</time></trkpt><trkpt lat="43.4425396" lon="11.1799463"><ele>178.0</ele><time>2026-04-29T17:04:39.373Z</time></trkpt><trkpt lat="43.4424883" lon="11.1799982"><ele>178.0</ele><time>2026-04-29T17:04:40.381Z</time></trkpt><trkpt lat="43.4424351" lon="11.180057"><ele>178.0</ele><time>2026-04-29T17:04:41.379Z</time></trkpt><trkpt lat="43.4423813" lon="11.180118"><ele>178.0</ele><time>2026-04-29T17:04:42.375Z</time></trkpt><trkpt lat="43.4423305" lon="11.1801761"><ele>178.0</ele><time>2026-04-29T17:04:43.386Z</time></trkpt><trkpt lat="43.4422366" lon="11.1802773"><ele>178.0</ele><time>2026-04-29T17:04:45.382Z</time></trkpt><trkpt lat="43.4421503" lon="11.1803737"><ele>178.0</ele><time>2026-04-29T17:04:47.381Z</time></trkpt><trkpt lat="43.4420703" lon="11.1804692"><ele>178.0</ele><time>2026-04-29T17:04:49.373Z</time></trkpt><trkpt lat="43.4419984" lon="11.1805619"><ele>178.0</ele><time>2026-04-29T17:04:51.384Z</time></trkpt><trkpt lat="43.4419246" lon="11.180645"><ele>178.0</ele><time>2026-04-29T17:04:53.377Z</time></trkpt><trkpt lat="43.4418561" lon="11.1807317"><ele>178.16666666666669</ele><time>2026-04-29T17:04:55.376Z</time></trkpt><trkpt lat="43.4417928" lon="11.1808066"><ele>178.33333333333334</ele><time>2026-04-29T17:04:57.39Z</time></trkpt><trkpt lat="43.4417269" lon="11.1808774"><ele>178.5</ele><time>2026-04-29T17:04:59.382Z</time></trkpt><trkpt lat="43.4416656" lon="11.1809428"><ele>178.66666666666666</ele><time>2026-04-29T17:05:01.395Z</time></trkpt><trkpt lat="43.4416069" lon="11.1810167"><ele>178.83333333333331</ele><time>2026-04-29T17:05:03.391Z</time></trkpt><trkpt lat="43.4415402" lon="11.181084"><ele>179.0</ele><time>2026-04-29T17:05:05.395Z</time></trkpt><trkpt lat="43.4414795" lon="11.1811586"><ele>179.0</ele><time>2026-04-29T17:05:07.386Z</time></trkpt><trkpt lat="43.4414215" lon="11.1812291"><ele>179.0</ele><time>2026-04-29T17:05:09.388Z</time></trkpt><trkpt lat="43.441366" lon="11.1813089"><ele>179.0</ele><time>2026-04-29T17:05:11.376Z</time></trkpt><trkpt lat="43.4413072" lon="11.1813845"><ele>179.0</ele><time>2026-04-29T17:05:13.383Z</time></trkpt><trkpt lat="43.4412507" lon="11.1814667"><ele>179.0</ele><time>2026-04-29T17:05:15.39Z</time></trkpt><trkpt lat="43.4412022" lon="11.1815473"><ele>179.0</ele><time>2026-04-29T17:05:17.375Z</time></trkpt><trkpt lat="43.4411519" lon="11.1816282"><ele>178.66666666666666</ele><time>2026-04-29T17:05:19.388Z</time></trkpt><trkpt lat="43.4411062" lon="11.1817089"><ele>178.33333333333331</ele><time>2026-04-29T17:05:21.383Z</time></trkpt><trkpt lat="43.4410542" lon="11.1817922"><ele>178.0</ele><time>2026-04-29T17:05:23.37Z</time></trkpt><trkpt lat="43.4409921" lon="11.181878"><ele>177.66666666666666</ele><time>2026-04-29T17:05:25.389Z</time></trkpt><trkpt lat="43.4409398" lon="11.1819747"><ele>177.33333333333334</ele><time>2026-04-29T17:05:27.368Z</time></trkpt><trkpt lat="43.4408886" lon="11.1820791"><ele>177.0</ele><time>2026-04-29T17:05:29.377Z</time></trkpt><trkpt lat="43.4408361" lon="11.1821777"><ele>177.0</ele><time>2026-04-29T17:05:31.374Z</time></trkpt><trkpt lat="43.4407868" lon="11.1822861"><ele>177.0</ele><time>2026-04-29T17:05:33.391Z</time></trkpt><trkpt lat="43.4407288" lon="11.182393"><ele>177.0</ele><time>2026-04-29T17:05:35.368Z</time></trkpt><trkpt lat="43.4406647" lon="11.1824922"><ele>177.0</ele><time>2026-04-29T17:05:37.382Z</time></trkpt><trkpt lat="43.4406093" lon="11.1826033"><ele>177.0</ele><time>2026-04-29T17:05:39.388Z</time></trkpt><trkpt lat="43.4405542" lon="11.1827128"><ele>177.0</ele><time>2026-04-29T17:05:41.382Z</time></trkpt><trkpt lat="43.4404959" lon="11.1828181"><ele>177.0</ele><time>2026-04-29T17:05:43.379Z</time></trkpt><trkpt lat="43.4404318" lon="11.1829216"><ele>177.0</ele><time>2026-04-29T17:05:45.399Z</time></trkpt><trkpt lat="43.4403731" lon="11.1830278"><ele>177.0</ele><time>2026-04-29T17:05:47.385Z</time></trkpt><trkpt lat="43.4403148" lon="11.1831371"><ele>177.0</ele><time>2026-04-29T17:05:49.383Z</time></trkpt><trkpt lat="43.4402571" lon="11.1832289"><ele>177.83333333333334</ele><time>2026-04-29T17:05:51.387Z</time></trkpt><trkpt lat="43.4402014" lon="11.1833253"><ele>178.66666666666666</ele><time>2026-04-29T17:05:53.376Z</time></trkpt><trkpt lat="43.4401501" lon="11.1834237"><ele>179.5</ele><time>2026-04-29T17:05:55.372Z</time></trkpt><trkpt lat="43.4401007" lon="11.1835162"><ele>180.33333333333331</ele><time>2026-04-29T17:05:57.38Z</time></trkpt><trkpt lat="43.4400527" lon="11.1836013"><ele>181.16666666666666</ele><time>2026-04-29T17:05:59.374Z</time></trkpt><trkpt lat="43.4400071" lon="11.1836812"><ele>182.0</ele><time>2026-04-29T17:06:01.366Z</time></trkpt><trkpt lat="43.439963" lon="11.1837602"><ele>182.0</ele><time>2026-04-29T17:06:03.366Z</time></trkpt><trkpt lat="43.4399216" lon="11.1838343"><ele>182.0</ele><time>2026-04-29T17:06:05.383Z</time></trkpt><trkpt lat="43.4398647" lon="11.1839348"><ele>182.0</ele><time>2026-04-29T17:06:08.374Z</time></trkpt><trkpt lat="43.4398137" lon="11.1840307"><ele>182.0</ele><time>2026-04-29T17:06:11.366Z</time></trkpt><trkpt lat="43.439766" lon="11.184114"><ele>182.0</ele><time>2026-04-29T17:06:14.381Z</time></trkpt><trkpt lat="43.4397199" lon="11.184189"><ele>182.0</ele><time>2026-04-29T17:06:17.393Z</time></trkpt><trkpt lat="43.439679" lon="11.1842644"><ele>182.14285714285714</ele><time>2026-04-29T17:06:20.374Z</time></trkpt><trkpt lat="43.4396406" lon="11.1843492"><ele>182.28571428571428</ele><time>2026-04-29T17:06:23.373Z</time></trkpt><trkpt lat="43.4395965" lon="11.1844217"><ele>182.42857142857144</ele><time>2026-04-29T17:06:26.392Z</time></trkpt><trkpt lat="43.4395543" lon="11.1844925"><ele>182.57142857142856</ele><time>2026-04-29T17:06:29.372Z</time></trkpt><trkpt lat="43.4395088" lon="11.184566"><ele>182.71428571428572</ele><time>2026-04-29T17:06:32.389Z</time></trkpt><trkpt lat="43.4394644" lon="11.1846499"><ele>182.85714285714286</ele><time>2026-04-29T17:06:35.383Z</time></trkpt><trkpt lat="43.4394226" lon="11.1847276"><ele>183.0</ele><time>2026-04-29T17:06:38.376Z</time></trkpt><trkpt lat="43.4393834" lon="11.1847958"><ele>184.42857142857144</ele><time>2026-04-29T17:06:41.38Z</time></trkpt><trkpt lat="43.4393378" lon="11.1848719"><ele>185.85714285714286</ele><time>2026-04-29T17:06:44.377Z</time></trkpt><trkpt lat="43.4392939" lon="11.1849468"><ele>187.28571428571428</ele><time>2026-04-29T17:06:47.379Z</time></trkpt><trkpt lat="43.439249" lon="11.1850158"><ele>188.71428571428572</ele><time>2026-04-29T17:06:50.363Z</time></trkpt><trkpt lat="43.4391973" lon="11.1850921"><ele>190.14285714285714</ele><time>2026-04-29T17:06:54.373Z</time></trkpt><trkpt lat="43.4391463" lon="11.1851733"><ele>191.57142857142858</ele><time>2026-04-29T17:06:58.387Z</time></trkpt><trkpt lat="43.4391045" lon="11.1852383"><ele>193.0</ele><time>2026-04-29T17:07:01.361Z</time></trkpt><trkpt lat="43.4390573" lon="11.1853081"><ele>193.00000000000003</ele><time>2026-04-29T17:07:04.385Z</time></trkpt><trkpt lat="43.4389966" lon="11.1853838"><ele>193.0</ele><time>2026-04-29T17:07:08.385Z</time></trkpt><trkpt lat="43.4389316" lon="11.1854385"><ele>193.0</ele><time>2026-04-29T17:07:11.378Z</time></trkpt><trkpt lat="43.4388806" lon="11.1854982"><ele>193.0</ele><time>2026-04-29T17:07:14.387Z</time></trkpt><trkpt lat="43.4388192" lon="11.1855671"><ele>193.0</ele><time>2026-04-29T17:07:18.373Z</time></trkpt><trkpt lat="43.4387577" lon="11.1856272"><ele>193.00000000000003</ele><time>2026-04-29T17:07:22.374Z</time></trkpt><trkpt lat="43.4386888" lon="11.1856251"><ele>193.0</ele><time>2026-04-29T17:07:26.374Z</time></trkpt><trkpt lat="43.4386187" lon="11.1856236"><ele>192.66666666666666</ele><time>2026-04-29T17:07:29.368Z</time></trkpt><trkpt lat="43.4385491" lon="11.1856209"><ele>192.33333333333331</ele><time>2026-04-29T17:07:31.383Z</time></trkpt><trkpt lat="43.438431" lon="11.1856364"><ele>192.0</ele><time>2026-04-29T17:07:33.36Z</time></trkpt><trkpt lat="43.4383683" lon="11.1856489"><ele>191.66666666666666</ele><time>2026-04-29T17:07:34.368Z</time></trkpt><trkpt lat="43.4382724" lon="11.1856684"><ele>191.33333333333331</ele><time>2026-04-29T17:07:36.373Z</time></trkpt><trkpt lat="43.4381773" lon="11.1856809"><ele>191.0</ele><time>2026-04-29T17:07:38.366Z</time></trkpt><trkpt lat="43.438082" lon="11.185704"><ele>193.16666666666666</ele><time>2026-04-29T17:07:40.378Z</time></trkpt><trkpt lat="43.437998" lon="11.185708"><ele>195.33333333333331</ele><time>2026-04-29T17:07:42.371Z</time></trkpt><trkpt lat="43.4379223" lon="11.1857094"><ele>197.5</ele><time>2026-04-29T17:07:44.365Z</time></trkpt><trkpt lat="43.4378445" lon="11.1857101"><ele>199.66666666666666</ele><time>2026-04-29T17:07:46.395Z</time></trkpt><trkpt lat="43.4377524" lon="11.1857148"><ele>201.83333333333334</ele><time>2026-04-29T17:07:48.369Z</time></trkpt><trkpt lat="43.4376585" lon="11.1857272"><ele>204.0</ele><time>2026-04-29T17:07:50.355Z</time></trkpt><trkpt lat="43.4375508" lon="11.1857296"><ele>205.0</ele><time>2026-04-29T17:07:52.403Z</time></trkpt><trkpt lat="43.4374414" lon="11.1856943"><ele>206.0</ele><time>2026-04-29T17:07:54.372Z</time></trkpt><trkpt lat="43.4373355" lon="11.1856321"><ele>207.0</ele><time>2026-04-29T17:07:56.376Z</time></trkpt><trkpt lat="43.4372243" lon="11.1855672"><ele>208.0</ele><time>2026-04-29T17:07:58.383Z</time></trkpt><trkpt lat="43.4371644" lon="11.1855371"><ele>209.0</ele><time>2026-04-29T17:07:59.371Z</time></trkpt><trkpt lat="43.4371034" lon="11.1855048"><ele>205.00000000000003</ele><time>2026-04-29T17:08:00.389Z</time></trkpt><trkpt lat="43.437041" lon="11.1854747"><ele>201.0</ele><time>2026-04-29T17:08:01.394Z</time></trkpt><trkpt lat="43.4369761" lon="11.1854489"><ele>197.0</ele><time>2026-04-29T17:08:02.369Z</time></trkpt><trkpt lat="43.4368999" lon="11.1854136"><ele>193.0</ele><time>2026-04-29T17:08:03.372Z</time></trkpt><trkpt lat="43.4368187" lon="11.1853713"><ele>189.0</ele><time>2026-04-29T17:08:04.383Z</time></trkpt><trkpt lat="43.4367368" lon="11.1853335"><ele>185.0</ele><time>2026-04-29T17:08:05.37Z</time></trkpt><trkpt lat="43.4366527" lon="11.1852989"><ele>185.0</ele><time>2026-04-29T17:08:06.376Z</time></trkpt><trkpt lat="43.4365692" lon="11.1852607"><ele>185.0</ele><time>2026-04-29T17:08:07.383Z</time></trkpt><trkpt lat="43.4364924" lon="11.1852242"><ele>185.0</ele><time>2026-04-29T17:08:08.375Z</time></trkpt><trkpt lat="43.4364161" lon="11.1851983"><ele>185.0</ele><time>2026-04-29T17:08:09.377Z</time></trkpt><trkpt lat="43.4363386" lon="11.1851784"><ele>185.0</ele><time>2026-04-29T17:08:10.379Z</time></trkpt><trkpt lat="43.4362586" lon="11.1851608"><ele>185.0</ele><time>2026-04-29T17:08:11.378Z</time></trkpt><trkpt lat="43.436173" lon="11.1851426"><ele>184.6</ele><time>2026-04-29T17:08:12.389Z</time></trkpt><trkpt lat="43.4360848" lon="11.1851255"><ele>184.2</ele><time>2026-04-29T17:08:13.381Z</time></trkpt><trkpt lat="43.4359976" lon="11.1851045"><ele>183.8</ele><time>2026-04-29T17:08:14.372Z</time></trkpt><trkpt lat="43.4359074" lon="11.1850825"><ele>183.4</ele><time>2026-04-29T17:08:15.376Z</time></trkpt><trkpt lat="43.4358161" lon="11.1850654"><ele>183.0</ele><time>2026-04-29T17:08:16.38Z</time></trkpt><trkpt lat="43.4357274" lon="11.1850496"><ele>183.0</ele><time>2026-04-29T17:08:17.376Z</time></trkpt><trkpt lat="43.4356393" lon="11.1850355"><ele>183.0</ele><time>2026-04-29T17:08:18.383Z</time></trkpt><trkpt lat="43.4355496" lon="11.1850205"><ele>183.0</ele><time>2026-04-29T17:08:19.366Z</time></trkpt><trkpt lat="43.4354604" lon="11.1850037"><ele>183.0</ele><time>2026-04-29T17:08:20.377Z</time></trkpt><trkpt lat="43.4353743" lon="11.1849846"><ele>183.0</ele><time>2026-04-29T17:08:21.379Z</time></trkpt><trkpt lat="43.4352886" lon="11.1849651"><ele>183.0</ele><time>2026-04-29T17:08:22.375Z</time></trkpt><trkpt lat="43.435201" lon="11.1849493"><ele>182.8</ele><time>2026-04-29T17:08:23.369Z</time></trkpt><trkpt lat="43.4351099" lon="11.1849335"><ele>182.60000000000002</ele><time>2026-04-29T17:08:24.374Z</time></trkpt><trkpt lat="43.4350159" lon="11.1849185"><ele>182.39999999999998</ele><time>2026-04-29T17:08:25.38Z</time></trkpt><trkpt lat="43.4349158" lon="11.1849016"><ele>182.2</ele><time>2026-04-29T17:08:26.382Z</time></trkpt><trkpt lat="43.4348067" lon="11.1848863"><ele>182.0</ele><time>2026-04-29T17:08:27.375Z</time></trkpt><trkpt lat="43.4346946" lon="11.1848577"><ele>178.75</ele><time>2026-04-29T17:08:28.391Z</time></trkpt><trkpt lat="43.4345819" lon="11.1848226"><ele>175.5</ele><time>2026-04-29T17:08:29.378Z</time></trkpt><trkpt lat="43.4344651" lon="11.1847801"><ele>172.25</ele><time>2026-04-29T17:08:30.38Z</time></trkpt><trkpt lat="43.4343411" lon="11.1847369"><ele>169.0</ele><time>2026-04-29T17:08:31.381Z</time></trkpt><trkpt lat="43.434216" lon="11.1846938"><ele>169.0</ele><time>2026-04-29T17:08:32.378Z</time></trkpt><trkpt lat="43.4340889" lon="11.1846441"><ele>169.0</ele><time>2026-04-29T17:08:33.377Z</time></trkpt><trkpt lat="43.4339632" lon="11.1845895"><ele>169.0</ele><time>2026-04-29T17:08:34.374Z</time></trkpt><trkpt lat="43.4338371" lon="11.1845369"><ele>169.0</ele><time>2026-04-29T17:08:35.382Z</time></trkpt><trkpt lat="43.4337116" lon="11.1844878"><ele>168.5</ele><time>2026-04-29T17:08:36.381Z</time></trkpt><trkpt lat="43.4335894" lon="11.1844431"><ele>168.0</ele><time>2026-04-29T17:08:37.381Z</time></trkpt><trkpt lat="43.4334711" lon="11.1843922"><ele>167.5</ele><time>2026-04-29T17:08:38.377Z</time></trkpt><trkpt lat="43.4333554" lon="11.1843471"><ele>167.0</ele><time>2026-04-29T17:08:39.377Z</time></trkpt><trkpt lat="43.4332407" lon="11.1843003"><ele>167.0</ele><time>2026-04-29T17:08:40.378Z</time></trkpt><trkpt lat="43.4331301" lon="11.1842514"><ele>167.0</ele><time>2026-04-29T17:08:41.373Z</time></trkpt><trkpt lat="43.4330231" lon="11.1841994"><ele>167.0</ele><time>2026-04-29T17:08:42.382Z</time></trkpt><trkpt lat="43.4329206" lon="11.1841452"><ele>167.0</ele><time>2026-04-29T17:08:43.37Z</time></trkpt><trkpt lat="43.4328198" lon="11.184104"><ele>167.0</ele><time>2026-04-29T17:08:44.386Z</time></trkpt><trkpt lat="43.4327246" lon="11.1840667"><ele>167.39999999999998</ele><time>2026-04-29T17:08:45.371Z</time></trkpt><trkpt lat="43.4326356" lon="11.1840338"><ele>167.79999999999998</ele><time>2026-04-29T17:08:46.371Z</time></trkpt><trkpt lat="43.4325487" lon="11.184002"><ele>168.2</ele><time>2026-04-29T17:08:47.379Z</time></trkpt><trkpt lat="43.43246" lon="11.1839665"><ele>168.6</ele><time>2026-04-29T17:08:48.38Z</time></trkpt><trkpt lat="43.4323692" lon="11.1839272"><ele>169.0</ele><time>2026-04-29T17:08:49.374Z</time></trkpt><trkpt lat="43.4322769" lon="11.1838886"><ele>167.0</ele><time>2026-04-29T17:08:50.381Z</time></trkpt><trkpt lat="43.43218" lon="11.1838594"><ele>165.0</ele><time>2026-04-29T17:08:51.385Z</time></trkpt><trkpt lat="43.4320821" lon="11.1838377"><ele>163.0</ele><time>2026-04-29T17:08:52.384Z</time></trkpt><trkpt lat="43.4319823" lon="11.183823"><ele>161.0</ele><time>2026-04-29T17:08:53.393Z</time></trkpt><trkpt lat="43.4318835" lon="11.183811"><ele>159.0</ele><time>2026-04-29T17:08:54.376Z</time></trkpt><trkpt lat="43.4317875" lon="11.1837961"><ele>158.0</ele><time>2026-04-29T17:08:55.389Z</time></trkpt><trkpt lat="43.4316915" lon="11.1837793"><ele>157.0</ele><time>2026-04-29T17:08:56.39Z</time></trkpt><trkpt lat="43.4315954" lon="11.1837591"><ele>156.0</ele><time>2026-04-29T17:08:57.388Z</time></trkpt><trkpt lat="43.4314998" lon="11.1837333"><ele>155.0</ele><time>2026-04-29T17:08:58.403Z</time></trkpt><trkpt lat="43.4314092" lon="11.1836888"><ele>154.0</ele><time>2026-04-29T17:08:59.375Z</time></trkpt><trkpt lat="43.4313283" lon="11.1836183"><ele>155.33333333333334</ele><time>2026-04-29T17:09:00.379Z</time></trkpt><trkpt lat="43.4312623" lon="11.1835291"><ele>156.66666666666669</ele><time>2026-04-29T17:09:01.376Z</time></trkpt><trkpt lat="43.4312145" lon="11.1834248"><ele>158.0</ele><time>2026-04-29T17:09:02.364Z</time></trkpt><trkpt lat="43.4311818" lon="11.1833157"><ele>159.33333333333334</ele><time>2026-04-29T17:09:03.369Z</time></trkpt><trkpt lat="43.4311583" lon="11.1832163"><ele>160.66666666666666</ele><time>2026-04-29T17:09:04.384Z</time></trkpt><trkpt lat="43.4311394" lon="11.1831319"><ele>162.0</ele><time>2026-04-29T17:09:05.366Z</time></trkpt><trkpt lat="43.4311189" lon="11.1830008"><ele>162.85714285714286</ele><time>2026-04-29T17:09:07.365Z</time></trkpt><trkpt lat="43.4311087" lon="11.1829024"><ele>163.71428571428572</ele><time>2026-04-29T17:09:09.379Z</time></trkpt><trkpt lat="43.4310952" lon="11.1828164"><ele>164.57142857142856</ele><time>2026-04-29T17:09:11.37Z</time></trkpt><trkpt lat="43.43107" lon="11.1827002"><ele>165.42857142857144</ele><time>2026-04-29T17:09:14.379Z</time></trkpt><trkpt lat="43.4310531" lon="11.1825879"><ele>166.28571428571428</ele><time>2026-04-29T17:09:17.372Z</time></trkpt><trkpt lat="43.4310323" lon="11.1824912"><ele>167.14285714285714</ele><time>2026-04-29T17:09:20.38Z</time></trkpt><trkpt lat="43.4310221" lon="11.1824029"><ele>168.0</ele><time>2026-04-29T17:09:23.374Z</time></trkpt><trkpt lat="43.4310275" lon="11.1823161"><ele>168.0</ele><time>2026-04-29T17:09:26.369Z</time></trkpt><trkpt lat="43.4310379" lon="11.1822118"><ele>168.0</ele><time>2026-04-29T17:09:29.367Z</time></trkpt><trkpt lat="43.43103" lon="11.1820894"><ele>168.0</ele><time>2026-04-29T17:09:32.367Z</time></trkpt><trkpt lat="43.4310146" lon="11.182004"><ele>168.0</ele><time>2026-04-29T17:09:34.368Z</time></trkpt><trkpt lat="43.4309909" lon="11.1818786"><ele>168.0</ele><time>2026-04-29T17:09:37.389Z</time></trkpt><trkpt lat="43.4309655" lon="11.1817929"><ele>168.0</ele><time>2026-04-29T17:09:39.387Z</time></trkpt><trkpt lat="43.4309314" lon="11.1817104"><ele>168.0</ele><time>2026-04-29T17:09:41.37Z</time></trkpt><trkpt lat="43.4308956" lon="11.1816387"><ele>168.0</ele><time>2026-04-29T17:09:43.359Z</time></trkpt><trkpt lat="43.4308475" lon="11.1815815"><ele>168.0</ele><time>2026-04-29T17:09:45.397Z</time></trkpt><trkpt lat="43.4307876" lon="11.1815132"><ele>168.0</ele><time>2026-04-29T17:09:48.394Z</time></trkpt><trkpt lat="43.4307209" lon="11.1814306"><ele>168.0</ele><time>2026-04-29T17:09:51.373Z</time></trkpt><trkpt lat="43.4306523" lon="11.1813443"><ele>168.0</ele><time>2026-04-29T17:09:54.369Z</time></trkpt><trkpt lat="43.4305825" lon="11.1812598"><ele>167.28571428571428</ele><time>2026-04-29T17:09:57.376Z</time></trkpt><trkpt lat="43.4305057" lon="11.1811852"><ele>166.57142857142856</ele><time>2026-04-29T17:10:00.387Z</time></trkpt><trkpt lat="43.4304582" lon="11.1811264"><ele>165.85714285714286</ele><time>2026-04-29T17:10:02.362Z</time></trkpt><trkpt lat="43.4304124" lon="11.1810657"><ele>165.14285714285714</ele><time>2026-04-29T17:10:04.379Z</time></trkpt><trkpt lat="43.430358" lon="11.1810086"><ele>164.42857142857142</ele><time>2026-04-29T17:10:06.391Z</time></trkpt><trkpt lat="43.4303039" lon="11.1809524"><ele>163.71428571428572</ele><time>2026-04-29T17:10:08.382Z</time></trkpt><trkpt lat="43.4302394" lon="11.1809136"><ele>163.0</ele><time>2026-04-29T17:10:10.375Z</time></trkpt><trkpt lat="43.4301553" lon="11.1808881"><ele>163.0</ele><time>2026-04-29T17:10:12.375Z</time></trkpt><trkpt lat="43.4300621" lon="11.1809001"><ele>163.0</ele><time>2026-04-29T17:10:14.393Z</time></trkpt><trkpt lat="43.4299643" lon="11.1809452"><ele>163.0</ele><time>2026-04-29T17:10:16.363Z</time></trkpt><trkpt lat="43.4298615" lon="11.1810117"><ele>163.0</ele><time>2026-04-29T17:10:18.366Z</time></trkpt><trkpt lat="43.4298018" lon="11.1810438"><ele>163.0</ele><time>2026-04-29T17:10:19.376Z</time></trkpt><trkpt lat="43.4297391" lon="11.181072"><ele>163.0</ele><time>2026-04-29T17:10:20.364Z</time></trkpt><trkpt lat="43.4296724" lon="11.1810911"><ele>162.42857142857144</ele><time>2026-04-29T17:10:21.37Z</time></trkpt><trkpt lat="43.4296064" lon="11.1811054"><ele>161.85714285714283</ele><time>2026-04-29T17:10:22.381Z</time></trkpt><trkpt lat="43.4295407" lon="11.1811126"><ele>161.28571428571428</ele><time>2026-04-29T17:10:23.375Z</time></trkpt><trkpt lat="43.4294742" lon="11.1811255"><ele>160.71428571428572</ele><time>2026-04-29T17:10:24.369Z</time></trkpt><trkpt lat="43.4294023" lon="11.1811377"><ele>160.14285714285717</ele><time>2026-04-29T17:10:25.385Z</time></trkpt><trkpt lat="43.4293281" lon="11.1811428"><ele>159.57142857142856</ele><time>2026-04-29T17:10:26.384Z</time></trkpt><trkpt lat="43.4292519" lon="11.1811123"><ele>159.0</ele><time>2026-04-29T17:10:27.378Z</time></trkpt><trkpt lat="43.429192" lon="11.1810472"><ele>159.0</ele><time>2026-04-29T17:10:28.37Z</time></trkpt><trkpt lat="43.4291346" lon="11.1809754"><ele>159.0</ele><time>2026-04-29T17:10:29.358Z</time></trkpt><trkpt lat="43.4290828" lon="11.180898"><ele>159.0</ele><time>2026-04-29T17:10:30.377Z</time></trkpt><trkpt lat="43.429035" lon="11.1808209"><ele>159.0</ele><time>2026-04-29T17:10:31.373Z</time></trkpt><trkpt lat="43.4289917" lon="11.1807462"><ele>159.0</ele><time>2026-04-29T17:10:32.368Z</time></trkpt><trkpt lat="43.4289493" lon="11.1806806"><ele>159.0</ele><time>2026-04-29T17:10:33.373Z</time></trkpt><trkpt lat="43.4288651" lon="11.1805881"><ele>157.6</ele><time>2026-04-29T17:10:35.379Z</time></trkpt><trkpt lat="43.428756" lon="11.1805811"><ele>156.2</ele><time>2026-04-29T17:10:37.372Z</time></trkpt><trkpt lat="43.4286438" lon="11.1806278"><ele>154.79999999999998</ele><time>2026-04-29T17:10:39.369Z</time></trkpt><trkpt lat="43.4285886" lon="11.1806897"><ele>153.4</ele><time>2026-04-29T17:10:40.383Z</time></trkpt><trkpt lat="43.428541" lon="11.1807746"><ele>152.0</ele><time>2026-04-29T17:10:41.389Z</time></trkpt><trkpt lat="43.4284929" lon="11.1808763"><ele>152.0</ele><time>2026-04-29T17:10:42.372Z</time></trkpt><trkpt lat="43.4284429" lon="11.1809842"><ele>152.0</ele><time>2026-04-29T17:10:43.374Z</time></trkpt><trkpt lat="43.4283879" lon="11.1810888"><ele>152.0</ele><time>2026-04-29T17:10:44.384Z</time></trkpt><trkpt lat="43.428334" lon="11.1811921"><ele>152.0</ele><time>2026-04-29T17:10:45.371Z</time></trkpt><trkpt lat="43.4282823" lon="11.1813022"><ele>152.0</ele><time>2026-04-29T17:10:46.373Z</time></trkpt><trkpt lat="43.4282359" lon="11.1814093"><ele>152.0</ele><time>2026-04-29T17:10:47.363Z</time></trkpt><trkpt lat="43.428193" lon="11.1815138"><ele>152.0</ele><time>2026-04-29T17:10:48.386Z</time></trkpt><trkpt lat="43.4281517" lon="11.1816104"><ele>152.0</ele><time>2026-04-29T17:10:49.379Z</time></trkpt><trkpt lat="43.4281069" lon="11.1816924"><ele>152.0</ele><time>2026-04-29T17:10:50.379Z</time></trkpt><trkpt lat="43.4280545" lon="11.1817542"><ele>152.0</ele><time>2026-04-29T17:10:51.386Z</time></trkpt><trkpt lat="43.4279853" lon="11.1817816"><ele>152.0</ele><time>2026-04-29T17:10:52.376Z</time></trkpt><trkpt lat="43.4279075" lon="11.1817819"><ele>151.33333333333331</ele><time>2026-04-29T17:10:53.376Z</time></trkpt><trkpt lat="43.4278316" lon="11.1817677"><ele>150.66666666666666</ele><time>2026-04-29T17:10:54.369Z</time></trkpt><trkpt lat="43.4277526" lon="11.18174"><ele>150.0</ele><time>2026-04-29T17:10:55.387Z</time></trkpt><trkpt lat="43.4276782" lon="11.1817082"><ele>149.33333333333334</ele><time>2026-04-29T17:10:56.376Z</time></trkpt><trkpt lat="43.4276067" lon="11.1816745"><ele>148.66666666666669</ele><time>2026-04-29T17:10:57.386Z</time></trkpt><trkpt lat="43.4275338" lon="11.1816649"><ele>148.0</ele><time>2026-04-29T17:10:58.367Z</time></trkpt><trkpt lat="43.4274615" lon="11.1816758"><ele>148.0</ele><time>2026-04-29T17:10:59.388Z</time></trkpt><trkpt lat="43.4273976" lon="11.1817112"><ele>148.0</ele><time>2026-04-29T17:11:00.362Z</time></trkpt><trkpt lat="43.4273346" lon="11.1817495"><ele>148.0</ele><time>2026-04-29T17:11:01.369Z</time></trkpt><trkpt lat="43.4272778" lon="11.1817921"><ele>148.0</ele><time>2026-04-29T17:11:02.367Z</time></trkpt><trkpt lat="43.4272216" lon="11.1818368"><ele>148.0</ele><time>2026-04-29T17:11:03.393Z</time></trkpt><trkpt lat="43.4271136" lon="11.1818916"><ele>148.0</ele><time>2026-04-29T17:11:05.383Z</time></trkpt><trkpt lat="43.4269969" lon="11.1819187"><ele>147.0</ele><time>2026-04-29T17:11:07.379Z</time></trkpt><trkpt lat="43.4268644" lon="11.1819726"><ele>146.0</ele><time>2026-04-29T17:11:09.383Z</time></trkpt><trkpt lat="43.4267951" lon="11.181991"><ele>145.0</ele><time>2026-04-29T17:11:10.381Z</time></trkpt><trkpt lat="43.426721" lon="11.1820228"><ele>144.0</ele><time>2026-04-29T17:11:11.379Z</time></trkpt><trkpt lat="43.426642" lon="11.1820615"><ele>143.0</ele><time>2026-04-29T17:11:12.381Z</time></trkpt><trkpt lat="43.4265627" lon="11.1820924"><ele>143.0</ele><time>2026-04-29T17:11:13.373Z</time></trkpt><trkpt lat="43.4264746" lon="11.1821086"><ele>143.0</ele><time>2026-04-29T17:11:14.383Z</time></trkpt><trkpt lat="43.4263812" lon="11.1821107"><ele>143.0</ele><time>2026-04-29T17:11:15.381Z</time></trkpt><trkpt lat="43.4262887" lon="11.1820983"><ele>143.0</ele><time>2026-04-29T17:11:16.391Z</time></trkpt><trkpt lat="43.4261938" lon="11.182087"><ele>143.0</ele><time>2026-04-29T17:11:17.372Z</time></trkpt><trkpt lat="43.4261027" lon="11.1820751"><ele>142.83333333333331</ele><time>2026-04-29T17:11:18.401Z</time></trkpt><trkpt lat="43.4260168" lon="11.1820737"><ele>142.66666666666666</ele><time>2026-04-29T17:11:19.365Z</time></trkpt><trkpt lat="43.4259376" lon="11.1820956"><ele>142.5</ele><time>2026-04-29T17:11:20.373Z</time></trkpt><trkpt lat="43.425869" lon="11.1821397"><ele>142.33333333333334</ele><time>2026-04-29T17:11:21.382Z</time></trkpt><trkpt lat="43.4258219" lon="11.1822155"><ele>142.16666666666669</ele><time>2026-04-29T17:11:22.401Z</time></trkpt><trkpt lat="43.4257863" lon="11.1823061"><ele>142.0</ele><time>2026-04-29T17:11:23.376Z</time></trkpt><trkpt lat="43.4257459" lon="11.1823917"><ele>142.0</ele><time>2026-04-29T17:11:24.381Z</time></trkpt><trkpt lat="43.4257069" lon="11.182474"><ele>142.0</ele><time>2026-04-29T17:11:25.376Z</time></trkpt><trkpt lat="43.4256758" lon="11.1825514"><ele>142.0</ele><time>2026-04-29T17:11:26.389Z</time></trkpt><trkpt lat="43.4256252" lon="11.1826908"><ele>142.0</ele><time>2026-04-29T17:11:28.375Z</time></trkpt><trkpt lat="43.425576" lon="11.1828066"><ele>142.0</ele><time>2026-04-29T17:11:30.373Z</time></trkpt><trkpt lat="43.4255282" lon="11.1828988"><ele>142.0</ele><time>2026-04-29T17:11:32.385Z</time></trkpt><trkpt lat="43.4254819" lon="11.1829696"><ele>143.71428571428572</ele><time>2026-04-29T17:11:34.384Z</time></trkpt><trkpt lat="43.4254313" lon="11.1830532"><ele>145.42857142857142</ele><time>2026-04-29T17:11:37.389Z</time></trkpt><trkpt lat="43.4253778" lon="11.1831393"><ele>147.14285714285714</ele><time>2026-04-29T17:11:40.385Z</time></trkpt><trkpt lat="43.4253318" lon="11.1832303"><ele>148.85714285714286</ele><time>2026-04-29T17:11:43.381Z</time></trkpt><trkpt lat="43.4252825" lon="11.183294"><ele>150.57142857142856</ele><time>2026-04-29T17:11:46.38Z</time></trkpt><trkpt lat="43.4252256" lon="11.1833339"><ele>152.28571428571428</ele><time>2026-04-29T17:11:49.377Z</time></trkpt><trkpt lat="43.4251637" lon="11.1833179"><ele>154.0</ele><time>2026-04-29T17:11:52.389Z</time></trkpt><trkpt lat="43.4251035" lon="11.1832624"><ele>154.0</ele><time>2026-04-29T17:11:56.379Z</time></trkpt><trkpt lat="43.4250568" lon="11.1831885"><ele>154.0</ele><time>2026-04-29T17:12:00.368Z</time></trkpt><trkpt lat="43.4250121" lon="11.1831218"><ele>154.0</ele><time>2026-04-29T17:12:04.373Z</time></trkpt><trkpt lat="43.4249588" lon="11.1830618"><ele>154.0</ele><time>2026-04-29T17:12:08.371Z</time></trkpt><trkpt lat="43.4249055" lon="11.1830071"><ele>154.0</ele><time>2026-04-29T17:12:11.374Z</time></trkpt><trkpt lat="43.4248521" lon="11.1829247"><ele>154.0</ele><time>2026-04-29T17:12:15.366Z</time></trkpt><trkpt lat="43.4248" lon="11.1828596"><ele>154.0</ele><time>2026-04-29T17:12:19.374Z</time></trkpt><trkpt lat="43.4247639" lon="11.1827753"><ele>154.85714285714286</ele><time>2026-04-29T17:12:23.382Z</time></trkpt><trkpt lat="43.4247272" lon="11.1826854"><ele>155.71428571428572</ele><time>2026-04-29T17:12:27.369Z</time></trkpt><trkpt lat="43.4246928" lon="11.1825958"><ele>156.57142857142856</ele><time>2026-04-29T17:12:31.38Z</time></trkpt><trkpt lat="43.424655" lon="11.1825237"><ele>157.42857142857144</ele><time>2026-04-29T17:12:35.373Z</time></trkpt><trkpt lat="43.4245885" lon="11.1824618"><ele>158.28571428571428</ele><time>2026-04-29T17:12:39.385Z</time></trkpt><trkpt lat="43.4245311" lon="11.1824254"><ele>159.14285714285714</ele><time>2026-04-29T17:12:43.37Z</time></trkpt><trkpt lat="43.424462" lon="11.1824282"><ele>160.0</ele><time>2026-04-29T17:12:47.411Z</time></trkpt><trkpt lat="43.4243965" lon="11.1824244"><ele>160.71428571428572</ele><time>2026-04-29T17:12:51.371Z</time></trkpt><trkpt lat="43.4243318" lon="11.1823957"><ele>161.42857142857144</ele><time>2026-04-29T17:12:55.369Z</time></trkpt><trkpt lat="43.4242677" lon="11.1823403"><ele>162.14285714285717</ele><time>2026-04-29T17:12:59.372Z</time></trkpt><trkpt lat="43.4242021" lon="11.1823132"><ele>162.85714285714286</ele><time>2026-04-29T17:13:05.379Z</time></trkpt><trkpt lat="43.4241993" lon="11.1822173"><ele>163.57142857142858</ele><time>2026-04-29T17:13:10.377Z</time></trkpt><trkpt lat="43.4242232" lon="11.1821209"><ele>164.2857142857143</ele><time>2026-04-29T17:13:14.384Z</time></trkpt><trkpt lat="43.4242607" lon="11.1820346"><ele>165.0</ele><time>2026-04-29T17:13:18.367Z</time></trkpt><trkpt lat="43.4243108" lon="11.1819712"><ele>165.0</ele><time>2026-04-29T17:13:22.385Z</time></trkpt><trkpt lat="43.4243684" lon="11.1818814"><ele>165.0</ele><time>2026-04-29T17:13:25.366Z</time></trkpt><trkpt lat="43.4243852" lon="11.1817925"><ele>165.0</ele><time>2026-04-29T17:13:27.376Z</time></trkpt><trkpt lat="43.4244305" lon="11.1816894"><ele>165.0</ele><time>2026-04-29T17:13:30.385Z</time></trkpt><trkpt lat="43.4244726" lon="11.1816142"><ele>165.0</ele><time>2026-04-29T17:13:32.371Z</time></trkpt><trkpt lat="43.4245164" lon="11.1815345"><ele>165.0</ele><time>2026-04-29T17:13:34.386Z</time></trkpt><trkpt lat="43.424559" lon="11.181454"><ele>165.16666666666666</ele><time>2026-04-29T17:13:36.383Z</time></trkpt><trkpt lat="43.4246016" lon="11.1813746"><ele>165.33333333333334</ele><time>2026-04-29T17:13:38.382Z</time></trkpt><trkpt lat="43.4246468" lon="11.1812879"><ele>165.5</ele><time>2026-04-29T17:13:40.384Z</time></trkpt><trkpt lat="43.4247017" lon="11.1812039"><ele>165.66666666666669</ele><time>2026-04-29T17:13:42.385Z</time></trkpt><trkpt lat="43.4247578" lon="11.1811147"><ele>165.83333333333334</ele><time>2026-04-29T17:13:44.378Z</time></trkpt><trkpt lat="43.4248149" lon="11.1810167"><ele>166.0</ele><time>2026-04-29T17:13:46.39Z</time></trkpt><trkpt lat="43.4248717" lon="11.1809145"><ele>165.4</ele><time>2026-04-29T17:13:48.379Z</time></trkpt><trkpt lat="43.4249286" lon="11.1808126"><ele>164.8</ele><time>2026-04-29T17:13:50.394Z</time></trkpt><trkpt lat="43.4249784" lon="11.1807028"><ele>164.20000000000002</ele><time>2026-04-29T17:13:52.384Z</time></trkpt><trkpt lat="43.4250323" lon="11.1806036"><ele>163.60000000000002</ele><time>2026-04-29T17:13:54.386Z</time></trkpt><trkpt lat="43.425088" lon="11.1805077"><ele>163.0</ele><time>2026-04-29T17:13:56.379Z</time></trkpt><trkpt lat="43.4251466" lon="11.1804151"><ele>163.0</ele><time>2026-04-29T17:13:58.38Z</time></trkpt><trkpt lat="43.4252015" lon="11.1803279"><ele>163.0</ele><time>2026-04-29T17:14:00.387Z</time></trkpt><trkpt lat="43.4252511" lon="11.1802347"><ele>163.0</ele><time>2026-04-29T17:14:02.387Z</time></trkpt><trkpt lat="43.4253044" lon="11.1801414"><ele>163.0</ele><time>2026-04-29T17:14:04.389Z</time></trkpt><trkpt lat="43.4253581" lon="11.1800599"><ele>163.0</ele><time>2026-04-29T17:14:06.375Z</time></trkpt><trkpt lat="43.425407" lon="11.1799708"><ele>163.0</ele><time>2026-04-29T17:14:08.387Z</time></trkpt><trkpt lat="43.4254568" lon="11.1798892"><ele>162.66666666666669</ele><time>2026-04-29T17:14:10.372Z</time></trkpt><trkpt lat="43.4255066" lon="11.1798004"><ele>162.33333333333334</ele><time>2026-04-29T17:14:12.364Z</time></trkpt><trkpt lat="43.4255588" lon="11.1797192"><ele>162.0</ele><time>2026-04-29T17:14:14.38Z</time></trkpt><trkpt lat="43.4256135" lon="11.1796398"><ele>161.66666666666666</ele><time>2026-04-29T17:14:16.368Z</time></trkpt><trkpt lat="43.4256711" lon="11.179567"><ele>161.33333333333331</ele><time>2026-04-29T17:14:18.377Z</time></trkpt><trkpt lat="43.42572" lon="11.1794814"><ele>161.0</ele><time>2026-04-29T17:14:20.38Z</time></trkpt><trkpt lat="43.4257665" lon="11.1793986"><ele>161.0</ele><time>2026-04-29T17:14:22.369Z</time></trkpt><trkpt lat="43.4258227" lon="11.1793366"><ele>161.0</ele><time>2026-04-29T17:14:24.369Z</time></trkpt><trkpt lat="43.4258936" lon="11.1792977"><ele>161.0</ele><time>2026-04-29T17:14:26.387Z</time></trkpt><trkpt lat="43.4259676" lon="11.179266"><ele>161.0</ele><time>2026-04-29T17:14:28.381Z</time></trkpt><trkpt lat="43.4260396" lon="11.1792152"><ele>161.0</ele><time>2026-04-29T17:14:30.372Z</time></trkpt><trkpt lat="43.4260957" lon="11.1791382"><ele>161.0</ele><time>2026-04-29T17:14:32.382Z</time></trkpt><trkpt lat="43.4261183" lon="11.1790419"><ele>162.16666666666666</ele><time>2026-04-29T17:14:34.383Z</time></trkpt><trkpt lat="43.4261054" lon="11.1789429"><ele>163.33333333333331</ele><time>2026-04-29T17:14:36.369Z</time></trkpt><trkpt lat="43.4260593" lon="11.178861"><ele>164.5</ele><time>2026-04-29T17:14:38.382Z</time></trkpt><trkpt lat="43.4259935" lon="11.1788061"><ele>165.66666666666666</ele><time>2026-04-29T17:14:40.38Z</time></trkpt><trkpt lat="43.4259202" lon="11.1787961"><ele>166.83333333333334</ele><time>2026-04-29T17:14:42.374Z</time></trkpt><trkpt lat="43.4258427" lon="11.1788197"><ele>168.0</ele><time>2026-04-29T17:14:44.377Z</time></trkpt><trkpt lat="43.4257534" lon="11.1788431"><ele>168.0</ele><time>2026-04-29T17:14:46.365Z</time></trkpt><trkpt lat="43.4256605" lon="11.1788454"><ele>168.0</ele><time>2026-04-29T17:14:48.391Z</time></trkpt><trkpt lat="43.4255754" lon="11.1788297"><ele>168.0</ele><time>2026-04-29T17:14:50.362Z</time></trkpt><trkpt lat="43.4254988" lon="11.1788149"><ele>168.0</ele><time>2026-04-29T17:14:52.375Z</time></trkpt><trkpt lat="43.4254263" lon="11.1788091"><ele>168.0</ele><time>2026-04-29T17:14:54.374Z</time></trkpt><trkpt lat="43.4253576" lon="11.1787944"><ele>168.0</ele><time>2026-04-29T17:14:56.379Z</time></trkpt><trkpt lat="43.4252915" lon="11.1787768"><ele>168.57142857142858</ele><time>2026-04-29T17:14:58.377Z</time></trkpt><trkpt lat="43.4252243" lon="11.1787804"><ele>169.14285714285714</ele><time>2026-04-29T17:15:00.377Z</time></trkpt><trkpt lat="43.4251587" lon="11.1787841"><ele>169.71428571428572</ele><time>2026-04-29T17:15:02.36Z</time></trkpt><trkpt lat="43.4250923" lon="11.1787862"><ele>170.28571428571428</ele><time>2026-04-29T17:15:04.381Z</time></trkpt><trkpt lat="43.4250264" lon="11.178784"><ele>170.85714285714286</ele><time>2026-04-29T17:15:06.371Z</time></trkpt><trkpt lat="43.4249594" lon="11.1787918"><ele>171.42857142857144</ele><time>2026-04-29T17:15:08.388Z</time></trkpt><trkpt lat="43.4248956" lon="11.1788003"><ele>172.0</ele><time>2026-04-29T17:15:10.38Z</time></trkpt><trkpt lat="43.4248039" lon="11.178809"><ele>172.00000000000003</ele><time>2026-04-29T17:15:13.37Z</time></trkpt><trkpt lat="43.4247384" lon="11.1788201"><ele>172.0</ele><time>2026-04-29T17:15:15.392Z</time></trkpt><trkpt lat="43.4246737" lon="11.1788303"><ele>172.0</ele><time>2026-04-29T17:15:17.37Z</time></trkpt><trkpt lat="43.4245801" lon="11.1788512"><ele>172.0</ele><time>2026-04-29T17:15:20.382Z</time></trkpt><trkpt lat="43.4245155" lon="11.1788663"><ele>172.0</ele><time>2026-04-29T17:15:22.381Z</time></trkpt><trkpt lat="43.4244515" lon="11.1788806"><ele>172.00000000000003</ele><time>2026-04-29T17:15:24.371Z</time></trkpt><trkpt lat="43.4243609" lon="11.1789049"><ele>172.0</ele><time>2026-04-29T17:15:27.368Z</time></trkpt><trkpt lat="43.4242905" lon="11.1789222"><ele>171.85714285714286</ele><time>2026-04-29T17:15:29.374Z</time></trkpt><trkpt lat="43.424224" lon="11.178939"><ele>171.71428571428572</ele><time>2026-04-29T17:15:31.394Z</time></trkpt><trkpt lat="43.4241586" lon="11.1789497"><ele>171.57142857142856</ele><time>2026-04-29T17:15:33.386Z</time></trkpt><trkpt lat="43.424096" lon="11.1789615"><ele>171.42857142857144</ele><time>2026-04-29T17:15:35.389Z</time></trkpt><trkpt lat="43.4240343" lon="11.1789836"><ele>171.28571428571428</ele><time>2026-04-29T17:15:37.383Z</time></trkpt><trkpt lat="43.4239716" lon="11.1789963"><ele>171.14285714285714</ele><time>2026-04-29T17:15:39.394Z</time></trkpt><trkpt lat="43.4239076" lon="11.179018"><ele>171.0</ele><time>2026-04-29T17:15:41.375Z</time></trkpt><trkpt lat="43.4238439" lon="11.1790336"><ele>171.28571428571428</ele><time>2026-04-29T17:15:43.387Z</time></trkpt><trkpt lat="43.4237776" lon="11.1790488"><ele>171.57142857142856</ele><time>2026-04-29T17:15:45.371Z</time></trkpt><trkpt lat="43.4237142" lon="11.1790651"><ele>171.85714285714283</ele><time>2026-04-29T17:15:47.378Z</time></trkpt><trkpt lat="43.4236503" lon="11.1790821"><ele>172.14285714285714</ele><time>2026-04-29T17:15:49.389Z</time></trkpt><trkpt lat="43.4235828" lon="11.1790956"><ele>172.42857142857144</ele><time>2026-04-29T17:15:51.378Z</time></trkpt><trkpt lat="43.4235181" lon="11.1791112"><ele>172.7142857142857</ele><time>2026-04-29T17:15:53.376Z</time></trkpt><trkpt lat="43.423453" lon="11.1791339"><ele>173.0</ele><time>2026-04-29T17:15:55.375Z</time></trkpt><trkpt lat="43.4233916" lon="11.1791538"><ele>173.0</ele><time>2026-04-29T17:15:57.371Z</time></trkpt><trkpt lat="43.4232966" lon="11.1791847"><ele>173.0</ele><time>2026-04-29T17:16:00.369Z</time></trkpt><trkpt lat="43.4232308" lon="11.1792038"><ele>173.0</ele><time>2026-04-29T17:16:02.378Z</time></trkpt><trkpt lat="43.4231622" lon="11.1792226"><ele>173.0</ele><time>2026-04-29T17:16:04.38Z</time></trkpt><trkpt lat="43.4230926" lon="11.1792349"><ele>173.0</ele><time>2026-04-29T17:16:06.382Z</time></trkpt><trkpt lat="43.4230281" lon="11.1792589"><ele>173.0</ele><time>2026-04-29T17:16:08.365Z</time></trkpt><trkpt lat="43.4229628" lon="11.1792838"><ele>173.0</ele><time>2026-04-29T17:16:10.368Z</time></trkpt><trkpt lat="43.4228962" lon="11.1793073"><ele>173.7142857142857</ele><time>2026-04-29T17:16:12.39Z</time></trkpt><trkpt lat="43.422831" lon="11.1793089"><ele>174.42857142857144</ele><time>2026-04-29T17:16:14.389Z</time></trkpt><trkpt lat="43.4227637" lon="11.1793171"><ele>175.14285714285714</ele><time>2026-04-29T17:16:16.379Z</time></trkpt><trkpt lat="43.4226956" lon="11.1793299"><ele>175.85714285714283</ele><time>2026-04-29T17:16:18.401Z</time></trkpt><trkpt lat="43.4226258" lon="11.1793544"><ele>176.57142857142856</ele><time>2026-04-29T17:16:20.38Z</time></trkpt><trkpt lat="43.4225585" lon="11.1793732"><ele>177.28571428571428</ele><time>2026-04-29T17:16:22.369Z</time></trkpt><trkpt lat="43.4224897" lon="11.1793953"><ele>178.0</ele><time>2026-04-29T17:16:24.37Z</time></trkpt><trkpt lat="43.4224234" lon="11.1794178"><ele>177.99999999999997</ele><time>2026-04-29T17:16:26.381Z</time></trkpt><trkpt lat="43.4223541" lon="11.1794418"><ele>178.0</ele><time>2026-04-29T17:16:28.383Z</time></trkpt><trkpt lat="43.4222854" lon="11.1794739"><ele>178.0</ele><time>2026-04-29T17:16:30.375Z</time></trkpt><trkpt lat="43.4222151" lon="11.1794934"><ele>178.0</ele><time>2026-04-29T17:16:32.38Z</time></trkpt><trkpt lat="43.4221483" lon="11.1795244"><ele>178.0</ele><time>2026-04-29T17:16:34.377Z</time></trkpt><trkpt lat="43.422082" lon="11.1795577"><ele>177.99999999999997</ele><time>2026-04-29T17:16:36.376Z</time></trkpt><trkpt lat="43.4220139" lon="11.1795877"><ele>178.0</ele><time>2026-04-29T17:16:38.379Z</time></trkpt><trkpt lat="43.421946" lon="11.179628"><ele>177.7142857142857</ele><time>2026-04-29T17:16:40.376Z</time></trkpt><trkpt lat="43.4218737" lon="11.1796663"><ele>177.42857142857142</ele><time>2026-04-29T17:16:42.385Z</time></trkpt><trkpt lat="43.4218004" lon="11.1796998"><ele>177.14285714285714</ele><time>2026-04-29T17:16:44.38Z</time></trkpt><trkpt lat="43.4217302" lon="11.1797389"><ele>176.85714285714283</ele><time>2026-04-29T17:16:46.369Z</time></trkpt><trkpt lat="43.4216632" lon="11.1797733"><ele>176.57142857142856</ele><time>2026-04-29T17:16:48.369Z</time></trkpt><trkpt lat="43.4215981" lon="11.1797997"><ele>176.28571428571428</ele><time>2026-04-29T17:16:50.385Z</time></trkpt><trkpt lat="43.4215296" lon="11.1798068"><ele>176.0</ele><time>2026-04-29T17:16:52.365Z</time></trkpt><trkpt lat="43.4214585" lon="11.1797931"><ele>176.0</ele><time>2026-04-29T17:16:54.378Z</time></trkpt><trkpt lat="43.4213911" lon="11.1797792"><ele>176.0</ele><time>2026-04-29T17:16:56.363Z</time></trkpt><trkpt lat="43.4213148" lon="11.1798167"><ele>176.0</ele><time>2026-04-29T17:16:58.367Z</time></trkpt><trkpt lat="43.4212674" lon="11.1798952"><ele>176.0</ele><time>2026-04-29T17:17:00.367Z</time></trkpt><trkpt lat="43.421257" lon="11.1800019"><ele>176.0</ele><time>2026-04-29T17:17:02.377Z</time></trkpt><trkpt lat="43.4212967" lon="11.1801208"><ele>176.0</ele><time>2026-04-29T17:17:04.374Z</time></trkpt><trkpt lat="43.4213679" lon="11.1802215"><ele>175.60000000000002</ele><time>2026-04-29T17:17:06.38Z</time></trkpt><trkpt lat="43.4214346" lon="11.1803412"><ele>175.2</ele><time>2026-04-29T17:17:08.377Z</time></trkpt><trkpt lat="43.4214909" lon="11.1804915"><ele>174.8</ele><time>2026-04-29T17:17:10.376Z</time></trkpt><trkpt lat="43.4215204" lon="11.1805693"><ele>174.39999999999998</ele><time>2026-04-29T17:17:11.389Z</time></trkpt><trkpt lat="43.4215723" lon="11.1806997"><ele>174.0</ele><time>2026-04-29T17:17:13.379Z</time></trkpt><trkpt lat="43.4215963" lon="11.1807826"><ele>174.0</ele><time>2026-04-29T17:17:16.377Z</time></trkpt><trkpt lat="43.4216438" lon="11.1807009"><ele>174.0</ele><time>2026-04-29T17:17:20.378Z</time></trkpt><trkpt lat="43.4217125" lon="11.1806432"><ele>174.0</ele><time>2026-04-29T17:17:23.39Z</time></trkpt><trkpt lat="43.4217828" lon="11.1805948"><ele>174.0</ele><time>2026-04-29T17:17:26.384Z</time></trkpt><trkpt lat="43.4218548" lon="11.1805424"><ele>174.0</ele><time>2026-04-29T17:17:29.383Z</time></trkpt><trkpt lat="43.4219226" lon="11.1804856"><ele>174.0</ele><time>2026-04-29T17:17:32.377Z</time></trkpt><trkpt lat="43.4219917" lon="11.1804272"><ele>173.85714285714286</ele><time>2026-04-29T17:17:35.389Z</time></trkpt><trkpt lat="43.4220652" lon="11.1803713"><ele>173.71428571428572</ele><time>2026-04-29T17:17:38.381Z</time></trkpt><trkpt lat="43.4221333" lon="11.1803666"><ele>173.57142857142856</ele><time>2026-04-29T17:17:41.383Z</time></trkpt><trkpt lat="43.4221445" lon="11.1804536"><ele>173.42857142857144</ele><time>2026-04-29T17:17:44.377Z</time></trkpt><trkpt lat="43.4221541" lon="11.1805578"><ele>173.2857142857143</ele><time>2026-04-29T17:17:47.373Z</time></trkpt><trkpt lat="43.4221703" lon="11.1806585"><ele>173.14285714285714</ele><time>2026-04-29T17:17:50.373Z</time></trkpt><trkpt lat="43.4221934" lon="11.1807406"><ele>173.0</ele><time>2026-04-29T17:17:52.365Z</time></trkpt><trkpt lat="43.4222167" lon="11.1808369"><ele>173.14285714285714</ele><time>2026-04-29T17:17:54.378Z</time></trkpt><trkpt lat="43.4222322" lon="11.1809468"><ele>173.2857142857143</ele><time>2026-04-29T17:17:56.366Z</time></trkpt><trkpt lat="43.4222464" lon="11.1810595"><ele>173.42857142857144</ele><time>2026-04-29T17:17:58.398Z</time></trkpt><trkpt lat="43.4222355" lon="11.1811472"><ele>173.57142857142856</ele><time>2026-04-29T17:18:00.377Z</time></trkpt><trkpt lat="43.4221906" lon="11.181208"><ele>173.71428571428572</ele><time>2026-04-29T17:18:03.366Z</time></trkpt><trkpt lat="43.4221326" lon="11.181259"><ele>173.85714285714286</ele><time>2026-04-29T17:18:08.373Z</time></trkpt><trkpt lat="43.4221876" lon="11.1811681"><ele>174.0</ele><time>2026-04-29T17:18:14.378Z</time></trkpt><trkpt lat="43.4222099" lon="11.1810635"><ele>170.0</ele><time>2026-04-29T17:18:18.36Z</time></trkpt><trkpt lat="43.42217" lon="11.1811544"><ele>170.0</ele><time>2026-04-29T17:19:18.367Z</time></trkpt><trkpt lat="43.4221102" lon="11.1811958"><ele>174.0</ele><time>2026-04-29T17:19:22.374Z</time></trkpt><trkpt lat="43.4220482" lon="11.1812239"><ele>174.0</ele><time>2026-04-29T17:19:49.375Z</time></trkpt><trkpt lat="43.422051" lon="11.181314"><ele>174.0</ele><time>2026-04-29T17:20:09.385Z</time></trkpt></trkseg></trk></gpx>